<?xml version="1.0" encoding="UTF-8" standalone="no" ?>
<gpx xmlns="http://www.topografix.com/GPX/1/1" xmlns:xsi="http://www.w3.org/2001/XMLSchema-instance" xsi:schemaLocation="http://www.topografix.com/GPX/1/1 http://www.topografix.com/GPX/1/1/gpx.xsd" version="1.1" creator="VisuGPX - https://www.visugpx.com">
  <metadata>
    <name>Championnat du Canigo</name>
  </metadata>
  <trk>
    <name><![CDATA[Move]]></name>
    <extensions>
      <line xmlns="http://www.topografix.com/GPX/gpx_style/0/2">
        <color>0000FF</color>
        <width>4</width>
      </line>
    </extensions>
    <trkseg>
      <trkpt lat="42.54725" lon="2.38977">
        <ele>664.6</ele>
        <time>2018-08-05T05:00:09.05Z</time>
      </trkpt>
      <trkpt lat="42.54711" lon="2.38985">
        <ele>664.7</ele>
        <time>2018-08-05T05:00:26.05Z</time>
      </trkpt>
      <trkpt lat="42.547" lon="2.3899">
        <ele>664.8</ele>
        <time>2018-08-05T05:00:32.05Z</time>
      </trkpt>
      <trkpt lat="42.5469" lon="2.38996">
        <ele>665.1</ele>
        <time>2018-08-05T05:00:36.05Z</time>
      </trkpt>
      <trkpt lat="42.54679" lon="2.39001">
        <ele>665.4</ele>
        <time>2018-08-05T05:00:40.05Z</time>
      </trkpt>
      <trkpt lat="42.54668" lon="2.39006">
        <ele>665.5</ele>
        <time>2018-08-05T05:00:44.05Z</time>
      </trkpt>
      <trkpt lat="42.54657" lon="2.39011">
        <ele>665.5</ele>
        <time>2018-08-05T05:00:48.05Z</time>
      </trkpt>
      <trkpt lat="42.54646" lon="2.3902">
        <ele>665.8</ele>
        <time>2018-08-05T05:00:53.05Z</time>
      </trkpt>
      <trkpt lat="42.54635" lon="2.39024">
        <ele>665.7</ele>
        <time>2018-08-05T05:00:57.05Z</time>
      </trkpt>
      <trkpt lat="42.54624" lon="2.39028">
        <ele>665.6</ele>
        <time>2018-08-05T05:01:01.05Z</time>
      </trkpt>
      <trkpt lat="42.54614" lon="2.39034">
        <ele>665.8</ele>
        <time>2018-08-05T05:01:06.05Z</time>
      </trkpt>
      <trkpt lat="42.54606" lon="2.39044">
        <ele>666.6</ele>
        <time>2018-08-05T05:01:09.05Z</time>
      </trkpt>
      <trkpt lat="42.54594" lon="2.39051">
        <ele>666.9</ele>
        <time>2018-08-05T05:01:13.05Z</time>
      </trkpt>
      <trkpt lat="42.54584" lon="2.39058">
        <ele>667.3</ele>
        <time>2018-08-05T05:01:17.05Z</time>
      </trkpt>
      <trkpt lat="42.54575" lon="2.39064">
        <ele>668.3</ele>
        <time>2018-08-05T05:01:21.05Z</time>
      </trkpt>
      <trkpt lat="42.54566" lon="2.3907">
        <ele>669.4</ele>
        <time>2018-08-05T05:01:25.05Z</time>
      </trkpt>
      <trkpt lat="42.54557" lon="2.39075">
        <ele>670.5</ele>
        <time>2018-08-05T05:01:29.05Z</time>
      </trkpt>
      <trkpt lat="42.54545" lon="2.39078">
        <ele>671.5</ele>
        <time>2018-08-05T05:01:34.05Z</time>
      </trkpt>
      <trkpt lat="42.54534" lon="2.3908">
        <ele>672.5</ele>
        <time>2018-08-05T05:01:39.05Z</time>
      </trkpt>
      <trkpt lat="42.54524" lon="2.39081">
        <ele>673.2</ele>
        <time>2018-08-05T05:01:43.05Z</time>
      </trkpt>
      <trkpt lat="42.54513" lon="2.39081">
        <ele>673.8</ele>
        <time>2018-08-05T05:01:47.05Z</time>
      </trkpt>
      <trkpt lat="42.54502" lon="2.39083">
        <ele>674.8</ele>
        <time>2018-08-05T05:01:51.05Z</time>
      </trkpt>
      <trkpt lat="42.54492" lon="2.39086">
        <ele>675.5</ele>
        <time>2018-08-05T05:01:55.05Z</time>
      </trkpt>
      <trkpt lat="42.5448" lon="2.39091">
        <ele>676.6</ele>
        <time>2018-08-05T05:02:00.05Z</time>
      </trkpt>
      <trkpt lat="42.54471" lon="2.39094">
        <ele>676.9</ele>
        <time>2018-08-05T05:02:04.05Z</time>
      </trkpt>
      <trkpt lat="42.5446" lon="2.39098">
        <ele>677.2</ele>
        <time>2018-08-05T05:02:08.05Z</time>
      </trkpt>
      <trkpt lat="42.54449" lon="2.39102">
        <ele>677.4</ele>
        <time>2018-08-05T05:02:12.05Z</time>
      </trkpt>
      <trkpt lat="42.5444" lon="2.39108">
        <ele>678.3</ele>
        <time>2018-08-05T05:02:16.05Z</time>
      </trkpt>
      <trkpt lat="42.54429" lon="2.39117">
        <ele>679.6</ele>
        <time>2018-08-05T05:02:21.05Z</time>
      </trkpt>
      <trkpt lat="42.54421" lon="2.39128">
        <ele>681.6</ele>
        <time>2018-08-05T05:02:25.05Z</time>
      </trkpt>
      <trkpt lat="42.54413" lon="2.3914">
        <ele>683.9</ele>
        <time>2018-08-05T05:02:29.05Z</time>
      </trkpt>
      <trkpt lat="42.54404" lon="2.3915">
        <ele>685.3</ele>
        <time>2018-08-05T05:02:33.05Z</time>
      </trkpt>
      <trkpt lat="42.54398" lon="2.39163">
        <ele>687.2</ele>
        <time>2018-08-05T05:02:38.05Z</time>
      </trkpt>
      <trkpt lat="42.54389" lon="2.39171">
        <ele>688.2</ele>
        <time>2018-08-05T05:02:42.05Z</time>
      </trkpt>
      <trkpt lat="42.54381" lon="2.39181">
        <ele>691.1</ele>
        <time>2018-08-05T05:02:46.05Z</time>
      </trkpt>
      <trkpt lat="42.54371" lon="2.39188">
        <ele>691.6</ele>
        <time>2018-08-05T05:02:51.05Z</time>
      </trkpt>
      <trkpt lat="42.54362" lon="2.39194">
        <ele>691.6</ele>
        <time>2018-08-05T05:02:55.05Z</time>
      </trkpt>
      <trkpt lat="42.54351" lon="2.392">
        <ele>690.7</ele>
        <time>2018-08-05T05:02:59.05Z</time>
      </trkpt>
      <trkpt lat="42.54339" lon="2.39205">
        <ele>688.7</ele>
        <time>2018-08-05T05:03:04.05Z</time>
      </trkpt>
      <trkpt lat="42.54329" lon="2.3921">
        <ele>688.3</ele>
        <time>2018-08-05T05:03:08.05Z</time>
      </trkpt>
      <trkpt lat="42.54319" lon="2.39214">
        <ele>688.8</ele>
        <time>2018-08-05T05:03:12.05Z</time>
      </trkpt>
      <trkpt lat="42.54308" lon="2.39218">
        <ele>689</ele>
        <time>2018-08-05T05:03:17.05Z</time>
      </trkpt>
      <trkpt lat="42.54297" lon="2.39223">
        <ele>689.2</ele>
        <time>2018-08-05T05:03:22.05Z</time>
      </trkpt>
      <trkpt lat="42.54287" lon="2.39227">
        <ele>689.1</ele>
        <time>2018-08-05T05:03:26.05Z</time>
      </trkpt>
      <trkpt lat="42.54278" lon="2.39233">
        <ele>689.3</ele>
        <time>2018-08-05T05:03:31.05Z</time>
      </trkpt>
      <trkpt lat="42.54268" lon="2.39237">
        <ele>688.7</ele>
        <time>2018-08-05T05:03:35.05Z</time>
      </trkpt>
      <trkpt lat="42.54257" lon="2.39241">
        <ele>687.8</ele>
        <time>2018-08-05T05:03:39.05Z</time>
      </trkpt>
      <trkpt lat="42.54247" lon="2.39244">
        <ele>687.3</ele>
        <time>2018-08-05T05:03:43.05Z</time>
      </trkpt>
      <trkpt lat="42.54237" lon="2.39248">
        <ele>688.1</ele>
        <time>2018-08-05T05:03:47.05Z</time>
      </trkpt>
      <trkpt lat="42.54226" lon="2.39253">
        <ele>689.4</ele>
        <time>2018-08-05T05:03:52.05Z</time>
      </trkpt>
      <trkpt lat="42.54216" lon="2.39257">
        <ele>690.8</ele>
        <time>2018-08-05T05:03:56.05Z</time>
      </trkpt>
      <trkpt lat="42.54206" lon="2.39261">
        <ele>692.1</ele>
        <time>2018-08-05T05:04:00.05Z</time>
      </trkpt>
      <trkpt lat="42.54196" lon="2.39264">
        <ele>693</ele>
        <time>2018-08-05T05:04:04.05Z</time>
      </trkpt>
      <trkpt lat="42.54186" lon="2.39267">
        <ele>693.9</ele>
        <time>2018-08-05T05:04:08.05Z</time>
      </trkpt>
      <trkpt lat="42.54175" lon="2.3927">
        <ele>694.7</ele>
        <time>2018-08-05T05:04:13.05Z</time>
      </trkpt>
      <trkpt lat="42.54164" lon="2.39274">
        <ele>695.7</ele>
        <time>2018-08-05T05:04:18.05Z</time>
      </trkpt>
      <trkpt lat="42.54153" lon="2.39279">
        <ele>696.4</ele>
        <time>2018-08-05T05:04:23.05Z</time>
      </trkpt>
      <trkpt lat="42.54143" lon="2.39286">
        <ele>697.5</ele>
        <time>2018-08-05T05:04:28.05Z</time>
      </trkpt>
      <trkpt lat="42.54134" lon="2.39295">
        <ele>698.7</ele>
        <time>2018-08-05T05:04:33.05Z</time>
      </trkpt>
      <trkpt lat="42.54126" lon="2.39305">
        <ele>699.8</ele>
        <time>2018-08-05T05:04:37.05Z</time>
      </trkpt>
      <trkpt lat="42.54118" lon="2.39317">
        <ele>701</ele>
        <time>2018-08-05T05:04:41.05Z</time>
      </trkpt>
      <trkpt lat="42.5411" lon="2.39328">
        <ele>701.8</ele>
        <time>2018-08-05T05:04:46.05Z</time>
      </trkpt>
      <trkpt lat="42.54102" lon="2.39339">
        <ele>702.8</ele>
        <time>2018-08-05T05:04:51.05Z</time>
      </trkpt>
      <trkpt lat="42.54093" lon="2.39349">
        <ele>704.1</ele>
        <time>2018-08-05T05:04:56.05Z</time>
      </trkpt>
      <trkpt lat="42.54083" lon="2.39355">
        <ele>704.2</ele>
        <time>2018-08-05T05:05:00.05Z</time>
      </trkpt>
      <trkpt lat="42.54074" lon="2.3936">
        <ele>706.1</ele>
        <time>2018-08-05T05:05:04.05Z</time>
      </trkpt>
      <trkpt lat="42.54064" lon="2.39363">
        <ele>707.6</ele>
        <time>2018-08-05T05:05:08.05Z</time>
      </trkpt>
      <trkpt lat="42.54053" lon="2.39364">
        <ele>708.7</ele>
        <time>2018-08-05T05:05:12.05Z</time>
      </trkpt>
      <trkpt lat="42.54042" lon="2.39363">
        <ele>709.3</ele>
        <time>2018-08-05T05:05:16.05Z</time>
      </trkpt>
      <trkpt lat="42.54032" lon="2.39362">
        <ele>709.8</ele>
        <time>2018-08-05T05:05:20.05Z</time>
      </trkpt>
      <trkpt lat="42.54021" lon="2.39359">
        <ele>709.8</ele>
        <time>2018-08-05T05:05:24.05Z</time>
      </trkpt>
      <trkpt lat="42.54009" lon="2.39355">
        <ele>709.6</ele>
        <time>2018-08-05T05:05:30.05Z</time>
      </trkpt>
      <trkpt lat="42.53998" lon="2.39351">
        <ele>709.4</ele>
        <time>2018-08-05T05:05:34.05Z</time>
      </trkpt>
      <trkpt lat="42.53988" lon="2.39346">
        <ele>709.7</ele>
        <time>2018-08-05T05:05:38.05Z</time>
      </trkpt>
      <trkpt lat="42.53977" lon="2.3934">
        <ele>709.7</ele>
        <time>2018-08-05T05:05:42.05Z</time>
      </trkpt>
      <trkpt lat="42.53965" lon="2.39336">
        <ele>710.3</ele>
        <time>2018-08-05T05:05:47.05Z</time>
      </trkpt>
      <trkpt lat="42.53953" lon="2.39334">
        <ele>711.6</ele>
        <time>2018-08-05T05:05:51.05Z</time>
      </trkpt>
      <trkpt lat="42.53943" lon="2.39333">
        <ele>712.9</ele>
        <time>2018-08-05T05:05:55.05Z</time>
      </trkpt>
      <trkpt lat="42.53932" lon="2.39331">
        <ele>714.5</ele>
        <time>2018-08-05T05:05:59.05Z</time>
      </trkpt>
      <trkpt lat="42.53922" lon="2.39329">
        <ele>715.9</ele>
        <time>2018-08-05T05:06:03.05Z</time>
      </trkpt>
      <trkpt lat="42.53911" lon="2.39328">
        <ele>716.5</ele>
        <time>2018-08-05T05:06:07.05Z</time>
      </trkpt>
      <trkpt lat="42.53899" lon="2.39328">
        <ele>716.1</ele>
        <time>2018-08-05T05:06:11.05Z</time>
      </trkpt>
      <trkpt lat="42.5389" lon="2.39334">
        <ele>715.9</ele>
        <time>2018-08-05T05:06:15.05Z</time>
      </trkpt>
      <trkpt lat="42.53882" lon="2.39343">
        <ele>718.2</ele>
        <time>2018-08-05T05:06:19.05Z</time>
      </trkpt>
      <trkpt lat="42.53873" lon="2.39351">
        <ele>719.7</ele>
        <time>2018-08-05T05:06:23.05Z</time>
      </trkpt>
      <trkpt lat="42.53865" lon="2.3936">
        <ele>721.2</ele>
        <time>2018-08-05T05:06:27.05Z</time>
      </trkpt>
      <trkpt lat="42.53859" lon="2.39371">
        <ele>723.1</ele>
        <time>2018-08-05T05:06:31.05Z</time>
      </trkpt>
      <trkpt lat="42.5385" lon="2.39382">
        <ele>724.1</ele>
        <time>2018-08-05T05:06:36.05Z</time>
      </trkpt>
      <trkpt lat="42.5384" lon="2.39392">
        <ele>724.2</ele>
        <time>2018-08-05T05:06:41.05Z</time>
      </trkpt>
      <trkpt lat="42.53832" lon="2.39402">
        <ele>724.6</ele>
        <time>2018-08-05T05:06:45.05Z</time>
      </trkpt>
      <trkpt lat="42.53823" lon="2.39413">
        <ele>726.9</ele>
        <time>2018-08-05T05:06:50.05Z</time>
      </trkpt>
      <trkpt lat="42.53814" lon="2.39417">
        <ele>728.1</ele>
        <time>2018-08-05T05:06:54.05Z</time>
      </trkpt>
      <trkpt lat="42.53804" lon="2.39419">
        <ele>729.4</ele>
        <time>2018-08-05T05:06:58.05Z</time>
      </trkpt>
      <trkpt lat="42.53793" lon="2.39414">
        <ele>728.5</ele>
        <time>2018-08-05T05:07:03.05Z</time>
      </trkpt>
      <trkpt lat="42.53782" lon="2.39409">
        <ele>728.2</ele>
        <time>2018-08-05T05:07:07.05Z</time>
      </trkpt>
      <trkpt lat="42.53772" lon="2.39403">
        <ele>727.8</ele>
        <time>2018-08-05T05:07:12.05Z</time>
      </trkpt>
      <trkpt lat="42.5376" lon="2.39396">
        <ele>727.3</ele>
        <time>2018-08-05T05:07:17.05Z</time>
      </trkpt>
      <trkpt lat="42.53751" lon="2.39391">
        <ele>726.9</ele>
        <time>2018-08-05T05:07:21.05Z</time>
      </trkpt>
      <trkpt lat="42.5374" lon="2.39387">
        <ele>727.3</ele>
        <time>2018-08-05T05:07:26.05Z</time>
      </trkpt>
      <trkpt lat="42.53729" lon="2.39386">
        <ele>728.1</ele>
        <time>2018-08-05T05:07:31.05Z</time>
      </trkpt>
      <trkpt lat="42.53719" lon="2.39382">
        <ele>728.4</ele>
        <time>2018-08-05T05:07:35.05Z</time>
      </trkpt>
      <trkpt lat="42.53708" lon="2.39377">
        <ele>728.6</ele>
        <time>2018-08-05T05:07:40.05Z</time>
      </trkpt>
      <trkpt lat="42.53698" lon="2.39374">
        <ele>729</ele>
        <time>2018-08-05T05:07:46.05Z</time>
      </trkpt>
      <trkpt lat="42.53688" lon="2.39369">
        <ele>729.2</ele>
        <time>2018-08-05T05:07:50.05Z</time>
      </trkpt>
      <trkpt lat="42.53678" lon="2.39361">
        <ele>728.9</ele>
        <time>2018-08-05T05:07:55.05Z</time>
      </trkpt>
      <trkpt lat="42.53669" lon="2.39354">
        <ele>728.8</ele>
        <time>2018-08-05T05:07:59.05Z</time>
      </trkpt>
      <trkpt lat="42.53661" lon="2.39345">
        <ele>728.5</ele>
        <time>2018-08-05T05:08:03.05Z</time>
      </trkpt>
      <trkpt lat="42.53654" lon="2.39332">
        <ele>727.8</ele>
        <time>2018-08-05T05:08:07.05Z</time>
      </trkpt>
      <trkpt lat="42.53647" lon="2.39317">
        <ele>728</ele>
        <time>2018-08-05T05:08:12.05Z</time>
      </trkpt>
      <trkpt lat="42.53641" lon="2.39305">
        <ele>728.1</ele>
        <time>2018-08-05T05:08:16.05Z</time>
      </trkpt>
      <trkpt lat="42.53633" lon="2.39296">
        <ele>728.7</ele>
        <time>2018-08-05T05:08:20.05Z</time>
      </trkpt>
      <trkpt lat="42.53624" lon="2.39288">
        <ele>729.4</ele>
        <time>2018-08-05T05:08:24.05Z</time>
      </trkpt>
      <trkpt lat="42.53614" lon="2.39285">
        <ele>730.5</ele>
        <time>2018-08-05T05:08:29.05Z</time>
      </trkpt>
      <trkpt lat="42.53604" lon="2.39292">
        <ele>732.3</ele>
        <time>2018-08-05T05:08:34.05Z</time>
      </trkpt>
      <trkpt lat="42.53597" lon="2.39302">
        <ele>733.9</ele>
        <time>2018-08-05T05:08:38.05Z</time>
      </trkpt>
      <trkpt lat="42.53592" lon="2.39317">
        <ele>735.6</ele>
        <time>2018-08-05T05:08:43.05Z</time>
      </trkpt>
      <trkpt lat="42.53586" lon="2.39327">
        <ele>737.2</ele>
        <time>2018-08-05T05:08:54.05Z</time>
      </trkpt>
      <trkpt lat="42.53574" lon="2.39324">
        <ele>738.8</ele>
        <time>2018-08-05T05:09:02.05Z</time>
      </trkpt>
      <trkpt lat="42.53563" lon="2.39322">
        <ele>740.5</ele>
        <time>2018-08-05T05:09:08.05Z</time>
      </trkpt>
      <trkpt lat="42.53551" lon="2.39321">
        <ele>742.3</ele>
        <time>2018-08-05T05:09:13.05Z</time>
      </trkpt>
      <trkpt lat="42.53543" lon="2.39314">
        <ele>743.2</ele>
        <time>2018-08-05T05:09:19.05Z</time>
      </trkpt>
      <trkpt lat="42.53534" lon="2.39306">
        <ele>744.3</ele>
        <time>2018-08-05T05:09:24.05Z</time>
      </trkpt>
      <trkpt lat="42.53526" lon="2.39298">
        <ele>745.3</ele>
        <time>2018-08-05T05:09:30.05Z</time>
      </trkpt>
      <trkpt lat="42.53516" lon="2.39291">
        <ele>746.7</ele>
        <time>2018-08-05T05:09:36.05Z</time>
      </trkpt>
      <trkpt lat="42.53504" lon="2.39286">
        <ele>748.6</ele>
        <time>2018-08-05T05:09:41.05Z</time>
      </trkpt>
      <trkpt lat="42.53496" lon="2.3928">
        <ele>749.8</ele>
        <time>2018-08-05T05:09:45.05Z</time>
      </trkpt>
      <trkpt lat="42.53493" lon="2.39264">
        <ele>749.7</ele>
        <time>2018-08-05T05:09:50.05Z</time>
      </trkpt>
      <trkpt lat="42.5349" lon="2.39248">
        <ele>749.4</ele>
        <time>2018-08-05T05:09:55.05Z</time>
      </trkpt>
      <trkpt lat="42.53483" lon="2.39234">
        <ele>749.2</ele>
        <time>2018-08-05T05:10:00.05Z</time>
      </trkpt>
      <trkpt lat="42.53475" lon="2.39225">
        <ele>749.4</ele>
        <time>2018-08-05T05:10:06.05Z</time>
      </trkpt>
      <trkpt lat="42.53465" lon="2.3922">
        <ele>750.3</ele>
        <time>2018-08-05T05:10:11.05Z</time>
      </trkpt>
      <trkpt lat="42.53454" lon="2.39217">
        <ele>751.5</ele>
        <time>2018-08-05T05:10:15.05Z</time>
      </trkpt>
      <trkpt lat="42.53444" lon="2.39212">
        <ele>752.3</ele>
        <time>2018-08-05T05:10:20.05Z</time>
      </trkpt>
      <trkpt lat="42.53434" lon="2.39207">
        <ele>753</ele>
        <time>2018-08-05T05:10:25.05Z</time>
      </trkpt>
      <trkpt lat="42.53424" lon="2.39207">
        <ele>754.4</ele>
        <time>2018-08-05T05:10:30.05Z</time>
      </trkpt>
      <trkpt lat="42.53414" lon="2.39208">
        <ele>755.9</ele>
        <time>2018-08-05T05:10:35.05Z</time>
      </trkpt>
      <trkpt lat="42.53406" lon="2.39218">
        <ele>758.4</ele>
        <time>2018-08-05T05:10:41.05Z</time>
      </trkpt>
      <trkpt lat="42.53398" lon="2.39228">
        <ele>760.9</ele>
        <time>2018-08-05T05:10:48.05Z</time>
      </trkpt>
      <trkpt lat="42.53388" lon="2.39232">
        <ele>763</ele>
        <time>2018-08-05T05:10:53.05Z</time>
      </trkpt>
      <trkpt lat="42.53379" lon="2.39239">
        <ele>765.4</ele>
        <time>2018-08-05T05:10:58.05Z</time>
      </trkpt>
      <trkpt lat="42.53369" lon="2.39246">
        <ele>767.9</ele>
        <time>2018-08-05T05:11:05.05Z</time>
      </trkpt>
      <trkpt lat="42.53362" lon="2.39257">
        <ele>770.2</ele>
        <time>2018-08-05T05:11:12.05Z</time>
      </trkpt>
      <trkpt lat="42.53353" lon="2.39265">
        <ele>772.2</ele>
        <time>2018-08-05T05:11:19.05Z</time>
      </trkpt>
      <trkpt lat="42.53341" lon="2.39269">
        <ele>774.3</ele>
        <time>2018-08-05T05:11:24.05Z</time>
      </trkpt>
      <trkpt lat="42.5333" lon="2.39272">
        <ele>775.5</ele>
        <time>2018-08-05T05:11:30.05Z</time>
      </trkpt>
      <trkpt lat="42.53322" lon="2.39278">
        <ele>775.6</ele>
        <time>2018-08-05T05:11:35.05Z</time>
      </trkpt>
      <trkpt lat="42.53314" lon="2.39287">
        <ele>776</ele>
        <time>2018-08-05T05:11:41.05Z</time>
      </trkpt>
      <trkpt lat="42.53305" lon="2.39298">
        <ele>776.4</ele>
        <time>2018-08-05T05:11:47.05Z</time>
      </trkpt>
      <trkpt lat="42.53296" lon="2.39309">
        <ele>776.9</ele>
        <time>2018-08-05T05:11:52.05Z</time>
      </trkpt>
      <trkpt lat="42.53293" lon="2.39322">
        <ele>777.7</ele>
        <time>2018-08-05T05:11:56.05Z</time>
      </trkpt>
      <trkpt lat="42.53291" lon="2.39337">
        <ele>778.9</ele>
        <time>2018-08-05T05:12:01.05Z</time>
      </trkpt>
      <trkpt lat="42.53284" lon="2.3935">
        <ele>780.1</ele>
        <time>2018-08-05T05:12:06.05Z</time>
      </trkpt>
      <trkpt lat="42.53274" lon="2.39354">
        <ele>780.2</ele>
        <time>2018-08-05T05:12:10.05Z</time>
      </trkpt>
      <trkpt lat="42.53265" lon="2.39357">
        <ele>780.3</ele>
        <time>2018-08-05T05:12:14.05Z</time>
      </trkpt>
      <trkpt lat="42.53253" lon="2.39359">
        <ele>780.2</ele>
        <time>2018-08-05T05:12:19.05Z</time>
      </trkpt>
      <trkpt lat="42.53242" lon="2.3936">
        <ele>780.6</ele>
        <time>2018-08-05T05:12:24.05Z</time>
      </trkpt>
      <trkpt lat="42.5323" lon="2.39355">
        <ele>780.7</ele>
        <time>2018-08-05T05:12:29.05Z</time>
      </trkpt>
      <trkpt lat="42.53221" lon="2.39351">
        <ele>780.8</ele>
        <time>2018-08-05T05:12:33.05Z</time>
      </trkpt>
      <trkpt lat="42.53211" lon="2.39344">
        <ele>780.8</ele>
        <time>2018-08-05T05:12:38.05Z</time>
      </trkpt>
      <trkpt lat="42.53201" lon="2.39339">
        <ele>781</ele>
        <time>2018-08-05T05:12:43.05Z</time>
      </trkpt>
      <trkpt lat="42.53191" lon="2.39332">
        <ele>781.2</ele>
        <time>2018-08-05T05:12:48.05Z</time>
      </trkpt>
      <trkpt lat="42.53182" lon="2.39326">
        <ele>781.6</ele>
        <time>2018-08-05T05:12:53.05Z</time>
      </trkpt>
      <trkpt lat="42.53171" lon="2.3932">
        <ele>782.2</ele>
        <time>2018-08-05T05:12:58.05Z</time>
      </trkpt>
      <trkpt lat="42.5316" lon="2.39314">
        <ele>783.3</ele>
        <time>2018-08-05T05:13:03.05Z</time>
      </trkpt>
      <trkpt lat="42.5315" lon="2.3931">
        <ele>784.6</ele>
        <time>2018-08-05T05:13:08.05Z</time>
      </trkpt>
      <trkpt lat="42.53139" lon="2.39303">
        <ele>785.9</ele>
        <time>2018-08-05T05:13:13.05Z</time>
      </trkpt>
      <trkpt lat="42.53129" lon="2.39296">
        <ele>787.1</ele>
        <time>2018-08-05T05:13:18.05Z</time>
      </trkpt>
      <trkpt lat="42.53118" lon="2.3929">
        <ele>788.4</ele>
        <time>2018-08-05T05:13:23.05Z</time>
      </trkpt>
      <trkpt lat="42.5311" lon="2.39282">
        <ele>789.3</ele>
        <time>2018-08-05T05:13:27.05Z</time>
      </trkpt>
      <trkpt lat="42.53102" lon="2.39273">
        <ele>790.1</ele>
        <time>2018-08-05T05:13:32.05Z</time>
      </trkpt>
      <trkpt lat="42.53093" lon="2.39263">
        <ele>791.1</ele>
        <time>2018-08-05T05:13:37.05Z</time>
      </trkpt>
      <trkpt lat="42.53083" lon="2.39254">
        <ele>792.2</ele>
        <time>2018-08-05T05:13:42.05Z</time>
      </trkpt>
      <trkpt lat="42.53073" lon="2.39245">
        <ele>792.6</ele>
        <time>2018-08-05T05:13:47.05Z</time>
      </trkpt>
      <trkpt lat="42.53064" lon="2.39236">
        <ele>792.8</ele>
        <time>2018-08-05T05:13:52.05Z</time>
      </trkpt>
      <trkpt lat="42.53053" lon="2.39228">
        <ele>793.1</ele>
        <time>2018-08-05T05:13:57.05Z</time>
      </trkpt>
      <trkpt lat="42.53043" lon="2.39219">
        <ele>793.2</ele>
        <time>2018-08-05T05:14:02.05Z</time>
      </trkpt>
      <trkpt lat="42.53034" lon="2.39212">
        <ele>793.2</ele>
        <time>2018-08-05T05:14:06.05Z</time>
      </trkpt>
      <trkpt lat="42.53024" lon="2.39203">
        <ele>793.1</ele>
        <time>2018-08-05T05:14:10.05Z</time>
      </trkpt>
      <trkpt lat="42.53013" lon="2.39194">
        <ele>793</ele>
        <time>2018-08-05T05:14:14.05Z</time>
      </trkpt>
      <trkpt lat="42.53004" lon="2.39186">
        <ele>792.7</ele>
        <time>2018-08-05T05:14:18.05Z</time>
      </trkpt>
      <trkpt lat="42.52994" lon="2.39182">
        <ele>792.4</ele>
        <time>2018-08-05T05:14:22.05Z</time>
      </trkpt>
      <trkpt lat="42.52984" lon="2.39186">
        <ele>792.7</ele>
        <time>2018-08-05T05:14:25.05Z</time>
      </trkpt>
      <trkpt lat="42.52972" lon="2.39188">
        <ele>792.9</ele>
        <time>2018-08-05T05:14:29.05Z</time>
      </trkpt>
      <trkpt lat="42.5296" lon="2.39189">
        <ele>793</ele>
        <time>2018-08-05T05:14:32.05Z</time>
      </trkpt>
      <trkpt lat="42.52949" lon="2.39188">
        <ele>792.8</ele>
        <time>2018-08-05T05:14:35.05Z</time>
      </trkpt>
      <trkpt lat="42.52939" lon="2.39186">
        <ele>792.4</ele>
        <time>2018-08-05T05:14:38.05Z</time>
      </trkpt>
      <trkpt lat="42.52928" lon="2.39184">
        <ele>792</ele>
        <time>2018-08-05T05:14:42.05Z</time>
      </trkpt>
      <trkpt lat="42.52917" lon="2.39181">
        <ele>791.4</ele>
        <time>2018-08-05T05:14:46.05Z</time>
      </trkpt>
      <trkpt lat="42.52906" lon="2.3918">
        <ele>791.5</ele>
        <time>2018-08-05T05:14:50.05Z</time>
      </trkpt>
      <trkpt lat="42.52894" lon="2.39178">
        <ele>791.5</ele>
        <time>2018-08-05T05:14:54.05Z</time>
      </trkpt>
      <trkpt lat="42.52884" lon="2.39176">
        <ele>791.5</ele>
        <time>2018-08-05T05:14:58.05Z</time>
      </trkpt>
      <trkpt lat="42.52873" lon="2.39175">
        <ele>791.7</ele>
        <time>2018-08-05T05:15:02.05Z</time>
      </trkpt>
      <trkpt lat="42.52862" lon="2.39173">
        <ele>791.8</ele>
        <time>2018-08-05T05:15:06.05Z</time>
      </trkpt>
      <trkpt lat="42.5285" lon="2.39172">
        <ele>792</ele>
        <time>2018-08-05T05:15:10.05Z</time>
      </trkpt>
      <trkpt lat="42.52839" lon="2.39167">
        <ele>791.8</ele>
        <time>2018-08-05T05:15:14.05Z</time>
      </trkpt>
      <trkpt lat="42.52828" lon="2.39163">
        <ele>793.7</ele>
        <time>2018-08-05T05:15:18.05Z</time>
      </trkpt>
      <trkpt lat="42.52815" lon="2.39158">
        <ele>797.9</ele>
        <time>2018-08-05T05:15:23.05Z</time>
      </trkpt>
      <trkpt lat="42.52804" lon="2.39152">
        <ele>801.3</ele>
        <time>2018-08-05T05:15:27.05Z</time>
      </trkpt>
      <trkpt lat="42.52796" lon="2.39145">
        <ele>803.8</ele>
        <time>2018-08-05T05:15:31.05Z</time>
      </trkpt>
      <trkpt lat="42.52788" lon="2.39137">
        <ele>806.3</ele>
        <time>2018-08-05T05:15:35.05Z</time>
      </trkpt>
      <trkpt lat="42.52783" lon="2.39125">
        <ele>807.8</ele>
        <time>2018-08-05T05:15:40.05Z</time>
      </trkpt>
      <trkpt lat="42.52786" lon="2.39111">
        <ele>807</ele>
        <time>2018-08-05T05:15:44.05Z</time>
      </trkpt>
      <trkpt lat="42.5279" lon="2.39098">
        <ele>805.9</ele>
        <time>2018-08-05T05:15:49.05Z</time>
      </trkpt>
      <trkpt lat="42.52795" lon="2.39084">
        <ele>804.6</ele>
        <time>2018-08-05T05:15:56.05Z</time>
      </trkpt>
      <trkpt lat="42.52802" lon="2.39074">
        <ele>804.9</ele>
        <time>2018-08-05T05:16:02.05Z</time>
      </trkpt>
      <trkpt lat="42.52808" lon="2.39063">
        <ele>806.1</ele>
        <time>2018-08-05T05:16:07.05Z</time>
      </trkpt>
      <trkpt lat="42.52808" lon="2.39049">
        <ele>809.7</ele>
        <time>2018-08-05T05:16:13.05Z</time>
      </trkpt>
      <trkpt lat="42.528" lon="2.39041">
        <ele>813.3</ele>
        <time>2018-08-05T05:16:18.05Z</time>
      </trkpt>
      <trkpt lat="42.52791" lon="2.39036">
        <ele>816.1</ele>
        <time>2018-08-05T05:16:24.05Z</time>
      </trkpt>
      <trkpt lat="42.52781" lon="2.3903">
        <ele>819.2</ele>
        <time>2018-08-05T05:16:37.05Z</time>
      </trkpt>
      <trkpt lat="42.52771" lon="2.39023">
        <ele>822.3</ele>
        <time>2018-08-05T05:16:45.05Z</time>
      </trkpt>
      <trkpt lat="42.52761" lon="2.39019">
        <ele>824.6</ele>
        <time>2018-08-05T05:16:55.05Z</time>
      </trkpt>
      <trkpt lat="42.52751" lon="2.3902">
        <ele>826</ele>
        <time>2018-08-05T05:17:04.05Z</time>
      </trkpt>
      <trkpt lat="42.52741" lon="2.39026">
        <ele>826.7</ele>
        <time>2018-08-05T05:17:16.05Z</time>
      </trkpt>
      <trkpt lat="42.52734" lon="2.39036">
        <ele>826.6</ele>
        <time>2018-08-05T05:17:24.05Z</time>
      </trkpt>
      <trkpt lat="42.52725" lon="2.39043">
        <ele>827.3</ele>
        <time>2018-08-05T05:17:30.05Z</time>
      </trkpt>
      <trkpt lat="42.52715" lon="2.39049">
        <ele>828.5</ele>
        <time>2018-08-05T05:17:36.05Z</time>
      </trkpt>
      <trkpt lat="42.52704" lon="2.3905">
        <ele>830.5</ele>
        <time>2018-08-05T05:17:42.05Z</time>
      </trkpt>
      <trkpt lat="42.52692" lon="2.39048">
        <ele>833</ele>
        <time>2018-08-05T05:17:49.05Z</time>
      </trkpt>
      <trkpt lat="42.52682" lon="2.39043">
        <ele>835.2</ele>
        <time>2018-08-05T05:17:56.05Z</time>
      </trkpt>
      <trkpt lat="42.52672" lon="2.3904">
        <ele>837.1</ele>
        <time>2018-08-05T05:18:04.05Z</time>
      </trkpt>
      <trkpt lat="42.52663" lon="2.39033">
        <ele>839</ele>
        <time>2018-08-05T05:18:16.05Z</time>
      </trkpt>
      <trkpt lat="42.52653" lon="2.39027">
        <ele>840.7</ele>
        <time>2018-08-05T05:18:27.05Z</time>
      </trkpt>
      <trkpt lat="42.52645" lon="2.39016">
        <ele>842</ele>
        <time>2018-08-05T05:18:38.05Z</time>
      </trkpt>
      <trkpt lat="42.52638" lon="2.39007">
        <ele>843</ele>
        <time>2018-08-05T05:18:46.05Z</time>
      </trkpt>
      <trkpt lat="42.52629" lon="2.38999">
        <ele>844.3</ele>
        <time>2018-08-05T05:18:56.05Z</time>
      </trkpt>
      <trkpt lat="42.52619" lon="2.38991">
        <ele>847.4</ele>
        <time>2018-08-05T05:19:04.05Z</time>
      </trkpt>
      <trkpt lat="42.52609" lon="2.38986">
        <ele>849.6</ele>
        <time>2018-08-05T05:19:11.05Z</time>
      </trkpt>
      <trkpt lat="42.52598" lon="2.38981">
        <ele>851.7</ele>
        <time>2018-08-05T05:19:16.05Z</time>
      </trkpt>
      <trkpt lat="42.52588" lon="2.38976">
        <ele>853.6</ele>
        <time>2018-08-05T05:19:23.05Z</time>
      </trkpt>
      <trkpt lat="42.52579" lon="2.38968">
        <ele>856.4</ele>
        <time>2018-08-05T05:19:30.05Z</time>
      </trkpt>
      <trkpt lat="42.5257" lon="2.3896">
        <ele>859.7</ele>
        <time>2018-08-05T05:19:35.05Z</time>
      </trkpt>
      <trkpt lat="42.52561" lon="2.38951">
        <ele>862.7</ele>
        <time>2018-08-05T05:19:43.05Z</time>
      </trkpt>
      <trkpt lat="42.52553" lon="2.38942">
        <ele>865.1</ele>
        <time>2018-08-05T05:19:49.05Z</time>
      </trkpt>
      <trkpt lat="42.52545" lon="2.38935">
        <ele>866.9</ele>
        <time>2018-08-05T05:19:53.05Z</time>
      </trkpt>
      <trkpt lat="42.52536" lon="2.38929">
        <ele>868.5</ele>
        <time>2018-08-05T05:19:58.05Z</time>
      </trkpt>
      <trkpt lat="42.5253" lon="2.38918">
        <ele>869.8</ele>
        <time>2018-08-05T05:20:03.05Z</time>
      </trkpt>
      <trkpt lat="42.52523" lon="2.38906">
        <ele>872.8</ele>
        <time>2018-08-05T05:20:09.05Z</time>
      </trkpt>
      <trkpt lat="42.52517" lon="2.38894">
        <ele>875.4</ele>
        <time>2018-08-05T05:20:14.05Z</time>
      </trkpt>
      <trkpt lat="42.52513" lon="2.38881">
        <ele>877.7</ele>
        <time>2018-08-05T05:20:20.05Z</time>
      </trkpt>
      <trkpt lat="42.52508" lon="2.38868">
        <ele>879.5</ele>
        <time>2018-08-05T05:20:26.05Z</time>
      </trkpt>
      <trkpt lat="42.52506" lon="2.38853">
        <ele>881.6</ele>
        <time>2018-08-05T05:20:32.05Z</time>
      </trkpt>
      <trkpt lat="42.52503" lon="2.38839">
        <ele>883</ele>
        <time>2018-08-05T05:20:39.05Z</time>
      </trkpt>
      <trkpt lat="42.52497" lon="2.38828">
        <ele>884.8</ele>
        <time>2018-08-05T05:20:46.05Z</time>
      </trkpt>
      <trkpt lat="42.52493" lon="2.38813">
        <ele>889</ele>
        <time>2018-08-05T05:20:56.05Z</time>
      </trkpt>
      <trkpt lat="42.52487" lon="2.38802">
        <ele>891.7</ele>
        <time>2018-08-05T05:21:06.05Z</time>
      </trkpt>
      <trkpt lat="42.52481" lon="2.3879">
        <ele>894.2</ele>
        <time>2018-08-05T05:21:15.05Z</time>
      </trkpt>
      <trkpt lat="42.52474" lon="2.38776">
        <ele>896.4</ele>
        <time>2018-08-05T05:21:22.05Z</time>
      </trkpt>
      <trkpt lat="42.52467" lon="2.38765">
        <ele>897.4</ele>
        <time>2018-08-05T05:21:27.05Z</time>
      </trkpt>
      <trkpt lat="42.52459" lon="2.38755">
        <ele>897.5</ele>
        <time>2018-08-05T05:21:33.05Z</time>
      </trkpt>
      <trkpt lat="42.52449" lon="2.38748">
        <ele>896.5</ele>
        <time>2018-08-05T05:21:39.05Z</time>
      </trkpt>
      <trkpt lat="42.5244" lon="2.3874">
        <ele>896.5</ele>
        <time>2018-08-05T05:21:45.05Z</time>
      </trkpt>
      <trkpt lat="42.52432" lon="2.3873">
        <ele>897</ele>
        <time>2018-08-05T05:21:52.05Z</time>
      </trkpt>
      <trkpt lat="42.52424" lon="2.3872">
        <ele>897.1</ele>
        <time>2018-08-05T05:21:57.05Z</time>
      </trkpt>
      <trkpt lat="42.52416" lon="2.38711">
        <ele>897.1</ele>
        <time>2018-08-05T05:22:04.05Z</time>
      </trkpt>
      <trkpt lat="42.52407" lon="2.38704">
        <ele>899.6</ele>
        <time>2018-08-05T05:22:13.05Z</time>
      </trkpt>
      <trkpt lat="42.52398" lon="2.38696">
        <ele>902.1</ele>
        <time>2018-08-05T05:22:21.05Z</time>
      </trkpt>
      <trkpt lat="42.5239" lon="2.38688">
        <ele>904.2</ele>
        <time>2018-08-05T05:22:30.05Z</time>
      </trkpt>
      <trkpt lat="42.5238" lon="2.38682">
        <ele>905.8</ele>
        <time>2018-08-05T05:22:38.05Z</time>
      </trkpt>
      <trkpt lat="42.5237" lon="2.38677">
        <ele>907.2</ele>
        <time>2018-08-05T05:22:46.05Z</time>
      </trkpt>
      <trkpt lat="42.5236" lon="2.38673">
        <ele>908.2</ele>
        <time>2018-08-05T05:22:55.05Z</time>
      </trkpt>
      <trkpt lat="42.5235" lon="2.3867">
        <ele>909</ele>
        <time>2018-08-05T05:23:02.05Z</time>
      </trkpt>
      <trkpt lat="42.5234" lon="2.38665">
        <ele>910</ele>
        <time>2018-08-05T05:23:11.05Z</time>
      </trkpt>
      <trkpt lat="42.5233" lon="2.3866">
        <ele>911.7</ele>
        <time>2018-08-05T05:23:19.05Z</time>
      </trkpt>
      <trkpt lat="42.52319" lon="2.38656">
        <ele>913.8</ele>
        <time>2018-08-05T05:23:27.05Z</time>
      </trkpt>
      <trkpt lat="42.52308" lon="2.38656">
        <ele>915.1</ele>
        <time>2018-08-05T05:23:36.05Z</time>
      </trkpt>
      <trkpt lat="42.52298" lon="2.38658">
        <ele>916</ele>
        <time>2018-08-05T05:23:46.05Z</time>
      </trkpt>
      <trkpt lat="42.52288" lon="2.38664">
        <ele>916.4</ele>
        <time>2018-08-05T05:23:57.05Z</time>
      </trkpt>
      <trkpt lat="42.52279" lon="2.3867">
        <ele>917.3</ele>
        <time>2018-08-05T05:24:07.05Z</time>
      </trkpt>
      <trkpt lat="42.5227" lon="2.38678">
        <ele>918.9</ele>
        <time>2018-08-05T05:24:17.05Z</time>
      </trkpt>
      <trkpt lat="42.5226" lon="2.38686">
        <ele>920.8</ele>
        <time>2018-08-05T05:24:27.05Z</time>
      </trkpt>
      <trkpt lat="42.52251" lon="2.38678">
        <ele>921.7</ele>
        <time>2018-08-05T05:24:36.05Z</time>
      </trkpt>
      <trkpt lat="42.52243" lon="2.3867">
        <ele>922.6</ele>
        <time>2018-08-05T05:24:42.05Z</time>
      </trkpt>
      <trkpt lat="42.52238" lon="2.38658">
        <ele>924</ele>
        <time>2018-08-05T05:24:47.05Z</time>
      </trkpt>
      <trkpt lat="42.52234" lon="2.38642">
        <ele>926</ele>
        <time>2018-08-05T05:24:52.05Z</time>
      </trkpt>
      <trkpt lat="42.5223" lon="2.3863">
        <ele>927.6</ele>
        <time>2018-08-05T05:24:56.05Z</time>
      </trkpt>
      <trkpt lat="42.52224" lon="2.38619">
        <ele>929.3</ele>
        <time>2018-08-05T05:25:01.05Z</time>
      </trkpt>
      <trkpt lat="42.52214" lon="2.3861">
        <ele>931.3</ele>
        <time>2018-08-05T05:25:06.05Z</time>
      </trkpt>
      <trkpt lat="42.52204" lon="2.38608">
        <ele>932.7</ele>
        <time>2018-08-05T05:25:11.05Z</time>
      </trkpt>
      <trkpt lat="42.52192" lon="2.38607">
        <ele>934.4</ele>
        <time>2018-08-05T05:25:16.05Z</time>
      </trkpt>
      <trkpt lat="42.52182" lon="2.38605">
        <ele>935.7</ele>
        <time>2018-08-05T05:25:21.05Z</time>
      </trkpt>
      <trkpt lat="42.52172" lon="2.386">
        <ele>937.1</ele>
        <time>2018-08-05T05:25:28.05Z</time>
      </trkpt>
      <trkpt lat="42.52162" lon="2.38597">
        <ele>939</ele>
        <time>2018-08-05T05:25:34.05Z</time>
      </trkpt>
      <trkpt lat="42.52151" lon="2.38593">
        <ele>941.6</ele>
        <time>2018-08-05T05:25:41.05Z</time>
      </trkpt>
      <trkpt lat="42.52141" lon="2.3859">
        <ele>944</ele>
        <time>2018-08-05T05:25:47.05Z</time>
      </trkpt>
      <trkpt lat="42.52132" lon="2.38585">
        <ele>946</ele>
        <time>2018-08-05T05:25:54.05Z</time>
      </trkpt>
      <trkpt lat="42.52122" lon="2.38581">
        <ele>948.4</ele>
        <time>2018-08-05T05:26:02.05Z</time>
      </trkpt>
      <trkpt lat="42.52112" lon="2.38579">
        <ele>950.8</ele>
        <time>2018-08-05T05:26:11.05Z</time>
      </trkpt>
      <trkpt lat="42.52103" lon="2.38573">
        <ele>953.2</ele>
        <time>2018-08-05T05:26:21.05Z</time>
      </trkpt>
      <trkpt lat="42.52094" lon="2.38563">
        <ele>955.8</ele>
        <time>2018-08-05T05:26:31.05Z</time>
      </trkpt>
      <trkpt lat="42.52085" lon="2.38555">
        <ele>958</ele>
        <time>2018-08-05T05:26:38.05Z</time>
      </trkpt>
      <trkpt lat="42.52079" lon="2.38544">
        <ele>960.4</ele>
        <time>2018-08-05T05:26:46.05Z</time>
      </trkpt>
      <trkpt lat="42.52076" lon="2.3853">
        <ele>961.8</ele>
        <time>2018-08-05T05:26:56.05Z</time>
      </trkpt>
      <trkpt lat="42.52079" lon="2.38516">
        <ele>961.4</ele>
        <time>2018-08-05T05:27:05.05Z</time>
      </trkpt>
      <trkpt lat="42.52074" lon="2.38503">
        <ele>963</ele>
        <time>2018-08-05T05:27:14.05Z</time>
      </trkpt>
      <trkpt lat="42.52065" lon="2.38497">
        <ele>965.5</ele>
        <time>2018-08-05T05:27:21.05Z</time>
      </trkpt>
      <trkpt lat="42.52054" lon="2.38492">
        <ele>968.6</ele>
        <time>2018-08-05T05:27:27.05Z</time>
      </trkpt>
      <trkpt lat="42.52046" lon="2.38481">
        <ele>971.6</ele>
        <time>2018-08-05T05:27:34.05Z</time>
      </trkpt>
      <trkpt lat="42.52043" lon="2.38466">
        <ele>973.9</ele>
        <time>2018-08-05T05:27:40.05Z</time>
      </trkpt>
      <trkpt lat="42.52033" lon="2.38462">
        <ele>975.5</ele>
        <time>2018-08-05T05:27:46.05Z</time>
      </trkpt>
      <trkpt lat="42.52025" lon="2.38453">
        <ele>977</ele>
        <time>2018-08-05T05:27:53.05Z</time>
      </trkpt>
      <trkpt lat="42.52019" lon="2.38443">
        <ele>978</ele>
        <time>2018-08-05T05:28:03.05Z</time>
      </trkpt>
      <trkpt lat="42.52012" lon="2.38433">
        <ele>978.7</ele>
        <time>2018-08-05T05:28:10.05Z</time>
      </trkpt>
      <trkpt lat="42.52006" lon="2.38421">
        <ele>979.1</ele>
        <time>2018-08-05T05:28:18.05Z</time>
      </trkpt>
      <trkpt lat="42.52" lon="2.3841">
        <ele>980.5</ele>
        <time>2018-08-05T05:28:27.05Z</time>
      </trkpt>
      <trkpt lat="42.51991" lon="2.38404">
        <ele>984.1</ele>
        <time>2018-08-05T05:28:35.05Z</time>
      </trkpt>
      <trkpt lat="42.51981" lon="2.38399">
        <ele>987.4</ele>
        <time>2018-08-05T05:28:43.05Z</time>
      </trkpt>
      <trkpt lat="42.5197" lon="2.38397">
        <ele>990.2</ele>
        <time>2018-08-05T05:28:51.05Z</time>
      </trkpt>
      <trkpt lat="42.51961" lon="2.38393">
        <ele>992.8</ele>
        <time>2018-08-05T05:29:00.05Z</time>
      </trkpt>
      <trkpt lat="42.51953" lon="2.38383">
        <ele>995.5</ele>
        <time>2018-08-05T05:29:10.05Z</time>
      </trkpt>
      <trkpt lat="42.51946" lon="2.38373">
        <ele>997.7</ele>
        <time>2018-08-05T05:29:20.05Z</time>
      </trkpt>
      <trkpt lat="42.51938" lon="2.38364">
        <ele>999.7</ele>
        <time>2018-08-05T05:29:27.05Z</time>
      </trkpt>
      <trkpt lat="42.51932" lon="2.38354">
        <ele>1001</ele>
        <time>2018-08-05T05:29:38.05Z</time>
      </trkpt>
      <trkpt lat="42.51925" lon="2.38341">
        <ele>1002.2</ele>
        <time>2018-08-05T05:29:48.05Z</time>
      </trkpt>
      <trkpt lat="42.51917" lon="2.38333">
        <ele>1003.1</ele>
        <time>2018-08-05T05:29:56.05Z</time>
      </trkpt>
      <trkpt lat="42.51907" lon="2.38326">
        <ele>1007.4</ele>
        <time>2018-08-05T05:30:04.05Z</time>
      </trkpt>
      <trkpt lat="42.51898" lon="2.38317">
        <ele>1011.7</ele>
        <time>2018-08-05T05:30:13.05Z</time>
      </trkpt>
      <trkpt lat="42.51888" lon="2.38311">
        <ele>1015</ele>
        <time>2018-08-05T05:30:22.05Z</time>
      </trkpt>
      <trkpt lat="42.51879" lon="2.38305">
        <ele>1017.8</ele>
        <time>2018-08-05T05:30:34.05Z</time>
      </trkpt>
      <trkpt lat="42.51868" lon="2.38304">
        <ele>1019.7</ele>
        <time>2018-08-05T05:30:48.05Z</time>
      </trkpt>
      <trkpt lat="42.51858" lon="2.38301">
        <ele>1021.7</ele>
        <time>2018-08-05T05:30:55.05Z</time>
      </trkpt>
      <trkpt lat="42.51847" lon="2.38299">
        <ele>1023.5</ele>
        <time>2018-08-05T05:31:02.05Z</time>
      </trkpt>
      <trkpt lat="42.5184" lon="2.38289">
        <ele>1025.5</ele>
        <time>2018-08-05T05:31:11.05Z</time>
      </trkpt>
      <trkpt lat="42.51832" lon="2.38279">
        <ele>1027.6</ele>
        <time>2018-08-05T05:31:22.05Z</time>
      </trkpt>
      <trkpt lat="42.51823" lon="2.38274">
        <ele>1030.4</ele>
        <time>2018-08-05T05:31:31.05Z</time>
      </trkpt>
      <trkpt lat="42.51815" lon="2.38263">
        <ele>1033.2</ele>
        <time>2018-08-05T05:31:42.05Z</time>
      </trkpt>
      <trkpt lat="42.51808" lon="2.38254">
        <ele>1035.3</ele>
        <time>2018-08-05T05:31:52.05Z</time>
      </trkpt>
      <trkpt lat="42.51801" lon="2.38244">
        <ele>1038.3</ele>
        <time>2018-08-05T05:32:01.05Z</time>
      </trkpt>
      <trkpt lat="42.51794" lon="2.38233">
        <ele>1041.9</ele>
        <time>2018-08-05T05:32:10.05Z</time>
      </trkpt>
      <trkpt lat="42.51786" lon="2.38224">
        <ele>1044.7</ele>
        <time>2018-08-05T05:32:20.05Z</time>
      </trkpt>
      <trkpt lat="42.51779" lon="2.38213">
        <ele>1047.4</ele>
        <time>2018-08-05T05:32:30.05Z</time>
      </trkpt>
      <trkpt lat="42.51772" lon="2.38203">
        <ele>1049.3</ele>
        <time>2018-08-05T05:32:40.05Z</time>
      </trkpt>
      <trkpt lat="42.51763" lon="2.38198">
        <ele>1050.5</ele>
        <time>2018-08-05T05:32:49.05Z</time>
      </trkpt>
      <trkpt lat="42.51753" lon="2.38193">
        <ele>1051.3</ele>
        <time>2018-08-05T05:32:59.05Z</time>
      </trkpt>
      <trkpt lat="42.51743" lon="2.38189">
        <ele>1053.3</ele>
        <time>2018-08-05T05:33:09.05Z</time>
      </trkpt>
      <trkpt lat="42.51732" lon="2.38187">
        <ele>1056</ele>
        <time>2018-08-05T05:33:21.05Z</time>
      </trkpt>
      <trkpt lat="42.51722" lon="2.38186">
        <ele>1058.3</ele>
        <time>2018-08-05T05:33:30.05Z</time>
      </trkpt>
      <trkpt lat="42.51713" lon="2.38191">
        <ele>1060.4</ele>
        <time>2018-08-05T05:33:41.05Z</time>
      </trkpt>
      <trkpt lat="42.51705" lon="2.382">
        <ele>1062.3</ele>
        <time>2018-08-05T05:33:53.05Z</time>
      </trkpt>
      <trkpt lat="42.51697" lon="2.38194">
        <ele>1064.3</ele>
        <time>2018-08-05T05:34:05.05Z</time>
      </trkpt>
      <trkpt lat="42.51693" lon="2.38181">
        <ele>1064.9</ele>
        <time>2018-08-05T05:34:17.05Z</time>
      </trkpt>
      <trkpt lat="42.5169" lon="2.38167">
        <ele>1065.2</ele>
        <time>2018-08-05T05:34:26.05Z</time>
      </trkpt>
      <trkpt lat="42.51694" lon="2.38154">
        <ele>1068.4</ele>
        <time>2018-08-05T05:34:38.05Z</time>
      </trkpt>
      <trkpt lat="42.51702" lon="2.38145">
        <ele>1069.6</ele>
        <time>2018-08-05T05:34:49.05Z</time>
      </trkpt>
      <trkpt lat="42.51707" lon="2.38133">
        <ele>1072.5</ele>
        <time>2018-08-05T05:34:59.05Z</time>
      </trkpt>
      <trkpt lat="42.51714" lon="2.38121">
        <ele>1075</ele>
        <time>2018-08-05T05:35:09.05Z</time>
      </trkpt>
      <trkpt lat="42.51704" lon="2.38122">
        <ele>1076.5</ele>
        <time>2018-08-05T05:35:22.05Z</time>
      </trkpt>
      <trkpt lat="42.51693" lon="2.38122">
        <ele>1078.5</ele>
        <time>2018-08-05T05:35:32.05Z</time>
      </trkpt>
      <trkpt lat="42.51683" lon="2.38123">
        <ele>1080.1</ele>
        <time>2018-08-05T05:35:41.05Z</time>
      </trkpt>
      <trkpt lat="42.51672" lon="2.38121">
        <ele>1082.7</ele>
        <time>2018-08-05T05:35:52.05Z</time>
      </trkpt>
      <trkpt lat="42.51663" lon="2.38116">
        <ele>1086.4</ele>
        <time>2018-08-05T05:36:00.05Z</time>
      </trkpt>
      <trkpt lat="42.51653" lon="2.38113">
        <ele>1090.4</ele>
        <time>2018-08-05T05:36:11.05Z</time>
      </trkpt>
      <trkpt lat="42.51648" lon="2.38126">
        <ele>1088.4</ele>
        <time>2018-08-05T05:36:20.05Z</time>
      </trkpt>
      <trkpt lat="42.51643" lon="2.38138">
        <ele>1086.8</ele>
        <time>2018-08-05T05:36:25.05Z</time>
      </trkpt>
      <trkpt lat="42.51636" lon="2.38148">
        <ele>1086.6</ele>
        <time>2018-08-05T05:36:30.05Z</time>
      </trkpt>
      <trkpt lat="42.51627" lon="2.38159">
        <ele>1087.1</ele>
        <time>2018-08-05T05:36:36.05Z</time>
      </trkpt>
      <trkpt lat="42.51618" lon="2.38165">
        <ele>1089.1</ele>
        <time>2018-08-05T05:36:44.05Z</time>
      </trkpt>
      <trkpt lat="42.51608" lon="2.38166">
        <ele>1092.7</ele>
        <time>2018-08-05T05:36:53.05Z</time>
      </trkpt>
      <trkpt lat="42.51597" lon="2.38169">
        <ele>1096.7</ele>
        <time>2018-08-05T05:37:03.05Z</time>
      </trkpt>
      <trkpt lat="42.51587" lon="2.38171">
        <ele>1100.5</ele>
        <time>2018-08-05T05:37:12.05Z</time>
      </trkpt>
      <trkpt lat="42.51576" lon="2.3817">
        <ele>1104.3</ele>
        <time>2018-08-05T05:37:25.05Z</time>
      </trkpt>
      <trkpt lat="42.51566" lon="2.38168">
        <ele>1107.6</ele>
        <time>2018-08-05T05:37:35.05Z</time>
      </trkpt>
      <trkpt lat="42.51557" lon="2.38161">
        <ele>1111.1</ele>
        <time>2018-08-05T05:37:48.05Z</time>
      </trkpt>
      <trkpt lat="42.51551" lon="2.3815">
        <ele>1113.9</ele>
        <time>2018-08-05T05:38:09.05Z</time>
      </trkpt>
      <trkpt lat="42.5154" lon="2.38144">
        <ele>1117.1</ele>
        <time>2018-08-05T05:38:24.05Z</time>
      </trkpt>
      <trkpt lat="42.51531" lon="2.38139">
        <ele>1119.5</ele>
        <time>2018-08-05T05:38:35.05Z</time>
      </trkpt>
      <trkpt lat="42.51526" lon="2.38126">
        <ele>1120.7</ele>
        <time>2018-08-05T05:38:45.05Z</time>
      </trkpt>
      <trkpt lat="42.51516" lon="2.38121">
        <ele>1122.4</ele>
        <time>2018-08-05T05:38:56.05Z</time>
      </trkpt>
      <trkpt lat="42.51507" lon="2.38115">
        <ele>1123.6</ele>
        <time>2018-08-05T05:39:11.05Z</time>
      </trkpt>
      <trkpt lat="42.51497" lon="2.38118">
        <ele>1125.8</ele>
        <time>2018-08-05T05:39:25.05Z</time>
      </trkpt>
      <trkpt lat="42.51487" lon="2.38119">
        <ele>1129</ele>
        <time>2018-08-05T05:39:33.05Z</time>
      </trkpt>
      <trkpt lat="42.51478" lon="2.38125">
        <ele>1132.9</ele>
        <time>2018-08-05T05:39:42.05Z</time>
      </trkpt>
      <trkpt lat="42.51473" lon="2.38137">
        <ele>1136.9</ele>
        <time>2018-08-05T05:39:53.05Z</time>
      </trkpt>
      <trkpt lat="42.51476" lon="2.38151">
        <ele>1138.3</ele>
        <time>2018-08-05T05:40:03.05Z</time>
      </trkpt>
      <trkpt lat="42.5148" lon="2.38164">
        <ele>1138.6</ele>
        <time>2018-08-05T05:40:28.05Z</time>
      </trkpt>
      <trkpt lat="42.5148" lon="2.38178">
        <ele>1140.8</ele>
        <time>2018-08-05T05:40:34.05Z</time>
      </trkpt>
      <trkpt lat="42.51479" lon="2.38191">
        <ele>1143.3</ele>
        <time>2018-08-05T05:40:41.05Z</time>
      </trkpt>
      <trkpt lat="42.5148" lon="2.38205">
        <ele>1144.9</ele>
        <time>2018-08-05T05:40:48.05Z</time>
      </trkpt>
      <trkpt lat="42.51478" lon="2.38218">
        <ele>1148</ele>
        <time>2018-08-05T05:40:58.05Z</time>
      </trkpt>
      <trkpt lat="42.51478" lon="2.38233">
        <ele>1150.3</ele>
        <time>2018-08-05T05:41:07.05Z</time>
      </trkpt>
      <trkpt lat="42.51475" lon="2.38246">
        <ele>1154.1</ele>
        <time>2018-08-05T05:41:15.05Z</time>
      </trkpt>
      <trkpt lat="42.51471" lon="2.38261">
        <ele>1158.4</ele>
        <time>2018-08-05T05:41:22.05Z</time>
      </trkpt>
      <trkpt lat="42.5147" lon="2.38275">
        <ele>1160.6</ele>
        <time>2018-08-05T05:41:32.05Z</time>
      </trkpt>
      <trkpt lat="42.51471" lon="2.38288">
        <ele>1161.6</ele>
        <time>2018-08-05T05:41:42.05Z</time>
      </trkpt>
      <trkpt lat="42.5147" lon="2.38303">
        <ele>1164</ele>
        <time>2018-08-05T05:41:52.05Z</time>
      </trkpt>
      <trkpt lat="42.51467" lon="2.38316">
        <ele>1167.3</ele>
        <time>2018-08-05T05:42:01.05Z</time>
      </trkpt>
      <trkpt lat="42.51468" lon="2.38331">
        <ele>1168.5</ele>
        <time>2018-08-05T05:42:11.05Z</time>
      </trkpt>
      <trkpt lat="42.51466" lon="2.38345">
        <ele>1172.6</ele>
        <time>2018-08-05T05:42:20.05Z</time>
      </trkpt>
      <trkpt lat="42.51466" lon="2.38359">
        <ele>1175.7</ele>
        <time>2018-08-05T05:42:29.05Z</time>
      </trkpt>
      <trkpt lat="42.51468" lon="2.38373">
        <ele>1177.7</ele>
        <time>2018-08-05T05:42:40.05Z</time>
      </trkpt>
      <trkpt lat="42.51475" lon="2.38385">
        <ele>1176.6</ele>
        <time>2018-08-05T05:42:47.05Z</time>
      </trkpt>
      <trkpt lat="42.51478" lon="2.38398">
        <ele>1178</ele>
        <time>2018-08-05T05:42:54.05Z</time>
      </trkpt>
      <trkpt lat="42.51483" lon="2.38412">
        <ele>1178.7</ele>
        <time>2018-08-05T05:43:00.05Z</time>
      </trkpt>
      <trkpt lat="42.51486" lon="2.38426">
        <ele>1181</ele>
        <time>2018-08-05T05:43:07.05Z</time>
      </trkpt>
      <trkpt lat="42.51491" lon="2.38441">
        <ele>1182.8</ele>
        <time>2018-08-05T05:43:16.05Z</time>
      </trkpt>
      <trkpt lat="42.51496" lon="2.38452">
        <ele>1183.3</ele>
        <time>2018-08-05T05:43:24.05Z</time>
      </trkpt>
      <trkpt lat="42.51499" lon="2.38466">
        <ele>1185.8</ele>
        <time>2018-08-05T05:43:32.05Z</time>
      </trkpt>
      <trkpt lat="42.51504" lon="2.38479">
        <ele>1187.5</ele>
        <time>2018-08-05T05:43:40.05Z</time>
      </trkpt>
      <trkpt lat="42.51509" lon="2.38492">
        <ele>1189.3</ele>
        <time>2018-08-05T05:43:48.05Z</time>
      </trkpt>
      <trkpt lat="42.51514" lon="2.38504">
        <ele>1190.6</ele>
        <time>2018-08-05T05:43:57.05Z</time>
      </trkpt>
      <trkpt lat="42.51519" lon="2.38517">
        <ele>1191.9</ele>
        <time>2018-08-05T05:44:05.05Z</time>
      </trkpt>
      <trkpt lat="42.51519" lon="2.38533">
        <ele>1195.8</ele>
        <time>2018-08-05T05:44:16.05Z</time>
      </trkpt>
      <trkpt lat="42.51519" lon="2.38547">
        <ele>1199.3</ele>
        <time>2018-08-05T05:44:25.05Z</time>
      </trkpt>
      <trkpt lat="42.51521" lon="2.38562">
        <ele>1202.2</ele>
        <time>2018-08-05T05:44:35.05Z</time>
      </trkpt>
      <trkpt lat="42.51522" lon="2.38577">
        <ele>1205.5</ele>
        <time>2018-08-05T05:44:43.05Z</time>
      </trkpt>
      <trkpt lat="42.51521" lon="2.38591">
        <ele>1208</ele>
        <time>2018-08-05T05:44:52.05Z</time>
      </trkpt>
      <trkpt lat="42.51523" lon="2.38605">
        <ele>1208.2</ele>
        <time>2018-08-05T05:45:00.05Z</time>
      </trkpt>
      <trkpt lat="42.51529" lon="2.38617">
        <ele>1206.8</ele>
        <time>2018-08-05T05:45:07.05Z</time>
      </trkpt>
      <trkpt lat="42.51536" lon="2.38628">
        <ele>1205.1</ele>
        <time>2018-08-05T05:45:17.05Z</time>
      </trkpt>
      <trkpt lat="42.51542" lon="2.3864">
        <ele>1204</ele>
        <time>2018-08-05T05:45:27.05Z</time>
      </trkpt>
      <trkpt lat="42.51547" lon="2.38652">
        <ele>1203.4</ele>
        <time>2018-08-05T05:45:35.05Z</time>
      </trkpt>
      <trkpt lat="42.51549" lon="2.38665">
        <ele>1204</ele>
        <time>2018-08-05T05:45:44.05Z</time>
      </trkpt>
      <trkpt lat="42.51543" lon="2.38679">
        <ele>1202.8</ele>
        <time>2018-08-05T05:45:51.05Z</time>
      </trkpt>
      <trkpt lat="42.51535" lon="2.38687">
        <ele>1203.4</ele>
        <time>2018-08-05T05:45:58.05Z</time>
      </trkpt>
      <trkpt lat="42.51523" lon="2.38689">
        <ele>1207</ele>
        <time>2018-08-05T05:46:04.05Z</time>
      </trkpt>
      <trkpt lat="42.51513" lon="2.38685">
        <ele>1211.4</ele>
        <time>2018-08-05T05:46:10.05Z</time>
      </trkpt>
      <trkpt lat="42.51503" lon="2.38684">
        <ele>1215</ele>
        <time>2018-08-05T05:46:16.05Z</time>
      </trkpt>
      <trkpt lat="42.51492" lon="2.38684">
        <ele>1219</ele>
        <time>2018-08-05T05:46:22.05Z</time>
      </trkpt>
      <trkpt lat="42.51482" lon="2.38691">
        <ele>1221</ele>
        <time>2018-08-05T05:46:27.05Z</time>
      </trkpt>
      <trkpt lat="42.51472" lon="2.38696">
        <ele>1223.3</ele>
        <time>2018-08-05T05:46:32.05Z</time>
      </trkpt>
      <trkpt lat="42.51462" lon="2.38699">
        <ele>1226.1</ele>
        <time>2018-08-05T05:46:38.05Z</time>
      </trkpt>
      <trkpt lat="42.5145" lon="2.387">
        <ele>1230</ele>
        <time>2018-08-05T05:46:43.05Z</time>
      </trkpt>
      <trkpt lat="42.5144" lon="2.38701">
        <ele>1233.3</ele>
        <time>2018-08-05T05:46:48.05Z</time>
      </trkpt>
      <trkpt lat="42.5143" lon="2.38704">
        <ele>1235.8</ele>
        <time>2018-08-05T05:46:52.05Z</time>
      </trkpt>
      <trkpt lat="42.51421" lon="2.38714">
        <ele>1235.6</ele>
        <time>2018-08-05T05:46:59.05Z</time>
      </trkpt>
      <trkpt lat="42.51413" lon="2.38724">
        <ele>1235.5</ele>
        <time>2018-08-05T05:47:04.05Z</time>
      </trkpt>
      <trkpt lat="42.51403" lon="2.38731">
        <ele>1238.1</ele>
        <time>2018-08-05T05:47:09.05Z</time>
      </trkpt>
      <trkpt lat="42.51396" lon="2.38741">
        <ele>1238</ele>
        <time>2018-08-05T05:47:14.05Z</time>
      </trkpt>
      <trkpt lat="42.51387" lon="2.38749">
        <ele>1239.6</ele>
        <time>2018-08-05T05:47:20.05Z</time>
      </trkpt>
      <trkpt lat="42.51379" lon="2.38757">
        <ele>1240.4</ele>
        <time>2018-08-05T05:47:25.05Z</time>
      </trkpt>
      <trkpt lat="42.51371" lon="2.38764">
        <ele>1241.8</ele>
        <time>2018-08-05T05:47:31.05Z</time>
      </trkpt>
      <trkpt lat="42.51362" lon="2.38773">
        <ele>1243.1</ele>
        <time>2018-08-05T05:47:36.05Z</time>
      </trkpt>
      <trkpt lat="42.51355" lon="2.38782">
        <ele>1243.6</ele>
        <time>2018-08-05T05:47:42.05Z</time>
      </trkpt>
      <trkpt lat="42.51347" lon="2.38792">
        <ele>1244.5</ele>
        <time>2018-08-05T05:47:48.05Z</time>
      </trkpt>
      <trkpt lat="42.51338" lon="2.38799">
        <ele>1247.1</ele>
        <time>2018-08-05T05:47:57.05Z</time>
      </trkpt>
      <trkpt lat="42.51329" lon="2.38809">
        <ele>1248.8</ele>
        <time>2018-08-05T05:48:08.05Z</time>
      </trkpt>
      <trkpt lat="42.51321" lon="2.38816">
        <ele>1250.7</ele>
        <time>2018-08-05T05:48:17.05Z</time>
      </trkpt>
      <trkpt lat="42.51312" lon="2.38822">
        <ele>1253.5</ele>
        <time>2018-08-05T05:48:25.05Z</time>
      </trkpt>
      <trkpt lat="42.51301" lon="2.38824">
        <ele>1258.6</ele>
        <time>2018-08-05T05:48:33.05Z</time>
      </trkpt>
      <trkpt lat="42.51291" lon="2.38829">
        <ele>1262.2</ele>
        <time>2018-08-05T05:48:43.05Z</time>
      </trkpt>
      <trkpt lat="42.51282" lon="2.38837">
        <ele>1264.8</ele>
        <time>2018-08-05T05:48:50.05Z</time>
      </trkpt>
      <trkpt lat="42.51275" lon="2.38847">
        <ele>1266.7</ele>
        <time>2018-08-05T05:48:58.05Z</time>
      </trkpt>
      <trkpt lat="42.51273" lon="2.38861">
        <ele>1265.2</ele>
        <time>2018-08-05T05:49:14.05Z</time>
      </trkpt>
      <trkpt lat="42.51268" lon="2.38873">
        <ele>1265.7</ele>
        <time>2018-08-05T05:49:21.05Z</time>
      </trkpt>
      <trkpt lat="42.51262" lon="2.38884">
        <ele>1267</ele>
        <time>2018-08-05T05:49:28.05Z</time>
      </trkpt>
      <trkpt lat="42.51257" lon="2.38896">
        <ele>1267.7</ele>
        <time>2018-08-05T05:49:37.05Z</time>
      </trkpt>
      <trkpt lat="42.51249" lon="2.38907">
        <ele>1270.2</ele>
        <time>2018-08-05T05:49:47.05Z</time>
      </trkpt>
      <trkpt lat="42.5124" lon="2.38914">
        <ele>1274.6</ele>
        <time>2018-08-05T05:50:00.05Z</time>
      </trkpt>
      <trkpt lat="42.5123" lon="2.38921">
        <ele>1279.9</ele>
        <time>2018-08-05T05:50:08.05Z</time>
      </trkpt>
      <trkpt lat="42.51222" lon="2.38929">
        <ele>1284</ele>
        <time>2018-08-05T05:50:18.05Z</time>
      </trkpt>
      <trkpt lat="42.51216" lon="2.3894">
        <ele>1286.4</ele>
        <time>2018-08-05T05:50:30.05Z</time>
      </trkpt>
      <trkpt lat="42.51211" lon="2.38953">
        <ele>1287.7</ele>
        <time>2018-08-05T05:50:38.05Z</time>
      </trkpt>
      <trkpt lat="42.51203" lon="2.3896">
        <ele>1291</ele>
        <time>2018-08-05T05:50:48.05Z</time>
      </trkpt>
      <trkpt lat="42.51194" lon="2.38967">
        <ele>1294.6</ele>
        <time>2018-08-05T05:50:59.05Z</time>
      </trkpt>
      <trkpt lat="42.51186" lon="2.38975">
        <ele>1297.2</ele>
        <time>2018-08-05T05:51:08.05Z</time>
      </trkpt>
      <trkpt lat="42.51178" lon="2.38984">
        <ele>1299.3</ele>
        <time>2018-08-05T05:51:15.05Z</time>
      </trkpt>
      <trkpt lat="42.51168" lon="2.38989">
        <ele>1302.8</ele>
        <time>2018-08-05T05:51:31.05Z</time>
      </trkpt>
      <trkpt lat="42.5117" lon="2.39003">
        <ele>1300</ele>
        <time>2018-08-05T05:51:43.05Z</time>
      </trkpt>
      <trkpt lat="42.51165" lon="2.39016">
        <ele>1303.8</ele>
        <time>2018-08-05T05:51:52.05Z</time>
      </trkpt>
      <trkpt lat="42.51157" lon="2.39024">
        <ele>1309.4</ele>
        <time>2018-08-05T05:52:00.05Z</time>
      </trkpt>
      <trkpt lat="42.51149" lon="2.39032">
        <ele>1314.6</ele>
        <time>2018-08-05T05:52:08.05Z</time>
      </trkpt>
      <trkpt lat="42.51141" lon="2.39023">
        <ele>1319</ele>
        <time>2018-08-05T05:52:27.05Z</time>
      </trkpt>
      <trkpt lat="42.51131" lon="2.39028">
        <ele>1325</ele>
        <time>2018-08-05T05:52:48.05Z</time>
      </trkpt>
      <trkpt lat="42.51126" lon="2.39042">
        <ele>1327.4</ele>
        <time>2018-08-05T05:53:01.05Z</time>
      </trkpt>
      <trkpt lat="42.51121" lon="2.39053">
        <ele>1329.6</ele>
        <time>2018-08-05T05:53:11.05Z</time>
      </trkpt>
      <trkpt lat="42.51114" lon="2.39063">
        <ele>1332.4</ele>
        <time>2018-08-05T05:53:20.05Z</time>
      </trkpt>
      <trkpt lat="42.51108" lon="2.39051">
        <ele>1336.3</ele>
        <time>2018-08-05T05:53:32.05Z</time>
      </trkpt>
      <trkpt lat="42.5111" lon="2.39037">
        <ele>1336.5</ele>
        <time>2018-08-05T05:53:43.05Z</time>
      </trkpt>
      <trkpt lat="42.51102" lon="2.39027">
        <ele>1342.1</ele>
        <time>2018-08-05T05:53:57.05Z</time>
      </trkpt>
      <trkpt lat="42.51099" lon="2.3904">
        <ele>1342.2</ele>
        <time>2018-08-05T05:54:09.05Z</time>
      </trkpt>
      <trkpt lat="42.51096" lon="2.39054">
        <ele>1342</ele>
        <time>2018-08-05T05:54:22.05Z</time>
      </trkpt>
      <trkpt lat="42.51091" lon="2.39067">
        <ele>1342.5</ele>
        <time>2018-08-05T05:54:32.05Z</time>
      </trkpt>
      <trkpt lat="42.51082" lon="2.39074">
        <ele>1345.5</ele>
        <time>2018-08-05T05:54:46.05Z</time>
      </trkpt>
      <trkpt lat="42.51074" lon="2.39083">
        <ele>1348.9</ele>
        <time>2018-08-05T05:54:56.05Z</time>
      </trkpt>
      <trkpt lat="42.51064" lon="2.39088">
        <ele>1355.8</ele>
        <time>2018-08-05T05:55:05.05Z</time>
      </trkpt>
      <trkpt lat="42.51055" lon="2.39096">
        <ele>1362.4</ele>
        <time>2018-08-05T05:55:17.05Z</time>
      </trkpt>
      <trkpt lat="42.51047" lon="2.39105">
        <ele>1368.1</ele>
        <time>2018-08-05T05:55:30.05Z</time>
      </trkpt>
      <trkpt lat="42.51042" lon="2.39094">
        <ele>1369.8</ele>
        <time>2018-08-05T05:55:39.05Z</time>
      </trkpt>
      <trkpt lat="42.51044" lon="2.3908">
        <ele>1368.2</ele>
        <time>2018-08-05T05:55:45.05Z</time>
      </trkpt>
      <trkpt lat="42.51047" lon="2.39067">
        <ele>1368.8</ele>
        <time>2018-08-05T05:55:52.05Z</time>
      </trkpt>
      <trkpt lat="42.51053" lon="2.39055">
        <ele>1367.3</ele>
        <time>2018-08-05T05:55:58.05Z</time>
      </trkpt>
      <trkpt lat="42.51056" lon="2.39041">
        <ele>1368</ele>
        <time>2018-08-05T05:56:07.05Z</time>
      </trkpt>
      <trkpt lat="42.51046" lon="2.39039">
        <ele>1374.8</ele>
        <time>2018-08-05T05:56:22.05Z</time>
      </trkpt>
      <trkpt lat="42.51039" lon="2.39049">
        <ele>1377.3</ele>
        <time>2018-08-05T05:56:31.05Z</time>
      </trkpt>
      <trkpt lat="42.51033" lon="2.39059">
        <ele>1379.1</ele>
        <time>2018-08-05T05:56:40.05Z</time>
      </trkpt>
      <trkpt lat="42.51025" lon="2.39068">
        <ele>1382.4</ele>
        <time>2018-08-05T05:56:50.05Z</time>
      </trkpt>
      <trkpt lat="42.51019" lon="2.39079">
        <ele>1384</ele>
        <time>2018-08-05T05:57:16.05Z</time>
      </trkpt>
      <trkpt lat="42.5101" lon="2.39081">
        <ele>1389.2</ele>
        <time>2018-08-05T05:57:23.05Z</time>
      </trkpt>
      <trkpt lat="42.51001" lon="2.39088">
        <ele>1394.3</ele>
        <time>2018-08-05T05:57:36.05Z</time>
      </trkpt>
      <trkpt lat="42.50992" lon="2.39096">
        <ele>1399.2</ele>
        <time>2018-08-05T05:57:46.05Z</time>
      </trkpt>
      <trkpt lat="42.50983" lon="2.39103">
        <ele>1404.1</ele>
        <time>2018-08-05T05:58:00.05Z</time>
      </trkpt>
      <trkpt lat="42.50973" lon="2.39108">
        <ele>1409.6</ele>
        <time>2018-08-05T05:58:12.05Z</time>
      </trkpt>
      <trkpt lat="42.50965" lon="2.39117">
        <ele>1413.9</ele>
        <time>2018-08-05T05:58:24.05Z</time>
      </trkpt>
      <trkpt lat="42.50964" lon="2.39133">
        <ele>1414.1</ele>
        <time>2018-08-05T05:58:38.05Z</time>
      </trkpt>
      <trkpt lat="42.50966" lon="2.39147">
        <ele>1412.6</ele>
        <time>2018-08-05T05:58:47.05Z</time>
      </trkpt>
      <trkpt lat="42.50972" lon="2.39158">
        <ele>1409</ele>
        <time>2018-08-05T05:58:56.05Z</time>
      </trkpt>
      <trkpt lat="42.50974" lon="2.39172">
        <ele>1409.3</ele>
        <time>2018-08-05T05:59:07.05Z</time>
      </trkpt>
      <trkpt lat="42.50976" lon="2.39186">
        <ele>1412.6</ele>
        <time>2018-08-05T05:59:19.05Z</time>
      </trkpt>
      <trkpt lat="42.50982" lon="2.39197">
        <ele>1412.7</ele>
        <time>2018-08-05T05:59:37.05Z</time>
      </trkpt>
      <trkpt lat="42.50982" lon="2.3921">
        <ele>1416.9</ele>
        <time>2018-08-05T05:59:53.05Z</time>
      </trkpt>
      <trkpt lat="42.50981" lon="2.39224">
        <ele>1421.8</ele>
        <time>2018-08-05T06:00:06.05Z</time>
      </trkpt>
      <trkpt lat="42.50985" lon="2.39237">
        <ele>1423.8</ele>
        <time>2018-08-05T06:00:20.05Z</time>
      </trkpt>
      <trkpt lat="42.50989" lon="2.3925">
        <ele>1425.8</ele>
        <time>2018-08-05T06:00:33.05Z</time>
      </trkpt>
      <trkpt lat="42.50988" lon="2.39264">
        <ele>1430.4</ele>
        <time>2018-08-05T06:00:47.05Z</time>
      </trkpt>
      <trkpt lat="42.50978" lon="2.39265">
        <ele>1435.9</ele>
        <time>2018-08-05T06:01:04.05Z</time>
      </trkpt>
      <trkpt lat="42.5097" lon="2.39256">
        <ele>1437.5</ele>
        <time>2018-08-05T06:01:14.05Z</time>
      </trkpt>
      <trkpt lat="42.50961" lon="2.39249">
        <ele>1440.3</ele>
        <time>2018-08-05T06:01:26.05Z</time>
      </trkpt>
      <trkpt lat="42.50961" lon="2.39264">
        <ele>1444.5</ele>
        <time>2018-08-05T06:01:46.05Z</time>
      </trkpt>
      <trkpt lat="42.50965" lon="2.39278">
        <ele>1446.3</ele>
        <time>2018-08-05T06:01:54.05Z</time>
      </trkpt>
      <trkpt lat="42.50968" lon="2.39291">
        <ele>1448.4</ele>
        <time>2018-08-05T06:02:06.05Z</time>
      </trkpt>
      <trkpt lat="42.50969" lon="2.39305">
        <ele>1451.9</ele>
        <time>2018-08-05T06:02:14.05Z</time>
      </trkpt>
      <trkpt lat="42.50971" lon="2.3932">
        <ele>1455.1</ele>
        <time>2018-08-05T06:02:20.05Z</time>
      </trkpt>
      <trkpt lat="42.50974" lon="2.39333">
        <ele>1457.4</ele>
        <time>2018-08-05T06:02:28.05Z</time>
      </trkpt>
      <trkpt lat="42.50978" lon="2.39346">
        <ele>1455.7</ele>
        <time>2018-08-05T06:02:37.05Z</time>
      </trkpt>
      <trkpt lat="42.50976" lon="2.3936">
        <ele>1456.8</ele>
        <time>2018-08-05T06:02:48.05Z</time>
      </trkpt>
      <trkpt lat="42.50975" lon="2.39376">
        <ele>1457.4</ele>
        <time>2018-08-05T06:02:57.05Z</time>
      </trkpt>
      <trkpt lat="42.50966" lon="2.39384">
        <ele>1461</ele>
        <time>2018-08-05T06:03:05.05Z</time>
      </trkpt>
      <trkpt lat="42.50957" lon="2.39391">
        <ele>1464.5</ele>
        <time>2018-08-05T06:03:14.05Z</time>
      </trkpt>
      <trkpt lat="42.50947" lon="2.39398">
        <ele>1468.1</ele>
        <time>2018-08-05T06:03:21.05Z</time>
      </trkpt>
      <trkpt lat="42.50937" lon="2.39401">
        <ele>1471.7</ele>
        <time>2018-08-05T06:03:29.05Z</time>
      </trkpt>
      <trkpt lat="42.50927" lon="2.39406">
        <ele>1475.1</ele>
        <time>2018-08-05T06:03:45.05Z</time>
      </trkpt>
      <trkpt lat="42.50917" lon="2.39411">
        <ele>1478.4</ele>
        <time>2018-08-05T06:03:52.05Z</time>
      </trkpt>
      <trkpt lat="42.50908" lon="2.39417">
        <ele>1482.1</ele>
        <time>2018-08-05T06:04:00.05Z</time>
      </trkpt>
      <trkpt lat="42.50899" lon="2.39422">
        <ele>1485</ele>
        <time>2018-08-05T06:04:08.05Z</time>
      </trkpt>
      <trkpt lat="42.50891" lon="2.39431">
        <ele>1486.3</ele>
        <time>2018-08-05T06:04:18.05Z</time>
      </trkpt>
      <trkpt lat="42.50884" lon="2.39442">
        <ele>1486.5</ele>
        <time>2018-08-05T06:04:29.05Z</time>
      </trkpt>
      <trkpt lat="42.50876" lon="2.3945">
        <ele>1487.9</ele>
        <time>2018-08-05T06:04:40.05Z</time>
      </trkpt>
      <trkpt lat="42.50868" lon="2.39458">
        <ele>1489.3</ele>
        <time>2018-08-05T06:04:51.05Z</time>
      </trkpt>
      <trkpt lat="42.5086" lon="2.39467">
        <ele>1490.3</ele>
        <time>2018-08-05T06:05:00.05Z</time>
      </trkpt>
      <trkpt lat="42.50852" lon="2.39477">
        <ele>1490.9</ele>
        <time>2018-08-05T06:05:12.05Z</time>
      </trkpt>
      <trkpt lat="42.50843" lon="2.39484">
        <ele>1492.7</ele>
        <time>2018-08-05T06:05:20.05Z</time>
      </trkpt>
      <trkpt lat="42.50834" lon="2.39489">
        <ele>1495.1</ele>
        <time>2018-08-05T06:05:28.05Z</time>
      </trkpt>
      <trkpt lat="42.50823" lon="2.39493">
        <ele>1495.5</ele>
        <time>2018-08-05T06:05:35.05Z</time>
      </trkpt>
      <trkpt lat="42.50811" lon="2.39495">
        <ele>1496.3</ele>
        <time>2018-08-05T06:05:40.05Z</time>
      </trkpt>
      <trkpt lat="42.50799" lon="2.39498">
        <ele>1496.8</ele>
        <time>2018-08-05T06:05:45.05Z</time>
      </trkpt>
      <trkpt lat="42.50789" lon="2.39499">
        <ele>1497.7</ele>
        <time>2018-08-05T06:05:49.05Z</time>
      </trkpt>
      <trkpt lat="42.5078" lon="2.39499">
        <ele>1498.7</ele>
        <time>2018-08-05T06:05:53.05Z</time>
      </trkpt>
      <trkpt lat="42.50771" lon="2.39498">
        <ele>1500.2</ele>
        <time>2018-08-05T06:05:57.05Z</time>
      </trkpt>
      <trkpt lat="42.50762" lon="2.39496">
        <ele>1502</ele>
        <time>2018-08-05T06:06:01.05Z</time>
      </trkpt>
      <trkpt lat="42.50752" lon="2.39493">
        <ele>1504.3</ele>
        <time>2018-08-05T06:06:06.05Z</time>
      </trkpt>
      <trkpt lat="42.50743" lon="2.39493">
        <ele>1504.9</ele>
        <time>2018-08-05T06:06:10.05Z</time>
      </trkpt>
      <trkpt lat="42.50731" lon="2.39494">
        <ele>1505.3</ele>
        <time>2018-08-05T06:06:15.05Z</time>
      </trkpt>
      <trkpt lat="42.5072" lon="2.39493">
        <ele>1506.3</ele>
        <time>2018-08-05T06:06:20.05Z</time>
      </trkpt>
      <trkpt lat="42.50708" lon="2.39494">
        <ele>1506.6</ele>
        <time>2018-08-05T06:06:25.05Z</time>
      </trkpt>
      <trkpt lat="42.50697" lon="2.39495">
        <ele>1506.9</ele>
        <time>2018-08-05T06:06:29.05Z</time>
      </trkpt>
      <trkpt lat="42.50687" lon="2.39497">
        <ele>1506.8</ele>
        <time>2018-08-05T06:06:33.05Z</time>
      </trkpt>
      <trkpt lat="42.50676" lon="2.39499">
        <ele>1506.8</ele>
        <time>2018-08-05T06:06:37.05Z</time>
      </trkpt>
      <trkpt lat="42.50665" lon="2.39496">
        <ele>1508.4</ele>
        <time>2018-08-05T06:06:41.05Z</time>
      </trkpt>
      <trkpt lat="42.50656" lon="2.39493">
        <ele>1509.5</ele>
        <time>2018-08-05T06:06:45.05Z</time>
      </trkpt>
      <trkpt lat="42.50645" lon="2.3949">
        <ele>1510.6</ele>
        <time>2018-08-05T06:06:50.05Z</time>
      </trkpt>
      <trkpt lat="42.50635" lon="2.3949">
        <ele>1510.7</ele>
        <time>2018-08-05T06:06:54.05Z</time>
      </trkpt>
      <trkpt lat="42.50623" lon="2.3949">
        <ele>1510.7</ele>
        <time>2018-08-05T06:06:59.05Z</time>
      </trkpt>
      <trkpt lat="42.50613" lon="2.39493">
        <ele>1509.7</ele>
        <time>2018-08-05T06:07:03.05Z</time>
      </trkpt>
      <trkpt lat="42.50603" lon="2.39495">
        <ele>1508.9</ele>
        <time>2018-08-05T06:07:08.05Z</time>
      </trkpt>
      <trkpt lat="42.50592" lon="2.39496">
        <ele>1508.6</ele>
        <time>2018-08-05T06:07:14.05Z</time>
      </trkpt>
      <trkpt lat="42.50582" lon="2.39499">
        <ele>1507.9</ele>
        <time>2018-08-05T06:07:19.05Z</time>
      </trkpt>
      <trkpt lat="42.50572" lon="2.39499">
        <ele>1511.3</ele>
        <time>2018-08-05T06:07:24.05Z</time>
      </trkpt>
      <trkpt lat="42.50563" lon="2.39495">
        <ele>1515.9</ele>
        <time>2018-08-05T06:07:28.05Z</time>
      </trkpt>
      <trkpt lat="42.50554" lon="2.39488">
        <ele>1521.4</ele>
        <time>2018-08-05T06:07:32.05Z</time>
      </trkpt>
      <trkpt lat="42.50546" lon="2.39483">
        <ele>1525.7</ele>
        <time>2018-08-05T06:07:36.05Z</time>
      </trkpt>
      <trkpt lat="42.50538" lon="2.3948">
        <ele>1529.3</ele>
        <time>2018-08-05T06:07:40.05Z</time>
      </trkpt>
      <trkpt lat="42.50528" lon="2.39474">
        <ele>1534.3</ele>
        <time>2018-08-05T06:07:45.05Z</time>
      </trkpt>
      <trkpt lat="42.50518" lon="2.39471">
        <ele>1538.2</ele>
        <time>2018-08-05T06:07:51.05Z</time>
      </trkpt>
      <trkpt lat="42.50508" lon="2.39477">
        <ele>1539.6</ele>
        <time>2018-08-05T06:08:01.05Z</time>
      </trkpt>
      <trkpt lat="42.50507" lon="2.39491">
        <ele>1536</ele>
        <time>2018-08-05T06:08:07.05Z</time>
      </trkpt>
      <trkpt lat="42.50508" lon="2.39505">
        <ele>1532.9</ele>
        <time>2018-08-05T06:08:15.05Z</time>
      </trkpt>
      <trkpt lat="42.50508" lon="2.39519">
        <ele>1531.9</ele>
        <time>2018-08-05T06:08:22.05Z</time>
      </trkpt>
      <trkpt lat="42.50511" lon="2.39534">
        <ele>1529.6</ele>
        <time>2018-08-05T06:08:28.05Z</time>
      </trkpt>
      <trkpt lat="42.50513" lon="2.39549">
        <ele>1527.7</ele>
        <time>2018-08-05T06:08:35.05Z</time>
      </trkpt>
      <trkpt lat="42.50511" lon="2.39564">
        <ele>1527.4</ele>
        <time>2018-08-05T06:08:41.05Z</time>
      </trkpt>
      <trkpt lat="42.50513" lon="2.39578">
        <ele>1525.5</ele>
        <time>2018-08-05T06:08:47.05Z</time>
      </trkpt>
      <trkpt lat="42.50512" lon="2.39592">
        <ele>1524.1</ele>
        <time>2018-08-05T06:08:53.05Z</time>
      </trkpt>
      <trkpt lat="42.50507" lon="2.39604">
        <ele>1524</ele>
        <time>2018-08-05T06:08:58.05Z</time>
      </trkpt>
      <trkpt lat="42.50498" lon="2.39608">
        <ele>1526.9</ele>
        <time>2018-08-05T06:09:02.05Z</time>
      </trkpt>
      <trkpt lat="42.50488" lon="2.39608">
        <ele>1531.6</ele>
        <time>2018-08-05T06:09:07.05Z</time>
      </trkpt>
      <trkpt lat="42.50477" lon="2.39609">
        <ele>1536.5</ele>
        <time>2018-08-05T06:09:12.05Z</time>
      </trkpt>
      <trkpt lat="42.50468" lon="2.39609">
        <ele>1540.6</ele>
        <time>2018-08-05T06:09:18.05Z</time>
      </trkpt>
      <trkpt lat="42.50457" lon="2.39611">
        <ele>1545.1</ele>
        <time>2018-08-05T06:09:24.05Z</time>
      </trkpt>
      <trkpt lat="42.50447" lon="2.39617">
        <ele>1547.7</ele>
        <time>2018-08-05T06:09:32.05Z</time>
      </trkpt>
      <trkpt lat="42.50438" lon="2.39621">
        <ele>1550.3</ele>
        <time>2018-08-05T06:09:37.05Z</time>
      </trkpt>
      <trkpt lat="42.5043" lon="2.3963">
        <ele>1550.4</ele>
        <time>2018-08-05T06:09:42.05Z</time>
      </trkpt>
      <trkpt lat="42.50422" lon="2.39638">
        <ele>1550.6</ele>
        <time>2018-08-05T06:09:47.05Z</time>
      </trkpt>
      <trkpt lat="42.50413" lon="2.39647">
        <ele>1550.6</ele>
        <time>2018-08-05T06:09:53.05Z</time>
      </trkpt>
      <trkpt lat="42.50403" lon="2.39654">
        <ele>1551.9</ele>
        <time>2018-08-05T06:09:59.05Z</time>
      </trkpt>
      <trkpt lat="42.50394" lon="2.3966">
        <ele>1553.1</ele>
        <time>2018-08-05T06:10:06.05Z</time>
      </trkpt>
      <trkpt lat="42.50384" lon="2.39663">
        <ele>1555.9</ele>
        <time>2018-08-05T06:10:14.05Z</time>
      </trkpt>
      <trkpt lat="42.50375" lon="2.3967">
        <ele>1557</ele>
        <time>2018-08-05T06:10:23.05Z</time>
      </trkpt>
      <trkpt lat="42.50367" lon="2.39676">
        <ele>1558.6</ele>
        <time>2018-08-05T06:10:29.05Z</time>
      </trkpt>
      <trkpt lat="42.50359" lon="2.39685">
        <ele>1559.2</ele>
        <time>2018-08-05T06:10:37.05Z</time>
      </trkpt>
      <trkpt lat="42.50349" lon="2.39688">
        <ele>1562.3</ele>
        <time>2018-08-05T06:10:44.05Z</time>
      </trkpt>
      <trkpt lat="42.5034" lon="2.39688">
        <ele>1565.9</ele>
        <time>2018-08-05T06:10:50.05Z</time>
      </trkpt>
      <trkpt lat="42.50332" lon="2.39696">
        <ele>1566.7</ele>
        <time>2018-08-05T06:10:59.05Z</time>
      </trkpt>
      <trkpt lat="42.50323" lon="2.39703">
        <ele>1567.8</ele>
        <time>2018-08-05T06:11:07.05Z</time>
      </trkpt>
      <trkpt lat="42.50316" lon="2.3971">
        <ele>1568.2</ele>
        <time>2018-08-05T06:11:13.05Z</time>
      </trkpt>
      <trkpt lat="42.50305" lon="2.39715">
        <ele>1570.8</ele>
        <time>2018-08-05T06:11:19.05Z</time>
      </trkpt>
      <trkpt lat="42.50297" lon="2.39722">
        <ele>1571.6</ele>
        <time>2018-08-05T06:11:26.05Z</time>
      </trkpt>
      <trkpt lat="42.50286" lon="2.39727">
        <ele>1574.2</ele>
        <time>2018-08-05T06:11:31.05Z</time>
      </trkpt>
      <trkpt lat="42.50277" lon="2.39732">
        <ele>1576.1</ele>
        <time>2018-08-05T06:11:36.05Z</time>
      </trkpt>
      <trkpt lat="42.5027" lon="2.39745">
        <ele>1575</ele>
        <time>2018-08-05T06:11:44.05Z</time>
      </trkpt>
      <trkpt lat="42.50263" lon="2.39755">
        <ele>1577.1</ele>
        <time>2018-08-05T06:11:49.05Z</time>
      </trkpt>
      <trkpt lat="42.50253" lon="2.39765">
        <ele>1582.6</ele>
        <time>2018-08-05T06:11:56.05Z</time>
      </trkpt>
      <trkpt lat="42.50247" lon="2.39777">
        <ele>1587.3</ele>
        <time>2018-08-05T06:12:01.05Z</time>
      </trkpt>
      <trkpt lat="42.50253" lon="2.3979">
        <ele>1587.1</ele>
        <time>2018-08-05T06:12:18.05Z</time>
      </trkpt>
      <trkpt lat="42.5026" lon="2.39798">
        <ele>1585.9</ele>
        <time>2018-08-05T06:12:24.05Z</time>
      </trkpt>
      <trkpt lat="42.50267" lon="2.39808">
        <ele>1585</ele>
        <time>2018-08-05T06:12:30.05Z</time>
      </trkpt>
      <trkpt lat="42.50274" lon="2.3982">
        <ele>1584.4</ele>
        <time>2018-08-05T06:12:37.05Z</time>
      </trkpt>
      <trkpt lat="42.50282" lon="2.39829">
        <ele>1583</ele>
        <time>2018-08-05T06:12:43.05Z</time>
      </trkpt>
      <trkpt lat="42.50288" lon="2.39835">
        <ele>1581.9</ele>
        <time>2018-08-05T06:12:48.05Z</time>
      </trkpt>
      <trkpt lat="42.50293" lon="2.3984">
        <ele>1581.5</ele>
        <time>2018-08-05T06:12:52.05Z</time>
      </trkpt>
      <trkpt lat="42.50299" lon="2.39851">
        <ele>1582.5</ele>
        <time>2018-08-05T06:12:58.05Z</time>
      </trkpt>
      <trkpt lat="42.50306" lon="2.39862">
        <ele>1582.9</ele>
        <time>2018-08-05T06:13:04.05Z</time>
      </trkpt>
      <trkpt lat="42.50314" lon="2.39872">
        <ele>1582.4</ele>
        <time>2018-08-05T06:13:10.05Z</time>
      </trkpt>
      <trkpt lat="42.50321" lon="2.39884">
        <ele>1582.7</ele>
        <time>2018-08-05T06:13:17.05Z</time>
      </trkpt>
      <trkpt lat="42.50326" lon="2.39897">
        <ele>1584.1</ele>
        <time>2018-08-05T06:13:25.05Z</time>
      </trkpt>
      <trkpt lat="42.50332" lon="2.39909">
        <ele>1584.6</ele>
        <time>2018-08-05T06:13:32.05Z</time>
      </trkpt>
      <trkpt lat="42.50337" lon="2.39918">
        <ele>1584.3</ele>
        <time>2018-08-05T06:13:38.05Z</time>
      </trkpt>
      <trkpt lat="42.50339" lon="2.3993">
        <ele>1584.4</ele>
        <time>2018-08-05T06:13:45.05Z</time>
      </trkpt>
      <trkpt lat="42.50342" lon="2.39942">
        <ele>1584</ele>
        <time>2018-08-05T06:13:52.05Z</time>
      </trkpt>
      <trkpt lat="42.50341" lon="2.39957">
        <ele>1585.9</ele>
        <time>2018-08-05T06:14:00.05Z</time>
      </trkpt>
      <trkpt lat="42.5034" lon="2.3997">
        <ele>1587.6</ele>
        <time>2018-08-05T06:14:07.05Z</time>
      </trkpt>
      <trkpt lat="42.50338" lon="2.39984">
        <ele>1590</ele>
        <time>2018-08-05T06:14:15.05Z</time>
      </trkpt>
      <trkpt lat="42.50333" lon="2.39997">
        <ele>1593.9</ele>
        <time>2018-08-05T06:14:23.05Z</time>
      </trkpt>
      <trkpt lat="42.50327" lon="2.40009">
        <ele>1596.1</ele>
        <time>2018-08-05T06:14:28.05Z</time>
      </trkpt>
      <trkpt lat="42.50319" lon="2.4002">
        <ele>1598.7</ele>
        <time>2018-08-05T06:14:33.05Z</time>
      </trkpt>
      <trkpt lat="42.50311" lon="2.4003">
        <ele>1601.5</ele>
        <time>2018-08-05T06:14:38.05Z</time>
      </trkpt>
      <trkpt lat="42.50303" lon="2.40039">
        <ele>1604.3</ele>
        <time>2018-08-05T06:14:43.05Z</time>
      </trkpt>
      <trkpt lat="42.50295" lon="2.40049">
        <ele>1606.8</ele>
        <time>2018-08-05T06:14:49.05Z</time>
      </trkpt>
      <trkpt lat="42.50288" lon="2.40061">
        <ele>1608.5</ele>
        <time>2018-08-05T06:14:55.05Z</time>
      </trkpt>
      <trkpt lat="42.50281" lon="2.40072">
        <ele>1610.3</ele>
        <time>2018-08-05T06:15:03.05Z</time>
      </trkpt>
      <trkpt lat="42.50274" lon="2.40084">
        <ele>1611.7</ele>
        <time>2018-08-05T06:15:09.05Z</time>
      </trkpt>
      <trkpt lat="42.50267" lon="2.40097">
        <ele>1612</ele>
        <time>2018-08-05T06:15:16.05Z</time>
      </trkpt>
      <trkpt lat="42.50262" lon="2.40111">
        <ele>1610.7</ele>
        <time>2018-08-05T06:15:22.05Z</time>
      </trkpt>
      <trkpt lat="42.50255" lon="2.40123">
        <ele>1610.8</ele>
        <time>2018-08-05T06:15:28.05Z</time>
      </trkpt>
      <trkpt lat="42.50246" lon="2.40132">
        <ele>1612.2</ele>
        <time>2018-08-05T06:15:34.05Z</time>
      </trkpt>
      <trkpt lat="42.50235" lon="2.40137">
        <ele>1615.2</ele>
        <time>2018-08-05T06:15:39.05Z</time>
      </trkpt>
      <trkpt lat="42.50225" lon="2.4014">
        <ele>1618.4</ele>
        <time>2018-08-05T06:15:44.05Z</time>
      </trkpt>
      <trkpt lat="42.50216" lon="2.40149">
        <ele>1619.4</ele>
        <time>2018-08-05T06:15:49.05Z</time>
      </trkpt>
      <trkpt lat="42.50206" lon="2.40157">
        <ele>1621.2</ele>
        <time>2018-08-05T06:15:55.05Z</time>
      </trkpt>
      <trkpt lat="42.50197" lon="2.40162">
        <ele>1623.3</ele>
        <time>2018-08-05T06:16:00.05Z</time>
      </trkpt>
      <trkpt lat="42.50188" lon="2.40171">
        <ele>1624.3</ele>
        <time>2018-08-05T06:16:05.05Z</time>
      </trkpt>
      <trkpt lat="42.5018" lon="2.40178">
        <ele>1625.6</ele>
        <time>2018-08-05T06:16:11.05Z</time>
      </trkpt>
      <trkpt lat="42.50172" lon="2.40186">
        <ele>1626.5</ele>
        <time>2018-08-05T06:16:17.05Z</time>
      </trkpt>
      <trkpt lat="42.50164" lon="2.40195">
        <ele>1627.4</ele>
        <time>2018-08-05T06:16:24.05Z</time>
      </trkpt>
      <trkpt lat="42.50157" lon="2.40204">
        <ele>1628.2</ele>
        <time>2018-08-05T06:16:31.05Z</time>
      </trkpt>
      <trkpt lat="42.50149" lon="2.40215">
        <ele>1628.9</ele>
        <time>2018-08-05T06:16:40.05Z</time>
      </trkpt>
      <trkpt lat="42.50141" lon="2.40224">
        <ele>1630</ele>
        <time>2018-08-05T06:16:49.05Z</time>
      </trkpt>
      <trkpt lat="42.50132" lon="2.40233">
        <ele>1631.4</ele>
        <time>2018-08-05T06:16:56.05Z</time>
      </trkpt>
      <trkpt lat="42.50125" lon="2.4024">
        <ele>1632.5</ele>
        <time>2018-08-05T06:17:02.05Z</time>
      </trkpt>
      <trkpt lat="42.50118" lon="2.4025">
        <ele>1632.6</ele>
        <time>2018-08-05T06:17:12.05Z</time>
      </trkpt>
      <trkpt lat="42.5011" lon="2.40256">
        <ele>1634.3</ele>
        <time>2018-08-05T06:17:18.05Z</time>
      </trkpt>
      <trkpt lat="42.50102" lon="2.40261">
        <ele>1636.2</ele>
        <time>2018-08-05T06:17:24.05Z</time>
      </trkpt>
      <trkpt lat="42.50093" lon="2.40268">
        <ele>1637.8</ele>
        <time>2018-08-05T06:17:32.05Z</time>
      </trkpt>
      <trkpt lat="42.50084" lon="2.40272">
        <ele>1640.3</ele>
        <time>2018-08-05T06:17:39.05Z</time>
      </trkpt>
      <trkpt lat="42.50073" lon="2.40275">
        <ele>1643.6</ele>
        <time>2018-08-05T06:17:46.05Z</time>
      </trkpt>
      <trkpt lat="42.50063" lon="2.40281">
        <ele>1645.5</ele>
        <time>2018-08-05T06:17:52.05Z</time>
      </trkpt>
      <trkpt lat="42.50053" lon="2.40289">
        <ele>1646.6</ele>
        <time>2018-08-05T06:17:59.05Z</time>
      </trkpt>
      <trkpt lat="42.50043" lon="2.40296">
        <ele>1648</ele>
        <time>2018-08-05T06:18:06.05Z</time>
      </trkpt>
      <trkpt lat="42.50033" lon="2.40303">
        <ele>1649.4</ele>
        <time>2018-08-05T06:18:11.05Z</time>
      </trkpt>
      <trkpt lat="42.50024" lon="2.4031">
        <ele>1650.3</ele>
        <time>2018-08-05T06:18:17.05Z</time>
      </trkpt>
      <trkpt lat="42.50015" lon="2.40315">
        <ele>1651.9</ele>
        <time>2018-08-05T06:18:22.05Z</time>
      </trkpt>
      <trkpt lat="42.50004" lon="2.40318">
        <ele>1655</ele>
        <time>2018-08-05T06:18:27.05Z</time>
      </trkpt>
      <trkpt lat="42.49994" lon="2.40317">
        <ele>1659.5</ele>
        <time>2018-08-05T06:18:31.05Z</time>
      </trkpt>
      <trkpt lat="42.49984" lon="2.40315">
        <ele>1664.5</ele>
        <time>2018-08-05T06:18:36.05Z</time>
      </trkpt>
      <trkpt lat="42.49975" lon="2.40322">
        <ele>1665.9</ele>
        <time>2018-08-05T06:18:45.05Z</time>
      </trkpt>
      <trkpt lat="42.49981" lon="2.40334">
        <ele>1659.5</ele>
        <time>2018-08-05T06:18:56.05Z</time>
      </trkpt>
      <trkpt lat="42.49978" lon="2.40349">
        <ele>1661</ele>
        <time>2018-08-05T06:19:03.05Z</time>
      </trkpt>
      <trkpt lat="42.49971" lon="2.40359">
        <ele>1663.9</ele>
        <time>2018-08-05T06:19:11.05Z</time>
      </trkpt>
      <trkpt lat="42.49961" lon="2.40367">
        <ele>1667.7</ele>
        <time>2018-08-05T06:19:19.05Z</time>
      </trkpt>
      <trkpt lat="42.4995" lon="2.4037">
        <ele>1671.7</ele>
        <time>2018-08-05T06:19:24.05Z</time>
      </trkpt>
      <trkpt lat="42.4994" lon="2.40378">
        <ele>1674.9</ele>
        <time>2018-08-05T06:19:34.05Z</time>
      </trkpt>
      <trkpt lat="42.49931" lon="2.40384">
        <ele>1677.6</ele>
        <time>2018-08-05T06:19:42.05Z</time>
      </trkpt>
      <trkpt lat="42.49924" lon="2.40394">
        <ele>1679.1</ele>
        <time>2018-08-05T06:19:55.05Z</time>
      </trkpt>
      <trkpt lat="42.49914" lon="2.40399">
        <ele>1682</ele>
        <time>2018-08-05T06:20:02.05Z</time>
      </trkpt>
      <trkpt lat="42.49903" lon="2.40402">
        <ele>1686.3</ele>
        <time>2018-08-05T06:20:11.05Z</time>
      </trkpt>
      <trkpt lat="42.49893" lon="2.40404">
        <ele>1690.1</ele>
        <time>2018-08-05T06:20:17.05Z</time>
      </trkpt>
      <trkpt lat="42.49886" lon="2.40414">
        <ele>1691.5</ele>
        <time>2018-08-05T06:20:23.05Z</time>
      </trkpt>
      <trkpt lat="42.49892" lon="2.40426">
        <ele>1691.1</ele>
        <time>2018-08-05T06:20:36.05Z</time>
      </trkpt>
      <trkpt lat="42.49902" lon="2.40431">
        <ele>1688.5</ele>
        <time>2018-08-05T06:20:46.05Z</time>
      </trkpt>
      <trkpt lat="42.49912" lon="2.4043">
        <ele>1684.5</ele>
        <time>2018-08-05T06:20:51.05Z</time>
      </trkpt>
      <trkpt lat="42.49923" lon="2.40433">
        <ele>1681.9</ele>
        <time>2018-08-05T06:20:56.05Z</time>
      </trkpt>
      <trkpt lat="42.49932" lon="2.4044">
        <ele>1681.6</ele>
        <time>2018-08-05T06:21:02.05Z</time>
      </trkpt>
      <trkpt lat="42.49941" lon="2.40449">
        <ele>1682</ele>
        <time>2018-08-05T06:21:07.05Z</time>
      </trkpt>
      <trkpt lat="42.49948" lon="2.40455">
        <ele>1682.1</ele>
        <time>2018-08-05T06:21:12.05Z</time>
      </trkpt>
      <trkpt lat="42.49958" lon="2.40461">
        <ele>1681.7</ele>
        <time>2018-08-05T06:21:19.05Z</time>
      </trkpt>
      <trkpt lat="42.49968" lon="2.40466">
        <ele>1681</ele>
        <time>2018-08-05T06:21:25.05Z</time>
      </trkpt>
      <trkpt lat="42.49978" lon="2.40472">
        <ele>1680.8</ele>
        <time>2018-08-05T06:21:31.05Z</time>
      </trkpt>
      <trkpt lat="42.49984" lon="2.40478">
        <ele>1681.5</ele>
        <time>2018-08-05T06:21:35.05Z</time>
      </trkpt>
      <trkpt lat="42.49991" lon="2.40488">
        <ele>1683.5</ele>
        <time>2018-08-05T06:21:41.05Z</time>
      </trkpt>
      <trkpt lat="42.50001" lon="2.40493">
        <ele>1683.2</ele>
        <time>2018-08-05T06:21:47.05Z</time>
      </trkpt>
      <trkpt lat="42.50011" lon="2.40503">
        <ele>1683.7</ele>
        <time>2018-08-05T06:21:52.05Z</time>
      </trkpt>
      <trkpt lat="42.50016" lon="2.40515">
        <ele>1686</ele>
        <time>2018-08-05T06:21:56.05Z</time>
      </trkpt>
      <trkpt lat="42.50022" lon="2.40528">
        <ele>1688.2</ele>
        <time>2018-08-05T06:22:01.05Z</time>
      </trkpt>
      <trkpt lat="42.50028" lon="2.40541">
        <ele>1690</ele>
        <time>2018-08-05T06:22:08.05Z</time>
      </trkpt>
      <trkpt lat="42.50031" lon="2.40554">
        <ele>1692.8</ele>
        <time>2018-08-05T06:22:14.05Z</time>
      </trkpt>
      <trkpt lat="42.50032" lon="2.40569">
        <ele>1696.9</ele>
        <time>2018-08-05T06:22:20.05Z</time>
      </trkpt>
      <trkpt lat="42.50035" lon="2.40582">
        <ele>1699.5</ele>
        <time>2018-08-05T06:22:26.05Z</time>
      </trkpt>
      <trkpt lat="42.50033" lon="2.40596">
        <ele>1701.6</ele>
        <time>2018-08-05T06:22:31.05Z</time>
      </trkpt>
      <trkpt lat="42.50039" lon="2.40608">
        <ele>1699.9</ele>
        <time>2018-08-05T06:22:36.05Z</time>
      </trkpt>
      <trkpt lat="42.5004" lon="2.4062">
        <ele>1700.3</ele>
        <time>2018-08-05T06:22:41.05Z</time>
      </trkpt>
      <trkpt lat="42.50044" lon="2.40632">
        <ele>1699.5</ele>
        <time>2018-08-05T06:22:48.05Z</time>
      </trkpt>
      <trkpt lat="42.50041" lon="2.40648">
        <ele>1701.9</ele>
        <time>2018-08-05T06:22:55.05Z</time>
      </trkpt>
      <trkpt lat="42.50038" lon="2.4066">
        <ele>1704</ele>
        <time>2018-08-05T06:23:00.05Z</time>
      </trkpt>
      <trkpt lat="42.50038" lon="2.40675">
        <ele>1705.1</ele>
        <time>2018-08-05T06:23:07.05Z</time>
      </trkpt>
      <trkpt lat="42.50037" lon="2.40689">
        <ele>1706.4</ele>
        <time>2018-08-05T06:23:14.05Z</time>
      </trkpt>
      <trkpt lat="42.50035" lon="2.40704">
        <ele>1708.2</ele>
        <time>2018-08-05T06:23:21.05Z</time>
      </trkpt>
      <trkpt lat="42.50032" lon="2.40718">
        <ele>1710.2</ele>
        <time>2018-08-05T06:23:28.05Z</time>
      </trkpt>
      <trkpt lat="42.5003" lon="2.40731">
        <ele>1711.7</ele>
        <time>2018-08-05T06:23:36.05Z</time>
      </trkpt>
      <trkpt lat="42.5003" lon="2.40745">
        <ele>1712.6</ele>
        <time>2018-08-05T06:23:41.05Z</time>
      </trkpt>
      <trkpt lat="42.5003" lon="2.40759">
        <ele>1713.5</ele>
        <time>2018-08-05T06:23:46.05Z</time>
      </trkpt>
      <trkpt lat="42.50027" lon="2.40773">
        <ele>1715.3</ele>
        <time>2018-08-05T06:23:52.05Z</time>
      </trkpt>
      <trkpt lat="42.50027" lon="2.40787">
        <ele>1716.1</ele>
        <time>2018-08-05T06:23:58.05Z</time>
      </trkpt>
      <trkpt lat="42.50029" lon="2.40802">
        <ele>1716.5</ele>
        <time>2018-08-05T06:24:04.05Z</time>
      </trkpt>
      <trkpt lat="42.50028" lon="2.40815">
        <ele>1717.5</ele>
        <time>2018-08-05T06:24:10.05Z</time>
      </trkpt>
      <trkpt lat="42.50028" lon="2.40827">
        <ele>1718.2</ele>
        <time>2018-08-05T06:24:15.05Z</time>
      </trkpt>
      <trkpt lat="42.50028" lon="2.40838">
        <ele>1718.4</ele>
        <time>2018-08-05T06:24:20.05Z</time>
      </trkpt>
      <trkpt lat="42.50028" lon="2.4085">
        <ele>1717.9</ele>
        <time>2018-08-05T06:24:25.05Z</time>
      </trkpt>
      <trkpt lat="42.50025" lon="2.40861">
        <ele>1717.8</ele>
        <time>2018-08-05T06:24:30.05Z</time>
      </trkpt>
      <trkpt lat="42.50017" lon="2.40869">
        <ele>1718.2</ele>
        <time>2018-08-05T06:24:36.05Z</time>
      </trkpt>
      <trkpt lat="42.50015" lon="2.40875">
        <ele>1718.1</ele>
        <time>2018-08-05T06:24:44.05Z</time>
      </trkpt>
      <trkpt lat="42.50009" lon="2.40877">
        <ele>1718.5</ele>
        <time>2018-08-05T06:25:05.05Z</time>
      </trkpt>
      <trkpt lat="42.50003" lon="2.40883">
        <ele>1718.6</ele>
        <time>2018-08-05T06:25:11.05Z</time>
      </trkpt>
      <trkpt lat="42.49997" lon="2.40886">
        <ele>1719</ele>
        <time>2018-08-05T06:25:16.05Z</time>
      </trkpt>
      <trkpt lat="42.49989" lon="2.4089">
        <ele>1719.7</ele>
        <time>2018-08-05T06:25:22.05Z</time>
      </trkpt>
      <trkpt lat="42.49981" lon="2.40892">
        <ele>1720.4</ele>
        <time>2018-08-05T06:25:28.05Z</time>
      </trkpt>
      <trkpt lat="42.49976" lon="2.40895">
        <ele>1720.5</ele>
        <time>2018-08-05T06:25:32.05Z</time>
      </trkpt>
      <trkpt lat="42.49965" lon="2.40898">
        <ele>1721.2</ele>
        <time>2018-08-05T06:25:36.05Z</time>
      </trkpt>
      <trkpt lat="42.49957" lon="2.40903">
        <ele>1721</ele>
        <time>2018-08-05T06:25:39.05Z</time>
      </trkpt>
      <trkpt lat="42.49947" lon="2.40907">
        <ele>1720.9</ele>
        <time>2018-08-05T06:25:43.05Z</time>
      </trkpt>
      <trkpt lat="42.49938" lon="2.40911">
        <ele>1720.5</ele>
        <time>2018-08-05T06:25:46.05Z</time>
      </trkpt>
      <trkpt lat="42.4993" lon="2.40919">
        <ele>1718.7</ele>
        <time>2018-08-05T06:25:49.05Z</time>
      </trkpt>
      <trkpt lat="42.49923" lon="2.40924">
        <ele>1717.6</ele>
        <time>2018-08-05T06:25:52.05Z</time>
      </trkpt>
      <trkpt lat="42.49915" lon="2.40929">
        <ele>1716.9</ele>
        <time>2018-08-05T06:25:56.05Z</time>
      </trkpt>
      <trkpt lat="42.49907" lon="2.40931">
        <ele>1718.4</ele>
        <time>2018-08-05T06:25:59.05Z</time>
      </trkpt>
      <trkpt lat="42.49898" lon="2.40935">
        <ele>1719.5</ele>
        <time>2018-08-05T06:26:05.05Z</time>
      </trkpt>
      <trkpt lat="42.49887" lon="2.40939">
        <ele>1721.1</ele>
        <time>2018-08-05T06:26:09.05Z</time>
      </trkpt>
      <trkpt lat="42.49876" lon="2.40944">
        <ele>1722.2</ele>
        <time>2018-08-05T06:26:12.05Z</time>
      </trkpt>
      <trkpt lat="42.49867" lon="2.4095">
        <ele>1722.4</ele>
        <time>2018-08-05T06:26:15.05Z</time>
      </trkpt>
      <trkpt lat="42.49858" lon="2.40957">
        <ele>1722.2</ele>
        <time>2018-08-05T06:26:18.05Z</time>
      </trkpt>
      <trkpt lat="42.49851" lon="2.40961">
        <ele>1722.4</ele>
        <time>2018-08-05T06:26:21.05Z</time>
      </trkpt>
      <trkpt lat="42.49844" lon="2.40965">
        <ele>1722.6</ele>
        <time>2018-08-05T06:26:24.05Z</time>
      </trkpt>
      <trkpt lat="42.49836" lon="2.40972">
        <ele>1721.8</ele>
        <time>2018-08-05T06:26:28.05Z</time>
      </trkpt>
      <trkpt lat="42.49828" lon="2.40982">
        <ele>1720.5</ele>
        <time>2018-08-05T06:26:34.05Z</time>
      </trkpt>
      <trkpt lat="42.4982" lon="2.40992">
        <ele>1719.7</ele>
        <time>2018-08-05T06:26:43.05Z</time>
      </trkpt>
      <trkpt lat="42.49814" lon="2.41004">
        <ele>1717.8</ele>
        <time>2018-08-05T06:26:48.05Z</time>
      </trkpt>
      <trkpt lat="42.49808" lon="2.41017">
        <ele>1716.4</ele>
        <time>2018-08-05T06:26:55.05Z</time>
      </trkpt>
      <trkpt lat="42.498" lon="2.41029">
        <ele>1715.9</ele>
        <time>2018-08-05T06:27:00.05Z</time>
      </trkpt>
      <trkpt lat="42.49793" lon="2.4104">
        <ele>1715.2</ele>
        <time>2018-08-05T06:27:04.05Z</time>
      </trkpt>
      <trkpt lat="42.49787" lon="2.41051">
        <ele>1714.3</ele>
        <time>2018-08-05T06:27:08.05Z</time>
      </trkpt>
      <trkpt lat="42.4978" lon="2.41061">
        <ele>1713.9</ele>
        <time>2018-08-05T06:27:12.05Z</time>
      </trkpt>
      <trkpt lat="42.49772" lon="2.41072">
        <ele>1713.6</ele>
        <time>2018-08-05T06:27:16.05Z</time>
      </trkpt>
      <trkpt lat="42.49762" lon="2.41084">
        <ele>1713.6</ele>
        <time>2018-08-05T06:27:20.05Z</time>
      </trkpt>
      <trkpt lat="42.49757" lon="2.41095">
        <ele>1712.1</ele>
        <time>2018-08-05T06:27:25.05Z</time>
      </trkpt>
      <trkpt lat="42.49749" lon="2.4111">
        <ele>1710</ele>
        <time>2018-08-05T06:27:29.05Z</time>
      </trkpt>
      <trkpt lat="42.49742" lon="2.41122">
        <ele>1706.2</ele>
        <time>2018-08-05T06:27:33.05Z</time>
      </trkpt>
      <trkpt lat="42.49735" lon="2.41135">
        <ele>1701.8</ele>
        <time>2018-08-05T06:27:37.05Z</time>
      </trkpt>
      <trkpt lat="42.49728" lon="2.41149">
        <ele>1696.8</ele>
        <time>2018-08-05T06:27:41.05Z</time>
      </trkpt>
      <trkpt lat="42.49717" lon="2.41155">
        <ele>1693.9</ele>
        <time>2018-08-05T06:27:45.05Z</time>
      </trkpt>
      <trkpt lat="42.49708" lon="2.41147">
        <ele>1696.2</ele>
        <time>2018-08-05T06:27:49.05Z</time>
      </trkpt>
      <trkpt lat="42.49701" lon="2.41139">
        <ele>1698.7</ele>
        <time>2018-08-05T06:27:52.05Z</time>
      </trkpt>
      <trkpt lat="42.49692" lon="2.41135">
        <ele>1699.8</ele>
        <time>2018-08-05T06:27:55.05Z</time>
      </trkpt>
      <trkpt lat="42.49684" lon="2.41131">
        <ele>1701.1</ele>
        <time>2018-08-05T06:27:59.05Z</time>
      </trkpt>
      <trkpt lat="42.49674" lon="2.41126">
        <ele>1702.8</ele>
        <time>2018-08-05T06:28:03.05Z</time>
      </trkpt>
      <trkpt lat="42.49664" lon="2.41123">
        <ele>1703.7</ele>
        <time>2018-08-05T06:28:08.05Z</time>
      </trkpt>
      <trkpt lat="42.49655" lon="2.41116">
        <ele>1705.9</ele>
        <time>2018-08-05T06:28:13.05Z</time>
      </trkpt>
      <trkpt lat="42.49645" lon="2.41111">
        <ele>1707</ele>
        <time>2018-08-05T06:28:17.05Z</time>
      </trkpt>
      <trkpt lat="42.49635" lon="2.41103">
        <ele>1708.9</ele>
        <time>2018-08-05T06:28:23.05Z</time>
      </trkpt>
      <trkpt lat="42.49627" lon="2.41093">
        <ele>1711.5</ele>
        <time>2018-08-05T06:28:27.05Z</time>
      </trkpt>
      <trkpt lat="42.49616" lon="2.41088">
        <ele>1711.6</ele>
        <time>2018-08-05T06:28:32.05Z</time>
      </trkpt>
      <trkpt lat="42.49607" lon="2.41084">
        <ele>1711.5</ele>
        <time>2018-08-05T06:28:35.05Z</time>
      </trkpt>
      <trkpt lat="42.49596" lon="2.41082">
        <ele>1710.6</ele>
        <time>2018-08-05T06:28:39.05Z</time>
      </trkpt>
      <trkpt lat="42.49585" lon="2.41077">
        <ele>1711.2</ele>
        <time>2018-08-05T06:28:43.05Z</time>
      </trkpt>
      <trkpt lat="42.49574" lon="2.41081">
        <ele>1709.8</ele>
        <time>2018-08-05T06:28:48.05Z</time>
      </trkpt>
      <trkpt lat="42.49564" lon="2.41084">
        <ele>1709.2</ele>
        <time>2018-08-05T06:28:51.05Z</time>
      </trkpt>
      <trkpt lat="42.49557" lon="2.41084">
        <ele>1709.8</ele>
        <time>2018-08-05T06:28:53.05Z</time>
      </trkpt>
      <trkpt lat="42.4955" lon="2.41084">
        <ele>1710.3</ele>
        <time>2018-08-05T06:28:55.05Z</time>
      </trkpt>
      <trkpt lat="42.49545" lon="2.41085">
        <ele>1710.4</ele>
        <time>2018-08-05T06:28:57.05Z</time>
      </trkpt>
      <trkpt lat="42.49538" lon="2.41086">
        <ele>1710.8</ele>
        <time>2018-08-05T06:28:59.05Z</time>
      </trkpt>
      <trkpt lat="42.49527" lon="2.41091">
        <ele>1710.8</ele>
        <time>2018-08-05T06:29:03.05Z</time>
      </trkpt>
      <trkpt lat="42.49518" lon="2.41096">
        <ele>1710.8</ele>
        <time>2018-08-05T06:29:07.05Z</time>
      </trkpt>
      <trkpt lat="42.49509" lon="2.41104">
        <ele>1710.6</ele>
        <time>2018-08-05T06:29:11.05Z</time>
      </trkpt>
      <trkpt lat="42.49501" lon="2.41112">
        <ele>1710.4</ele>
        <time>2018-08-05T06:29:14.05Z</time>
      </trkpt>
      <trkpt lat="42.49496" lon="2.41117">
        <ele>1711.2</ele>
        <time>2018-08-05T06:29:16.05Z</time>
      </trkpt>
      <trkpt lat="42.49492" lon="2.41121">
        <ele>1712</ele>
        <time>2018-08-05T06:29:18.05Z</time>
      </trkpt>
      <trkpt lat="42.49488" lon="2.41127">
        <ele>1712.4</ele>
        <time>2018-08-05T06:29:21.05Z</time>
      </trkpt>
      <trkpt lat="42.49478" lon="2.41132">
        <ele>1714.6</ele>
        <time>2018-08-05T06:29:27.05Z</time>
      </trkpt>
      <trkpt lat="42.49469" lon="2.41137">
        <ele>1716.5</ele>
        <time>2018-08-05T06:29:33.05Z</time>
      </trkpt>
      <trkpt lat="42.4946" lon="2.41145">
        <ele>1717.6</ele>
        <time>2018-08-05T06:29:42.05Z</time>
      </trkpt>
      <trkpt lat="42.49464" lon="2.41157">
        <ele>1714.4</ele>
        <time>2018-08-05T06:29:57.05Z</time>
      </trkpt>
      <trkpt lat="42.49474" lon="2.41156">
        <ele>1712</ele>
        <time>2018-08-05T06:30:05.05Z</time>
      </trkpt>
      <trkpt lat="42.49485" lon="2.41157">
        <ele>1709</ele>
        <time>2018-08-05T06:30:11.05Z</time>
      </trkpt>
      <trkpt lat="42.49489" lon="2.41157">
        <ele>1708</ele>
        <time>2018-08-05T06:30:14.05Z</time>
      </trkpt>
      <trkpt lat="42.49497" lon="2.41156">
        <ele>1706.1</ele>
        <time>2018-08-05T06:30:18.05Z</time>
      </trkpt>
      <trkpt lat="42.49502" lon="2.41156">
        <ele>1704.9</ele>
        <time>2018-08-05T06:30:21.05Z</time>
      </trkpt>
      <trkpt lat="42.49512" lon="2.41157">
        <ele>1702.9</ele>
        <time>2018-08-05T06:30:27.05Z</time>
      </trkpt>
      <trkpt lat="42.49517" lon="2.41157">
        <ele>1702</ele>
        <time>2018-08-05T06:30:30.05Z</time>
      </trkpt>
      <trkpt lat="42.49523" lon="2.41158">
        <ele>1700.7</ele>
        <time>2018-08-05T06:30:34.05Z</time>
      </trkpt>
      <trkpt lat="42.49532" lon="2.41162">
        <ele>1698.3</ele>
        <time>2018-08-05T06:30:40.05Z</time>
      </trkpt>
      <trkpt lat="42.49536" lon="2.41165">
        <ele>1697</ele>
        <time>2018-08-05T06:30:43.05Z</time>
      </trkpt>
      <trkpt lat="42.4954" lon="2.41169">
        <ele>1696.5</ele>
        <time>2018-08-05T06:30:45.05Z</time>
      </trkpt>
      <trkpt lat="42.49541" lon="2.41174">
        <ele>1697.6</ele>
        <time>2018-08-05T06:30:47.05Z</time>
      </trkpt>
      <trkpt lat="42.49543" lon="2.4118">
        <ele>1698.8</ele>
        <time>2018-08-05T06:30:49.05Z</time>
      </trkpt>
      <trkpt lat="42.49544" lon="2.41186">
        <ele>1700.1</ele>
        <time>2018-08-05T06:30:51.05Z</time>
      </trkpt>
      <trkpt lat="42.49545" lon="2.41192">
        <ele>1701.4</ele>
        <time>2018-08-05T06:30:54.05Z</time>
      </trkpt>
      <trkpt lat="42.49546" lon="2.41197">
        <ele>1702.4</ele>
        <time>2018-08-05T06:30:56.05Z</time>
      </trkpt>
      <trkpt lat="42.4955" lon="2.4121">
        <ele>1704.5</ele>
        <time>2018-08-05T06:31:02.05Z</time>
      </trkpt>
      <trkpt lat="42.49551" lon="2.41225">
        <ele>1707.9</ele>
        <time>2018-08-05T06:31:11.05Z</time>
      </trkpt>
      <trkpt lat="42.49554" lon="2.4123">
        <ele>1707.9</ele>
        <time>2018-08-05T06:31:14.05Z</time>
      </trkpt>
      <trkpt lat="42.49557" lon="2.41237">
        <ele>1708.4</ele>
        <time>2018-08-05T06:31:17.05Z</time>
      </trkpt>
      <trkpt lat="42.4956" lon="2.41242">
        <ele>1708.3</ele>
        <time>2018-08-05T06:31:20.05Z</time>
      </trkpt>
      <trkpt lat="42.4956" lon="2.41247">
        <ele>1709.4</ele>
        <time>2018-08-05T06:31:23.05Z</time>
      </trkpt>
      <trkpt lat="42.49561" lon="2.41261">
        <ele>1712.1</ele>
        <time>2018-08-05T06:31:32.05Z</time>
      </trkpt>
      <trkpt lat="42.4956" lon="2.41275">
        <ele>1715.6</ele>
        <time>2018-08-05T06:31:40.05Z</time>
      </trkpt>
      <trkpt lat="42.49564" lon="2.41288">
        <ele>1716.8</ele>
        <time>2018-08-05T06:31:49.05Z</time>
      </trkpt>
      <trkpt lat="42.4957" lon="2.413">
        <ele>1716.8</ele>
        <time>2018-08-05T06:31:58.05Z</time>
      </trkpt>
      <trkpt lat="42.49569" lon="2.41313">
        <ele>1720.1</ele>
        <time>2018-08-05T06:32:04.05Z</time>
      </trkpt>
      <trkpt lat="42.49571" lon="2.41328">
        <ele>1722.5</ele>
        <time>2018-08-05T06:32:10.05Z</time>
      </trkpt>
      <trkpt lat="42.49575" lon="2.41341">
        <ele>1723.4</ele>
        <time>2018-08-05T06:32:16.05Z</time>
      </trkpt>
      <trkpt lat="42.49576" lon="2.41357">
        <ele>1726.4</ele>
        <time>2018-08-05T06:32:22.05Z</time>
      </trkpt>
      <trkpt lat="42.49581" lon="2.41369">
        <ele>1726.8</ele>
        <time>2018-08-05T06:32:28.05Z</time>
      </trkpt>
      <trkpt lat="42.49585" lon="2.41381">
        <ele>1727.4</ele>
        <time>2018-08-05T06:32:34.05Z</time>
      </trkpt>
      <trkpt lat="42.49589" lon="2.41394">
        <ele>1728.2</ele>
        <time>2018-08-05T06:32:41.05Z</time>
      </trkpt>
      <trkpt lat="42.49594" lon="2.41408">
        <ele>1728.7</ele>
        <time>2018-08-05T06:32:47.05Z</time>
      </trkpt>
      <trkpt lat="42.49595" lon="2.41422">
        <ele>1731.7</ele>
        <time>2018-08-05T06:32:55.05Z</time>
      </trkpt>
      <trkpt lat="42.49595" lon="2.41437">
        <ele>1736.3</ele>
        <time>2018-08-05T06:33:01.05Z</time>
      </trkpt>
      <trkpt lat="42.49602" lon="2.41448">
        <ele>1736.5</ele>
        <time>2018-08-05T06:33:10.05Z</time>
      </trkpt>
      <trkpt lat="42.49609" lon="2.41459">
        <ele>1736.8</ele>
        <time>2018-08-05T06:33:19.05Z</time>
      </trkpt>
      <trkpt lat="42.49617" lon="2.41468">
        <ele>1736.3</ele>
        <time>2018-08-05T06:33:26.05Z</time>
      </trkpt>
      <trkpt lat="42.49625" lon="2.41477">
        <ele>1736</ele>
        <time>2018-08-05T06:33:32.05Z</time>
      </trkpt>
      <trkpt lat="42.4963" lon="2.41489">
        <ele>1738.2</ele>
        <time>2018-08-05T06:33:38.05Z</time>
      </trkpt>
      <trkpt lat="42.49636" lon="2.415">
        <ele>1739.8</ele>
        <time>2018-08-05T06:33:44.05Z</time>
      </trkpt>
      <trkpt lat="42.49642" lon="2.41512">
        <ele>1742.3</ele>
        <time>2018-08-05T06:33:51.05Z</time>
      </trkpt>
      <trkpt lat="42.4965" lon="2.41521">
        <ele>1743</ele>
        <time>2018-08-05T06:33:57.05Z</time>
      </trkpt>
      <trkpt lat="42.49658" lon="2.41531">
        <ele>1744.2</ele>
        <time>2018-08-05T06:34:03.05Z</time>
      </trkpt>
      <trkpt lat="42.49666" lon="2.4154">
        <ele>1745</ele>
        <time>2018-08-05T06:34:11.05Z</time>
      </trkpt>
      <trkpt lat="42.49675" lon="2.41548">
        <ele>1746.1</ele>
        <time>2018-08-05T06:34:17.05Z</time>
      </trkpt>
      <trkpt lat="42.49682" lon="2.41558">
        <ele>1748.7</ele>
        <time>2018-08-05T06:34:27.05Z</time>
      </trkpt>
      <trkpt lat="42.49691" lon="2.41568">
        <ele>1750.9</ele>
        <time>2018-08-05T06:34:36.05Z</time>
      </trkpt>
      <trkpt lat="42.497" lon="2.41578">
        <ele>1753.1</ele>
        <time>2018-08-05T06:34:43.05Z</time>
      </trkpt>
      <trkpt lat="42.49709" lon="2.41584">
        <ele>1753.6</ele>
        <time>2018-08-05T06:34:49.05Z</time>
      </trkpt>
      <trkpt lat="42.49719" lon="2.41593">
        <ele>1754.4</ele>
        <time>2018-08-05T06:34:56.05Z</time>
      </trkpt>
      <trkpt lat="42.49727" lon="2.41603">
        <ele>1755.7</ele>
        <time>2018-08-05T06:35:05.05Z</time>
      </trkpt>
      <trkpt lat="42.49736" lon="2.41611">
        <ele>1755.8</ele>
        <time>2018-08-05T06:35:13.05Z</time>
      </trkpt>
      <trkpt lat="42.49744" lon="2.41621">
        <ele>1756.6</ele>
        <time>2018-08-05T06:35:20.05Z</time>
      </trkpt>
      <trkpt lat="42.4975" lon="2.41632">
        <ele>1758</ele>
        <time>2018-08-05T06:35:27.05Z</time>
      </trkpt>
      <trkpt lat="42.49752" lon="2.41646">
        <ele>1761</ele>
        <time>2018-08-05T06:35:34.05Z</time>
      </trkpt>
      <trkpt lat="42.49755" lon="2.41659">
        <ele>1762.9</ele>
        <time>2018-08-05T06:35:40.05Z</time>
      </trkpt>
      <trkpt lat="42.49755" lon="2.41673">
        <ele>1765.1</ele>
        <time>2018-08-05T06:35:47.05Z</time>
      </trkpt>
      <trkpt lat="42.49754" lon="2.41688">
        <ele>1765.9</ele>
        <time>2018-08-05T06:35:56.05Z</time>
      </trkpt>
      <trkpt lat="42.49752" lon="2.41702">
        <ele>1767.3</ele>
        <time>2018-08-05T06:36:02.05Z</time>
      </trkpt>
      <trkpt lat="42.49751" lon="2.41716">
        <ele>1768</ele>
        <time>2018-08-05T06:36:08.05Z</time>
      </trkpt>
      <trkpt lat="42.49752" lon="2.41731">
        <ele>1767.6</ele>
        <time>2018-08-05T06:36:14.05Z</time>
      </trkpt>
      <trkpt lat="42.49751" lon="2.41744">
        <ele>1768.4</ele>
        <time>2018-08-05T06:36:20.05Z</time>
      </trkpt>
      <trkpt lat="42.49747" lon="2.41758">
        <ele>1770.3</ele>
        <time>2018-08-05T06:36:27.05Z</time>
      </trkpt>
      <trkpt lat="42.49741" lon="2.41769">
        <ele>1773</ele>
        <time>2018-08-05T06:36:32.05Z</time>
      </trkpt>
      <trkpt lat="42.49734" lon="2.41781">
        <ele>1776.2</ele>
        <time>2018-08-05T06:36:38.05Z</time>
      </trkpt>
      <trkpt lat="42.49729" lon="2.41794">
        <ele>1778.2</ele>
        <time>2018-08-05T06:36:44.05Z</time>
      </trkpt>
      <trkpt lat="42.4973" lon="2.41807">
        <ele>1777.2</ele>
        <time>2018-08-05T06:36:50.05Z</time>
      </trkpt>
      <trkpt lat="42.49724" lon="2.41819">
        <ele>1779.7</ele>
        <time>2018-08-05T06:36:58.05Z</time>
      </trkpt>
      <trkpt lat="42.49723" lon="2.41832">
        <ele>1779.7</ele>
        <time>2018-08-05T06:37:06.05Z</time>
      </trkpt>
      <trkpt lat="42.49719" lon="2.41846">
        <ele>1784.5</ele>
        <time>2018-08-05T06:37:14.05Z</time>
      </trkpt>
      <trkpt lat="42.49711" lon="2.41851">
        <ele>1789.3</ele>
        <time>2018-08-05T06:37:22.05Z</time>
      </trkpt>
      <trkpt lat="42.49707" lon="2.41838">
        <ele>1788.6</ele>
        <time>2018-08-05T06:37:31.05Z</time>
      </trkpt>
      <trkpt lat="42.49703" lon="2.41825">
        <ele>1790.1</ele>
        <time>2018-08-05T06:37:38.05Z</time>
      </trkpt>
      <trkpt lat="42.49704" lon="2.4181">
        <ele>1790.3</ele>
        <time>2018-08-05T06:37:46.05Z</time>
      </trkpt>
      <trkpt lat="42.49703" lon="2.41796">
        <ele>1791.5</ele>
        <time>2018-08-05T06:37:54.05Z</time>
      </trkpt>
      <trkpt lat="42.49703" lon="2.41782">
        <ele>1792.2</ele>
        <time>2018-08-05T06:38:03.05Z</time>
      </trkpt>
      <trkpt lat="42.49703" lon="2.41767">
        <ele>1793</ele>
        <time>2018-08-05T06:38:10.05Z</time>
      </trkpt>
      <trkpt lat="42.49698" lon="2.4178">
        <ele>1794.9</ele>
        <time>2018-08-05T06:38:24.05Z</time>
      </trkpt>
      <trkpt lat="42.49695" lon="2.41795">
        <ele>1795.7</ele>
        <time>2018-08-05T06:38:31.05Z</time>
      </trkpt>
      <trkpt lat="42.49692" lon="2.41808">
        <ele>1796.6</ele>
        <time>2018-08-05T06:38:38.05Z</time>
      </trkpt>
      <trkpt lat="42.4969" lon="2.41822">
        <ele>1796.8</ele>
        <time>2018-08-05T06:38:45.05Z</time>
      </trkpt>
      <trkpt lat="42.49687" lon="2.41835">
        <ele>1798</ele>
        <time>2018-08-05T06:38:52.05Z</time>
      </trkpt>
      <trkpt lat="42.49684" lon="2.4185">
        <ele>1801.3</ele>
        <time>2018-08-05T06:39:01.05Z</time>
      </trkpt>
      <trkpt lat="42.49678" lon="2.41861">
        <ele>1805.2</ele>
        <time>2018-08-05T06:39:10.05Z</time>
      </trkpt>
      <trkpt lat="42.49674" lon="2.41869">
        <ele>1807.7</ele>
        <time>2018-08-05T06:39:17.05Z</time>
      </trkpt>
      <trkpt lat="42.49667" lon="2.41875">
        <ele>1810.9</ele>
        <time>2018-08-05T06:39:25.05Z</time>
      </trkpt>
      <trkpt lat="42.49658" lon="2.41881">
        <ele>1816.4</ele>
        <time>2018-08-05T06:39:31.05Z</time>
      </trkpt>
      <trkpt lat="42.49652" lon="2.41892">
        <ele>1820.3</ele>
        <time>2018-08-05T06:39:42.05Z</time>
      </trkpt>
      <trkpt lat="42.49646" lon="2.41899">
        <ele>1823.9</ele>
        <time>2018-08-05T06:39:49.05Z</time>
      </trkpt>
      <trkpt lat="42.49641" lon="2.41902">
        <ele>1826.6</ele>
        <time>2018-08-05T06:39:53.05Z</time>
      </trkpt>
      <trkpt lat="42.49633" lon="2.41912">
        <ele>1830.9</ele>
        <time>2018-08-05T06:40:02.05Z</time>
      </trkpt>
      <trkpt lat="42.49628" lon="2.41926">
        <ele>1834.8</ele>
        <time>2018-08-05T06:40:09.05Z</time>
      </trkpt>
      <trkpt lat="42.49621" lon="2.41936">
        <ele>1839.2</ele>
        <time>2018-08-05T06:40:17.05Z</time>
      </trkpt>
      <trkpt lat="42.49613" lon="2.41946">
        <ele>1843.5</ele>
        <time>2018-08-05T06:40:29.05Z</time>
      </trkpt>
      <trkpt lat="42.49608" lon="2.41959">
        <ele>1846.3</ele>
        <time>2018-08-05T06:40:38.05Z</time>
      </trkpt>
      <trkpt lat="42.49602" lon="2.41968">
        <ele>1848.8</ele>
        <time>2018-08-05T06:40:46.05Z</time>
      </trkpt>
      <trkpt lat="42.49604" lon="2.41977">
        <ele>1848.6</ele>
        <time>2018-08-05T06:40:59.05Z</time>
      </trkpt>
      <trkpt lat="42.49611" lon="2.41979">
        <ele>1846.8</ele>
        <time>2018-08-05T06:41:05.05Z</time>
      </trkpt>
      <trkpt lat="42.49615" lon="2.4198">
        <ele>1845.7</ele>
        <time>2018-08-05T06:41:08.05Z</time>
      </trkpt>
      <trkpt lat="42.49618" lon="2.41981">
        <ele>1845</ele>
        <time>2018-08-05T06:41:11.05Z</time>
      </trkpt>
      <trkpt lat="42.49622" lon="2.4198">
        <ele>1843.8</ele>
        <time>2018-08-05T06:41:13.05Z</time>
      </trkpt>
      <trkpt lat="42.49625" lon="2.41978">
        <ele>1842.7</ele>
        <time>2018-08-05T06:41:15.05Z</time>
      </trkpt>
      <trkpt lat="42.49628" lon="2.41977">
        <ele>1841.7</ele>
        <time>2018-08-05T06:41:17.05Z</time>
      </trkpt>
      <trkpt lat="42.49632" lon="2.41976">
        <ele>1840.4</ele>
        <time>2018-08-05T06:41:20.05Z</time>
      </trkpt>
      <trkpt lat="42.49635" lon="2.41973">
        <ele>1839.1</ele>
        <time>2018-08-05T06:41:23.05Z</time>
      </trkpt>
      <trkpt lat="42.49644" lon="2.41971">
        <ele>1836</ele>
        <time>2018-08-05T06:41:31.05Z</time>
      </trkpt>
      <trkpt lat="42.49647" lon="2.41969">
        <ele>1834.7</ele>
        <time>2018-08-05T06:41:35.05Z</time>
      </trkpt>
      <trkpt lat="42.49651" lon="2.41967">
        <ele>1832.9</ele>
        <time>2018-08-05T06:41:38.05Z</time>
      </trkpt>
      <trkpt lat="42.49661" lon="2.41972">
        <ele>1831</ele>
        <time>2018-08-05T06:41:49.05Z</time>
      </trkpt>
      <trkpt lat="42.49668" lon="2.41981">
        <ele>1831.6</ele>
        <time>2018-08-05T06:41:57.05Z</time>
      </trkpt>
      <trkpt lat="42.49676" lon="2.41991">
        <ele>1833.3</ele>
        <time>2018-08-05T06:42:07.05Z</time>
      </trkpt>
      <trkpt lat="42.49684" lon="2.42">
        <ele>1834.9</ele>
        <time>2018-08-05T06:42:15.05Z</time>
      </trkpt>
      <trkpt lat="42.49691" lon="2.42011">
        <ele>1838.5</ele>
        <time>2018-08-05T06:42:23.05Z</time>
      </trkpt>
      <trkpt lat="42.49699" lon="2.42019">
        <ele>1840.8</ele>
        <time>2018-08-05T06:42:32.05Z</time>
      </trkpt>
      <trkpt lat="42.49707" lon="2.42026">
        <ele>1842.6</ele>
        <time>2018-08-05T06:42:40.05Z</time>
      </trkpt>
      <trkpt lat="42.49712" lon="2.42035">
        <ele>1845.6</ele>
        <time>2018-08-05T06:42:47.05Z</time>
      </trkpt>
      <trkpt lat="42.4972" lon="2.42044">
        <ele>1848.2</ele>
        <time>2018-08-05T06:42:56.05Z</time>
      </trkpt>
      <trkpt lat="42.49728" lon="2.42051">
        <ele>1850</ele>
        <time>2018-08-05T06:43:04.05Z</time>
      </trkpt>
      <trkpt lat="42.49734" lon="2.4206">
        <ele>1852.8</ele>
        <time>2018-08-05T06:43:12.05Z</time>
      </trkpt>
      <trkpt lat="42.49743" lon="2.42063">
        <ele>1852.9</ele>
        <time>2018-08-05T06:43:19.05Z</time>
      </trkpt>
      <trkpt lat="42.49751" lon="2.42071">
        <ele>1855.1</ele>
        <time>2018-08-05T06:43:26.05Z</time>
      </trkpt>
      <trkpt lat="42.49759" lon="2.42078">
        <ele>1857.5</ele>
        <time>2018-08-05T06:43:33.05Z</time>
      </trkpt>
      <trkpt lat="42.49769" lon="2.42082">
        <ele>1858.6</ele>
        <time>2018-08-05T06:43:38.05Z</time>
      </trkpt>
      <trkpt lat="42.49779" lon="2.42087">
        <ele>1859.6</ele>
        <time>2018-08-05T06:43:45.05Z</time>
      </trkpt>
      <trkpt lat="42.49791" lon="2.4209">
        <ele>1859.6</ele>
        <time>2018-08-05T06:43:51.05Z</time>
      </trkpt>
      <trkpt lat="42.49801" lon="2.42097">
        <ele>1860.4</ele>
        <time>2018-08-05T06:43:56.05Z</time>
      </trkpt>
      <trkpt lat="42.49808" lon="2.42107">
        <ele>1861.7</ele>
        <time>2018-08-05T06:44:03.05Z</time>
      </trkpt>
      <trkpt lat="42.49818" lon="2.42109">
        <ele>1860.9</ele>
        <time>2018-08-05T06:44:10.05Z</time>
      </trkpt>
      <trkpt lat="42.49826" lon="2.42118">
        <ele>1861.2</ele>
        <time>2018-08-05T06:44:16.05Z</time>
      </trkpt>
      <trkpt lat="42.4983" lon="2.4213">
        <ele>1862.2</ele>
        <time>2018-08-05T06:44:24.05Z</time>
      </trkpt>
      <trkpt lat="42.49831" lon="2.42144">
        <ele>1863.8</ele>
        <time>2018-08-05T06:44:31.05Z</time>
      </trkpt>
      <trkpt lat="42.49827" lon="2.42158">
        <ele>1866.6</ele>
        <time>2018-08-05T06:44:38.05Z</time>
      </trkpt>
      <trkpt lat="42.49827" lon="2.42172">
        <ele>1868.2</ele>
        <time>2018-08-05T06:44:45.05Z</time>
      </trkpt>
      <trkpt lat="42.49826" lon="2.42186">
        <ele>1869.7</ele>
        <time>2018-08-05T06:44:50.05Z</time>
      </trkpt>
      <trkpt lat="42.49821" lon="2.42198">
        <ele>1872.7</ele>
        <time>2018-08-05T06:44:54.05Z</time>
      </trkpt>
      <trkpt lat="42.49822" lon="2.42212">
        <ele>1873.7</ele>
        <time>2018-08-05T06:45:00.05Z</time>
      </trkpt>
      <trkpt lat="42.49821" lon="2.42227">
        <ele>1875.7</ele>
        <time>2018-08-05T06:45:07.05Z</time>
      </trkpt>
      <trkpt lat="42.49821" lon="2.42242">
        <ele>1877.3</ele>
        <time>2018-08-05T06:45:14.05Z</time>
      </trkpt>
      <trkpt lat="42.49819" lon="2.42256">
        <ele>1880.2</ele>
        <time>2018-08-05T06:45:21.05Z</time>
      </trkpt>
      <trkpt lat="42.49817" lon="2.42269">
        <ele>1883.3</ele>
        <time>2018-08-05T06:45:27.05Z</time>
      </trkpt>
      <trkpt lat="42.49816" lon="2.42284">
        <ele>1886.2</ele>
        <time>2018-08-05T06:45:34.05Z</time>
      </trkpt>
      <trkpt lat="42.49815" lon="2.42299">
        <ele>1889.2</ele>
        <time>2018-08-05T06:45:42.05Z</time>
      </trkpt>
      <trkpt lat="42.49819" lon="2.42313">
        <ele>1888.7</ele>
        <time>2018-08-05T06:45:50.05Z</time>
      </trkpt>
      <trkpt lat="42.49822" lon="2.42326">
        <ele>1888.7</ele>
        <time>2018-08-05T06:45:58.05Z</time>
      </trkpt>
      <trkpt lat="42.49824" lon="2.4234">
        <ele>1889.1</ele>
        <time>2018-08-05T06:46:06.05Z</time>
      </trkpt>
      <trkpt lat="42.49825" lon="2.42353">
        <ele>1889.7</ele>
        <time>2018-08-05T06:46:13.05Z</time>
      </trkpt>
      <trkpt lat="42.49826" lon="2.42368">
        <ele>1890.6</ele>
        <time>2018-08-05T06:46:23.05Z</time>
      </trkpt>
      <trkpt lat="42.49829" lon="2.42383">
        <ele>1890.2</ele>
        <time>2018-08-05T06:46:32.05Z</time>
      </trkpt>
      <trkpt lat="42.49832" lon="2.42396">
        <ele>1889.6</ele>
        <time>2018-08-05T06:46:37.05Z</time>
      </trkpt>
      <trkpt lat="42.49836" lon="2.42409">
        <ele>1888.2</ele>
        <time>2018-08-05T06:46:42.05Z</time>
      </trkpt>
      <trkpt lat="42.4984" lon="2.42421">
        <ele>1886.4</ele>
        <time>2018-08-05T06:46:49.05Z</time>
      </trkpt>
      <trkpt lat="42.49841" lon="2.42435">
        <ele>1887.1</ele>
        <time>2018-08-05T06:46:57.05Z</time>
      </trkpt>
      <trkpt lat="42.49837" lon="2.42448">
        <ele>1891.3</ele>
        <time>2018-08-05T06:47:03.05Z</time>
      </trkpt>
      <trkpt lat="42.49839" lon="2.4246">
        <ele>1891.1</ele>
        <time>2018-08-05T06:47:10.05Z</time>
      </trkpt>
      <trkpt lat="42.4984" lon="2.42472">
        <ele>1891.6</ele>
        <time>2018-08-05T06:47:17.05Z</time>
      </trkpt>
      <trkpt lat="42.49839" lon="2.42487">
        <ele>1893.8</ele>
        <time>2018-08-05T06:47:27.05Z</time>
      </trkpt>
      <trkpt lat="42.49834" lon="2.425">
        <ele>1898.5</ele>
        <time>2018-08-05T06:47:36.05Z</time>
      </trkpt>
      <trkpt lat="42.4983" lon="2.42512">
        <ele>1902.5</ele>
        <time>2018-08-05T06:47:45.05Z</time>
      </trkpt>
      <trkpt lat="42.49831" lon="2.42526">
        <ele>1903.8</ele>
        <time>2018-08-05T06:47:51.05Z</time>
      </trkpt>
      <trkpt lat="42.49833" lon="2.4254">
        <ele>1904.5</ele>
        <time>2018-08-05T06:48:01.05Z</time>
      </trkpt>
      <trkpt lat="42.49835" lon="2.42554">
        <ele>1905.1</ele>
        <time>2018-08-05T06:48:09.05Z</time>
      </trkpt>
      <trkpt lat="42.4984" lon="2.42567">
        <ele>1903.7</ele>
        <time>2018-08-05T06:48:18.05Z</time>
      </trkpt>
      <trkpt lat="42.49845" lon="2.42581">
        <ele>1902.5</ele>
        <time>2018-08-05T06:48:25.05Z</time>
      </trkpt>
      <trkpt lat="42.49849" lon="2.42594">
        <ele>1901.7</ele>
        <time>2018-08-05T06:48:32.05Z</time>
      </trkpt>
      <trkpt lat="42.49853" lon="2.42607">
        <ele>1900.8</ele>
        <time>2018-08-05T06:48:40.05Z</time>
      </trkpt>
      <trkpt lat="42.49855" lon="2.42622">
        <ele>1901.5</ele>
        <time>2018-08-05T06:48:46.05Z</time>
      </trkpt>
      <trkpt lat="42.49859" lon="2.42636">
        <ele>1901.1</ele>
        <time>2018-08-05T06:48:53.05Z</time>
      </trkpt>
      <trkpt lat="42.49861" lon="2.4265">
        <ele>1901.9</ele>
        <time>2018-08-05T06:48:59.05Z</time>
      </trkpt>
      <trkpt lat="42.49862" lon="2.42665">
        <ele>1903.3</ele>
        <time>2018-08-05T06:49:05.05Z</time>
      </trkpt>
      <trkpt lat="42.49856" lon="2.42678">
        <ele>1909.2</ele>
        <time>2018-08-05T06:49:11.05Z</time>
      </trkpt>
      <trkpt lat="42.49857" lon="2.42692">
        <ele>1912</ele>
        <time>2018-08-05T06:49:23.05Z</time>
      </trkpt>
      <trkpt lat="42.49864" lon="2.42701">
        <ele>1910.4</ele>
        <time>2018-08-05T06:49:34.05Z</time>
      </trkpt>
      <trkpt lat="42.4987" lon="2.42712">
        <ele>1909.7</ele>
        <time>2018-08-05T06:49:41.05Z</time>
      </trkpt>
      <trkpt lat="42.49876" lon="2.42726">
        <ele>1909.6</ele>
        <time>2018-08-05T06:49:47.05Z</time>
      </trkpt>
      <trkpt lat="42.4988" lon="2.4274">
        <ele>1910.5</ele>
        <time>2018-08-05T06:49:53.05Z</time>
      </trkpt>
      <trkpt lat="42.49883" lon="2.42753">
        <ele>1911.6</ele>
        <time>2018-08-05T06:49:59.05Z</time>
      </trkpt>
      <trkpt lat="42.49887" lon="2.42766">
        <ele>1911.8</ele>
        <time>2018-08-05T06:50:05.05Z</time>
      </trkpt>
      <trkpt lat="42.49891" lon="2.4278">
        <ele>1912.1</ele>
        <time>2018-08-05T06:50:11.05Z</time>
      </trkpt>
      <trkpt lat="42.49891" lon="2.42795">
        <ele>1914.9</ele>
        <time>2018-08-05T06:50:18.05Z</time>
      </trkpt>
      <trkpt lat="42.49894" lon="2.42808">
        <ele>1915.5</ele>
        <time>2018-08-05T06:50:24.05Z</time>
      </trkpt>
      <trkpt lat="42.49894" lon="2.42822">
        <ele>1918.1</ele>
        <time>2018-08-05T06:50:30.05Z</time>
      </trkpt>
      <trkpt lat="42.49894" lon="2.42837">
        <ele>1920.5</ele>
        <time>2018-08-05T06:50:38.05Z</time>
      </trkpt>
      <trkpt lat="42.49893" lon="2.42851">
        <ele>1922.4</ele>
        <time>2018-08-05T06:50:44.05Z</time>
      </trkpt>
      <trkpt lat="42.49894" lon="2.42866">
        <ele>1923.1</ele>
        <time>2018-08-05T06:50:50.05Z</time>
      </trkpt>
      <trkpt lat="42.49896" lon="2.4288">
        <ele>1922.9</ele>
        <time>2018-08-05T06:50:55.05Z</time>
      </trkpt>
      <trkpt lat="42.49902" lon="2.42891">
        <ele>1919.7</ele>
        <time>2018-08-05T06:51:00.05Z</time>
      </trkpt>
      <trkpt lat="42.49909" lon="2.42901">
        <ele>1915.5</ele>
        <time>2018-08-05T06:51:07.05Z</time>
      </trkpt>
      <trkpt lat="42.49907" lon="2.42915">
        <ele>1918</ele>
        <time>2018-08-05T06:51:17.05Z</time>
      </trkpt>
      <trkpt lat="42.499" lon="2.42925">
        <ele>1924.2</ele>
        <time>2018-08-05T06:51:24.05Z</time>
      </trkpt>
      <trkpt lat="42.4989" lon="2.42932">
        <ele>1932.5</ele>
        <time>2018-08-05T06:51:34.05Z</time>
      </trkpt>
      <trkpt lat="42.49883" lon="2.42942">
        <ele>1938.9</ele>
        <time>2018-08-05T06:51:41.05Z</time>
      </trkpt>
      <trkpt lat="42.49885" lon="2.42958">
        <ele>1939.5</ele>
        <time>2018-08-05T06:51:47.05Z</time>
      </trkpt>
      <trkpt lat="42.49883" lon="2.42972">
        <ele>1942.8</ele>
        <time>2018-08-05T06:51:52.05Z</time>
      </trkpt>
      <trkpt lat="42.4988" lon="2.42984">
        <ele>1946.6</ele>
        <time>2018-08-05T06:52:03.05Z</time>
      </trkpt>
      <trkpt lat="42.49889" lon="2.42991">
        <ele>1940.8</ele>
        <time>2018-08-05T06:52:11.05Z</time>
      </trkpt>
      <trkpt lat="42.4989" lon="2.43007">
        <ele>1943.4</ele>
        <time>2018-08-05T06:52:17.05Z</time>
      </trkpt>
      <trkpt lat="42.4989" lon="2.43021">
        <ele>1948</ele>
        <time>2018-08-05T06:52:24.05Z</time>
      </trkpt>
      <trkpt lat="42.49899" lon="2.4303">
        <ele>1944.6</ele>
        <time>2018-08-05T06:52:34.05Z</time>
      </trkpt>
      <trkpt lat="42.49908" lon="2.43037">
        <ele>1940.8</ele>
        <time>2018-08-05T06:52:40.05Z</time>
      </trkpt>
      <trkpt lat="42.49917" lon="2.43046">
        <ele>1937.9</ele>
        <time>2018-08-05T06:52:46.05Z</time>
      </trkpt>
      <trkpt lat="42.49925" lon="2.43055">
        <ele>1935.3</ele>
        <time>2018-08-05T06:52:50.05Z</time>
      </trkpt>
      <trkpt lat="42.49931" lon="2.43066">
        <ele>1934.9</ele>
        <time>2018-08-05T06:52:55.05Z</time>
      </trkpt>
      <trkpt lat="42.49938" lon="2.43077">
        <ele>1933.6</ele>
        <time>2018-08-05T06:53:00.05Z</time>
      </trkpt>
      <trkpt lat="42.49944" lon="2.4309">
        <ele>1932.5</ele>
        <time>2018-08-05T06:53:04.05Z</time>
      </trkpt>
      <trkpt lat="42.49947" lon="2.43103">
        <ele>1932.5</ele>
        <time>2018-08-05T06:53:08.05Z</time>
      </trkpt>
      <trkpt lat="42.49948" lon="2.43118">
        <ele>1934.4</ele>
        <time>2018-08-05T06:53:14.05Z</time>
      </trkpt>
      <trkpt lat="42.49949" lon="2.43133">
        <ele>1936.3</ele>
        <time>2018-08-05T06:53:20.05Z</time>
      </trkpt>
      <trkpt lat="42.4995" lon="2.43148">
        <ele>1938.1</ele>
        <time>2018-08-05T06:53:26.05Z</time>
      </trkpt>
      <trkpt lat="42.49951" lon="2.43162">
        <ele>1939.8</ele>
        <time>2018-08-05T06:53:34.05Z</time>
      </trkpt>
      <trkpt lat="42.4995" lon="2.43177">
        <ele>1943.2</ele>
        <time>2018-08-05T06:53:40.05Z</time>
      </trkpt>
      <trkpt lat="42.4995" lon="2.43192">
        <ele>1945.9</ele>
        <time>2018-08-05T06:53:46.05Z</time>
      </trkpt>
      <trkpt lat="42.49948" lon="2.43207">
        <ele>1950.1</ele>
        <time>2018-08-05T06:53:53.05Z</time>
      </trkpt>
      <trkpt lat="42.49949" lon="2.43222">
        <ele>1952</ele>
        <time>2018-08-05T06:53:59.05Z</time>
      </trkpt>
      <trkpt lat="42.49955" lon="2.43234">
        <ele>1949.6</ele>
        <time>2018-08-05T06:54:07.05Z</time>
      </trkpt>
      <trkpt lat="42.49954" lon="2.43248">
        <ele>1952.9</ele>
        <time>2018-08-05T06:54:16.05Z</time>
      </trkpt>
      <trkpt lat="42.49958" lon="2.43259">
        <ele>1951.4</ele>
        <time>2018-08-05T06:54:26.05Z</time>
      </trkpt>
      <trkpt lat="42.49961" lon="2.43272">
        <ele>1951.1</ele>
        <time>2018-08-05T06:54:36.05Z</time>
      </trkpt>
      <trkpt lat="42.49969" lon="2.43282">
        <ele>1947.2</ele>
        <time>2018-08-05T06:54:51.05Z</time>
      </trkpt>
      <trkpt lat="42.49973" lon="2.43296">
        <ele>1946.9</ele>
        <time>2018-08-05T06:55:03.05Z</time>
      </trkpt>
      <trkpt lat="42.49973" lon="2.4331">
        <ele>1949.3</ele>
        <time>2018-08-05T06:55:12.05Z</time>
      </trkpt>
      <trkpt lat="42.49972" lon="2.43324">
        <ele>1952.2</ele>
        <time>2018-08-05T06:55:18.05Z</time>
      </trkpt>
      <trkpt lat="42.4997" lon="2.4334">
        <ele>1955.1</ele>
        <time>2018-08-05T06:55:24.05Z</time>
      </trkpt>
      <trkpt lat="42.49974" lon="2.43355">
        <ele>1953.6</ele>
        <time>2018-08-05T06:55:30.05Z</time>
      </trkpt>
      <trkpt lat="42.49976" lon="2.43369">
        <ele>1953.2</ele>
        <time>2018-08-05T06:55:36.05Z</time>
      </trkpt>
      <trkpt lat="42.49978" lon="2.43383">
        <ele>1952.8</ele>
        <time>2018-08-05T06:55:42.05Z</time>
      </trkpt>
      <trkpt lat="42.49974" lon="2.43397">
        <ele>1955.4</ele>
        <time>2018-08-05T06:55:49.05Z</time>
      </trkpt>
      <trkpt lat="42.49977" lon="2.43411">
        <ele>1954.5</ele>
        <time>2018-08-05T06:55:56.05Z</time>
      </trkpt>
      <trkpt lat="42.49979" lon="2.43427">
        <ele>1955.1</ele>
        <time>2018-08-05T06:56:03.05Z</time>
      </trkpt>
      <trkpt lat="42.49984" lon="2.43439">
        <ele>1954.3</ele>
        <time>2018-08-05T06:56:08.05Z</time>
      </trkpt>
      <trkpt lat="42.49988" lon="2.43453">
        <ele>1954.4</ele>
        <time>2018-08-05T06:56:15.05Z</time>
      </trkpt>
      <trkpt lat="42.49992" lon="2.43466">
        <ele>1954.5</ele>
        <time>2018-08-05T06:56:21.05Z</time>
      </trkpt>
      <trkpt lat="42.49988" lon="2.43479">
        <ele>1957.8</ele>
        <time>2018-08-05T06:56:32.05Z</time>
      </trkpt>
      <trkpt lat="42.49988" lon="2.43492">
        <ele>1959.6</ele>
        <time>2018-08-05T06:56:43.05Z</time>
      </trkpt>
      <trkpt lat="42.49989" lon="2.43508">
        <ele>1960.8</ele>
        <time>2018-08-05T06:56:50.05Z</time>
      </trkpt>
      <trkpt lat="42.49984" lon="2.43521">
        <ele>1963.6</ele>
        <time>2018-08-05T06:56:58.05Z</time>
      </trkpt>
      <trkpt lat="42.49982" lon="2.43536">
        <ele>1965.4</ele>
        <time>2018-08-05T06:57:04.05Z</time>
      </trkpt>
      <trkpt lat="42.49983" lon="2.43549">
        <ele>1965.9</ele>
        <time>2018-08-05T06:57:10.05Z</time>
      </trkpt>
      <trkpt lat="42.49981" lon="2.43563">
        <ele>1967.6</ele>
        <time>2018-08-05T06:57:16.05Z</time>
      </trkpt>
      <trkpt lat="42.49978" lon="2.43578">
        <ele>1969.5</ele>
        <time>2018-08-05T06:57:22.05Z</time>
      </trkpt>
      <trkpt lat="42.49974" lon="2.43592">
        <ele>1971.2</ele>
        <time>2018-08-05T06:57:30.05Z</time>
      </trkpt>
      <trkpt lat="42.49978" lon="2.43605">
        <ele>1970.1</ele>
        <time>2018-08-05T06:57:38.05Z</time>
      </trkpt>
      <trkpt lat="42.4998" lon="2.43619">
        <ele>1969.5</ele>
        <time>2018-08-05T06:57:46.05Z</time>
      </trkpt>
      <trkpt lat="42.49982" lon="2.43634">
        <ele>1969</ele>
        <time>2018-08-05T06:57:51.05Z</time>
      </trkpt>
      <trkpt lat="42.49986" lon="2.43648">
        <ele>1967.8</ele>
        <time>2018-08-05T06:57:57.05Z</time>
      </trkpt>
      <trkpt lat="42.49991" lon="2.4366">
        <ele>1966.1</ele>
        <time>2018-08-05T06:58:04.05Z</time>
      </trkpt>
      <trkpt lat="42.49991" lon="2.43675">
        <ele>1966.2</ele>
        <time>2018-08-05T06:58:12.05Z</time>
      </trkpt>
      <trkpt lat="42.49988" lon="2.43689">
        <ele>1967.5</ele>
        <time>2018-08-05T06:58:19.05Z</time>
      </trkpt>
      <trkpt lat="42.49983" lon="2.437">
        <ele>1969.7</ele>
        <time>2018-08-05T06:58:24.05Z</time>
      </trkpt>
      <trkpt lat="42.49977" lon="2.43715">
        <ele>1972.4</ele>
        <time>2018-08-05T06:58:29.05Z</time>
      </trkpt>
      <trkpt lat="42.49973" lon="2.43727">
        <ele>1974.5</ele>
        <time>2018-08-05T06:58:35.05Z</time>
      </trkpt>
      <trkpt lat="42.49972" lon="2.43743">
        <ele>1975.5</ele>
        <time>2018-08-05T06:58:40.05Z</time>
      </trkpt>
      <trkpt lat="42.49972" lon="2.4376">
        <ele>1976.1</ele>
        <time>2018-08-05T06:58:45.05Z</time>
      </trkpt>
      <trkpt lat="42.49973" lon="2.43774">
        <ele>1976.1</ele>
        <time>2018-08-05T06:58:49.05Z</time>
      </trkpt>
      <trkpt lat="42.49971" lon="2.43789">
        <ele>1977.5</ele>
        <time>2018-08-05T06:58:54.05Z</time>
      </trkpt>
      <trkpt lat="42.49966" lon="2.43801">
        <ele>1980.1</ele>
        <time>2018-08-05T06:58:58.05Z</time>
      </trkpt>
      <trkpt lat="42.49965" lon="2.43809">
        <ele>1980.8</ele>
        <time>2018-08-05T06:59:01.05Z</time>
      </trkpt>
      <trkpt lat="42.49965" lon="2.43815">
        <ele>1981</ele>
        <time>2018-08-05T06:59:03.05Z</time>
      </trkpt>
      <trkpt lat="42.49966" lon="2.43821">
        <ele>1980.7</ele>
        <time>2018-08-05T06:59:05.05Z</time>
      </trkpt>
      <trkpt lat="42.49968" lon="2.43831">
        <ele>1980.1</ele>
        <time>2018-08-05T06:59:08.05Z</time>
      </trkpt>
      <trkpt lat="42.49966" lon="2.4384">
        <ele>1981</ele>
        <time>2018-08-05T06:59:11.05Z</time>
      </trkpt>
      <trkpt lat="42.49961" lon="2.43852">
        <ele>1982.8</ele>
        <time>2018-08-05T06:59:15.05Z</time>
      </trkpt>
      <trkpt lat="42.49959" lon="2.43858">
        <ele>1983.4</ele>
        <time>2018-08-05T06:59:17.05Z</time>
      </trkpt>
      <trkpt lat="42.49953" lon="2.43866">
        <ele>1985.3</ele>
        <time>2018-08-05T06:59:22.05Z</time>
      </trkpt>
      <trkpt lat="42.4995" lon="2.43868">
        <ele>1986.3</ele>
        <time>2018-08-05T06:59:24.05Z</time>
      </trkpt>
      <trkpt lat="42.49946" lon="2.4387">
        <ele>1987.6</ele>
        <time>2018-08-05T06:59:27.05Z</time>
      </trkpt>
      <trkpt lat="42.49945" lon="2.43876">
        <ele>1987.6</ele>
        <time>2018-08-05T06:59:30.05Z</time>
      </trkpt>
      <trkpt lat="42.49944" lon="2.43882">
        <ele>1987.5</ele>
        <time>2018-08-05T06:59:33.05Z</time>
      </trkpt>
      <trkpt lat="42.49943" lon="2.43887">
        <ele>1987.5</ele>
        <time>2018-08-05T06:59:36.05Z</time>
      </trkpt>
      <trkpt lat="42.49943" lon="2.43895">
        <ele>1986.9</ele>
        <time>2018-08-05T06:59:40.05Z</time>
      </trkpt>
      <trkpt lat="42.49944" lon="2.43902">
        <ele>1986.1</ele>
        <time>2018-08-05T06:59:43.05Z</time>
      </trkpt>
      <trkpt lat="42.49947" lon="2.43906">
        <ele>1985</ele>
        <time>2018-08-05T06:59:46.05Z</time>
      </trkpt>
      <trkpt lat="42.49946" lon="2.43913">
        <ele>1984.8</ele>
        <time>2018-08-05T06:59:49.05Z</time>
      </trkpt>
      <trkpt lat="42.49944" lon="2.43918">
        <ele>1985.2</ele>
        <time>2018-08-05T06:59:52.05Z</time>
      </trkpt>
      <trkpt lat="42.49945" lon="2.43923">
        <ele>1985.4</ele>
        <time>2018-08-05T06:59:56.05Z</time>
      </trkpt>
      <trkpt lat="42.49948" lon="2.43925">
        <ele>1984.8</ele>
        <time>2018-08-05T06:59:59.05Z</time>
      </trkpt>
      <trkpt lat="42.49953" lon="2.43928">
        <ele>1983.8</ele>
        <time>2018-08-05T07:00:03.05Z</time>
      </trkpt>
      <trkpt lat="42.49956" lon="2.43934">
        <ele>1983.6</ele>
        <time>2018-08-05T07:00:06.05Z</time>
      </trkpt>
      <trkpt lat="42.49964" lon="2.43943">
        <ele>1982.5</ele>
        <time>2018-08-05T07:00:16.05Z</time>
      </trkpt>
      <trkpt lat="42.4997" lon="2.43951">
        <ele>1981.9</ele>
        <time>2018-08-05T07:00:29.05Z</time>
      </trkpt>
      <trkpt lat="42.49978" lon="2.43954">
        <ele>1980.4</ele>
        <time>2018-08-05T07:00:43.05Z</time>
      </trkpt>
      <trkpt lat="42.49989" lon="2.43958">
        <ele>1978.4</ele>
        <time>2018-08-05T07:00:54.05Z</time>
      </trkpt>
      <trkpt lat="42.49999" lon="2.43962">
        <ele>1976.7</ele>
        <time>2018-08-05T07:01:02.05Z</time>
      </trkpt>
      <trkpt lat="42.50009" lon="2.43965">
        <ele>1979.5</ele>
        <time>2018-08-05T07:01:12.05Z</time>
      </trkpt>
      <trkpt lat="42.50019" lon="2.43961">
        <ele>1982</ele>
        <time>2018-08-05T07:01:20.05Z</time>
      </trkpt>
      <trkpt lat="42.50021" lon="2.43951">
        <ele>1981.4</ele>
        <time>2018-08-05T07:01:28.05Z</time>
      </trkpt>
      <trkpt lat="42.5002" lon="2.4394">
        <ele>1979.7</ele>
        <time>2018-08-05T07:01:32.05Z</time>
      </trkpt>
      <trkpt lat="42.50023" lon="2.43927">
        <ele>1978.9</ele>
        <time>2018-08-05T07:01:37.05Z</time>
      </trkpt>
      <trkpt lat="42.50026" lon="2.43914">
        <ele>1978.3</ele>
        <time>2018-08-05T07:01:42.05Z</time>
      </trkpt>
      <trkpt lat="42.50033" lon="2.43907">
        <ele>1979.6</ele>
        <time>2018-08-05T07:01:46.05Z</time>
      </trkpt>
      <trkpt lat="42.50041" lon="2.43895">
        <ele>1980.6</ele>
        <time>2018-08-05T07:01:51.05Z</time>
      </trkpt>
      <trkpt lat="42.50046" lon="2.43882">
        <ele>1980.6</ele>
        <time>2018-08-05T07:01:56.05Z</time>
      </trkpt>
      <trkpt lat="42.50051" lon="2.43868">
        <ele>1980.3</ele>
        <time>2018-08-05T07:02:02.05Z</time>
      </trkpt>
      <trkpt lat="42.50056" lon="2.43857">
        <ele>1980.2</ele>
        <time>2018-08-05T07:02:07.05Z</time>
      </trkpt>
      <trkpt lat="42.50061" lon="2.43848">
        <ele>1980.2</ele>
        <time>2018-08-05T07:02:11.05Z</time>
      </trkpt>
      <trkpt lat="42.50068" lon="2.4384">
        <ele>1980.7</ele>
        <time>2018-08-05T07:02:17.05Z</time>
      </trkpt>
      <trkpt lat="42.50074" lon="2.43826">
        <ele>1979.1</ele>
        <time>2018-08-05T07:02:23.05Z</time>
      </trkpt>
      <trkpt lat="42.5008" lon="2.43817">
        <ele>1977.6</ele>
        <time>2018-08-05T07:02:28.05Z</time>
      </trkpt>
      <trkpt lat="42.50088" lon="2.43809">
        <ele>1977.3</ele>
        <time>2018-08-05T07:02:33.05Z</time>
      </trkpt>
      <trkpt lat="42.50095" lon="2.43804">
        <ele>1978.1</ele>
        <time>2018-08-05T07:02:37.05Z</time>
      </trkpt>
      <trkpt lat="42.50105" lon="2.43799">
        <ele>1979.9</ele>
        <time>2018-08-05T07:02:42.05Z</time>
      </trkpt>
      <trkpt lat="42.50116" lon="2.43795">
        <ele>1982.3</ele>
        <time>2018-08-05T07:02:48.05Z</time>
      </trkpt>
      <trkpt lat="42.50126" lon="2.4379">
        <ele>1984</ele>
        <time>2018-08-05T07:02:54.05Z</time>
      </trkpt>
      <trkpt lat="42.50136" lon="2.43786">
        <ele>1986.1</ele>
        <time>2018-08-05T07:02:59.05Z</time>
      </trkpt>
      <trkpt lat="42.50147" lon="2.43782">
        <ele>1988.3</ele>
        <time>2018-08-05T07:03:05.05Z</time>
      </trkpt>
      <trkpt lat="42.50154" lon="2.43779">
        <ele>1989.6</ele>
        <time>2018-08-05T07:03:09.05Z</time>
      </trkpt>
      <trkpt lat="42.50158" lon="2.43774">
        <ele>1989.3</ele>
        <time>2018-08-05T07:03:13.05Z</time>
      </trkpt>
      <trkpt lat="42.50164" lon="2.43768">
        <ele>1989.2</ele>
        <time>2018-08-05T07:03:19.05Z</time>
      </trkpt>
      <trkpt lat="42.50169" lon="2.43761">
        <ele>1988.4</ele>
        <time>2018-08-05T07:03:22.05Z</time>
      </trkpt>
      <trkpt lat="42.50174" lon="2.43754">
        <ele>1987.7</ele>
        <time>2018-08-05T07:03:26.05Z</time>
      </trkpt>
      <trkpt lat="42.5018" lon="2.4375">
        <ele>1988.3</ele>
        <time>2018-08-05T07:03:30.05Z</time>
      </trkpt>
      <trkpt lat="42.50186" lon="2.43743">
        <ele>1988.8</ele>
        <time>2018-08-05T07:03:34.05Z</time>
      </trkpt>
      <trkpt lat="42.5019" lon="2.43736">
        <ele>1988.7</ele>
        <time>2018-08-05T07:03:38.05Z</time>
      </trkpt>
      <trkpt lat="42.50196" lon="2.43729">
        <ele>1989.4</ele>
        <time>2018-08-05T07:03:42.05Z</time>
      </trkpt>
      <trkpt lat="42.50203" lon="2.43725">
        <ele>1991.2</ele>
        <time>2018-08-05T07:03:47.05Z</time>
      </trkpt>
      <trkpt lat="42.50212" lon="2.43726">
        <ele>1994.7</ele>
        <time>2018-08-05T07:03:51.05Z</time>
      </trkpt>
      <trkpt lat="42.50219" lon="2.43727">
        <ele>1997.3</ele>
        <time>2018-08-05T07:03:54.05Z</time>
      </trkpt>
      <trkpt lat="42.50227" lon="2.43726">
        <ele>2000.1</ele>
        <time>2018-08-05T07:03:58.05Z</time>
      </trkpt>
      <trkpt lat="42.50235" lon="2.43724">
        <ele>2002.7</ele>
        <time>2018-08-05T07:04:04.05Z</time>
      </trkpt>
      <trkpt lat="42.50244" lon="2.43723">
        <ele>2005.9</ele>
        <time>2018-08-05T07:04:08.05Z</time>
      </trkpt>
      <trkpt lat="42.50251" lon="2.43724">
        <ele>2008.6</ele>
        <time>2018-08-05T07:04:12.05Z</time>
      </trkpt>
      <trkpt lat="42.50254" lon="2.43716">
        <ele>2009.1</ele>
        <time>2018-08-05T07:04:20.05Z</time>
      </trkpt>
      <trkpt lat="42.50254" lon="2.43707">
        <ele>2008.1</ele>
        <time>2018-08-05T07:04:27.05Z</time>
      </trkpt>
      <trkpt lat="42.50253" lon="2.43697">
        <ele>2006.6</ele>
        <time>2018-08-05T07:04:33.05Z</time>
      </trkpt>
      <trkpt lat="42.50254" lon="2.43688">
        <ele>2006.1</ele>
        <time>2018-08-05T07:04:39.05Z</time>
      </trkpt>
      <trkpt lat="42.50253" lon="2.43674">
        <ele>2004.2</ele>
        <time>2018-08-05T07:04:46.05Z</time>
      </trkpt>
      <trkpt lat="42.50261" lon="2.43663">
        <ele>2006.6</ele>
        <time>2018-08-05T07:04:52.05Z</time>
      </trkpt>
      <trkpt lat="42.50269" lon="2.4365">
        <ele>2008.5</ele>
        <time>2018-08-05T07:04:59.05Z</time>
      </trkpt>
      <trkpt lat="42.50274" lon="2.43639">
        <ele>2009.3</ele>
        <time>2018-08-05T07:05:05.05Z</time>
      </trkpt>
      <trkpt lat="42.5028" lon="2.43627">
        <ele>2010.5</ele>
        <time>2018-08-05T07:05:12.05Z</time>
      </trkpt>
      <trkpt lat="42.50284" lon="2.43617">
        <ele>2011.1</ele>
        <time>2018-08-05T07:05:17.05Z</time>
      </trkpt>
      <trkpt lat="42.50291" lon="2.43606">
        <ele>2013.2</ele>
        <time>2018-08-05T07:05:24.05Z</time>
      </trkpt>
      <trkpt lat="42.50295" lon="2.43595">
        <ele>2013.7</ele>
        <time>2018-08-05T07:05:28.05Z</time>
      </trkpt>
      <trkpt lat="42.50297" lon="2.43583">
        <ele>2013.2</ele>
        <time>2018-08-05T07:05:32.05Z</time>
      </trkpt>
      <trkpt lat="42.503" lon="2.43571">
        <ele>2013.3</ele>
        <time>2018-08-05T07:05:36.05Z</time>
      </trkpt>
      <trkpt lat="42.50304" lon="2.43558">
        <ele>2013.7</ele>
        <time>2018-08-05T07:05:42.05Z</time>
      </trkpt>
      <trkpt lat="42.50311" lon="2.43548">
        <ele>2016.1</ele>
        <time>2018-08-05T07:05:48.05Z</time>
      </trkpt>
      <trkpt lat="42.50315" lon="2.43537">
        <ele>2016.9</ele>
        <time>2018-08-05T07:05:53.05Z</time>
      </trkpt>
      <trkpt lat="42.5032" lon="2.43528">
        <ele>2018.4</ele>
        <time>2018-08-05T07:05:59.05Z</time>
      </trkpt>
      <trkpt lat="42.50324" lon="2.43519">
        <ele>2019.4</ele>
        <time>2018-08-05T07:06:04.05Z</time>
      </trkpt>
      <trkpt lat="42.50328" lon="2.4351">
        <ele>2020.4</ele>
        <time>2018-08-05T07:06:10.05Z</time>
      </trkpt>
      <trkpt lat="42.50331" lon="2.43501">
        <ele>2020.9</ele>
        <time>2018-08-05T07:06:16.05Z</time>
      </trkpt>
      <trkpt lat="42.50336" lon="2.43505">
        <ele>2024</ele>
        <time>2018-08-05T07:06:22.05Z</time>
      </trkpt>
      <trkpt lat="42.50336" lon="2.43519">
        <ele>2025.7</ele>
        <time>2018-08-05T07:06:34.05Z</time>
      </trkpt>
      <trkpt lat="42.50337" lon="2.43533">
        <ele>2027.8</ele>
        <time>2018-08-05T07:06:43.05Z</time>
      </trkpt>
      <trkpt lat="42.50335" lon="2.43547">
        <ele>2028.5</ele>
        <time>2018-08-05T07:06:49.05Z</time>
      </trkpt>
      <trkpt lat="42.50334" lon="2.43563">
        <ele>2029.9</ele>
        <time>2018-08-05T07:06:55.05Z</time>
      </trkpt>
      <trkpt lat="42.50329" lon="2.43577">
        <ele>2029</ele>
        <time>2018-08-05T07:07:01.05Z</time>
      </trkpt>
      <trkpt lat="42.5033" lon="2.43591">
        <ele>2031.1</ele>
        <time>2018-08-05T07:07:06.05Z</time>
      </trkpt>
      <trkpt lat="42.50329" lon="2.43606">
        <ele>2032.3</ele>
        <time>2018-08-05T07:07:12.05Z</time>
      </trkpt>
      <trkpt lat="42.50324" lon="2.43619">
        <ele>2031.2</ele>
        <time>2018-08-05T07:07:17.05Z</time>
      </trkpt>
      <trkpt lat="42.50325" lon="2.43633">
        <ele>2033.3</ele>
        <time>2018-08-05T07:07:25.05Z</time>
      </trkpt>
      <trkpt lat="42.50325" lon="2.43647">
        <ele>2034.9</ele>
        <time>2018-08-05T07:07:33.05Z</time>
      </trkpt>
      <trkpt lat="42.50323" lon="2.4366">
        <ele>2035.4</ele>
        <time>2018-08-05T07:07:42.05Z</time>
      </trkpt>
      <trkpt lat="42.50319" lon="2.43674">
        <ele>2034.8</ele>
        <time>2018-08-05T07:07:50.05Z</time>
      </trkpt>
      <trkpt lat="42.50319" lon="2.43689">
        <ele>2035.8</ele>
        <time>2018-08-05T07:07:58.05Z</time>
      </trkpt>
      <trkpt lat="42.50316" lon="2.43702">
        <ele>2035.4</ele>
        <time>2018-08-05T07:08:04.05Z</time>
      </trkpt>
      <trkpt lat="42.50313" lon="2.43718">
        <ele>2035.2</ele>
        <time>2018-08-05T07:08:09.05Z</time>
      </trkpt>
      <trkpt lat="42.50316" lon="2.43731">
        <ele>2037.4</ele>
        <time>2018-08-05T07:08:14.05Z</time>
      </trkpt>
      <trkpt lat="42.50323" lon="2.43738">
        <ele>2040.9</ele>
        <time>2018-08-05T07:08:18.05Z</time>
      </trkpt>
      <trkpt lat="42.50329" lon="2.43745">
        <ele>2043.9</ele>
        <time>2018-08-05T07:08:22.05Z</time>
      </trkpt>
      <trkpt lat="42.50336" lon="2.43755">
        <ele>2047.3</ele>
        <time>2018-08-05T07:08:27.05Z</time>
      </trkpt>
      <trkpt lat="42.50342" lon="2.43767">
        <ele>2050.3</ele>
        <time>2018-08-05T07:08:32.05Z</time>
      </trkpt>
      <trkpt lat="42.50346" lon="2.4378">
        <ele>2052.4</ele>
        <time>2018-08-05T07:08:37.05Z</time>
      </trkpt>
      <trkpt lat="42.50351" lon="2.43792">
        <ele>2054.9</ele>
        <time>2018-08-05T07:08:42.05Z</time>
      </trkpt>
      <trkpt lat="42.50354" lon="2.43806">
        <ele>2056.6</ele>
        <time>2018-08-05T07:08:47.05Z</time>
      </trkpt>
      <trkpt lat="42.50361" lon="2.43815">
        <ele>2059.8</ele>
        <time>2018-08-05T07:08:52.05Z</time>
      </trkpt>
      <trkpt lat="42.5036" lon="2.43827">
        <ele>2059.7</ele>
        <time>2018-08-05T07:08:57.05Z</time>
      </trkpt>
      <trkpt lat="42.50356" lon="2.43839">
        <ele>2059.4</ele>
        <time>2018-08-05T07:09:04.05Z</time>
      </trkpt>
      <trkpt lat="42.5035" lon="2.43852">
        <ele>2059.8</ele>
        <time>2018-08-05T07:09:11.05Z</time>
      </trkpt>
      <trkpt lat="42.50346" lon="2.43865">
        <ele>2061</ele>
        <time>2018-08-05T07:09:17.05Z</time>
      </trkpt>
      <trkpt lat="42.50338" lon="2.43876">
        <ele>2060.5</ele>
        <time>2018-08-05T07:09:22.05Z</time>
      </trkpt>
      <trkpt lat="42.50327" lon="2.43878">
        <ele>2057.7</ele>
        <time>2018-08-05T07:09:28.05Z</time>
      </trkpt>
      <trkpt lat="42.50317" lon="2.43876">
        <ele>2055</ele>
        <time>2018-08-05T07:09:33.05Z</time>
      </trkpt>
      <trkpt lat="42.50306" lon="2.43874">
        <ele>2052</ele>
        <time>2018-08-05T07:09:40.05Z</time>
      </trkpt>
      <trkpt lat="42.50297" lon="2.43868">
        <ele>2048.7</ele>
        <time>2018-08-05T07:09:46.05Z</time>
      </trkpt>
      <trkpt lat="42.50288" lon="2.43868">
        <ele>2046.7</ele>
        <time>2018-08-05T07:09:52.05Z</time>
      </trkpt>
      <trkpt lat="42.50281" lon="2.43874">
        <ele>2046.4</ele>
        <time>2018-08-05T07:09:57.05Z</time>
      </trkpt>
      <trkpt lat="42.50279" lon="2.43888">
        <ele>2048.9</ele>
        <time>2018-08-05T07:10:03.05Z</time>
      </trkpt>
      <trkpt lat="42.50281" lon="2.43901">
        <ele>2052.1</ele>
        <time>2018-08-05T07:10:09.05Z</time>
      </trkpt>
      <trkpt lat="42.50285" lon="2.43915">
        <ele>2056</ele>
        <time>2018-08-05T07:10:16.05Z</time>
      </trkpt>
      <trkpt lat="42.50286" lon="2.4393">
        <ele>2058.7</ele>
        <time>2018-08-05T07:10:22.05Z</time>
      </trkpt>
      <trkpt lat="42.50288" lon="2.43944">
        <ele>2061.4</ele>
        <time>2018-08-05T07:10:29.05Z</time>
      </trkpt>
      <trkpt lat="42.50288" lon="2.43958">
        <ele>2063.6</ele>
        <time>2018-08-05T07:10:37.05Z</time>
      </trkpt>
      <trkpt lat="42.50289" lon="2.43972">
        <ele>2066</ele>
        <time>2018-08-05T07:10:45.05Z</time>
      </trkpt>
      <trkpt lat="42.50291" lon="2.43987">
        <ele>2068.8</ele>
        <time>2018-08-05T07:10:55.05Z</time>
      </trkpt>
      <trkpt lat="42.50288" lon="2.44001">
        <ele>2070.3</ele>
        <time>2018-08-05T07:11:03.05Z</time>
      </trkpt>
      <trkpt lat="42.50288" lon="2.44015">
        <ele>2072.9</ele>
        <time>2018-08-05T07:11:10.05Z</time>
      </trkpt>
      <trkpt lat="42.50286" lon="2.44027">
        <ele>2074.6</ele>
        <time>2018-08-05T07:11:16.05Z</time>
      </trkpt>
      <trkpt lat="42.50285" lon="2.44039">
        <ele>2076.5</ele>
        <time>2018-08-05T07:11:23.05Z</time>
      </trkpt>
      <trkpt lat="42.50279" lon="2.44048">
        <ele>2076.6</ele>
        <time>2018-08-05T07:11:29.05Z</time>
      </trkpt>
      <trkpt lat="42.50271" lon="2.44055">
        <ele>2075.8</ele>
        <time>2018-08-05T07:11:34.05Z</time>
      </trkpt>
      <trkpt lat="42.50263" lon="2.44064">
        <ele>2075.2</ele>
        <time>2018-08-05T07:11:44.05Z</time>
      </trkpt>
      <trkpt lat="42.50258" lon="2.44077">
        <ele>2076.1</ele>
        <time>2018-08-05T07:11:52.05Z</time>
      </trkpt>
      <trkpt lat="42.50257" lon="2.44092">
        <ele>2077.8</ele>
        <time>2018-08-05T07:12:00.05Z</time>
      </trkpt>
      <trkpt lat="42.50257" lon="2.44107">
        <ele>2079.3</ele>
        <time>2018-08-05T07:12:09.05Z</time>
      </trkpt>
      <trkpt lat="42.50255" lon="2.4412">
        <ele>2080</ele>
        <time>2018-08-05T07:12:16.05Z</time>
      </trkpt>
      <trkpt lat="42.50251" lon="2.44132">
        <ele>2080</ele>
        <time>2018-08-05T07:12:23.05Z</time>
      </trkpt>
      <trkpt lat="42.50247" lon="2.44145">
        <ele>2079.9</ele>
        <time>2018-08-05T07:12:31.05Z</time>
      </trkpt>
      <trkpt lat="42.50244" lon="2.44158">
        <ele>2080.1</ele>
        <time>2018-08-05T07:12:40.05Z</time>
      </trkpt>
      <trkpt lat="42.50243" lon="2.44172">
        <ele>2080.8</ele>
        <time>2018-08-05T07:12:48.05Z</time>
      </trkpt>
      <trkpt lat="42.50241" lon="2.44185">
        <ele>2080.8</ele>
        <time>2018-08-05T07:12:57.05Z</time>
      </trkpt>
      <trkpt lat="42.5024" lon="2.44199">
        <ele>2081</ele>
        <time>2018-08-05T07:13:06.05Z</time>
      </trkpt>
      <trkpt lat="42.50239" lon="2.44213">
        <ele>2081.3</ele>
        <time>2018-08-05T07:13:15.05Z</time>
      </trkpt>
      <trkpt lat="42.5024" lon="2.44227">
        <ele>2082.4</ele>
        <time>2018-08-05T07:13:23.05Z</time>
      </trkpt>
      <trkpt lat="42.50244" lon="2.44241">
        <ele>2084.8</ele>
        <time>2018-08-05T07:13:32.05Z</time>
      </trkpt>
      <trkpt lat="42.50248" lon="2.44253">
        <ele>2086.9</ele>
        <time>2018-08-05T07:13:41.05Z</time>
      </trkpt>
      <trkpt lat="42.50252" lon="2.44261">
        <ele>2087.8</ele>
        <time>2018-08-05T07:13:47.05Z</time>
      </trkpt>
      <trkpt lat="42.50256" lon="2.44268">
        <ele>2088.7</ele>
        <time>2018-08-05T07:13:52.05Z</time>
      </trkpt>
      <trkpt lat="42.50261" lon="2.44277">
        <ele>2089.9</ele>
        <time>2018-08-05T07:13:59.05Z</time>
      </trkpt>
      <trkpt lat="42.50265" lon="2.4429">
        <ele>2090.6</ele>
        <time>2018-08-05T07:14:08.05Z</time>
      </trkpt>
      <trkpt lat="42.50271" lon="2.44301">
        <ele>2092.3</ele>
        <time>2018-08-05T07:14:17.05Z</time>
      </trkpt>
      <trkpt lat="42.50275" lon="2.44308">
        <ele>2093.5</ele>
        <time>2018-08-05T07:14:22.05Z</time>
      </trkpt>
      <trkpt lat="42.50278" lon="2.44314">
        <ele>2094.4</ele>
        <time>2018-08-05T07:14:27.05Z</time>
      </trkpt>
      <trkpt lat="42.50281" lon="2.44321">
        <ele>2095.4</ele>
        <time>2018-08-05T07:14:32.05Z</time>
      </trkpt>
      <trkpt lat="42.50284" lon="2.44327">
        <ele>2096.4</ele>
        <time>2018-08-05T07:14:37.05Z</time>
      </trkpt>
      <trkpt lat="42.5029" lon="2.44337">
        <ele>2098.5</ele>
        <time>2018-08-05T07:14:45.05Z</time>
      </trkpt>
      <trkpt lat="42.50295" lon="2.44348">
        <ele>2099.9</ele>
        <time>2018-08-05T07:14:53.05Z</time>
      </trkpt>
      <trkpt lat="42.50302" lon="2.44357">
        <ele>2102.2</ele>
        <time>2018-08-05T07:14:59.05Z</time>
      </trkpt>
      <trkpt lat="42.5031" lon="2.44366">
        <ele>2104.7</ele>
        <time>2018-08-05T07:15:05.05Z</time>
      </trkpt>
      <trkpt lat="42.5032" lon="2.44375">
        <ele>2107.8</ele>
        <time>2018-08-05T07:15:11.05Z</time>
      </trkpt>
      <trkpt lat="42.50328" lon="2.44384">
        <ele>2109.9</ele>
        <time>2018-08-05T07:15:17.05Z</time>
      </trkpt>
      <trkpt lat="42.50333" lon="2.44392">
        <ele>2110.8</ele>
        <time>2018-08-05T07:15:22.05Z</time>
      </trkpt>
      <trkpt lat="42.50341" lon="2.44403">
        <ele>2113.3</ele>
        <time>2018-08-05T07:15:28.05Z</time>
      </trkpt>
      <trkpt lat="42.50345" lon="2.44414">
        <ele>2113.9</ele>
        <time>2018-08-05T07:15:33.05Z</time>
      </trkpt>
      <trkpt lat="42.50349" lon="2.44427">
        <ele>2115</ele>
        <time>2018-08-05T07:15:39.05Z</time>
      </trkpt>
      <trkpt lat="42.50355" lon="2.44436">
        <ele>2117.3</ele>
        <time>2018-08-05T07:15:44.05Z</time>
      </trkpt>
      <trkpt lat="42.50359" lon="2.44442">
        <ele>2118.8</ele>
        <time>2018-08-05T07:15:47.05Z</time>
      </trkpt>
      <trkpt lat="42.50362" lon="2.4445">
        <ele>2119.7</ele>
        <time>2018-08-05T07:15:51.05Z</time>
      </trkpt>
      <trkpt lat="42.50366" lon="2.4446">
        <ele>2120.9</ele>
        <time>2018-08-05T07:15:56.05Z</time>
      </trkpt>
      <trkpt lat="42.50371" lon="2.44466">
        <ele>2122.7</ele>
        <time>2018-08-05T07:16:01.05Z</time>
      </trkpt>
      <trkpt lat="42.50376" lon="2.44475">
        <ele>2124.2</ele>
        <time>2018-08-05T07:16:08.05Z</time>
      </trkpt>
      <trkpt lat="42.5038" lon="2.44481">
        <ele>2125.5</ele>
        <time>2018-08-05T07:16:13.05Z</time>
      </trkpt>
      <trkpt lat="42.50381" lon="2.44488">
        <ele>2125.4</ele>
        <time>2018-08-05T07:16:18.05Z</time>
      </trkpt>
      <trkpt lat="42.50381" lon="2.44496">
        <ele>2124.8</ele>
        <time>2018-08-05T07:16:23.05Z</time>
      </trkpt>
      <trkpt lat="42.50385" lon="2.44507">
        <ele>2126.2</ele>
        <time>2018-08-05T07:16:35.05Z</time>
      </trkpt>
      <trkpt lat="42.50388" lon="2.44514">
        <ele>2127.4</ele>
        <time>2018-08-05T07:17:16.05Z</time>
      </trkpt>
      <trkpt lat="42.50393" lon="2.44521">
        <ele>2129.4</ele>
        <time>2018-08-05T07:17:22.05Z</time>
      </trkpt>
      <trkpt lat="42.50396" lon="2.44527">
        <ele>2130.6</ele>
        <time>2018-08-05T07:17:27.05Z</time>
      </trkpt>
      <trkpt lat="42.50398" lon="2.44535">
        <ele>2131.3</ele>
        <time>2018-08-05T07:17:33.05Z</time>
      </trkpt>
      <trkpt lat="42.50401" lon="2.44544">
        <ele>2132.3</ele>
        <time>2018-08-05T07:17:40.05Z</time>
      </trkpt>
      <trkpt lat="42.50404" lon="2.44552">
        <ele>2133.3</ele>
        <time>2018-08-05T07:17:45.05Z</time>
      </trkpt>
      <trkpt lat="42.50406" lon="2.44561">
        <ele>2133.9</ele>
        <time>2018-08-05T07:17:52.05Z</time>
      </trkpt>
      <trkpt lat="42.50408" lon="2.4457">
        <ele>2134.5</ele>
        <time>2018-08-05T07:17:57.05Z</time>
      </trkpt>
      <trkpt lat="42.50409" lon="2.44578">
        <ele>2134.7</ele>
        <time>2018-08-05T07:18:01.05Z</time>
      </trkpt>
      <trkpt lat="42.50409" lon="2.44587">
        <ele>2134.7</ele>
        <time>2018-08-05T07:18:06.05Z</time>
      </trkpt>
      <trkpt lat="42.50408" lon="2.44599">
        <ele>2134.6</ele>
        <time>2018-08-05T07:18:13.05Z</time>
      </trkpt>
      <trkpt lat="42.50414" lon="2.44609">
        <ele>2136.5</ele>
        <time>2018-08-05T07:18:20.05Z</time>
      </trkpt>
      <trkpt lat="42.50418" lon="2.44618">
        <ele>2137.9</ele>
        <time>2018-08-05T07:18:26.05Z</time>
      </trkpt>
      <trkpt lat="42.50424" lon="2.44627">
        <ele>2140.1</ele>
        <time>2018-08-05T07:18:34.05Z</time>
      </trkpt>
      <trkpt lat="42.50433" lon="2.44634">
        <ele>2143.1</ele>
        <time>2018-08-05T07:18:43.05Z</time>
      </trkpt>
      <trkpt lat="42.50438" lon="2.44643">
        <ele>2144.7</ele>
        <time>2018-08-05T07:18:51.05Z</time>
      </trkpt>
      <trkpt lat="42.50442" lon="2.4465">
        <ele>2145.9</ele>
        <time>2018-08-05T07:18:57.05Z</time>
      </trkpt>
      <trkpt lat="42.50444" lon="2.44657">
        <ele>2146.4</ele>
        <time>2018-08-05T07:19:02.05Z</time>
      </trkpt>
      <trkpt lat="42.50448" lon="2.44666">
        <ele>2147.4</ele>
        <time>2018-08-05T07:19:08.05Z</time>
      </trkpt>
      <trkpt lat="42.50448" lon="2.44677">
        <ele>2147.4</ele>
        <time>2018-08-05T07:19:14.05Z</time>
      </trkpt>
      <trkpt lat="42.50446" lon="2.44685">
        <ele>2146.9</ele>
        <time>2018-08-05T07:19:19.05Z</time>
      </trkpt>
      <trkpt lat="42.50445" lon="2.44696">
        <ele>2146.7</ele>
        <time>2018-08-05T07:19:25.05Z</time>
      </trkpt>
      <trkpt lat="42.50448" lon="2.44706">
        <ele>2147.6</ele>
        <time>2018-08-05T07:19:31.05Z</time>
      </trkpt>
      <trkpt lat="42.50451" lon="2.44719">
        <ele>2148.4</ele>
        <time>2018-08-05T07:19:38.05Z</time>
      </trkpt>
      <trkpt lat="42.50454" lon="2.44731">
        <ele>2149.1</ele>
        <time>2018-08-05T07:19:44.05Z</time>
      </trkpt>
      <trkpt lat="42.50457" lon="2.44742">
        <ele>2149.7</ele>
        <time>2018-08-05T07:19:51.05Z</time>
      </trkpt>
      <trkpt lat="42.50461" lon="2.44752">
        <ele>2150.7</ele>
        <time>2018-08-05T07:19:58.05Z</time>
      </trkpt>
      <trkpt lat="42.50468" lon="2.44761">
        <ele>2152.6</ele>
        <time>2018-08-05T07:20:06.05Z</time>
      </trkpt>
      <trkpt lat="42.50473" lon="2.4477">
        <ele>2154.1</ele>
        <time>2018-08-05T07:20:12.05Z</time>
      </trkpt>
      <trkpt lat="42.5048" lon="2.44778">
        <ele>2155.9</ele>
        <time>2018-08-05T07:20:18.05Z</time>
      </trkpt>
      <trkpt lat="42.50485" lon="2.44787">
        <ele>2157.5</ele>
        <time>2018-08-05T07:20:25.05Z</time>
      </trkpt>
      <trkpt lat="42.50491" lon="2.44796">
        <ele>2159.2</ele>
        <time>2018-08-05T07:20:32.05Z</time>
      </trkpt>
      <trkpt lat="42.50495" lon="2.44802">
        <ele>2160.4</ele>
        <time>2018-08-05T07:20:37.05Z</time>
      </trkpt>
      <trkpt lat="42.50503" lon="2.44811">
        <ele>2162.9</ele>
        <time>2018-08-05T07:20:44.05Z</time>
      </trkpt>
      <trkpt lat="42.5051" lon="2.44819">
        <ele>2165.5</ele>
        <time>2018-08-05T07:20:53.05Z</time>
      </trkpt>
      <trkpt lat="42.50517" lon="2.44827">
        <ele>2168</ele>
        <time>2018-08-05T07:21:01.05Z</time>
      </trkpt>
      <trkpt lat="42.50522" lon="2.44836">
        <ele>2169.7</ele>
        <time>2018-08-05T07:21:08.05Z</time>
      </trkpt>
      <trkpt lat="42.50525" lon="2.44846">
        <ele>2170.8</ele>
        <time>2018-08-05T07:21:15.05Z</time>
      </trkpt>
      <trkpt lat="42.5053" lon="2.44856">
        <ele>2172.4</ele>
        <time>2018-08-05T07:21:23.05Z</time>
      </trkpt>
      <trkpt lat="42.50534" lon="2.44865">
        <ele>2173.7</ele>
        <time>2018-08-05T07:21:29.05Z</time>
      </trkpt>
      <trkpt lat="42.50538" lon="2.44877">
        <ele>2175</ele>
        <time>2018-08-05T07:21:37.05Z</time>
      </trkpt>
      <trkpt lat="42.50542" lon="2.44886">
        <ele>2176.2</ele>
        <time>2018-08-05T07:21:44.05Z</time>
      </trkpt>
      <trkpt lat="42.50548" lon="2.44895">
        <ele>2177.9</ele>
        <time>2018-08-05T07:21:52.05Z</time>
      </trkpt>
      <trkpt lat="42.50553" lon="2.44902">
        <ele>2179.3</ele>
        <time>2018-08-05T07:21:58.05Z</time>
      </trkpt>
      <trkpt lat="42.50559" lon="2.4491">
        <ele>2180.9</ele>
        <time>2018-08-05T07:22:05.05Z</time>
      </trkpt>
      <trkpt lat="42.5056" lon="2.44919">
        <ele>2181.4</ele>
        <time>2018-08-05T07:22:11.05Z</time>
      </trkpt>
      <trkpt lat="42.50562" lon="2.44929">
        <ele>2183.2</ele>
        <time>2018-08-05T07:22:18.05Z</time>
      </trkpt>
      <trkpt lat="42.50565" lon="2.44942">
        <ele>2185.7</ele>
        <time>2018-08-05T07:22:28.05Z</time>
      </trkpt>
      <trkpt lat="42.50568" lon="2.44953">
        <ele>2188</ele>
        <time>2018-08-05T07:22:36.05Z</time>
      </trkpt>
      <trkpt lat="42.50571" lon="2.44962">
        <ele>2190</ele>
        <time>2018-08-05T07:22:44.05Z</time>
      </trkpt>
      <trkpt lat="42.50576" lon="2.4497">
        <ele>2192.6</ele>
        <time>2018-08-05T07:22:52.05Z</time>
      </trkpt>
      <trkpt lat="42.50583" lon="2.44979">
        <ele>2195.9</ele>
        <time>2018-08-05T07:23:05.05Z</time>
      </trkpt>
      <trkpt lat="42.50591" lon="2.44984">
        <ele>2199.7</ele>
        <time>2018-08-05T07:23:14.05Z</time>
      </trkpt>
      <trkpt lat="42.50598" lon="2.44993">
        <ele>2203.4</ele>
        <time>2018-08-05T07:23:26.05Z</time>
      </trkpt>
      <trkpt lat="42.50603" lon="2.44999">
        <ele>2206</ele>
        <time>2018-08-05T07:23:34.05Z</time>
      </trkpt>
      <trkpt lat="42.5061" lon="2.45005">
        <ele>2208.6</ele>
        <time>2018-08-05T07:23:46.05Z</time>
      </trkpt>
      <trkpt lat="42.50616" lon="2.45013">
        <ele>2210.7</ele>
        <time>2018-08-05T07:23:57.05Z</time>
      </trkpt>
      <trkpt lat="42.5062" lon="2.45021">
        <ele>2212.1</ele>
        <time>2018-08-05T07:24:05.05Z</time>
      </trkpt>
      <trkpt lat="42.50623" lon="2.45029">
        <ele>2213.1</ele>
        <time>2018-08-05T07:24:13.05Z</time>
      </trkpt>
      <trkpt lat="42.50627" lon="2.4504">
        <ele>2214.5</ele>
        <time>2018-08-05T07:24:23.05Z</time>
      </trkpt>
      <trkpt lat="42.5063" lon="2.45049">
        <ele>2215.5</ele>
        <time>2018-08-05T07:24:32.05Z</time>
      </trkpt>
      <trkpt lat="42.50634" lon="2.45056">
        <ele>2216.8</ele>
        <time>2018-08-05T07:24:39.05Z</time>
      </trkpt>
      <trkpt lat="42.50637" lon="2.45065">
        <ele>2217.8</ele>
        <time>2018-08-05T07:24:46.05Z</time>
      </trkpt>
      <trkpt lat="42.50643" lon="2.45072">
        <ele>2219.9</ele>
        <time>2018-08-05T07:24:55.05Z</time>
      </trkpt>
      <trkpt lat="42.50647" lon="2.45081">
        <ele>2221.2</ele>
        <time>2018-08-05T07:25:03.05Z</time>
      </trkpt>
      <trkpt lat="42.50651" lon="2.4509">
        <ele>2222.8</ele>
        <time>2018-08-05T07:25:11.05Z</time>
      </trkpt>
      <trkpt lat="42.50657" lon="2.45094">
        <ele>2225</ele>
        <time>2018-08-05T07:25:19.05Z</time>
      </trkpt>
      <trkpt lat="42.50661" lon="2.45102">
        <ele>2226.7</ele>
        <time>2018-08-05T07:25:27.05Z</time>
      </trkpt>
      <trkpt lat="42.50665" lon="2.45112">
        <ele>2228.5</ele>
        <time>2018-08-05T07:25:37.05Z</time>
      </trkpt>
      <trkpt lat="42.50671" lon="2.45122">
        <ele>2231.3</ele>
        <time>2018-08-05T07:25:48.05Z</time>
      </trkpt>
      <trkpt lat="42.50676" lon="2.4513">
        <ele>2233.8</ele>
        <time>2018-08-05T07:25:56.05Z</time>
      </trkpt>
      <trkpt lat="42.5068" lon="2.45141">
        <ele>2235.8</ele>
        <time>2018-08-05T07:26:07.05Z</time>
      </trkpt>
      <trkpt lat="42.50684" lon="2.45144">
        <ele>2237.6</ele>
        <time>2018-08-05T07:26:16.05Z</time>
      </trkpt>
      <trkpt lat="42.5069" lon="2.45154">
        <ele>2240.3</ele>
        <time>2018-08-05T07:26:30.05Z</time>
      </trkpt>
      <trkpt lat="42.50698" lon="2.45161">
        <ele>2243.7</ele>
        <time>2018-08-05T07:26:42.05Z</time>
      </trkpt>
      <trkpt lat="42.50702" lon="2.45171">
        <ele>2245.6</ele>
        <time>2018-08-05T07:26:52.05Z</time>
      </trkpt>
      <trkpt lat="42.50705" lon="2.45181">
        <ele>2247.3</ele>
        <time>2018-08-05T07:27:01.05Z</time>
      </trkpt>
      <trkpt lat="42.5071" lon="2.45191">
        <ele>2249.6</ele>
        <time>2018-08-05T07:27:10.05Z</time>
      </trkpt>
      <trkpt lat="42.50716" lon="2.45197">
        <ele>2252</ele>
        <time>2018-08-05T07:27:20.05Z</time>
      </trkpt>
      <trkpt lat="42.50722" lon="2.45202">
        <ele>2254.3</ele>
        <time>2018-08-05T07:27:26.05Z</time>
      </trkpt>
      <trkpt lat="42.50727" lon="2.45211">
        <ele>2256.2</ele>
        <time>2018-08-05T07:27:35.05Z</time>
      </trkpt>
      <trkpt lat="42.50731" lon="2.45219">
        <ele>2257.6</ele>
        <time>2018-08-05T07:27:44.05Z</time>
      </trkpt>
      <trkpt lat="42.50738" lon="2.45223">
        <ele>2259.8</ele>
        <time>2018-08-05T07:27:50.05Z</time>
      </trkpt>
      <trkpt lat="42.50741" lon="2.45231">
        <ele>2260.7</ele>
        <time>2018-08-05T07:27:56.05Z</time>
      </trkpt>
      <trkpt lat="42.50746" lon="2.45234">
        <ele>2262.2</ele>
        <time>2018-08-05T07:28:02.05Z</time>
      </trkpt>
      <trkpt lat="42.5075" lon="2.4524">
        <ele>2263.2</ele>
        <time>2018-08-05T07:28:11.05Z</time>
      </trkpt>
      <trkpt lat="42.50754" lon="2.45245">
        <ele>2264.8</ele>
        <time>2018-08-05T07:28:18.05Z</time>
      </trkpt>
      <trkpt lat="42.50758" lon="2.45248">
        <ele>2266.3</ele>
        <time>2018-08-05T07:28:23.05Z</time>
      </trkpt>
      <trkpt lat="42.50759" lon="2.45254">
        <ele>2266.6</ele>
        <time>2018-08-05T07:28:28.05Z</time>
      </trkpt>
      <trkpt lat="42.50762" lon="2.45262">
        <ele>2267.8</ele>
        <time>2018-08-05T07:28:33.05Z</time>
      </trkpt>
      <trkpt lat="42.50761" lon="2.45273">
        <ele>2267.3</ele>
        <time>2018-08-05T07:28:38.05Z</time>
      </trkpt>
      <trkpt lat="42.5076" lon="2.45283">
        <ele>2266.8</ele>
        <time>2018-08-05T07:28:42.05Z</time>
      </trkpt>
      <trkpt lat="42.50766" lon="2.45292">
        <ele>2269</ele>
        <time>2018-08-05T07:28:46.05Z</time>
      </trkpt>
      <trkpt lat="42.5077" lon="2.45299">
        <ele>2270.5</ele>
        <time>2018-08-05T07:28:50.05Z</time>
      </trkpt>
      <trkpt lat="42.50775" lon="2.45303">
        <ele>2272.2</ele>
        <time>2018-08-05T07:28:56.05Z</time>
      </trkpt>
      <trkpt lat="42.50784" lon="2.4531">
        <ele>2275.4</ele>
        <time>2018-08-05T07:29:06.05Z</time>
      </trkpt>
      <trkpt lat="42.50793" lon="2.45318">
        <ele>2278.4</ele>
        <time>2018-08-05T07:29:14.05Z</time>
      </trkpt>
      <trkpt lat="42.508" lon="2.45329">
        <ele>2280.6</ele>
        <time>2018-08-05T07:29:22.05Z</time>
      </trkpt>
      <trkpt lat="42.50807" lon="2.45339">
        <ele>2282.8</ele>
        <time>2018-08-05T07:29:28.05Z</time>
      </trkpt>
      <trkpt lat="42.50812" lon="2.45345">
        <ele>2284.3</ele>
        <time>2018-08-05T07:29:32.05Z</time>
      </trkpt>
      <trkpt lat="42.50818" lon="2.45353">
        <ele>2286</ele>
        <time>2018-08-05T07:29:38.05Z</time>
      </trkpt>
      <trkpt lat="42.50822" lon="2.45364">
        <ele>2286.8</ele>
        <time>2018-08-05T07:29:44.05Z</time>
      </trkpt>
      <trkpt lat="42.50826" lon="2.45377">
        <ele>2287.4</ele>
        <time>2018-08-05T07:29:51.05Z</time>
      </trkpt>
      <trkpt lat="42.50832" lon="2.45388">
        <ele>2288.4</ele>
        <time>2018-08-05T07:29:59.05Z</time>
      </trkpt>
      <trkpt lat="42.50833" lon="2.45399">
        <ele>2288</ele>
        <time>2018-08-05T07:30:07.05Z</time>
      </trkpt>
      <trkpt lat="42.5083" lon="2.45411">
        <ele>2286.6</ele>
        <time>2018-08-05T07:30:19.05Z</time>
      </trkpt>
      <trkpt lat="42.50827" lon="2.45424">
        <ele>2286.3</ele>
        <time>2018-08-05T07:30:33.05Z</time>
      </trkpt>
      <trkpt lat="42.50824" lon="2.45438">
        <ele>2286.9</ele>
        <time>2018-08-05T07:30:46.05Z</time>
      </trkpt>
      <trkpt lat="42.50827" lon="2.45451">
        <ele>2288.5</ele>
        <time>2018-08-05T07:30:57.05Z</time>
      </trkpt>
      <trkpt lat="42.50829" lon="2.45463">
        <ele>2289.7</ele>
        <time>2018-08-05T07:31:06.05Z</time>
      </trkpt>
      <trkpt lat="42.5083" lon="2.45474">
        <ele>2290.7</ele>
        <time>2018-08-05T07:31:14.05Z</time>
      </trkpt>
      <trkpt lat="42.50834" lon="2.45488">
        <ele>2292.3</ele>
        <time>2018-08-05T07:31:25.05Z</time>
      </trkpt>
      <trkpt lat="42.50839" lon="2.45501">
        <ele>2294.2</ele>
        <time>2018-08-05T07:31:35.05Z</time>
      </trkpt>
      <trkpt lat="42.50842" lon="2.45509">
        <ele>2296</ele>
        <time>2018-08-05T07:31:41.05Z</time>
      </trkpt>
      <trkpt lat="42.50845" lon="2.45518">
        <ele>2297.9</ele>
        <time>2018-08-05T07:31:47.05Z</time>
      </trkpt>
      <trkpt lat="42.5085" lon="2.4553">
        <ele>2300.4</ele>
        <time>2018-08-05T07:31:57.05Z</time>
      </trkpt>
      <trkpt lat="42.50855" lon="2.45541">
        <ele>2302.8</ele>
        <time>2018-08-05T07:32:09.05Z</time>
      </trkpt>
      <trkpt lat="42.50862" lon="2.45548">
        <ele>2304.8</ele>
        <time>2018-08-05T07:32:17.05Z</time>
      </trkpt>
      <trkpt lat="42.50869" lon="2.45555">
        <ele>2306.7</ele>
        <time>2018-08-05T07:32:25.05Z</time>
      </trkpt>
      <trkpt lat="42.50877" lon="2.45559">
        <ele>2308.4</ele>
        <time>2018-08-05T07:32:32.05Z</time>
      </trkpt>
      <trkpt lat="42.50884" lon="2.45566">
        <ele>2310.1</ele>
        <time>2018-08-05T07:32:41.05Z</time>
      </trkpt>
      <trkpt lat="42.50891" lon="2.45576">
        <ele>2312.1</ele>
        <time>2018-08-05T07:32:51.05Z</time>
      </trkpt>
      <trkpt lat="42.50896" lon="2.45583">
        <ele>2313.5</ele>
        <time>2018-08-05T07:33:00.05Z</time>
      </trkpt>
      <trkpt lat="42.509" lon="2.45592">
        <ele>2314.7</ele>
        <time>2018-08-05T07:33:09.05Z</time>
      </trkpt>
      <trkpt lat="42.50902" lon="2.45599">
        <ele>2315.5</ele>
        <time>2018-08-05T07:33:15.05Z</time>
      </trkpt>
      <trkpt lat="42.50903" lon="2.45607">
        <ele>2316.3</ele>
        <time>2018-08-05T07:33:21.05Z</time>
      </trkpt>
      <trkpt lat="42.50904" lon="2.45617">
        <ele>2317.2</ele>
        <time>2018-08-05T07:33:28.05Z</time>
      </trkpt>
      <trkpt lat="42.50908" lon="2.45627">
        <ele>2318.4</ele>
        <time>2018-08-05T07:33:37.05Z</time>
      </trkpt>
      <trkpt lat="42.5091" lon="2.45635">
        <ele>2319.2</ele>
        <time>2018-08-05T07:33:42.05Z</time>
      </trkpt>
      <trkpt lat="42.50914" lon="2.45647">
        <ele>2320.4</ele>
        <time>2018-08-05T07:33:51.05Z</time>
      </trkpt>
      <trkpt lat="42.50916" lon="2.45655">
        <ele>2321.1</ele>
        <time>2018-08-05T07:33:56.05Z</time>
      </trkpt>
      <trkpt lat="42.50918" lon="2.45669">
        <ele>2322.4</ele>
        <time>2018-08-05T07:34:05.05Z</time>
      </trkpt>
      <trkpt lat="42.50921" lon="2.45678">
        <ele>2323.6</ele>
        <time>2018-08-05T07:34:11.05Z</time>
      </trkpt>
      <trkpt lat="42.50924" lon="2.45687">
        <ele>2324.8</ele>
        <time>2018-08-05T07:34:17.05Z</time>
      </trkpt>
      <trkpt lat="42.50925" lon="2.45696">
        <ele>2325.7</ele>
        <time>2018-08-05T07:34:23.05Z</time>
      </trkpt>
      <trkpt lat="42.50923" lon="2.45707">
        <ele>2326.6</ele>
        <time>2018-08-05T07:34:29.05Z</time>
      </trkpt>
      <trkpt lat="42.50919" lon="2.45718">
        <ele>2327.2</ele>
        <time>2018-08-05T07:34:36.05Z</time>
      </trkpt>
      <trkpt lat="42.50915" lon="2.45731">
        <ele>2328</ele>
        <time>2018-08-05T07:34:45.05Z</time>
      </trkpt>
      <trkpt lat="42.5091" lon="2.45742">
        <ele>2328.5</ele>
        <time>2018-08-05T07:34:52.05Z</time>
      </trkpt>
      <trkpt lat="42.50908" lon="2.45755">
        <ele>2329.7</ele>
        <time>2018-08-05T07:35:00.05Z</time>
      </trkpt>
      <trkpt lat="42.50913" lon="2.45768">
        <ele>2332.3</ele>
        <time>2018-08-05T07:35:10.05Z</time>
      </trkpt>
      <trkpt lat="42.5092" lon="2.45779">
        <ele>2334.8</ele>
        <time>2018-08-05T07:35:20.05Z</time>
      </trkpt>
      <trkpt lat="42.50925" lon="2.45783">
        <ele>2335.9</ele>
        <time>2018-08-05T07:35:26.05Z</time>
      </trkpt>
      <trkpt lat="42.50929" lon="2.45788">
        <ele>2337</ele>
        <time>2018-08-05T07:35:30.05Z</time>
      </trkpt>
      <trkpt lat="42.50929" lon="2.45796">
        <ele>2338.3</ele>
        <time>2018-08-05T07:35:35.05Z</time>
      </trkpt>
      <trkpt lat="42.50937" lon="2.45804">
        <ele>2340.2</ele>
        <time>2018-08-05T07:35:45.05Z</time>
      </trkpt>
      <trkpt lat="42.5094" lon="2.45818">
        <ele>2342.6</ele>
        <time>2018-08-05T07:35:55.05Z</time>
      </trkpt>
      <trkpt lat="42.50946" lon="2.45829">
        <ele>2344.8</ele>
        <time>2018-08-05T07:36:03.05Z</time>
      </trkpt>
      <trkpt lat="42.50957" lon="2.45827">
        <ele>2345.4</ele>
        <time>2018-08-05T07:36:11.05Z</time>
      </trkpt>
      <trkpt lat="42.50967" lon="2.45821">
        <ele>2345.4</ele>
        <time>2018-08-05T07:36:18.05Z</time>
      </trkpt>
      <trkpt lat="42.50977" lon="2.45823">
        <ele>2346.5</ele>
        <time>2018-08-05T07:36:27.05Z</time>
      </trkpt>
      <trkpt lat="42.50982" lon="2.45833">
        <ele>2348.4</ele>
        <time>2018-08-05T07:36:32.05Z</time>
      </trkpt>
      <trkpt lat="42.50989" lon="2.45844">
        <ele>2351.6</ele>
        <time>2018-08-05T07:36:40.05Z</time>
      </trkpt>
      <trkpt lat="42.50996" lon="2.45854">
        <ele>2354.6</ele>
        <time>2018-08-05T07:36:50.05Z</time>
      </trkpt>
      <trkpt lat="42.51004" lon="2.45863">
        <ele>2357.4</ele>
        <time>2018-08-05T07:36:59.05Z</time>
      </trkpt>
      <trkpt lat="42.51012" lon="2.45872">
        <ele>2360.2</ele>
        <time>2018-08-05T07:37:09.05Z</time>
      </trkpt>
      <trkpt lat="42.51021" lon="2.45879">
        <ele>2362.4</ele>
        <time>2018-08-05T07:37:18.05Z</time>
      </trkpt>
      <trkpt lat="42.51029" lon="2.45888">
        <ele>2364.9</ele>
        <time>2018-08-05T07:37:26.05Z</time>
      </trkpt>
      <trkpt lat="42.51039" lon="2.45892">
        <ele>2366.3</ele>
        <time>2018-08-05T07:37:34.05Z</time>
      </trkpt>
      <trkpt lat="42.51049" lon="2.45893">
        <ele>2367.1</ele>
        <time>2018-08-05T07:37:41.05Z</time>
      </trkpt>
      <trkpt lat="42.5106" lon="2.45894">
        <ele>2367.9</ele>
        <time>2018-08-05T07:37:49.05Z</time>
      </trkpt>
      <trkpt lat="42.5107" lon="2.45896">
        <ele>2368.8</ele>
        <time>2018-08-05T07:37:57.05Z</time>
      </trkpt>
      <trkpt lat="42.51081" lon="2.45893">
        <ele>2368.9</ele>
        <time>2018-08-05T07:38:06.05Z</time>
      </trkpt>
      <trkpt lat="42.51091" lon="2.45898">
        <ele>2371.5</ele>
        <time>2018-08-05T07:38:18.05Z</time>
      </trkpt>
      <trkpt lat="42.51101" lon="2.45903">
        <ele>2374.4</ele>
        <time>2018-08-05T07:38:29.05Z</time>
      </trkpt>
      <trkpt lat="42.51111" lon="2.45907">
        <ele>2377.1</ele>
        <time>2018-08-05T07:38:39.05Z</time>
      </trkpt>
      <trkpt lat="42.51119" lon="2.45898">
        <ele>2377.3</ele>
        <time>2018-08-05T07:38:46.05Z</time>
      </trkpt>
      <trkpt lat="42.51122" lon="2.45884">
        <ele>2375.8</ele>
        <time>2018-08-05T07:38:54.05Z</time>
      </trkpt>
      <trkpt lat="42.51123" lon="2.45871">
        <ele>2373.9</ele>
        <time>2018-08-05T07:39:00.05Z</time>
      </trkpt>
      <trkpt lat="42.51131" lon="2.45859">
        <ele>2373.8</ele>
        <time>2018-08-05T07:39:06.05Z</time>
      </trkpt>
      <trkpt lat="42.5114" lon="2.45852">
        <ele>2374.8</ele>
        <time>2018-08-05T07:39:14.05Z</time>
      </trkpt>
      <trkpt lat="42.5115" lon="2.4585">
        <ele>2376.7</ele>
        <time>2018-08-05T07:39:22.05Z</time>
      </trkpt>
      <trkpt lat="42.51159" lon="2.45854">
        <ele>2379.3</ele>
        <time>2018-08-05T07:39:30.05Z</time>
      </trkpt>
      <trkpt lat="42.51168" lon="2.45862">
        <ele>2382.5</ele>
        <time>2018-08-05T07:39:41.05Z</time>
      </trkpt>
      <trkpt lat="42.51174" lon="2.45874">
        <ele>2385.7</ele>
        <time>2018-08-05T07:39:51.05Z</time>
      </trkpt>
      <trkpt lat="42.51182" lon="2.45884">
        <ele>2389.2</ele>
        <time>2018-08-05T07:40:01.05Z</time>
      </trkpt>
      <trkpt lat="42.51192" lon="2.45889">
        <ele>2392.5</ele>
        <time>2018-08-05T07:40:08.05Z</time>
      </trkpt>
      <trkpt lat="42.51202" lon="2.45893">
        <ele>2395.7</ele>
        <time>2018-08-05T07:40:16.05Z</time>
      </trkpt>
      <trkpt lat="42.51211" lon="2.45895">
        <ele>2398.3</ele>
        <time>2018-08-05T07:40:25.05Z</time>
      </trkpt>
      <trkpt lat="42.5122" lon="2.45894">
        <ele>2400.5</ele>
        <time>2018-08-05T07:40:34.05Z</time>
      </trkpt>
      <trkpt lat="42.51229" lon="2.4589">
        <ele>2402.1</ele>
        <time>2018-08-05T07:40:43.05Z</time>
      </trkpt>
      <trkpt lat="42.51236" lon="2.45882">
        <ele>2402.6</ele>
        <time>2018-08-05T07:40:53.05Z</time>
      </trkpt>
      <trkpt lat="42.51242" lon="2.45874">
        <ele>2402.8</ele>
        <time>2018-08-05T07:41:01.05Z</time>
      </trkpt>
      <trkpt lat="42.5124" lon="2.45887">
        <ele>2404.5</ele>
        <time>2018-08-05T07:41:13.05Z</time>
      </trkpt>
      <trkpt lat="42.51237" lon="2.45901">
        <ele>2406</ele>
        <time>2018-08-05T07:41:23.05Z</time>
      </trkpt>
      <trkpt lat="42.5123" lon="2.45912">
        <ele>2406</ele>
        <time>2018-08-05T07:41:31.05Z</time>
      </trkpt>
      <trkpt lat="42.51224" lon="2.45924">
        <ele>2407.1</ele>
        <time>2018-08-05T07:41:42.05Z</time>
      </trkpt>
      <trkpt lat="42.51219" lon="2.45936">
        <ele>2408.9</ele>
        <time>2018-08-05T07:41:53.05Z</time>
      </trkpt>
      <trkpt lat="42.51213" lon="2.45949">
        <ele>2410.8</ele>
        <time>2018-08-05T07:42:02.05Z</time>
      </trkpt>
      <trkpt lat="42.51207" lon="2.4596">
        <ele>2412.1</ele>
        <time>2018-08-05T07:42:11.05Z</time>
      </trkpt>
      <trkpt lat="42.51199" lon="2.45971">
        <ele>2412.9</ele>
        <time>2018-08-05T07:42:20.05Z</time>
      </trkpt>
      <trkpt lat="42.51194" lon="2.45981">
        <ele>2414.2</ele>
        <time>2018-08-05T07:42:31.05Z</time>
      </trkpt>
      <trkpt lat="42.51191" lon="2.45994">
        <ele>2416.8</ele>
        <time>2018-08-05T07:42:43.05Z</time>
      </trkpt>
      <trkpt lat="42.51187" lon="2.46007">
        <ele>2420.1</ele>
        <time>2018-08-05T07:42:54.05Z</time>
      </trkpt>
      <trkpt lat="42.5118" lon="2.46017">
        <ele>2422</ele>
        <time>2018-08-05T07:43:02.05Z</time>
      </trkpt>
      <trkpt lat="42.51176" lon="2.46028">
        <ele>2425</ele>
        <time>2018-08-05T07:43:12.05Z</time>
      </trkpt>
      <trkpt lat="42.5117" lon="2.4604">
        <ele>2427.5</ele>
        <time>2018-08-05T07:43:21.05Z</time>
      </trkpt>
      <trkpt lat="42.5118" lon="2.46036">
        <ele>2429.2</ele>
        <time>2018-08-05T07:43:42.05Z</time>
      </trkpt>
      <trkpt lat="42.51191" lon="2.46031">
        <ele>2430.8</ele>
        <time>2018-08-05T07:43:52.05Z</time>
      </trkpt>
      <trkpt lat="42.51199" lon="2.46023">
        <ele>2430</ele>
        <time>2018-08-05T07:44:00.05Z</time>
      </trkpt>
      <trkpt lat="42.51209" lon="2.46022">
        <ele>2432.6</ele>
        <time>2018-08-05T07:44:10.05Z</time>
      </trkpt>
      <trkpt lat="42.51218" lon="2.46017">
        <ele>2433.1</ele>
        <time>2018-08-05T07:44:19.05Z</time>
      </trkpt>
      <trkpt lat="42.51228" lon="2.4601">
        <ele>2432.8</ele>
        <time>2018-08-05T07:44:28.05Z</time>
      </trkpt>
      <trkpt lat="42.51236" lon="2.46">
        <ele>2430.3</ele>
        <time>2018-08-05T07:44:36.05Z</time>
      </trkpt>
      <trkpt lat="42.51245" lon="2.45995">
        <ele>2431.4</ele>
        <time>2018-08-05T07:44:45.05Z</time>
      </trkpt>
      <trkpt lat="42.51254" lon="2.45991">
        <ele>2433.4</ele>
        <time>2018-08-05T07:44:56.05Z</time>
      </trkpt>
      <trkpt lat="42.51265" lon="2.4599">
        <ele>2438</ele>
        <time>2018-08-05T07:45:07.05Z</time>
      </trkpt>
      <trkpt lat="42.51275" lon="2.45986">
        <ele>2441.3</ele>
        <time>2018-08-05T07:45:16.05Z</time>
      </trkpt>
      <trkpt lat="42.51282" lon="2.45987">
        <ele>2444.7</ele>
        <time>2018-08-05T07:45:25.05Z</time>
      </trkpt>
      <trkpt lat="42.51273" lon="2.45995">
        <ele>2443</ele>
        <time>2018-08-05T07:45:34.05Z</time>
      </trkpt>
      <trkpt lat="42.51265" lon="2.46004">
        <ele>2442.9</ele>
        <time>2018-08-05T07:45:42.05Z</time>
      </trkpt>
      <trkpt lat="42.51262" lon="2.46012">
        <ele>2445.5</ele>
        <time>2018-08-05T07:45:49.05Z</time>
      </trkpt>
      <trkpt lat="42.51263" lon="2.4602">
        <ele>2450</ele>
        <time>2018-08-05T07:46:01.05Z</time>
      </trkpt>
      <trkpt lat="42.51273" lon="2.46019">
        <ele>2454.2</ele>
        <time>2018-08-05T07:46:15.05Z</time>
      </trkpt>
      <trkpt lat="42.51283" lon="2.46016">
        <ele>2457.4</ele>
        <time>2018-08-05T07:46:25.05Z</time>
      </trkpt>
      <trkpt lat="42.51293" lon="2.46014">
        <ele>2461</ele>
        <time>2018-08-05T07:46:37.05Z</time>
      </trkpt>
      <trkpt lat="42.51304" lon="2.46011">
        <ele>2464.5</ele>
        <time>2018-08-05T07:46:50.05Z</time>
      </trkpt>
      <trkpt lat="42.51314" lon="2.46008">
        <ele>2467.6</ele>
        <time>2018-08-05T07:47:03.05Z</time>
      </trkpt>
      <trkpt lat="42.51308" lon="2.46018">
        <ele>2470.2</ele>
        <time>2018-08-05T07:47:14.05Z</time>
      </trkpt>
      <trkpt lat="42.51302" lon="2.46025">
        <ele>2471.1</ele>
        <time>2018-08-05T07:47:21.05Z</time>
      </trkpt>
      <trkpt lat="42.51296" lon="2.46035">
        <ele>2473.6</ele>
        <time>2018-08-05T07:47:31.05Z</time>
      </trkpt>
      <trkpt lat="42.5129" lon="2.46043">
        <ele>2474.9</ele>
        <time>2018-08-05T07:47:40.05Z</time>
      </trkpt>
      <trkpt lat="42.51282" lon="2.46053">
        <ele>2476.1</ele>
        <time>2018-08-05T07:47:52.05Z</time>
      </trkpt>
      <trkpt lat="42.51279" lon="2.4606">
        <ele>2478.2</ele>
        <time>2018-08-05T07:48:00.05Z</time>
      </trkpt>
      <trkpt lat="42.51272" lon="2.46069">
        <ele>2479.3</ele>
        <time>2018-08-05T07:48:19.05Z</time>
      </trkpt>
      <trkpt lat="42.51266" lon="2.46081">
        <ele>2482.3</ele>
        <time>2018-08-05T07:48:31.05Z</time>
      </trkpt>
      <trkpt lat="42.51257" lon="2.4609">
        <ele>2482.2</ele>
        <time>2018-08-05T07:48:41.05Z</time>
      </trkpt>
      <trkpt lat="42.5125" lon="2.46099">
        <ele>2483.5</ele>
        <time>2018-08-05T07:48:52.05Z</time>
      </trkpt>
      <trkpt lat="42.51241" lon="2.46106">
        <ele>2484.3</ele>
        <time>2018-08-05T07:48:59.05Z</time>
      </trkpt>
      <trkpt lat="42.51251" lon="2.46111">
        <ele>2490.4</ele>
        <time>2018-08-05T07:49:22.05Z</time>
      </trkpt>
      <trkpt lat="42.5126" lon="2.46106">
        <ele>2492.2</ele>
        <time>2018-08-05T07:49:35.05Z</time>
      </trkpt>
      <trkpt lat="42.5127" lon="2.4611">
        <ele>2499.2</ele>
        <time>2018-08-05T07:49:53.05Z</time>
      </trkpt>
      <trkpt lat="42.5128" lon="2.46112">
        <ele>2505.1</ele>
        <time>2018-08-05T07:50:11.05Z</time>
      </trkpt>
      <trkpt lat="42.51278" lon="2.46123">
        <ele>2509.6</ele>
        <time>2018-08-05T07:50:35.05Z</time>
      </trkpt>
      <trkpt lat="42.51272" lon="2.46132">
        <ele>2511.4</ele>
        <time>2018-08-05T07:50:45.05Z</time>
      </trkpt>
      <trkpt lat="42.51268" lon="2.46139">
        <ele>2513.1</ele>
        <time>2018-08-05T07:50:57.05Z</time>
      </trkpt>
      <trkpt lat="42.5126" lon="2.46148">
        <ele>2514.3</ele>
        <time>2018-08-05T07:51:09.05Z</time>
      </trkpt>
      <trkpt lat="42.51252" lon="2.46156">
        <ele>2515.1</ele>
        <time>2018-08-05T07:51:18.05Z</time>
      </trkpt>
      <trkpt lat="42.51244" lon="2.46163">
        <ele>2517.1</ele>
        <time>2018-08-05T07:51:26.05Z</time>
      </trkpt>
      <trkpt lat="42.51234" lon="2.46168">
        <ele>2517.7</ele>
        <time>2018-08-05T07:51:35.05Z</time>
      </trkpt>
      <trkpt lat="42.51224" lon="2.46173">
        <ele>2516.26</ele>
        <time>2018-08-05T07:51:43.05Z</time>
      </trkpt>
      <trkpt lat="42.51215" lon="2.46179">
        <ele>2514.96</ele>
        <time>2018-08-05T07:51:52.05Z</time>
      </trkpt>
      <trkpt lat="42.51205" lon="2.46185">
        <ele>2513.52</ele>
        <time>2018-08-05T07:52:03.05Z</time>
      </trkpt>
      <trkpt lat="42.51196" lon="2.46191">
        <ele>2512.22</ele>
        <time>2018-08-05T07:52:12.05Z</time>
      </trkpt>
      <trkpt lat="42.51206" lon="2.46189">
        <ele>2513.66</ele>
        <time>2018-08-05T07:52:24.05Z</time>
      </trkpt>
      <trkpt lat="42.51217" lon="2.4619">
        <ele>2515.25</ele>
        <time>2018-08-05T07:52:33.05Z</time>
      </trkpt>
      <trkpt lat="42.51226" lon="2.4619">
        <ele>2516.54</ele>
        <time>2018-08-05T07:52:43.05Z</time>
      </trkpt>
      <trkpt lat="42.51236" lon="2.4619">
        <ele>2517.98</ele>
        <time>2018-08-05T07:52:53.05Z</time>
      </trkpt>
      <trkpt lat="42.51246" lon="2.46191">
        <ele>2519.42</ele>
        <time>2018-08-05T07:53:06.05Z</time>
      </trkpt>
      <trkpt lat="42.51257" lon="2.46187">
        <ele>2522.86</ele>
        <time>2018-08-05T07:53:14.05Z</time>
      </trkpt>
      <trkpt lat="42.51266" lon="2.46185">
        <ele>2526.53</ele>
        <time>2018-08-05T07:53:22.05Z</time>
      </trkpt>
      <trkpt lat="42.51276" lon="2.46182">
        <ele>2530.61</ele>
        <time>2018-08-05T07:53:31.05Z</time>
      </trkpt>
      <trkpt lat="42.51287" lon="2.46179">
        <ele>2535.1</ele>
        <time>2018-08-05T07:53:41.05Z</time>
      </trkpt>
      <trkpt lat="42.51297" lon="2.46178">
        <ele>2539.18</ele>
        <time>2018-08-05T07:53:50.05Z</time>
      </trkpt>
      <trkpt lat="42.51308" lon="2.46176">
        <ele>2543.66</ele>
        <time>2018-08-05T07:54:00.05Z</time>
      </trkpt>
      <trkpt lat="42.51319" lon="2.46174">
        <ele>2548.15</ele>
        <time>2018-08-05T07:54:10.05Z</time>
      </trkpt>
      <trkpt lat="42.51329" lon="2.4617">
        <ele>2552.23</ele>
        <time>2018-08-05T07:54:18.05Z</time>
      </trkpt>
      <trkpt lat="42.51338" lon="2.46164">
        <ele>2552.9</ele>
        <time>2018-08-05T07:54:26.05Z</time>
      </trkpt>
      <trkpt lat="42.51347" lon="2.46158">
        <ele>2550.4</ele>
        <time>2018-08-05T07:54:34.05Z</time>
      </trkpt>
      <trkpt lat="42.51354" lon="2.46148">
        <ele>2546.2</ele>
        <time>2018-08-05T07:54:43.05Z</time>
      </trkpt>
      <trkpt lat="42.51361" lon="2.46136">
        <ele>2541.1</ele>
        <time>2018-08-05T07:54:52.05Z</time>
      </trkpt>
      <trkpt lat="42.51367" lon="2.46124">
        <ele>2536.1</ele>
        <time>2018-08-05T07:55:03.05Z</time>
      </trkpt>
      <trkpt lat="42.51375" lon="2.46114">
        <ele>2531.9</ele>
        <time>2018-08-05T07:55:13.05Z</time>
      </trkpt>
      <trkpt lat="42.51383" lon="2.46106">
        <ele>2528.5</ele>
        <time>2018-08-05T07:55:22.05Z</time>
      </trkpt>
      <trkpt lat="42.51393" lon="2.46107">
        <ele>2528.9</ele>
        <time>2018-08-05T07:55:33.05Z</time>
      </trkpt>
      <trkpt lat="42.51403" lon="2.46111">
        <ele>2530.6</ele>
        <time>2018-08-05T07:55:42.05Z</time>
      </trkpt>
      <trkpt lat="42.51412" lon="2.46116">
        <ele>2532.7</ele>
        <time>2018-08-05T07:55:57.05Z</time>
      </trkpt>
      <trkpt lat="42.51419" lon="2.46114">
        <ele>2562</ele>
        <time>2018-08-05T07:56:05.05Z</time>
      </trkpt>
      <trkpt lat="42.51426" lon="2.46103">
        <ele>2564</ele>
        <time>2018-08-05T07:56:17.05Z</time>
      </trkpt>
      <trkpt lat="42.51436" lon="2.461">
        <ele>2564.9</ele>
        <time>2018-08-05T07:56:24.05Z</time>
      </trkpt>
      <trkpt lat="42.51443" lon="2.4609">
        <ele>2565</ele>
        <time>2018-08-05T07:56:35.05Z</time>
      </trkpt>
      <trkpt lat="42.51448" lon="2.46078">
        <ele>2515</ele>
        <time>2018-08-05T07:56:50.05Z</time>
      </trkpt>
      <trkpt lat="42.51456" lon="2.4607">
        <ele>2515</ele>
        <time>2018-08-05T07:57:04.05Z</time>
      </trkpt>
      <trkpt lat="42.51466" lon="2.46066">
        <ele>2515</ele>
        <time>2018-08-05T07:57:14.05Z</time>
      </trkpt>
      <trkpt lat="42.51476" lon="2.46059">
        <ele>2515</ele>
        <time>2018-08-05T07:57:28.05Z</time>
      </trkpt>
      <trkpt lat="42.51483" lon="2.4605">
        <ele>2515</ele>
        <time>2018-08-05T07:57:39.05Z</time>
      </trkpt>
      <trkpt lat="42.5149" lon="2.4604">
        <ele>2515</ele>
        <time>2018-08-05T07:57:51.05Z</time>
      </trkpt>
      <trkpt lat="42.51498" lon="2.46029">
        <ele>2515</ele>
        <time>2018-08-05T07:57:57.05Z</time>
      </trkpt>
      <trkpt lat="42.51507" lon="2.46023">
        <ele>2580</ele>
        <time>2018-08-05T07:58:08.05Z</time>
      </trkpt>
      <trkpt lat="42.51512" lon="2.46016">
        <ele>2581</ele>
        <time>2018-08-05T07:58:16.05Z</time>
      </trkpt>
      <trkpt lat="42.51519" lon="2.46005">
        <ele>2585</ele>
        <time>2018-08-05T07:58:29.05Z</time>
      </trkpt>
      <trkpt lat="42.51527" lon="2.45996">
        <ele>2541</ele>
        <time>2018-08-05T07:58:39.05Z</time>
      </trkpt>
      <trkpt lat="42.51534" lon="2.45986">
        <ele>2541</ele>
        <time>2018-08-05T07:58:51.05Z</time>
      </trkpt>
      <trkpt lat="42.51541" lon="2.45977">
        <ele>2541</ele>
        <time>2018-08-05T07:59:00.05Z</time>
      </trkpt>
      <trkpt lat="42.51549" lon="2.4597">
        <ele>2541</ele>
        <time>2018-08-05T07:59:12.05Z</time>
      </trkpt>
      <trkpt lat="42.51558" lon="2.45963">
        <ele>2541</ele>
        <time>2018-08-05T07:59:30.05Z</time>
      </trkpt>
      <trkpt lat="42.51563" lon="2.4595">
        <ele>2541</ele>
        <time>2018-08-05T07:59:40.05Z</time>
      </trkpt>
      <trkpt lat="42.51571" lon="2.45943">
        <ele>2541</ele>
        <time>2018-08-05T07:59:59.05Z</time>
      </trkpt>
      <trkpt lat="42.51576" lon="2.45931">
        <ele>2541</ele>
        <time>2018-08-05T08:00:11.05Z</time>
      </trkpt>
      <trkpt lat="42.51586" lon="2.45927">
        <ele>2601</ele>
        <time>2018-08-05T08:00:24.05Z</time>
      </trkpt>
      <trkpt lat="42.51595" lon="2.45921">
        <ele>2601</ele>
        <time>2018-08-05T08:00:34.05Z</time>
      </trkpt>
      <trkpt lat="42.51602" lon="2.45913">
        <ele>2604.9</ele>
        <time>2018-08-05T08:00:46.05Z</time>
      </trkpt>
      <trkpt lat="42.51609" lon="2.45905">
        <ele>2606</ele>
        <time>2018-08-05T08:01:00.05Z</time>
      </trkpt>
      <trkpt lat="42.51615" lon="2.45896">
        <ele>2608.9</ele>
        <time>2018-08-05T08:01:11.05Z</time>
      </trkpt>
      <trkpt lat="42.51624" lon="2.4589">
        <ele>2611</ele>
        <time>2018-08-05T08:01:24.05Z</time>
      </trkpt>
      <trkpt lat="42.51632" lon="2.45884">
        <ele>2613</ele>
        <time>2018-08-05T08:01:36.05Z</time>
      </trkpt>
      <trkpt lat="42.5164" lon="2.45875">
        <ele>2615.9</ele>
        <time>2018-08-05T08:01:46.05Z</time>
      </trkpt>
      <trkpt lat="42.51644" lon="2.45866">
        <ele>2616</ele>
        <time>2018-08-05T08:01:56.05Z</time>
      </trkpt>
      <trkpt lat="42.5165" lon="2.45856">
        <ele>2618</ele>
        <time>2018-08-05T08:02:10.05Z</time>
      </trkpt>
      <trkpt lat="42.51654" lon="2.45843">
        <ele>2619</ele>
        <time>2018-08-05T08:02:22.05Z</time>
      </trkpt>
      <trkpt lat="42.51659" lon="2.45831">
        <ele>2545</ele>
        <time>2018-08-05T08:02:34.05Z</time>
      </trkpt>
      <trkpt lat="42.51667" lon="2.45824">
        <ele>2622</ele>
        <time>2018-08-05T08:02:46.05Z</time>
      </trkpt>
      <trkpt lat="42.51673" lon="2.45814">
        <ele>2623</ele>
        <time>2018-08-05T08:02:55.05Z</time>
      </trkpt>
      <trkpt lat="42.51678" lon="2.45804">
        <ele>2624</ele>
        <time>2018-08-05T08:03:04.05Z</time>
      </trkpt>
      <trkpt lat="42.51686" lon="2.45799">
        <ele>2626</ele>
        <time>2018-08-05T08:03:14.05Z</time>
      </trkpt>
      <trkpt lat="42.51691" lon="2.45793">
        <ele>2628</ele>
        <time>2018-08-05T08:03:22.05Z</time>
      </trkpt>
      <trkpt lat="42.51699" lon="2.45786">
        <ele>2629</ele>
        <time>2018-08-05T08:03:33.05Z</time>
      </trkpt>
      <trkpt lat="42.51705" lon="2.45776">
        <ele>2629</ele>
        <time>2018-08-05T08:03:41.05Z</time>
      </trkpt>
      <trkpt lat="42.51712" lon="2.4577">
        <ele>2630</ele>
        <time>2018-08-05T08:03:48.05Z</time>
      </trkpt>
      <trkpt lat="42.5172" lon="2.45768">
        <ele>2634</ele>
        <time>2018-08-05T08:04:03.05Z</time>
      </trkpt>
      <trkpt lat="42.5173" lon="2.45765">
        <ele>2641.9</ele>
        <time>2018-08-05T08:04:23.05Z</time>
      </trkpt>
      <trkpt lat="42.51734" lon="2.45764">
        <ele>2644</ele>
        <time>2018-08-05T08:04:34.05Z</time>
      </trkpt>
      <trkpt lat="42.51744" lon="2.45767">
        <ele>2650</ele>
        <time>2018-08-05T08:05:04.05Z</time>
      </trkpt>
      <trkpt lat="42.51751" lon="2.45758">
        <ele>2653</ele>
        <time>2018-08-05T08:05:14.05Z</time>
      </trkpt>
      <trkpt lat="42.51758" lon="2.45751">
        <ele>2654</ele>
        <time>2018-08-05T08:05:24.05Z</time>
      </trkpt>
      <trkpt lat="42.51766" lon="2.45745">
        <ele>2657</ele>
        <time>2018-08-05T08:05:40.05Z</time>
      </trkpt>
      <trkpt lat="42.51773" lon="2.45738">
        <ele>2665</ele>
        <time>2018-08-05T08:05:52.05Z</time>
      </trkpt>
      <trkpt lat="42.51778" lon="2.45729">
        <ele>2666</ele>
        <time>2018-08-05T08:06:02.05Z</time>
      </trkpt>
      <trkpt lat="42.51787" lon="2.45725">
        <ele>2671</ele>
        <time>2018-08-05T08:06:22.05Z</time>
      </trkpt>
      <trkpt lat="42.5179" lon="2.45723">
        <ele>2671</ele>
        <time>2018-08-05T08:06:29.05Z</time>
      </trkpt>
      <trkpt lat="42.51792" lon="2.45721">
        <ele>2682.1</ele>
        <time>2018-08-05T08:06:34.05Z</time>
      </trkpt>
      <trkpt lat="42.51795" lon="2.4572">
        <ele>2683.1</ele>
        <time>2018-08-05T08:06:42.05Z</time>
      </trkpt>
      <trkpt lat="42.51797" lon="2.4572">
        <ele>2685</ele>
        <time>2018-08-05T08:06:47.05Z</time>
      </trkpt>
      <trkpt lat="42.51799" lon="2.45718">
        <ele>2686</ele>
        <time>2018-08-05T08:06:51.05Z</time>
      </trkpt>
      <trkpt lat="42.51801" lon="2.45717">
        <ele>2686.9</ele>
        <time>2018-08-05T08:06:56.05Z</time>
      </trkpt>
      <trkpt lat="42.51803" lon="2.45715">
        <ele>2689</ele>
        <time>2018-08-05T08:07:02.05Z</time>
      </trkpt>
      <trkpt lat="42.51804" lon="2.45713">
        <ele>2690.8</ele>
        <time>2018-08-05T08:07:06.05Z</time>
      </trkpt>
      <trkpt lat="42.51806" lon="2.45712">
        <ele>2691</ele>
        <time>2018-08-05T08:07:10.05Z</time>
      </trkpt>
      <trkpt lat="42.51808" lon="2.45711">
        <ele>2691</ele>
        <time>2018-08-05T08:07:13.05Z</time>
      </trkpt>
      <trkpt lat="42.5181" lon="2.4571">
        <ele>2691</ele>
        <time>2018-08-05T08:07:17.05Z</time>
      </trkpt>
      <trkpt lat="42.51812" lon="2.45709">
        <ele>2691.9</ele>
        <time>2018-08-05T08:07:21.05Z</time>
      </trkpt>
      <trkpt lat="42.51814" lon="2.45707">
        <ele>2692</ele>
        <time>2018-08-05T08:07:25.05Z</time>
      </trkpt>
      <trkpt lat="42.51816" lon="2.45706">
        <ele>2692</ele>
        <time>2018-08-05T08:07:30.05Z</time>
      </trkpt>
      <trkpt lat="42.51823" lon="2.45701">
        <ele>2692</ele>
        <time>2018-08-05T08:07:49.05Z</time>
      </trkpt>
      <trkpt lat="42.51828" lon="2.45695">
        <ele>2697</ele>
        <time>2018-08-05T08:08:00.05Z</time>
      </trkpt>
      <trkpt lat="42.51832" lon="2.45689">
        <ele>2698</ele>
        <time>2018-08-05T08:08:08.05Z</time>
      </trkpt>
      <trkpt lat="42.51838" lon="2.45693">
        <ele>2702</ele>
        <time>2018-08-05T08:08:22.05Z</time>
      </trkpt>
      <trkpt lat="42.51842" lon="2.45698">
        <ele>2703</ele>
        <time>2018-08-05T08:08:39.05Z</time>
      </trkpt>
      <trkpt lat="42.51848" lon="2.45697">
        <ele>2710</ele>
        <time>2018-08-05T08:08:59.05Z</time>
      </trkpt>
      <trkpt lat="42.51853" lon="2.45694">
        <ele>2714</ele>
        <time>2018-08-05T08:09:23.05Z</time>
      </trkpt>
      <trkpt lat="42.51858" lon="2.45689">
        <ele>2717</ele>
        <time>2018-08-05T08:09:43.05Z</time>
      </trkpt>
      <trkpt lat="42.51864" lon="2.45689">
        <ele>2724</ele>
        <time>2018-08-05T08:10:15.05Z</time>
      </trkpt>
      <trkpt lat="42.5187" lon="2.45694">
        <ele>2732</ele>
        <time>2018-08-05T08:10:48.05Z</time>
      </trkpt>
      <trkpt lat="42.51877" lon="2.45692">
        <ele>2737</ele>
        <time>2018-08-05T08:11:08.05Z</time>
      </trkpt>
      <trkpt lat="42.51883" lon="2.45689">
        <ele>2743</ele>
        <time>2018-08-05T08:11:33.05Z</time>
      </trkpt>
      <trkpt lat="42.51888" lon="2.45686">
        <ele>2747.9</ele>
        <time>2018-08-05T08:11:51.05Z</time>
      </trkpt>
      <trkpt lat="42.5189" lon="2.45678">
        <ele>2752</ele>
        <time>2018-08-05T08:12:10.05Z</time>
      </trkpt>
      <trkpt lat="42.51895" lon="2.45671">
        <ele>2757</ele>
        <time>2018-08-05T08:13:05.05Z</time>
      </trkpt>
      <trkpt lat="42.519" lon="2.45669">
        <ele>2763</ele>
        <time>2018-08-05T08:13:56.05Z</time>
      </trkpt>
      <trkpt lat="42.51899" lon="2.45663">
        <ele>2767</ele>
        <time>2018-08-05T08:14:15.05Z</time>
      </trkpt>
      <trkpt lat="42.51898" lon="2.45658">
        <ele>2768</ele>
        <time>2018-08-05T08:14:46.05Z</time>
      </trkpt>
      <trkpt lat="42.519" lon="2.4565">
        <ele>2769</ele>
        <time>2018-08-05T08:14:56.05Z</time>
      </trkpt>
      <trkpt lat="42.51906" lon="2.45651">
        <ele>2768</ele>
        <time>2018-08-05T08:15:06.05Z</time>
      </trkpt>
      <trkpt lat="42.51915" lon="2.45652">
        <ele>2766</ele>
        <time>2018-08-05T08:15:13.05Z</time>
      </trkpt>
      <trkpt lat="42.51925" lon="2.45651">
        <ele>2765</ele>
        <time>2018-08-05T08:15:22.05Z</time>
      </trkpt>
      <trkpt lat="42.51922" lon="2.45644">
        <ele>2761.9</ele>
        <time>2018-08-05T08:15:34.05Z</time>
      </trkpt>
      <trkpt lat="42.51933" lon="2.45644">
        <ele>2757.2</ele>
        <time>2018-08-05T08:15:41.05Z</time>
      </trkpt>
      <trkpt lat="42.51943" lon="2.45645">
        <ele>2756</ele>
        <time>2018-08-05T08:15:48.05Z</time>
      </trkpt>
      <trkpt lat="42.51949" lon="2.45646">
        <ele>2756</ele>
        <time>2018-08-05T08:15:52.05Z</time>
      </trkpt>
      <trkpt lat="42.51955" lon="2.45645">
        <ele>2756</ele>
        <time>2018-08-05T08:15:59.05Z</time>
      </trkpt>
      <trkpt lat="42.51953" lon="2.45639">
        <ele>2751.1</ele>
        <time>2018-08-05T08:16:06.05Z</time>
      </trkpt>
      <trkpt lat="42.51948" lon="2.45634">
        <ele>2751</ele>
        <time>2018-08-05T08:16:10.05Z</time>
      </trkpt>
      <trkpt lat="42.5194" lon="2.45626">
        <ele>2749.1</ele>
        <time>2018-08-05T08:16:16.05Z</time>
      </trkpt>
      <trkpt lat="42.51937" lon="2.45624">
        <ele>2749</ele>
        <time>2018-08-05T08:16:19.05Z</time>
      </trkpt>
      <trkpt lat="42.51933" lon="2.4562">
        <ele>2748</ele>
        <time>2018-08-05T08:16:23.05Z</time>
      </trkpt>
      <trkpt lat="42.51928" lon="2.45617">
        <ele>2747.1</ele>
        <time>2018-08-05T08:16:26.05Z</time>
      </trkpt>
      <trkpt lat="42.51932" lon="2.45612">
        <ele>2746</ele>
        <time>2018-08-05T08:16:35.05Z</time>
      </trkpt>
      <trkpt lat="42.51937" lon="2.45611">
        <ele>2745</ele>
        <time>2018-08-05T08:16:38.05Z</time>
      </trkpt>
      <trkpt lat="42.51943" lon="2.45613">
        <ele>2743</ele>
        <time>2018-08-05T08:16:42.05Z</time>
      </trkpt>
      <trkpt lat="42.51948" lon="2.45614">
        <ele>2742.1</ele>
        <time>2018-08-05T08:16:46.05Z</time>
      </trkpt>
      <trkpt lat="42.51954" lon="2.45615">
        <ele>2742</ele>
        <time>2018-08-05T08:16:50.05Z</time>
      </trkpt>
      <trkpt lat="42.51961" lon="2.45617">
        <ele>2742</ele>
        <time>2018-08-05T08:16:54.05Z</time>
      </trkpt>
      <trkpt lat="42.51967" lon="2.45617">
        <ele>2742</ele>
        <time>2018-08-05T08:16:59.05Z</time>
      </trkpt>
      <trkpt lat="42.51977" lon="2.4562">
        <ele>2739</ele>
        <time>2018-08-05T08:17:06.05Z</time>
      </trkpt>
      <trkpt lat="42.51981" lon="2.45615">
        <ele>2738</ele>
        <time>2018-08-05T08:17:18.05Z</time>
      </trkpt>
      <trkpt lat="42.51976" lon="2.45609">
        <ele>2735</ele>
        <time>2018-08-05T08:17:22.05Z</time>
      </trkpt>
      <trkpt lat="42.51972" lon="2.45605">
        <ele>2735</ele>
        <time>2018-08-05T08:17:25.05Z</time>
      </trkpt>
      <trkpt lat="42.51969" lon="2.456">
        <ele>2734</ele>
        <time>2018-08-05T08:17:29.05Z</time>
      </trkpt>
      <trkpt lat="42.51964" lon="2.45596">
        <ele>2731</ele>
        <time>2018-08-05T08:17:34.05Z</time>
      </trkpt>
      <trkpt lat="42.51962" lon="2.45592">
        <ele>2730</ele>
        <time>2018-08-05T08:17:39.05Z</time>
      </trkpt>
      <trkpt lat="42.51966" lon="2.4559">
        <ele>2729</ele>
        <time>2018-08-05T08:17:42.05Z</time>
      </trkpt>
      <trkpt lat="42.51973" lon="2.45591">
        <ele>2729</ele>
        <time>2018-08-05T08:17:45.05Z</time>
      </trkpt>
      <trkpt lat="42.51984" lon="2.45595">
        <ele>2729</ele>
        <time>2018-08-05T08:17:51.05Z</time>
      </trkpt>
      <trkpt lat="42.51993" lon="2.45599">
        <ele>2729</ele>
        <time>2018-08-05T08:17:57.05Z</time>
      </trkpt>
      <trkpt lat="42.52" lon="2.45602">
        <ele>2725.39</ele>
        <time>2018-08-05T08:18:01.05Z</time>
      </trkpt>
      <trkpt lat="42.52004" lon="2.45603">
        <ele>2724.1</ele>
        <time>2018-08-05T08:18:06.05Z</time>
      </trkpt>
      <trkpt lat="42.52009" lon="2.45601">
        <ele>2721.2</ele>
        <time>2018-08-05T08:18:16.05Z</time>
      </trkpt>
      <trkpt lat="42.52014" lon="2.45601">
        <ele>2719.1</ele>
        <time>2018-08-05T08:18:26.05Z</time>
      </trkpt>
      <trkpt lat="42.52017" lon="2.45596">
        <ele>2717</ele>
        <time>2018-08-05T08:18:37.05Z</time>
      </trkpt>
      <trkpt lat="42.52014" lon="2.4559">
        <ele>2715.2</ele>
        <time>2018-08-05T08:18:41.05Z</time>
      </trkpt>
      <trkpt lat="42.5201" lon="2.45586">
        <ele>2715</ele>
        <time>2018-08-05T08:18:43.05Z</time>
      </trkpt>
      <trkpt lat="42.52008" lon="2.45584">
        <ele>2715</ele>
        <time>2018-08-05T08:18:45.05Z</time>
      </trkpt>
      <trkpt lat="42.52" lon="2.45574">
        <ele>2713.1</ele>
        <time>2018-08-05T08:18:51.05Z</time>
      </trkpt>
      <trkpt lat="42.51997" lon="2.45569">
        <ele>2713</ele>
        <time>2018-08-05T08:18:55.05Z</time>
      </trkpt>
      <trkpt lat="42.51991" lon="2.4556">
        <ele>2709</ele>
        <time>2018-08-05T08:19:02.05Z</time>
      </trkpt>
      <trkpt lat="42.51986" lon="2.45553">
        <ele>2709</ele>
        <time>2018-08-05T08:19:07.05Z</time>
      </trkpt>
      <trkpt lat="42.51983" lon="2.45548">
        <ele>2709</ele>
        <time>2018-08-05T08:19:10.05Z</time>
      </trkpt>
      <trkpt lat="42.51978" lon="2.45545">
        <ele>2708</ele>
        <time>2018-08-05T08:19:13.05Z</time>
      </trkpt>
      <trkpt lat="42.51969" lon="2.45535">
        <ele>2707.1</ele>
        <time>2018-08-05T08:19:21.05Z</time>
      </trkpt>
      <trkpt lat="42.51965" lon="2.45526">
        <ele>2707</ele>
        <time>2018-08-05T08:19:26.05Z</time>
      </trkpt>
      <trkpt lat="42.51971" lon="2.45528">
        <ele>2707</ele>
        <time>2018-08-05T08:19:29.05Z</time>
      </trkpt>
      <trkpt lat="42.51977" lon="2.4553">
        <ele>2703</ele>
        <time>2018-08-05T08:19:32.05Z</time>
      </trkpt>
      <trkpt lat="42.51982" lon="2.45531">
        <ele>2703</ele>
        <time>2018-08-05T08:19:35.05Z</time>
      </trkpt>
      <trkpt lat="42.51989" lon="2.45532">
        <ele>2701</ele>
        <time>2018-08-05T08:19:38.05Z</time>
      </trkpt>
      <trkpt lat="42.51996" lon="2.45535">
        <ele>2700.1</ele>
        <time>2018-08-05T08:19:41.05Z</time>
      </trkpt>
      <trkpt lat="42.52003" lon="2.45534">
        <ele>2698.2</ele>
        <time>2018-08-05T08:19:46.05Z</time>
      </trkpt>
      <trkpt lat="42.52014" lon="2.4554">
        <ele>2697</ele>
        <time>2018-08-05T08:19:52.05Z</time>
      </trkpt>
      <trkpt lat="42.52024" lon="2.45545">
        <ele>2696</ele>
        <time>2018-08-05T08:19:58.05Z</time>
      </trkpt>
      <trkpt lat="42.52034" lon="2.4555">
        <ele>2694.8</ele>
        <time>2018-08-05T08:20:06.05Z</time>
      </trkpt>
      <trkpt lat="42.52044" lon="2.45554">
        <ele>2692</ele>
        <time>2018-08-05T08:20:12.05Z</time>
      </trkpt>
      <trkpt lat="42.52049" lon="2.45558">
        <ele>2692</ele>
        <time>2018-08-05T08:20:15.05Z</time>
      </trkpt>
      <trkpt lat="42.52054" lon="2.45562">
        <ele>2692</ele>
        <time>2018-08-05T08:20:18.05Z</time>
      </trkpt>
      <trkpt lat="42.5206" lon="2.45566">
        <ele>2691</ele>
        <time>2018-08-05T08:20:22.05Z</time>
      </trkpt>
      <trkpt lat="42.5207" lon="2.45568">
        <ele>2691</ele>
        <time>2018-08-05T08:20:28.05Z</time>
      </trkpt>
      <trkpt lat="42.5208" lon="2.45567">
        <ele>2688</ele>
        <time>2018-08-05T08:20:32.05Z</time>
      </trkpt>
      <trkpt lat="42.52087" lon="2.45568">
        <ele>2688</ele>
        <time>2018-08-05T08:20:35.05Z</time>
      </trkpt>
      <trkpt lat="42.52094" lon="2.45573">
        <ele>2687</ele>
        <time>2018-08-05T08:20:38.05Z</time>
      </trkpt>
      <trkpt lat="42.52105" lon="2.45572">
        <ele>2686</ele>
        <time>2018-08-05T08:20:44.05Z</time>
      </trkpt>
      <trkpt lat="42.52115" lon="2.45572">
        <ele>2685</ele>
        <time>2018-08-05T08:20:49.05Z</time>
      </trkpt>
      <trkpt lat="42.52122" lon="2.45571">
        <ele>2684</ele>
        <time>2018-08-05T08:20:55.05Z</time>
      </trkpt>
      <trkpt lat="42.52131" lon="2.45568">
        <ele>2679</ele>
        <time>2018-08-05T08:21:03.05Z</time>
      </trkpt>
      <trkpt lat="42.52136" lon="2.45568">
        <ele>2677</ele>
        <time>2018-08-05T08:21:09.05Z</time>
      </trkpt>
      <trkpt lat="42.52133" lon="2.4556">
        <ele>2664</ele>
        <time>2018-08-05T08:21:13.05Z</time>
      </trkpt>
      <trkpt lat="42.52131" lon="2.45555">
        <ele>2664</ele>
        <time>2018-08-05T08:21:15.05Z</time>
      </trkpt>
      <trkpt lat="42.52128" lon="2.45549">
        <ele>2663.1</ele>
        <time>2018-08-05T08:21:17.05Z</time>
      </trkpt>
      <trkpt lat="42.52126" lon="2.45542">
        <ele>2663</ele>
        <time>2018-08-05T08:21:20.05Z</time>
      </trkpt>
      <trkpt lat="42.52136" lon="2.45548">
        <ele>2660</ele>
        <time>2018-08-05T08:21:28.05Z</time>
      </trkpt>
      <trkpt lat="42.52146" lon="2.45557">
        <ele>2660</ele>
        <time>2018-08-05T08:21:33.05Z</time>
      </trkpt>
      <trkpt lat="42.52156" lon="2.45564">
        <ele>2658</ele>
        <time>2018-08-05T08:21:39.05Z</time>
      </trkpt>
      <trkpt lat="42.52159" lon="2.45559">
        <ele>2654</ele>
        <time>2018-08-05T08:21:47.05Z</time>
      </trkpt>
      <trkpt lat="42.52156" lon="2.45552">
        <ele>2654</ele>
        <time>2018-08-05T08:21:50.05Z</time>
      </trkpt>
      <trkpt lat="42.52153" lon="2.45545">
        <ele>2652</ele>
        <time>2018-08-05T08:21:53.05Z</time>
      </trkpt>
      <trkpt lat="42.52149" lon="2.45536">
        <ele>2651.1</ele>
        <time>2018-08-05T08:21:56.05Z</time>
      </trkpt>
      <trkpt lat="42.52145" lon="2.45529">
        <ele>2651</ele>
        <time>2018-08-05T08:21:59.05Z</time>
      </trkpt>
      <trkpt lat="42.5214" lon="2.45523">
        <ele>2647</ele>
        <time>2018-08-05T08:22:02.05Z</time>
      </trkpt>
      <trkpt lat="42.5215" lon="2.45524">
        <ele>2643</ele>
        <time>2018-08-05T08:22:10.05Z</time>
      </trkpt>
      <trkpt lat="42.52159" lon="2.4553">
        <ele>2643</ele>
        <time>2018-08-05T08:22:15.05Z</time>
      </trkpt>
      <trkpt lat="42.52169" lon="2.45537">
        <ele>2642</ele>
        <time>2018-08-05T08:22:20.05Z</time>
      </trkpt>
      <trkpt lat="42.52178" lon="2.45542">
        <ele>2640</ele>
        <time>2018-08-05T08:22:24.05Z</time>
      </trkpt>
      <trkpt lat="42.52188" lon="2.45547">
        <ele>2637</ele>
        <time>2018-08-05T08:22:29.05Z</time>
      </trkpt>
      <trkpt lat="42.52198" lon="2.45553">
        <ele>2637</ele>
        <time>2018-08-05T08:22:34.05Z</time>
      </trkpt>
      <trkpt lat="42.52208" lon="2.45558">
        <ele>2636</ele>
        <time>2018-08-05T08:22:39.05Z</time>
      </trkpt>
      <trkpt lat="42.52218" lon="2.45561">
        <ele>2633</ele>
        <time>2018-08-05T08:22:43.05Z</time>
      </trkpt>
      <trkpt lat="42.52225" lon="2.45564">
        <ele>2631.1</ele>
        <time>2018-08-05T08:22:47.05Z</time>
      </trkpt>
      <trkpt lat="42.52229" lon="2.45556">
        <ele>2628</ele>
        <time>2018-08-05T08:22:54.05Z</time>
      </trkpt>
      <trkpt lat="42.52234" lon="2.45558">
        <ele>2626</ele>
        <time>2018-08-05T08:22:57.05Z</time>
      </trkpt>
      <trkpt lat="42.5224" lon="2.45563">
        <ele>2626</ele>
        <time>2018-08-05T08:23:00.05Z</time>
      </trkpt>
      <trkpt lat="42.52246" lon="2.45564">
        <ele>2623</ele>
        <time>2018-08-05T08:23:03.05Z</time>
      </trkpt>
      <trkpt lat="42.52252" lon="2.45564">
        <ele>2558</ele>
        <time>2018-08-05T08:23:06.05Z</time>
      </trkpt>
      <trkpt lat="42.52263" lon="2.45565">
        <ele>2558</ele>
        <time>2018-08-05T08:23:11.05Z</time>
      </trkpt>
      <trkpt lat="42.5227" lon="2.45568">
        <ele>2558</ele>
        <time>2018-08-05T08:23:15.05Z</time>
      </trkpt>
      <trkpt lat="42.52277" lon="2.45566">
        <ele>2558</ele>
        <time>2018-08-05T08:23:19.05Z</time>
      </trkpt>
      <trkpt lat="42.52284" lon="2.45568">
        <ele>2558</ele>
        <time>2018-08-05T08:23:23.05Z</time>
      </trkpt>
      <trkpt lat="42.52295" lon="2.4557">
        <ele>2558</ele>
        <time>2018-08-05T08:23:29.05Z</time>
      </trkpt>
      <trkpt lat="42.523" lon="2.45569">
        <ele>2558</ele>
        <time>2018-08-05T08:23:33.05Z</time>
      </trkpt>
      <trkpt lat="42.52305" lon="2.45567">
        <ele>2558</ele>
        <time>2018-08-05T08:23:39.05Z</time>
      </trkpt>
      <trkpt lat="42.52314" lon="2.45559">
        <ele>2558</ele>
        <time>2018-08-05T08:23:48.05Z</time>
      </trkpt>
      <trkpt lat="42.52325" lon="2.45554">
        <ele>2558</ele>
        <time>2018-08-05T08:23:54.05Z</time>
      </trkpt>
      <trkpt lat="42.52335" lon="2.45548">
        <ele>2558</ele>
        <time>2018-08-05T08:24:00.05Z</time>
      </trkpt>
      <trkpt lat="42.52344" lon="2.45539">
        <ele>2558</ele>
        <time>2018-08-05T08:24:06.05Z</time>
      </trkpt>
      <trkpt lat="42.52354" lon="2.45533">
        <ele>2558</ele>
        <time>2018-08-05T08:24:13.05Z</time>
      </trkpt>
      <trkpt lat="42.52362" lon="2.4553">
        <ele>2558</ele>
        <time>2018-08-05T08:24:19.05Z</time>
      </trkpt>
      <trkpt lat="42.52373" lon="2.45527">
        <ele>2558</ele>
        <time>2018-08-05T08:24:26.05Z</time>
      </trkpt>
      <trkpt lat="42.52384" lon="2.45521">
        <ele>2558</ele>
        <time>2018-08-05T08:24:31.05Z</time>
      </trkpt>
      <trkpt lat="42.52393" lon="2.45515">
        <ele>2558</ele>
        <time>2018-08-05T08:24:36.05Z</time>
      </trkpt>
      <trkpt lat="42.52402" lon="2.45509">
        <ele>2558</ele>
        <time>2018-08-05T08:24:43.05Z</time>
      </trkpt>
      <trkpt lat="42.52412" lon="2.45502">
        <ele>2558</ele>
        <time>2018-08-05T08:24:50.05Z</time>
      </trkpt>
      <trkpt lat="42.52422" lon="2.45496">
        <ele>2553.2</ele>
        <time>2018-08-05T08:24:55.05Z</time>
      </trkpt>
      <trkpt lat="42.52431" lon="2.45492">
        <ele>2551.4</ele>
        <time>2018-08-05T08:25:00.05Z</time>
      </trkpt>
      <trkpt lat="42.52442" lon="2.4549">
        <ele>2550.5</ele>
        <time>2018-08-05T08:25:06.05Z</time>
      </trkpt>
      <trkpt lat="42.52451" lon="2.4549">
        <ele>2550.5</ele>
        <time>2018-08-05T08:25:11.05Z</time>
      </trkpt>
      <trkpt lat="42.52462" lon="2.45487">
        <ele>2549.1</ele>
        <time>2018-08-05T08:25:17.05Z</time>
      </trkpt>
      <trkpt lat="42.52473" lon="2.45484">
        <ele>2547.8</ele>
        <time>2018-08-05T08:25:23.05Z</time>
      </trkpt>
      <trkpt lat="42.52483" lon="2.45482">
        <ele>2546.8</ele>
        <time>2018-08-05T08:25:28.05Z</time>
      </trkpt>
      <trkpt lat="42.52494" lon="2.45476">
        <ele>2544.1</ele>
        <time>2018-08-05T08:25:34.05Z</time>
      </trkpt>
      <trkpt lat="42.52505" lon="2.45474">
        <ele>2542.4</ele>
        <time>2018-08-05T08:25:40.05Z</time>
      </trkpt>
      <trkpt lat="42.52517" lon="2.4547">
        <ele>2538.7</ele>
        <time>2018-08-05T08:25:46.05Z</time>
      </trkpt>
      <trkpt lat="42.52528" lon="2.45467">
        <ele>2535.8</ele>
        <time>2018-08-05T08:25:52.05Z</time>
      </trkpt>
      <trkpt lat="42.52538" lon="2.45466">
        <ele>2533.9</ele>
        <time>2018-08-05T08:25:57.05Z</time>
      </trkpt>
      <trkpt lat="42.52548" lon="2.45463">
        <ele>2531.2</ele>
        <time>2018-08-05T08:26:02.05Z</time>
      </trkpt>
      <trkpt lat="42.52557" lon="2.45458">
        <ele>2528</ele>
        <time>2018-08-05T08:26:07.05Z</time>
      </trkpt>
      <trkpt lat="42.52567" lon="2.45455">
        <ele>2525.5</ele>
        <time>2018-08-05T08:26:12.05Z</time>
      </trkpt>
      <trkpt lat="42.52578" lon="2.45454">
        <ele>2523.7</ele>
        <time>2018-08-05T08:26:17.05Z</time>
      </trkpt>
      <trkpt lat="42.52588" lon="2.45452">
        <ele>2521.6</ele>
        <time>2018-08-05T08:26:23.05Z</time>
      </trkpt>
      <trkpt lat="42.52599" lon="2.45447">
        <ele>2518.6</ele>
        <time>2018-08-05T08:26:31.05Z</time>
      </trkpt>
      <trkpt lat="42.52609" lon="2.45445">
        <ele>2516.7</ele>
        <time>2018-08-05T08:26:38.05Z</time>
      </trkpt>
      <trkpt lat="42.5262" lon="2.45441">
        <ele>2514.4</ele>
        <time>2018-08-05T08:26:44.05Z</time>
      </trkpt>
      <trkpt lat="42.52631" lon="2.45437">
        <ele>2512.4</ele>
        <time>2018-08-05T08:26:49.05Z</time>
      </trkpt>
      <trkpt lat="42.5264" lon="2.45432">
        <ele>2510.7</ele>
        <time>2018-08-05T08:26:54.05Z</time>
      </trkpt>
      <trkpt lat="42.52649" lon="2.45428">
        <ele>2509.3</ele>
        <time>2018-08-05T08:26:59.05Z</time>
      </trkpt>
      <trkpt lat="42.5266" lon="2.45424">
        <ele>2508.1</ele>
        <time>2018-08-05T08:27:05.05Z</time>
      </trkpt>
      <trkpt lat="42.52671" lon="2.45418">
        <ele>2506.3</ele>
        <time>2018-08-05T08:27:10.05Z</time>
      </trkpt>
      <trkpt lat="42.52679" lon="2.45413">
        <ele>2503.3</ele>
        <time>2018-08-05T08:27:14.05Z</time>
      </trkpt>
      <trkpt lat="42.52687" lon="2.45405">
        <ele>2498.9</ele>
        <time>2018-08-05T08:27:19.05Z</time>
      </trkpt>
      <trkpt lat="42.52697" lon="2.45398">
        <ele>2494.4</ele>
        <time>2018-08-05T08:27:24.05Z</time>
      </trkpt>
      <trkpt lat="42.52709" lon="2.45395">
        <ele>2490.9</ele>
        <time>2018-08-05T08:27:29.05Z</time>
      </trkpt>
      <trkpt lat="42.5272" lon="2.45391">
        <ele>2487.3</ele>
        <time>2018-08-05T08:27:34.05Z</time>
      </trkpt>
      <trkpt lat="42.5273" lon="2.45391">
        <ele>2485.4</ele>
        <time>2018-08-05T08:27:38.05Z</time>
      </trkpt>
      <trkpt lat="42.52741" lon="2.45389">
        <ele>2482.5</ele>
        <time>2018-08-05T08:27:42.05Z</time>
      </trkpt>
      <trkpt lat="42.52752" lon="2.45393">
        <ele>2481.6</ele>
        <time>2018-08-05T08:27:46.05Z</time>
      </trkpt>
      <trkpt lat="42.52762" lon="2.45397">
        <ele>2480</ele>
        <time>2018-08-05T08:27:50.05Z</time>
      </trkpt>
      <trkpt lat="42.52771" lon="2.45402">
        <ele>2479</ele>
        <time>2018-08-05T08:27:54.05Z</time>
      </trkpt>
      <trkpt lat="42.52781" lon="2.45406">
        <ele>2477.4</ele>
        <time>2018-08-05T08:27:58.05Z</time>
      </trkpt>
      <trkpt lat="42.52791" lon="2.4541">
        <ele>2475.8</ele>
        <time>2018-08-05T08:28:02.05Z</time>
      </trkpt>
      <trkpt lat="42.52802" lon="2.45416">
        <ele>2474.5</ele>
        <time>2018-08-05T08:28:07.05Z</time>
      </trkpt>
      <trkpt lat="42.52811" lon="2.45422">
        <ele>2471.9</ele>
        <time>2018-08-05T08:28:11.05Z</time>
      </trkpt>
      <trkpt lat="42.5282" lon="2.4543">
        <ele>2468.9</ele>
        <time>2018-08-05T08:28:15.05Z</time>
      </trkpt>
      <trkpt lat="42.52828" lon="2.45438">
        <ele>2466.4</ele>
        <time>2018-08-05T08:28:20.05Z</time>
      </trkpt>
      <trkpt lat="42.52835" lon="2.45448">
        <ele>2464.2</ele>
        <time>2018-08-05T08:28:24.05Z</time>
      </trkpt>
      <trkpt lat="42.52837" lon="2.45453">
        <ele>2463.7</ele>
        <time>2018-08-05T08:28:26.05Z</time>
      </trkpt>
      <trkpt lat="42.52843" lon="2.45458">
        <ele>2462.2</ele>
        <time>2018-08-05T08:28:29.05Z</time>
      </trkpt>
      <trkpt lat="42.52852" lon="2.45448">
        <ele>2460.3</ele>
        <time>2018-08-05T08:28:34.05Z</time>
      </trkpt>
      <trkpt lat="42.52853" lon="2.45432">
        <ele>2460.3</ele>
        <time>2018-08-05T08:28:38.05Z</time>
      </trkpt>
      <trkpt lat="42.52849" lon="2.45419">
        <ele>2461.4</ele>
        <time>2018-08-05T08:28:42.05Z</time>
      </trkpt>
      <trkpt lat="42.52847" lon="2.45406">
        <ele>2457.9</ele>
        <time>2018-08-05T08:28:46.05Z</time>
      </trkpt>
      <trkpt lat="42.52857" lon="2.45409">
        <ele>2456.7</ele>
        <time>2018-08-05T08:28:52.05Z</time>
      </trkpt>
      <trkpt lat="42.52867" lon="2.45411">
        <ele>2455.1</ele>
        <time>2018-08-05T08:28:56.05Z</time>
      </trkpt>
      <trkpt lat="42.52878" lon="2.45408">
        <ele>2451.4</ele>
        <time>2018-08-05T08:29:01.05Z</time>
      </trkpt>
      <trkpt lat="42.52888" lon="2.45401">
        <ele>2446.2</ele>
        <time>2018-08-05T08:29:06.05Z</time>
      </trkpt>
      <trkpt lat="42.52899" lon="2.45398">
        <ele>2442.2</ele>
        <time>2018-08-05T08:29:11.05Z</time>
      </trkpt>
      <trkpt lat="42.5291" lon="2.45393">
        <ele>2437.4</ele>
        <time>2018-08-05T08:29:17.05Z</time>
      </trkpt>
      <trkpt lat="42.5292" lon="2.45389">
        <ele>2433.6</ele>
        <time>2018-08-05T08:29:22.05Z</time>
      </trkpt>
      <trkpt lat="42.52931" lon="2.45384">
        <ele>2429.9</ele>
        <time>2018-08-05T08:29:27.05Z</time>
      </trkpt>
      <trkpt lat="42.52942" lon="2.45379">
        <ele>2426.4</ele>
        <time>2018-08-05T08:29:32.05Z</time>
      </trkpt>
      <trkpt lat="42.52951" lon="2.45374">
        <ele>2423.3</ele>
        <time>2018-08-05T08:29:36.05Z</time>
      </trkpt>
      <trkpt lat="42.52962" lon="2.4537">
        <ele>2420.4</ele>
        <time>2018-08-05T08:29:41.05Z</time>
      </trkpt>
      <trkpt lat="42.52972" lon="2.45365">
        <ele>2417.4</ele>
        <time>2018-08-05T08:29:45.05Z</time>
      </trkpt>
      <trkpt lat="42.52982" lon="2.45363">
        <ele>2415.6</ele>
        <time>2018-08-05T08:29:49.05Z</time>
      </trkpt>
      <trkpt lat="42.52994" lon="2.45359">
        <ele>2412.9</ele>
        <time>2018-08-05T08:29:54.05Z</time>
      </trkpt>
      <trkpt lat="42.53005" lon="2.45357">
        <ele>2410.8</ele>
        <time>2018-08-05T08:29:58.05Z</time>
      </trkpt>
      <trkpt lat="42.53015" lon="2.45354">
        <ele>2408</ele>
        <time>2018-08-05T08:30:02.05Z</time>
      </trkpt>
      <trkpt lat="42.53026" lon="2.45353">
        <ele>2405.7</ele>
        <time>2018-08-05T08:30:07.05Z</time>
      </trkpt>
      <trkpt lat="42.53036" lon="2.45351">
        <ele>2403.4</ele>
        <time>2018-08-05T08:30:12.05Z</time>
      </trkpt>
      <trkpt lat="42.53047" lon="2.45347">
        <ele>2400.4</ele>
        <time>2018-08-05T08:30:17.05Z</time>
      </trkpt>
      <trkpt lat="42.53057" lon="2.45343">
        <ele>2397.6</ele>
        <time>2018-08-05T08:30:22.05Z</time>
      </trkpt>
      <trkpt lat="42.53066" lon="2.45336">
        <ele>2394.4</ele>
        <time>2018-08-05T08:30:26.05Z</time>
      </trkpt>
      <trkpt lat="42.53076" lon="2.45335">
        <ele>2392.5</ele>
        <time>2018-08-05T08:30:30.05Z</time>
      </trkpt>
      <trkpt lat="42.53088" lon="2.45328">
        <ele>2388.1</ele>
        <time>2018-08-05T08:30:35.05Z</time>
      </trkpt>
      <trkpt lat="42.53098" lon="2.45321">
        <ele>2384.1</ele>
        <time>2018-08-05T08:30:39.05Z</time>
      </trkpt>
      <trkpt lat="42.53107" lon="2.45316">
        <ele>2381.1</ele>
        <time>2018-08-05T08:30:43.05Z</time>
      </trkpt>
      <trkpt lat="42.53117" lon="2.45311">
        <ele>2378.3</ele>
        <time>2018-08-05T08:30:47.05Z</time>
      </trkpt>
      <trkpt lat="42.53127" lon="2.4531">
        <ele>2377</ele>
        <time>2018-08-05T08:30:51.05Z</time>
      </trkpt>
      <trkpt lat="42.53138" lon="2.45308">
        <ele>2375.3</ele>
        <time>2018-08-05T08:30:55.05Z</time>
      </trkpt>
      <trkpt lat="42.53148" lon="2.45302">
        <ele>2372.6</ele>
        <time>2018-08-05T08:31:00.05Z</time>
      </trkpt>
      <trkpt lat="42.53158" lon="2.45297">
        <ele>2370.5</ele>
        <time>2018-08-05T08:31:04.05Z</time>
      </trkpt>
      <trkpt lat="42.53167" lon="2.4529">
        <ele>2368</ele>
        <time>2018-08-05T08:31:08.05Z</time>
      </trkpt>
      <trkpt lat="42.53177" lon="2.45287">
        <ele>2365</ele>
        <time>2018-08-05T08:31:12.05Z</time>
      </trkpt>
      <trkpt lat="42.53188" lon="2.45285">
        <ele>2362.2</ele>
        <time>2018-08-05T08:31:17.05Z</time>
      </trkpt>
      <trkpt lat="42.53196" lon="2.45276">
        <ele>2359.3</ele>
        <time>2018-08-05T08:31:21.05Z</time>
      </trkpt>
      <trkpt lat="42.53204" lon="2.45268">
        <ele>2357</ele>
        <time>2018-08-05T08:31:25.05Z</time>
      </trkpt>
      <trkpt lat="42.53211" lon="2.45258">
        <ele>2355.3</ele>
        <time>2018-08-05T08:31:29.05Z</time>
      </trkpt>
      <trkpt lat="42.53216" lon="2.45246">
        <ele>2353.7</ele>
        <time>2018-08-05T08:31:33.05Z</time>
      </trkpt>
      <trkpt lat="42.53224" lon="2.45238">
        <ele>2352</ele>
        <time>2018-08-05T08:31:38.05Z</time>
      </trkpt>
      <trkpt lat="42.53234" lon="2.4523">
        <ele>2350.7</ele>
        <time>2018-08-05T08:31:43.05Z</time>
      </trkpt>
      <trkpt lat="42.53244" lon="2.45228">
        <ele>2350.4</ele>
        <time>2018-08-05T08:31:47.05Z</time>
      </trkpt>
      <trkpt lat="42.53256" lon="2.45222">
        <ele>2347.8</ele>
        <time>2018-08-05T08:31:52.05Z</time>
      </trkpt>
      <trkpt lat="42.53261" lon="2.45224">
        <ele>2346.2</ele>
        <time>2018-08-05T08:31:55.05Z</time>
      </trkpt>
      <trkpt lat="42.53269" lon="2.45225">
        <ele>2343.3</ele>
        <time>2018-08-05T08:31:59.05Z</time>
      </trkpt>
      <trkpt lat="42.53273" lon="2.45222">
        <ele>2341.7</ele>
        <time>2018-08-05T08:32:01.05Z</time>
      </trkpt>
      <trkpt lat="42.53276" lon="2.45218">
        <ele>2340.4</ele>
        <time>2018-08-05T08:32:03.05Z</time>
      </trkpt>
      <trkpt lat="42.53278" lon="2.45212">
        <ele>2339.4</ele>
        <time>2018-08-05T08:32:05.05Z</time>
      </trkpt>
      <trkpt lat="42.53279" lon="2.45205">
        <ele>2338.8</ele>
        <time>2018-08-05T08:32:07.05Z</time>
      </trkpt>
      <trkpt lat="42.53283" lon="2.45202">
        <ele>2337.2</ele>
        <time>2018-08-05T08:32:09.05Z</time>
      </trkpt>
      <trkpt lat="42.53287" lon="2.45196">
        <ele>2335.6</ele>
        <time>2018-08-05T08:32:12.05Z</time>
      </trkpt>
      <trkpt lat="42.53289" lon="2.45189">
        <ele>2334.7</ele>
        <time>2018-08-05T08:32:14.05Z</time>
      </trkpt>
      <trkpt lat="42.53292" lon="2.45204">
        <ele>2334.2</ele>
        <time>2018-08-05T08:32:26.05Z</time>
      </trkpt>
      <trkpt lat="42.53294" lon="2.45219">
        <ele>2334.1</ele>
        <time>2018-08-05T08:32:32.05Z</time>
      </trkpt>
      <trkpt lat="42.53295" lon="2.45235">
        <ele>2334.2</ele>
        <time>2018-08-05T08:32:37.05Z</time>
      </trkpt>
      <trkpt lat="42.53296" lon="2.45247">
        <ele>2334.2</ele>
        <time>2018-08-05T08:32:41.05Z</time>
      </trkpt>
      <trkpt lat="42.53298" lon="2.45261">
        <ele>2332.3</ele>
        <time>2018-08-05T08:32:46.05Z</time>
      </trkpt>
      <trkpt lat="42.53303" lon="2.45273">
        <ele>2328.9</ele>
        <time>2018-08-05T08:32:50.05Z</time>
      </trkpt>
      <trkpt lat="42.53306" lon="2.45286">
        <ele>2326.2</ele>
        <time>2018-08-05T08:32:54.05Z</time>
      </trkpt>
      <trkpt lat="42.53307" lon="2.45301">
        <ele>2324</ele>
        <time>2018-08-05T08:32:59.05Z</time>
      </trkpt>
      <trkpt lat="42.53312" lon="2.45313">
        <ele>2320.5</ele>
        <time>2018-08-05T08:33:04.05Z</time>
      </trkpt>
      <trkpt lat="42.53313" lon="2.45329">
        <ele>2318.1</ele>
        <time>2018-08-05T08:33:08.05Z</time>
      </trkpt>
      <trkpt lat="42.53313" lon="2.45343">
        <ele>2315.9</ele>
        <time>2018-08-05T08:33:12.05Z</time>
      </trkpt>
      <trkpt lat="42.53314" lon="2.45358">
        <ele>2313</ele>
        <time>2018-08-05T08:33:16.05Z</time>
      </trkpt>
      <trkpt lat="42.53313" lon="2.45373">
        <ele>2310.9</ele>
        <time>2018-08-05T08:33:20.05Z</time>
      </trkpt>
      <trkpt lat="42.53313" lon="2.45387">
        <ele>2308.5</ele>
        <time>2018-08-05T08:33:24.05Z</time>
      </trkpt>
      <trkpt lat="42.53315" lon="2.45403">
        <ele>2305</ele>
        <time>2018-08-05T08:33:29.05Z</time>
      </trkpt>
      <trkpt lat="42.53314" lon="2.45417">
        <ele>2303.1</ele>
        <time>2018-08-05T08:33:35.05Z</time>
      </trkpt>
      <trkpt lat="42.53325" lon="2.4541">
        <ele>2299.6</ele>
        <time>2018-08-05T08:33:40.05Z</time>
      </trkpt>
      <trkpt lat="42.53336" lon="2.45403">
        <ele>2296.2</ele>
        <time>2018-08-05T08:33:45.05Z</time>
      </trkpt>
      <trkpt lat="42.53346" lon="2.45395">
        <ele>2293.1</ele>
        <time>2018-08-05T08:33:50.05Z</time>
      </trkpt>
      <trkpt lat="42.53355" lon="2.45389">
        <ele>2289.9</ele>
        <time>2018-08-05T08:33:54.05Z</time>
      </trkpt>
      <trkpt lat="42.53365" lon="2.45382">
        <ele>2286</ele>
        <time>2018-08-05T08:33:59.05Z</time>
      </trkpt>
      <trkpt lat="42.53373" lon="2.45373">
        <ele>2282.9</ele>
        <time>2018-08-05T08:34:03.05Z</time>
      </trkpt>
      <trkpt lat="42.53378" lon="2.45365">
        <ele>2280.9</ele>
        <time>2018-08-05T08:34:06.05Z</time>
      </trkpt>
      <trkpt lat="42.53382" lon="2.45356">
        <ele>2279.3</ele>
        <time>2018-08-05T08:34:09.05Z</time>
      </trkpt>
      <trkpt lat="42.53382" lon="2.45372">
        <ele>2278.5</ele>
        <time>2018-08-05T08:34:15.05Z</time>
      </trkpt>
      <trkpt lat="42.5338" lon="2.45387">
        <ele>2278.7</ele>
        <time>2018-08-05T08:34:19.05Z</time>
      </trkpt>
      <trkpt lat="42.5338" lon="2.45401">
        <ele>2277.9</ele>
        <time>2018-08-05T08:34:23.05Z</time>
      </trkpt>
      <trkpt lat="42.53378" lon="2.45413">
        <ele>2278.1</ele>
        <time>2018-08-05T08:34:26.05Z</time>
      </trkpt>
      <trkpt lat="42.53376" lon="2.45429">
        <ele>2276.9</ele>
        <time>2018-08-05T08:34:31.05Z</time>
      </trkpt>
      <trkpt lat="42.53374" lon="2.45445">
        <ele>2275.5</ele>
        <time>2018-08-05T08:34:35.05Z</time>
      </trkpt>
      <trkpt lat="42.53375" lon="2.45459">
        <ele>2273.2</ele>
        <time>2018-08-05T08:34:39.05Z</time>
      </trkpt>
      <trkpt lat="42.53372" lon="2.45472">
        <ele>2272.4</ele>
        <time>2018-08-05T08:34:43.05Z</time>
      </trkpt>
      <trkpt lat="42.53371" lon="2.45486">
        <ele>2270.8</ele>
        <time>2018-08-05T08:34:47.05Z</time>
      </trkpt>
      <trkpt lat="42.5337" lon="2.455">
        <ele>2269.2</ele>
        <time>2018-08-05T08:34:51.05Z</time>
      </trkpt>
      <trkpt lat="42.53366" lon="2.45515">
        <ele>2267.5</ele>
        <time>2018-08-05T08:34:56.05Z</time>
      </trkpt>
      <trkpt lat="42.53363" lon="2.45529">
        <ele>2265.5</ele>
        <time>2018-08-05T08:35:00.05Z</time>
      </trkpt>
      <trkpt lat="42.53358" lon="2.45541">
        <ele>2264.7</ele>
        <time>2018-08-05T08:35:04.05Z</time>
      </trkpt>
      <trkpt lat="42.53355" lon="2.45553">
        <ele>2263.2</ele>
        <time>2018-08-05T08:35:07.05Z</time>
      </trkpt>
      <trkpt lat="42.53351" lon="2.45564">
        <ele>2262.2</ele>
        <time>2018-08-05T08:35:10.05Z</time>
      </trkpt>
      <trkpt lat="42.53347" lon="2.45575">
        <ele>2261.2</ele>
        <time>2018-08-05T08:35:13.05Z</time>
      </trkpt>
      <trkpt lat="42.53342" lon="2.45585">
        <ele>2260.7</ele>
        <time>2018-08-05T08:35:16.05Z</time>
      </trkpt>
      <trkpt lat="42.53337" lon="2.456">
        <ele>2258.6</ele>
        <time>2018-08-05T08:35:20.05Z</time>
      </trkpt>
      <trkpt lat="42.53335" lon="2.45615">
        <ele>2255.5</ele>
        <time>2018-08-05T08:35:24.05Z</time>
      </trkpt>
      <trkpt lat="42.53332" lon="2.45629">
        <ele>2253</ele>
        <time>2018-08-05T08:35:28.05Z</time>
      </trkpt>
      <trkpt lat="42.53329" lon="2.4564">
        <ele>2251.2</ele>
        <time>2018-08-05T08:35:31.05Z</time>
      </trkpt>
      <trkpt lat="42.53326" lon="2.45651">
        <ele>2249.5</ele>
        <time>2018-08-05T08:35:34.05Z</time>
      </trkpt>
      <trkpt lat="42.53321" lon="2.45662">
        <ele>2248.5</ele>
        <time>2018-08-05T08:35:37.05Z</time>
      </trkpt>
      <trkpt lat="42.53318" lon="2.45675">
        <ele>2245.8</ele>
        <time>2018-08-05T08:35:41.05Z</time>
      </trkpt>
      <trkpt lat="42.53318" lon="2.45689">
        <ele>2241.6</ele>
        <time>2018-08-05T08:35:45.05Z</time>
      </trkpt>
      <trkpt lat="42.53315" lon="2.45704">
        <ele>2237.9</ele>
        <time>2018-08-05T08:35:49.05Z</time>
      </trkpt>
      <trkpt lat="42.5331" lon="2.45719">
        <ele>2234.8</ele>
        <time>2018-08-05T08:35:53.05Z</time>
      </trkpt>
      <trkpt lat="42.53305" lon="2.45728">
        <ele>2233.4</ele>
        <time>2018-08-05T08:35:56.05Z</time>
      </trkpt>
      <trkpt lat="42.53299" lon="2.45737">
        <ele>2232.3</ele>
        <time>2018-08-05T08:35:59.05Z</time>
      </trkpt>
      <trkpt lat="42.53295" lon="2.45751">
        <ele>2228.8</ele>
        <time>2018-08-05T08:36:03.05Z</time>
      </trkpt>
      <trkpt lat="42.53289" lon="2.45761">
        <ele>2226.9</ele>
        <time>2018-08-05T08:36:06.05Z</time>
      </trkpt>
      <trkpt lat="42.53282" lon="2.45769">
        <ele>2225.8</ele>
        <time>2018-08-05T08:36:10.05Z</time>
      </trkpt>
      <trkpt lat="42.53276" lon="2.45774">
        <ele>2225.3</ele>
        <time>2018-08-05T08:36:13.05Z</time>
      </trkpt>
      <trkpt lat="42.53271" lon="2.45777">
        <ele>2225.3</ele>
        <time>2018-08-05T08:36:15.05Z</time>
      </trkpt>
      <trkpt lat="42.53266" lon="2.4578">
        <ele>2225.3</ele>
        <time>2018-08-05T08:36:17.05Z</time>
      </trkpt>
      <trkpt lat="42.53262" lon="2.45783">
        <ele>2225</ele>
        <time>2018-08-05T08:36:19.05Z</time>
      </trkpt>
      <trkpt lat="42.53257" lon="2.45785">
        <ele>2225.3</ele>
        <time>2018-08-05T08:36:21.05Z</time>
      </trkpt>
      <trkpt lat="42.53253" lon="2.45788">
        <ele>2224.9</ele>
        <time>2018-08-05T08:36:23.05Z</time>
      </trkpt>
      <trkpt lat="42.53249" lon="2.4579">
        <ele>2225</ele>
        <time>2018-08-05T08:36:25.05Z</time>
      </trkpt>
      <trkpt lat="42.53244" lon="2.45793">
        <ele>2225.2</ele>
        <time>2018-08-05T08:36:27.05Z</time>
      </trkpt>
      <trkpt lat="42.53233" lon="2.45801">
        <ele>2225</ele>
        <time>2018-08-05T08:36:32.05Z</time>
      </trkpt>
      <trkpt lat="42.53222" lon="2.45808">
        <ele>2225.3</ele>
        <time>2018-08-05T08:36:37.05Z</time>
      </trkpt>
      <trkpt lat="42.53213" lon="2.45813">
        <ele>2225.7</ele>
        <time>2018-08-05T08:36:41.05Z</time>
      </trkpt>
      <trkpt lat="42.53203" lon="2.45817">
        <ele>2226.9</ele>
        <time>2018-08-05T08:36:45.05Z</time>
      </trkpt>
      <trkpt lat="42.53192" lon="2.45821">
        <ele>2228.2</ele>
        <time>2018-08-05T08:36:49.05Z</time>
      </trkpt>
      <trkpt lat="42.53184" lon="2.4583">
        <ele>2226.6</ele>
        <time>2018-08-05T08:36:53.05Z</time>
      </trkpt>
      <trkpt lat="42.53177" lon="2.45842">
        <ele>2223.9</ele>
        <time>2018-08-05T08:36:57.05Z</time>
      </trkpt>
      <trkpt lat="42.53171" lon="2.45854">
        <ele>2221.1</ele>
        <time>2018-08-05T08:37:01.05Z</time>
      </trkpt>
      <trkpt lat="42.53164" lon="2.45864">
        <ele>2219.2</ele>
        <time>2018-08-05T08:37:05.05Z</time>
      </trkpt>
      <trkpt lat="42.53156" lon="2.45878">
        <ele>2215.8</ele>
        <time>2018-08-05T08:37:10.05Z</time>
      </trkpt>
      <trkpt lat="42.5315" lon="2.45891">
        <ele>2212.4</ele>
        <time>2018-08-05T08:37:14.05Z</time>
      </trkpt>
      <trkpt lat="42.53147" lon="2.45896">
        <ele>2211.2</ele>
        <time>2018-08-05T08:37:16.05Z</time>
      </trkpt>
      <trkpt lat="42.53146" lon="2.45899">
        <ele>2210.4</ele>
        <time>2018-08-05T08:37:17.05Z</time>
      </trkpt>
      <trkpt lat="42.53144" lon="2.45902">
        <ele>2209.8</ele>
        <time>2018-08-05T08:37:18.05Z</time>
      </trkpt>
      <trkpt lat="42.53142" lon="2.45907">
        <ele>2208.4</ele>
        <time>2018-08-05T08:37:20.05Z</time>
      </trkpt>
      <trkpt lat="42.53141" lon="2.45912">
        <ele>2206.8</ele>
        <time>2018-08-05T08:37:22.05Z</time>
      </trkpt>
      <trkpt lat="42.5314" lon="2.45916">
        <ele>2205.6</ele>
        <time>2018-08-05T08:37:24.05Z</time>
      </trkpt>
      <trkpt lat="42.53138" lon="2.45928">
        <ele>2203.6</ele>
        <time>2018-08-05T08:37:29.05Z</time>
      </trkpt>
      <trkpt lat="42.53133" lon="2.45937">
        <ele>2203</ele>
        <time>2018-08-05T08:37:33.05Z</time>
      </trkpt>
      <trkpt lat="42.53128" lon="2.45947">
        <ele>2202.3</ele>
        <time>2018-08-05T08:37:37.05Z</time>
      </trkpt>
      <trkpt lat="42.53128" lon="2.45962">
        <ele>2199.3</ele>
        <time>2018-08-05T08:37:43.05Z</time>
      </trkpt>
      <trkpt lat="42.53134" lon="2.45974">
        <ele>2195.4</ele>
        <time>2018-08-05T08:37:49.05Z</time>
      </trkpt>
      <trkpt lat="42.53145" lon="2.45979">
        <ele>2191.7</ele>
        <time>2018-08-05T08:37:54.05Z</time>
      </trkpt>
      <trkpt lat="42.53149" lon="2.45989">
        <ele>2188.7</ele>
        <time>2018-08-05T08:37:57.05Z</time>
      </trkpt>
      <trkpt lat="42.53153" lon="2.46004">
        <ele>2185.3</ele>
        <time>2018-08-05T08:38:01.05Z</time>
      </trkpt>
      <trkpt lat="42.53161" lon="2.46016">
        <ele>2183</ele>
        <time>2018-08-05T08:38:05.05Z</time>
      </trkpt>
      <trkpt lat="42.53167" lon="2.4603">
        <ele>2181.2</ele>
        <time>2018-08-05T08:38:09.05Z</time>
      </trkpt>
      <trkpt lat="42.53175" lon="2.46042">
        <ele>2180</ele>
        <time>2018-08-05T08:38:14.05Z</time>
      </trkpt>
      <trkpt lat="42.53176" lon="2.46057">
        <ele>2179.6</ele>
        <time>2018-08-05T08:38:19.05Z</time>
      </trkpt>
      <trkpt lat="42.53184" lon="2.46064">
        <ele>2178.7</ele>
        <time>2018-08-05T08:38:24.05Z</time>
      </trkpt>
      <trkpt lat="42.53191" lon="2.46065">
        <ele>2177.9</ele>
        <time>2018-08-05T08:38:27.05Z</time>
      </trkpt>
      <trkpt lat="42.53199" lon="2.46068">
        <ele>2177</ele>
        <time>2018-08-05T08:38:32.05Z</time>
      </trkpt>
      <trkpt lat="42.53205" lon="2.4607">
        <ele>2176.4</ele>
        <time>2018-08-05T08:38:36.05Z</time>
      </trkpt>
      <trkpt lat="42.53214" lon="2.46076">
        <ele>2175.5</ele>
        <time>2018-08-05T08:38:42.05Z</time>
      </trkpt>
      <trkpt lat="42.53223" lon="2.46083">
        <ele>2174.6</ele>
        <time>2018-08-05T08:38:48.05Z</time>
      </trkpt>
      <trkpt lat="42.53234" lon="2.46088">
        <ele>2173.3</ele>
        <time>2018-08-05T08:38:54.05Z</time>
      </trkpt>
      <trkpt lat="42.53243" lon="2.46095">
        <ele>2172.2</ele>
        <time>2018-08-05T08:38:58.05Z</time>
      </trkpt>
      <trkpt lat="42.53253" lon="2.46098">
        <ele>2170.9</ele>
        <time>2018-08-05T08:39:02.05Z</time>
      </trkpt>
      <trkpt lat="42.53261" lon="2.46104">
        <ele>2169.2</ele>
        <time>2018-08-05T08:39:06.05Z</time>
      </trkpt>
      <trkpt lat="42.53263" lon="2.46118">
        <ele>2168.3</ele>
        <time>2018-08-05T08:39:11.05Z</time>
      </trkpt>
      <trkpt lat="42.53273" lon="2.46123">
        <ele>2166.3</ele>
        <time>2018-08-05T08:39:15.05Z</time>
      </trkpt>
      <trkpt lat="42.53281" lon="2.46134">
        <ele>2164.5</ele>
        <time>2018-08-05T08:39:19.05Z</time>
      </trkpt>
      <trkpt lat="42.53285" lon="2.46148">
        <ele>2163.3</ele>
        <time>2018-08-05T08:39:23.05Z</time>
      </trkpt>
      <trkpt lat="42.53287" lon="2.46158">
        <ele>2162.6</ele>
        <time>2018-08-05T08:39:26.05Z</time>
      </trkpt>
      <trkpt lat="42.53287" lon="2.46167">
        <ele>2162.4</ele>
        <time>2018-08-05T08:39:29.05Z</time>
      </trkpt>
      <trkpt lat="42.53288" lon="2.46179">
        <ele>2162.9</ele>
        <time>2018-08-05T08:39:33.05Z</time>
      </trkpt>
      <trkpt lat="42.53287" lon="2.46191">
        <ele>2163.8</ele>
        <time>2018-08-05T08:39:37.05Z</time>
      </trkpt>
      <trkpt lat="42.53289" lon="2.46203">
        <ele>2164.1</ele>
        <time>2018-08-05T08:39:41.05Z</time>
      </trkpt>
      <trkpt lat="42.53292" lon="2.46211">
        <ele>2164.1</ele>
        <time>2018-08-05T08:39:45.05Z</time>
      </trkpt>
      <trkpt lat="42.53298" lon="2.46213">
        <ele>2163.2</ele>
        <time>2018-08-05T08:39:48.05Z</time>
      </trkpt>
      <trkpt lat="42.53305" lon="2.46217">
        <ele>2162.3</ele>
        <time>2018-08-05T08:39:51.05Z</time>
      </trkpt>
      <trkpt lat="42.53312" lon="2.4622">
        <ele>2161.4</ele>
        <time>2018-08-05T08:39:55.05Z</time>
      </trkpt>
      <trkpt lat="42.53318" lon="2.46228">
        <ele>2160.9</ele>
        <time>2018-08-05T08:39:59.05Z</time>
      </trkpt>
      <trkpt lat="42.53324" lon="2.46236">
        <ele>2160.5</ele>
        <time>2018-08-05T08:40:03.05Z</time>
      </trkpt>
      <trkpt lat="42.53329" lon="2.4625">
        <ele>2160.7</ele>
        <time>2018-08-05T08:40:08.05Z</time>
      </trkpt>
      <trkpt lat="42.5333" lon="2.46265">
        <ele>2159.6</ele>
        <time>2018-08-05T08:40:12.05Z</time>
      </trkpt>
      <trkpt lat="42.53328" lon="2.46281">
        <ele>2158.9</ele>
        <time>2018-08-05T08:40:16.05Z</time>
      </trkpt>
      <trkpt lat="42.53326" lon="2.46295">
        <ele>2158.3</ele>
        <time>2018-08-05T08:40:21.05Z</time>
      </trkpt>
      <trkpt lat="42.53317" lon="2.46303">
        <ele>2158.9</ele>
        <time>2018-08-05T08:40:25.05Z</time>
      </trkpt>
      <trkpt lat="42.5331" lon="2.46308">
        <ele>2159.4</ele>
        <time>2018-08-05T08:40:28.05Z</time>
      </trkpt>
      <trkpt lat="42.53303" lon="2.46312">
        <ele>2159.9</ele>
        <time>2018-08-05T08:40:31.05Z</time>
      </trkpt>
      <trkpt lat="42.53296" lon="2.46323">
        <ele>2159.9</ele>
        <time>2018-08-05T08:40:36.05Z</time>
      </trkpt>
      <trkpt lat="42.53294" lon="2.46337">
        <ele>2159.1</ele>
        <time>2018-08-05T08:40:40.05Z</time>
      </trkpt>
      <trkpt lat="42.53294" lon="2.46352">
        <ele>2158.5</ele>
        <time>2018-08-05T08:40:45.05Z</time>
      </trkpt>
      <trkpt lat="42.53289" lon="2.46366">
        <ele>2158.4</ele>
        <time>2018-08-05T08:40:49.05Z</time>
      </trkpt>
      <trkpt lat="42.53291" lon="2.46374">
        <ele>2157.8</ele>
        <time>2018-08-05T08:40:52.05Z</time>
      </trkpt>
      <trkpt lat="42.53297" lon="2.46378">
        <ele>2157.2</ele>
        <time>2018-08-05T08:40:55.05Z</time>
      </trkpt>
      <trkpt lat="42.53303" lon="2.46386">
        <ele>2156.5</ele>
        <time>2018-08-05T08:40:58.05Z</time>
      </trkpt>
      <trkpt lat="42.53306" lon="2.46395">
        <ele>2156</ele>
        <time>2018-08-05T08:41:01.05Z</time>
      </trkpt>
      <trkpt lat="42.5331" lon="2.46403">
        <ele>2155.5</ele>
        <time>2018-08-05T08:41:04.05Z</time>
      </trkpt>
      <trkpt lat="42.53316" lon="2.46407">
        <ele>2155.1</ele>
        <time>2018-08-05T08:41:07.05Z</time>
      </trkpt>
      <trkpt lat="42.53324" lon="2.46408">
        <ele>2154.6</ele>
        <time>2018-08-05T08:41:10.05Z</time>
      </trkpt>
      <trkpt lat="42.53331" lon="2.46408">
        <ele>2154.2</ele>
        <time>2018-08-05T08:41:13.05Z</time>
      </trkpt>
      <trkpt lat="42.53339" lon="2.46409">
        <ele>2154.2</ele>
        <time>2018-08-05T08:41:16.05Z</time>
      </trkpt>
      <trkpt lat="42.53345" lon="2.46417">
        <ele>2154.4</ele>
        <time>2018-08-05T08:41:19.05Z</time>
      </trkpt>
      <trkpt lat="42.53349" lon="2.46427">
        <ele>2155.4</ele>
        <time>2018-08-05T08:41:22.05Z</time>
      </trkpt>
      <trkpt lat="42.53354" lon="2.46434">
        <ele>2156</ele>
        <time>2018-08-05T08:41:25.05Z</time>
      </trkpt>
      <trkpt lat="42.53361" lon="2.46438">
        <ele>2156.4</ele>
        <time>2018-08-05T08:41:28.05Z</time>
      </trkpt>
      <trkpt lat="42.53369" lon="2.46443">
        <ele>2156.9</ele>
        <time>2018-08-05T08:41:32.05Z</time>
      </trkpt>
      <trkpt lat="42.53376" lon="2.46447">
        <ele>2157.1</ele>
        <time>2018-08-05T08:41:35.05Z</time>
      </trkpt>
      <trkpt lat="42.53383" lon="2.4645">
        <ele>2157.3</ele>
        <time>2018-08-05T08:41:38.05Z</time>
      </trkpt>
      <trkpt lat="42.5339" lon="2.46453">
        <ele>2157.5</ele>
        <time>2018-08-05T08:41:41.05Z</time>
      </trkpt>
      <trkpt lat="42.53399" lon="2.46459">
        <ele>2157.6</ele>
        <time>2018-08-05T08:41:45.05Z</time>
      </trkpt>
      <trkpt lat="42.53405" lon="2.46466">
        <ele>2157.8</ele>
        <time>2018-08-05T08:41:48.05Z</time>
      </trkpt>
      <trkpt lat="42.53411" lon="2.46474">
        <ele>2157.8</ele>
        <time>2018-08-05T08:41:51.05Z</time>
      </trkpt>
      <trkpt lat="42.53415" lon="2.46483">
        <ele>2157.8</ele>
        <time>2018-08-05T08:41:54.05Z</time>
      </trkpt>
      <trkpt lat="42.53419" lon="2.46491">
        <ele>2157.8</ele>
        <time>2018-08-05T08:41:57.05Z</time>
      </trkpt>
      <trkpt lat="42.53422" lon="2.46507">
        <ele>2156.8</ele>
        <time>2018-08-05T08:42:03.05Z</time>
      </trkpt>
      <trkpt lat="42.53427" lon="2.46515">
        <ele>2155.4</ele>
        <time>2018-08-05T08:42:12.05Z</time>
      </trkpt>
      <trkpt lat="42.53433" lon="2.46521">
        <ele>2154.2</ele>
        <time>2018-08-05T08:43:14.05Z</time>
      </trkpt>
      <trkpt lat="42.53437" lon="2.46528">
        <ele>2152.9</ele>
        <time>2018-08-05T08:43:18.05Z</time>
      </trkpt>
      <trkpt lat="42.53443" lon="2.46537">
        <ele>2151.2</ele>
        <time>2018-08-05T08:43:22.05Z</time>
      </trkpt>
      <trkpt lat="42.5345" lon="2.46546">
        <ele>2149.3</ele>
        <time>2018-08-05T08:43:27.05Z</time>
      </trkpt>
      <trkpt lat="42.53455" lon="2.46553">
        <ele>2147.8</ele>
        <time>2018-08-05T08:43:31.05Z</time>
      </trkpt>
      <trkpt lat="42.53464" lon="2.4656">
        <ele>2146</ele>
        <time>2018-08-05T08:43:36.05Z</time>
      </trkpt>
      <trkpt lat="42.53473" lon="2.4657">
        <ele>2143.6</ele>
        <time>2018-08-05T08:43:42.05Z</time>
      </trkpt>
      <trkpt lat="42.53484" lon="2.46572">
        <ele>2142.4</ele>
        <time>2018-08-05T08:43:47.05Z</time>
      </trkpt>
      <trkpt lat="42.53496" lon="2.46575">
        <ele>2140.9</ele>
        <time>2018-08-05T08:43:52.05Z</time>
      </trkpt>
      <trkpt lat="42.53507" lon="2.46579">
        <ele>2139.1</ele>
        <time>2018-08-05T08:43:57.05Z</time>
      </trkpt>
      <trkpt lat="42.53517" lon="2.4658">
        <ele>2138</ele>
        <time>2018-08-05T08:44:02.05Z</time>
      </trkpt>
      <trkpt lat="42.53527" lon="2.46581">
        <ele>2136.8</ele>
        <time>2018-08-05T08:44:06.05Z</time>
      </trkpt>
      <trkpt lat="42.53518" lon="2.46589">
        <ele>2134.8</ele>
        <time>2018-08-05T08:44:12.05Z</time>
      </trkpt>
      <trkpt lat="42.53511" lon="2.46593">
        <ele>2133.7</ele>
        <time>2018-08-05T08:44:15.05Z</time>
      </trkpt>
      <trkpt lat="42.53521" lon="2.466">
        <ele>2129.9</ele>
        <time>2018-08-05T08:44:23.05Z</time>
      </trkpt>
      <trkpt lat="42.53531" lon="2.46602">
        <ele>2128.2</ele>
        <time>2018-08-05T08:44:27.05Z</time>
      </trkpt>
      <trkpt lat="42.5354" lon="2.46604">
        <ele>2126.7</ele>
        <time>2018-08-05T08:44:31.05Z</time>
      </trkpt>
      <trkpt lat="42.53537" lon="2.46618">
        <ele>2121.2</ele>
        <time>2018-08-05T08:44:42.05Z</time>
      </trkpt>
      <trkpt lat="42.53548" lon="2.46619">
        <ele>2120</ele>
        <time>2018-08-05T08:44:50.05Z</time>
      </trkpt>
      <trkpt lat="42.53557" lon="2.46624">
        <ele>2117.5</ele>
        <time>2018-08-05T08:44:55.05Z</time>
      </trkpt>
      <trkpt lat="42.53566" lon="2.4663">
        <ele>2114.6</ele>
        <time>2018-08-05T08:45:00.05Z</time>
      </trkpt>
      <trkpt lat="42.53575" lon="2.46639">
        <ele>2110.7</ele>
        <time>2018-08-05T08:45:05.05Z</time>
      </trkpt>
      <trkpt lat="42.53585" lon="2.46646">
        <ele>2107.4</ele>
        <time>2018-08-05T08:45:11.05Z</time>
      </trkpt>
      <trkpt lat="42.53594" lon="2.46653">
        <ele>2103.3</ele>
        <time>2018-08-05T08:45:15.05Z</time>
      </trkpt>
      <trkpt lat="42.53604" lon="2.46658">
        <ele>2099.9</ele>
        <time>2018-08-05T08:45:20.05Z</time>
      </trkpt>
      <trkpt lat="42.53613" lon="2.46664">
        <ele>2096.6</ele>
        <time>2018-08-05T08:45:24.05Z</time>
      </trkpt>
      <trkpt lat="42.53624" lon="2.46667">
        <ele>2094</ele>
        <time>2018-08-05T08:45:28.05Z</time>
      </trkpt>
      <trkpt lat="42.53634" lon="2.46666">
        <ele>2092.9</ele>
        <time>2018-08-05T08:45:31.05Z</time>
      </trkpt>
      <trkpt lat="42.53645" lon="2.46665">
        <ele>2091.5</ele>
        <time>2018-08-05T08:45:34.05Z</time>
      </trkpt>
      <trkpt lat="42.53655" lon="2.46662">
        <ele>2090.8</ele>
        <time>2018-08-05T08:45:38.05Z</time>
      </trkpt>
      <trkpt lat="42.53667" lon="2.46657">
        <ele>2090.1</ele>
        <time>2018-08-05T08:45:43.05Z</time>
      </trkpt>
      <trkpt lat="42.53678" lon="2.46651">
        <ele>2090</ele>
        <time>2018-08-05T08:45:48.05Z</time>
      </trkpt>
      <trkpt lat="42.53688" lon="2.4665">
        <ele>2089</ele>
        <time>2018-08-05T08:45:54.05Z</time>
      </trkpt>
      <trkpt lat="42.53696" lon="2.46659">
        <ele>2086.9</ele>
        <time>2018-08-05T08:45:58.05Z</time>
      </trkpt>
      <trkpt lat="42.53702" lon="2.46653">
        <ele>2086.9</ele>
        <time>2018-08-05T08:46:01.05Z</time>
      </trkpt>
      <trkpt lat="42.53707" lon="2.46642">
        <ele>2087.4</ele>
        <time>2018-08-05T08:46:04.05Z</time>
      </trkpt>
      <trkpt lat="42.53711" lon="2.46632">
        <ele>2087.6</ele>
        <time>2018-08-05T08:46:07.05Z</time>
      </trkpt>
      <trkpt lat="42.53714" lon="2.46622">
        <ele>2087.8</ele>
        <time>2018-08-05T08:46:10.05Z</time>
      </trkpt>
      <trkpt lat="42.53717" lon="2.46611">
        <ele>2087.9</ele>
        <time>2018-08-05T08:46:13.05Z</time>
      </trkpt>
      <trkpt lat="42.53724" lon="2.46603">
        <ele>2086.6</ele>
        <time>2018-08-05T08:46:16.05Z</time>
      </trkpt>
      <trkpt lat="42.53731" lon="2.46597">
        <ele>2084.9</ele>
        <time>2018-08-05T08:46:19.05Z</time>
      </trkpt>
      <trkpt lat="42.53738" lon="2.46592">
        <ele>2082.9</ele>
        <time>2018-08-05T08:46:22.05Z</time>
      </trkpt>
      <trkpt lat="42.53749" lon="2.46588">
        <ele>2079.5</ele>
        <time>2018-08-05T08:46:26.05Z</time>
      </trkpt>
      <trkpt lat="42.5376" lon="2.4658">
        <ele>2076.8</ele>
        <time>2018-08-05T08:46:30.05Z</time>
      </trkpt>
      <trkpt lat="42.53767" lon="2.46573">
        <ele>2075</ele>
        <time>2018-08-05T08:46:33.05Z</time>
      </trkpt>
      <trkpt lat="42.53775" lon="2.46568">
        <ele>2073.1</ele>
        <time>2018-08-05T08:46:36.05Z</time>
      </trkpt>
      <trkpt lat="42.53786" lon="2.46564">
        <ele>2070.5</ele>
        <time>2018-08-05T08:46:40.05Z</time>
      </trkpt>
      <trkpt lat="42.53794" lon="2.46563">
        <ele>2068.6</ele>
        <time>2018-08-05T08:46:43.05Z</time>
      </trkpt>
      <trkpt lat="42.53803" lon="2.46562">
        <ele>2066.6</ele>
        <time>2018-08-05T08:46:46.05Z</time>
      </trkpt>
      <trkpt lat="42.53814" lon="2.46563">
        <ele>2064.3</ele>
        <time>2018-08-05T08:46:50.05Z</time>
      </trkpt>
      <trkpt lat="42.53825" lon="2.46567">
        <ele>2062.2</ele>
        <time>2018-08-05T08:46:54.05Z</time>
      </trkpt>
      <trkpt lat="42.53836" lon="2.4657">
        <ele>2060.1</ele>
        <time>2018-08-05T08:46:58.05Z</time>
      </trkpt>
      <trkpt lat="42.53848" lon="2.46574">
        <ele>2057.8</ele>
        <time>2018-08-05T08:47:02.05Z</time>
      </trkpt>
      <trkpt lat="42.53858" lon="2.46582">
        <ele>2056.3</ele>
        <time>2018-08-05T08:47:06.05Z</time>
      </trkpt>
      <trkpt lat="42.53868" lon="2.46591">
        <ele>2054.4</ele>
        <time>2018-08-05T08:47:10.05Z</time>
      </trkpt>
      <trkpt lat="42.53874" lon="2.466">
        <ele>2053.5</ele>
        <time>2018-08-05T08:47:13.05Z</time>
      </trkpt>
      <trkpt lat="42.53881" lon="2.46611">
        <ele>2052.5</ele>
        <time>2018-08-05T08:47:17.05Z</time>
      </trkpt>
      <trkpt lat="42.5389" lon="2.46622">
        <ele>2051.1</ele>
        <time>2018-08-05T08:47:21.05Z</time>
      </trkpt>
      <trkpt lat="42.53898" lon="2.46636">
        <ele>2050.1</ele>
        <time>2018-08-05T08:47:25.05Z</time>
      </trkpt>
      <trkpt lat="42.53904" lon="2.46651">
        <ele>2049.7</ele>
        <time>2018-08-05T08:47:29.05Z</time>
      </trkpt>
      <trkpt lat="42.53909" lon="2.46664">
        <ele>2049.4</ele>
        <time>2018-08-05T08:47:33.05Z</time>
      </trkpt>
      <trkpt lat="42.53912" lon="2.46675">
        <ele>2048.6</ele>
        <time>2018-08-05T08:47:36.05Z</time>
      </trkpt>
      <trkpt lat="42.53921" lon="2.46685">
        <ele>2046.6</ele>
        <time>2018-08-05T08:47:40.05Z</time>
      </trkpt>
      <trkpt lat="42.53929" lon="2.46682">
        <ele>2045.3</ele>
        <time>2018-08-05T08:47:43.05Z</time>
      </trkpt>
      <trkpt lat="42.53932" lon="2.46673">
        <ele>2044.7</ele>
        <time>2018-08-05T08:47:46.05Z</time>
      </trkpt>
      <trkpt lat="42.53935" lon="2.46661">
        <ele>2043.6</ele>
        <time>2018-08-05T08:47:49.05Z</time>
      </trkpt>
      <trkpt lat="42.53935" lon="2.46647">
        <ele>2042.5</ele>
        <time>2018-08-05T08:47:52.05Z</time>
      </trkpt>
      <trkpt lat="42.53936" lon="2.46635">
        <ele>2041.3</ele>
        <time>2018-08-05T08:47:55.05Z</time>
      </trkpt>
      <trkpt lat="42.53936" lon="2.46622">
        <ele>2040.3</ele>
        <time>2018-08-05T08:47:58.05Z</time>
      </trkpt>
      <trkpt lat="42.53937" lon="2.46611">
        <ele>2039.1</ele>
        <time>2018-08-05T08:48:01.05Z</time>
      </trkpt>
      <trkpt lat="42.53937" lon="2.466">
        <ele>2038.2</ele>
        <time>2018-08-05T08:48:04.05Z</time>
      </trkpt>
      <trkpt lat="42.53941" lon="2.46588">
        <ele>2036.1</ele>
        <time>2018-08-05T08:48:08.05Z</time>
      </trkpt>
      <trkpt lat="42.53945" lon="2.46575">
        <ele>2034</ele>
        <time>2018-08-05T08:48:12.05Z</time>
      </trkpt>
      <trkpt lat="42.53945" lon="2.46559">
        <ele>2033.1</ele>
        <time>2018-08-05T08:48:17.05Z</time>
      </trkpt>
      <trkpt lat="42.53947" lon="2.46545">
        <ele>2031.7</ele>
        <time>2018-08-05T08:48:20.05Z</time>
      </trkpt>
      <trkpt lat="42.53948" lon="2.46533">
        <ele>2030.7</ele>
        <time>2018-08-05T08:48:23.05Z</time>
      </trkpt>
      <trkpt lat="42.53951" lon="2.46522">
        <ele>2029.1</ele>
        <time>2018-08-05T08:48:26.05Z</time>
      </trkpt>
      <trkpt lat="42.53952" lon="2.46509">
        <ele>2028.1</ele>
        <time>2018-08-05T08:48:29.05Z</time>
      </trkpt>
      <trkpt lat="42.53954" lon="2.46498">
        <ele>2026.6</ele>
        <time>2018-08-05T08:48:32.05Z</time>
      </trkpt>
      <trkpt lat="42.53955" lon="2.46486">
        <ele>2024.2</ele>
        <time>2018-08-05T08:48:35.05Z</time>
      </trkpt>
      <trkpt lat="42.53954" lon="2.46474">
        <ele>2022.4</ele>
        <time>2018-08-05T08:48:38.05Z</time>
      </trkpt>
      <trkpt lat="42.53951" lon="2.46464">
        <ele>2021.5</ele>
        <time>2018-08-05T08:48:41.05Z</time>
      </trkpt>
      <trkpt lat="42.53945" lon="2.46454">
        <ele>2021.4</ele>
        <time>2018-08-05T08:48:44.05Z</time>
      </trkpt>
      <trkpt lat="42.5394" lon="2.46444">
        <ele>2020.8</ele>
        <time>2018-08-05T08:48:47.05Z</time>
      </trkpt>
      <trkpt lat="42.53935" lon="2.46436">
        <ele>2020.6</ele>
        <time>2018-08-05T08:48:50.05Z</time>
      </trkpt>
      <trkpt lat="42.53929" lon="2.46426">
        <ele>2020.1</ele>
        <time>2018-08-05T08:48:53.05Z</time>
      </trkpt>
      <trkpt lat="42.53924" lon="2.46416">
        <ele>2019.1</ele>
        <time>2018-08-05T08:48:56.05Z</time>
      </trkpt>
      <trkpt lat="42.5392" lon="2.46407">
        <ele>2017.4</ele>
        <time>2018-08-05T08:48:59.05Z</time>
      </trkpt>
      <trkpt lat="42.53916" lon="2.46399">
        <ele>2015.8</ele>
        <time>2018-08-05T08:49:02.05Z</time>
      </trkpt>
      <trkpt lat="42.53916" lon="2.46391">
        <ele>2013.4</ele>
        <time>2018-08-05T08:49:04.05Z</time>
      </trkpt>
      <trkpt lat="42.53919" lon="2.46384">
        <ele>2010.7</ele>
        <time>2018-08-05T08:49:06.05Z</time>
      </trkpt>
      <trkpt lat="42.53924" lon="2.46377">
        <ele>2007.6</ele>
        <time>2018-08-05T08:49:08.05Z</time>
      </trkpt>
      <trkpt lat="42.53928" lon="2.46368">
        <ele>2004.1</ele>
        <time>2018-08-05T08:49:11.05Z</time>
      </trkpt>
      <trkpt lat="42.53933" lon="2.46362">
        <ele>2001.3</ele>
        <time>2018-08-05T08:49:14.05Z</time>
      </trkpt>
      <trkpt lat="42.53941" lon="2.46355">
        <ele>1997.6</ele>
        <time>2018-08-05T08:49:18.05Z</time>
      </trkpt>
      <trkpt lat="42.53948" lon="2.46345">
        <ele>1993.3</ele>
        <time>2018-08-05T08:49:22.05Z</time>
      </trkpt>
      <trkpt lat="42.53954" lon="2.46337">
        <ele>1989.9</ele>
        <time>2018-08-05T08:49:26.05Z</time>
      </trkpt>
      <trkpt lat="42.53961" lon="2.46332">
        <ele>1986.9</ele>
        <time>2018-08-05T08:49:30.05Z</time>
      </trkpt>
      <trkpt lat="42.53968" lon="2.46324">
        <ele>1982.4</ele>
        <time>2018-08-05T08:49:35.05Z</time>
      </trkpt>
      <trkpt lat="42.53978" lon="2.46317">
        <ele>1978</ele>
        <time>2018-08-05T08:49:39.05Z</time>
      </trkpt>
      <trkpt lat="42.53987" lon="2.46325">
        <ele>1979.4</ele>
        <time>2018-08-05T08:49:44.05Z</time>
      </trkpt>
      <trkpt lat="42.53995" lon="2.46334">
        <ele>1981.1</ele>
        <time>2018-08-05T08:49:48.05Z</time>
      </trkpt>
      <trkpt lat="42.54" lon="2.46347">
        <ele>1983.6</ele>
        <time>2018-08-05T08:49:52.05Z</time>
      </trkpt>
      <trkpt lat="42.54012" lon="2.46354">
        <ele>1980</ele>
        <time>2018-08-05T08:49:57.05Z</time>
      </trkpt>
      <trkpt lat="42.54022" lon="2.46364">
        <ele>1978.1</ele>
        <time>2018-08-05T08:50:01.05Z</time>
      </trkpt>
      <trkpt lat="42.54031" lon="2.46376">
        <ele>1977.1</ele>
        <time>2018-08-05T08:50:05.05Z</time>
      </trkpt>
      <trkpt lat="42.54038" lon="2.46385">
        <ele>1976.3</ele>
        <time>2018-08-05T08:50:08.05Z</time>
      </trkpt>
      <trkpt lat="42.54045" lon="2.46395">
        <ele>1975.8</ele>
        <time>2018-08-05T08:50:11.05Z</time>
      </trkpt>
      <trkpt lat="42.54051" lon="2.46407">
        <ele>1976.2</ele>
        <time>2018-08-05T08:50:15.05Z</time>
      </trkpt>
      <trkpt lat="42.54059" lon="2.46417">
        <ele>1975.1</ele>
        <time>2018-08-05T08:50:20.05Z</time>
      </trkpt>
      <trkpt lat="42.54064" lon="2.46431">
        <ele>1974.4</ele>
        <time>2018-08-05T08:50:24.05Z</time>
      </trkpt>
      <trkpt lat="42.5407" lon="2.46445">
        <ele>1973.2</ele>
        <time>2018-08-05T08:50:28.05Z</time>
      </trkpt>
      <trkpt lat="42.54075" lon="2.46459">
        <ele>1972.4</ele>
        <time>2018-08-05T08:50:32.05Z</time>
      </trkpt>
      <trkpt lat="42.5408" lon="2.46471">
        <ele>1971.4</ele>
        <time>2018-08-05T08:50:36.05Z</time>
      </trkpt>
      <trkpt lat="42.54083" lon="2.46486">
        <ele>1971.6</ele>
        <time>2018-08-05T08:50:40.05Z</time>
      </trkpt>
      <trkpt lat="42.5409" lon="2.46499">
        <ele>1969.4</ele>
        <time>2018-08-05T08:50:44.05Z</time>
      </trkpt>
      <trkpt lat="42.54094" lon="2.46511">
        <ele>1969.1</ele>
        <time>2018-08-05T08:50:47.05Z</time>
      </trkpt>
      <trkpt lat="42.54099" lon="2.46519">
        <ele>1967.8</ele>
        <time>2018-08-05T08:50:50.05Z</time>
      </trkpt>
      <trkpt lat="42.54104" lon="2.46527">
        <ele>1966.5</ele>
        <time>2018-08-05T08:50:53.05Z</time>
      </trkpt>
      <trkpt lat="42.54111" lon="2.46536">
        <ele>1964.6</ele>
        <time>2018-08-05T08:50:56.05Z</time>
      </trkpt>
      <trkpt lat="42.54118" lon="2.46544">
        <ele>1962.7</ele>
        <time>2018-08-05T08:50:59.05Z</time>
      </trkpt>
      <trkpt lat="42.54125" lon="2.46551">
        <ele>1960.7</ele>
        <time>2018-08-05T08:51:02.05Z</time>
      </trkpt>
      <trkpt lat="42.54131" lon="2.46555">
        <ele>1958.7</ele>
        <time>2018-08-05T08:51:05.05Z</time>
      </trkpt>
      <trkpt lat="42.54128" lon="2.46539">
        <ele>1957.1</ele>
        <time>2018-08-05T08:51:12.05Z</time>
      </trkpt>
      <trkpt lat="42.54124" lon="2.46526">
        <ele>1956.7</ele>
        <time>2018-08-05T08:51:16.05Z</time>
      </trkpt>
      <trkpt lat="42.54123" lon="2.46515">
        <ele>1955.2</ele>
        <time>2018-08-05T08:51:19.05Z</time>
      </trkpt>
      <trkpt lat="42.5412" lon="2.465">
        <ele>1954.1</ele>
        <time>2018-08-05T08:51:22.05Z</time>
      </trkpt>
      <trkpt lat="42.54121" lon="2.46485">
        <ele>1951.6</ele>
        <time>2018-08-05T08:51:26.05Z</time>
      </trkpt>
      <trkpt lat="42.54121" lon="2.46472">
        <ele>1949.9</ele>
        <time>2018-08-05T08:51:30.05Z</time>
      </trkpt>
      <trkpt lat="42.54125" lon="2.46457">
        <ele>1945.8</ele>
        <time>2018-08-05T08:51:34.05Z</time>
      </trkpt>
      <trkpt lat="42.54125" lon="2.46441">
        <ele>1943.7</ele>
        <time>2018-08-05T08:51:38.05Z</time>
      </trkpt>
      <trkpt lat="42.54125" lon="2.46425">
        <ele>1941.6</ele>
        <time>2018-08-05T08:51:43.05Z</time>
      </trkpt>
      <trkpt lat="42.54124" lon="2.4641">
        <ele>1939.4</ele>
        <time>2018-08-05T08:51:47.05Z</time>
      </trkpt>
      <trkpt lat="42.54124" lon="2.46395">
        <ele>1935.6</ele>
        <time>2018-08-05T08:51:51.05Z</time>
      </trkpt>
      <trkpt lat="42.5412" lon="2.46378">
        <ele>1933.5</ele>
        <time>2018-08-05T08:51:55.05Z</time>
      </trkpt>
      <trkpt lat="42.54118" lon="2.46363">
        <ele>1930.8</ele>
        <time>2018-08-05T08:51:59.05Z</time>
      </trkpt>
      <trkpt lat="42.54111" lon="2.46349">
        <ele>1931.1</ele>
        <time>2018-08-05T08:52:02.05Z</time>
      </trkpt>
      <trkpt lat="42.54107" lon="2.46334">
        <ele>1929.4</ele>
        <time>2018-08-05T08:52:06.05Z</time>
      </trkpt>
      <trkpt lat="42.54103" lon="2.46323">
        <ele>1928</ele>
        <time>2018-08-05T08:52:09.05Z</time>
      </trkpt>
      <trkpt lat="42.54099" lon="2.46311">
        <ele>1926.2</ele>
        <time>2018-08-05T08:52:12.05Z</time>
      </trkpt>
      <trkpt lat="42.54098" lon="2.463">
        <ele>1923.1</ele>
        <time>2018-08-05T08:52:16.05Z</time>
      </trkpt>
      <trkpt lat="42.54105" lon="2.46308">
        <ele>1922</ele>
        <time>2018-08-05T08:52:20.05Z</time>
      </trkpt>
      <trkpt lat="42.54113" lon="2.46315">
        <ele>1920.1</ele>
        <time>2018-08-05T08:52:24.05Z</time>
      </trkpt>
      <trkpt lat="42.54121" lon="2.46321">
        <ele>1917.7</ele>
        <time>2018-08-05T08:52:27.05Z</time>
      </trkpt>
      <trkpt lat="42.54126" lon="2.4633">
        <ele>1917.9</ele>
        <time>2018-08-05T08:52:30.05Z</time>
      </trkpt>
      <trkpt lat="42.54132" lon="2.46337">
        <ele>1916.6</ele>
        <time>2018-08-05T08:52:33.05Z</time>
      </trkpt>
      <trkpt lat="42.54138" lon="2.46343">
        <ele>1914.9</ele>
        <time>2018-08-05T08:52:36.05Z</time>
      </trkpt>
      <trkpt lat="42.54145" lon="2.4635">
        <ele>1912.8</ele>
        <time>2018-08-05T08:52:39.05Z</time>
      </trkpt>
      <trkpt lat="42.5415" lon="2.46357">
        <ele>1911.8</ele>
        <time>2018-08-05T08:52:42.05Z</time>
      </trkpt>
      <trkpt lat="42.54157" lon="2.46363">
        <ele>1909.4</ele>
        <time>2018-08-05T08:52:46.05Z</time>
      </trkpt>
      <trkpt lat="42.54163" lon="2.46371">
        <ele>1908.1</ele>
        <time>2018-08-05T08:52:49.05Z</time>
      </trkpt>
      <trkpt lat="42.54169" lon="2.46379">
        <ele>1906.9</ele>
        <time>2018-08-05T08:52:52.05Z</time>
      </trkpt>
      <trkpt lat="42.54178" lon="2.46391">
        <ele>1905.7</ele>
        <time>2018-08-05T08:52:57.05Z</time>
      </trkpt>
      <trkpt lat="42.54185" lon="2.46404">
        <ele>1905.4</ele>
        <time>2018-08-05T08:53:01.05Z</time>
      </trkpt>
      <trkpt lat="42.54192" lon="2.46418">
        <ele>1905.1</ele>
        <time>2018-08-05T08:53:05.05Z</time>
      </trkpt>
      <trkpt lat="42.54198" lon="2.46428">
        <ele>1903.9</ele>
        <time>2018-08-05T08:53:08.05Z</time>
      </trkpt>
      <trkpt lat="42.54205" lon="2.46441">
        <ele>1902.9</ele>
        <time>2018-08-05T08:53:13.05Z</time>
      </trkpt>
      <trkpt lat="42.54211" lon="2.46453">
        <ele>1902.3</ele>
        <time>2018-08-05T08:53:16.05Z</time>
      </trkpt>
      <trkpt lat="42.54217" lon="2.46466">
        <ele>1902</ele>
        <time>2018-08-05T08:53:20.05Z</time>
      </trkpt>
      <trkpt lat="42.54226" lon="2.46474">
        <ele>1899.4</ele>
        <time>2018-08-05T08:53:23.05Z</time>
      </trkpt>
      <trkpt lat="42.54236" lon="2.4648">
        <ele>1896.1</ele>
        <time>2018-08-05T08:53:28.05Z</time>
      </trkpt>
      <trkpt lat="42.54245" lon="2.4649">
        <ele>1894.1</ele>
        <time>2018-08-05T08:53:32.05Z</time>
      </trkpt>
      <trkpt lat="42.54243" lon="2.46477">
        <ele>1892.4</ele>
        <time>2018-08-05T08:53:40.05Z</time>
      </trkpt>
      <trkpt lat="42.54238" lon="2.46465">
        <ele>1892.3</ele>
        <time>2018-08-05T08:53:44.05Z</time>
      </trkpt>
      <trkpt lat="42.54235" lon="2.4645">
        <ele>1890.7</ele>
        <time>2018-08-05T08:53:48.05Z</time>
      </trkpt>
      <trkpt lat="42.54234" lon="2.46435">
        <ele>1888.3</ele>
        <time>2018-08-05T08:53:52.05Z</time>
      </trkpt>
      <trkpt lat="42.54235" lon="2.46418">
        <ele>1884.5</ele>
        <time>2018-08-05T08:53:57.05Z</time>
      </trkpt>
      <trkpt lat="42.54234" lon="2.46404">
        <ele>1882.5</ele>
        <time>2018-08-05T08:54:02.05Z</time>
      </trkpt>
      <trkpt lat="42.54231" lon="2.46389">
        <ele>1881.3</ele>
        <time>2018-08-05T08:54:06.05Z</time>
      </trkpt>
      <trkpt lat="42.54231" lon="2.46372">
        <ele>1878.3</ele>
        <time>2018-08-05T08:54:10.05Z</time>
      </trkpt>
      <trkpt lat="42.54229" lon="2.46357">
        <ele>1876.5</ele>
        <time>2018-08-05T08:54:15.05Z</time>
      </trkpt>
      <trkpt lat="42.54223" lon="2.46343">
        <ele>1876.5</ele>
        <time>2018-08-05T08:54:19.05Z</time>
      </trkpt>
      <trkpt lat="42.54218" lon="2.46328">
        <ele>1875</ele>
        <time>2018-08-05T08:54:23.05Z</time>
      </trkpt>
      <trkpt lat="42.54213" lon="2.46316">
        <ele>1873.3</ele>
        <time>2018-08-05T08:54:26.05Z</time>
      </trkpt>
      <trkpt lat="42.54207" lon="2.46303">
        <ele>1871.8</ele>
        <time>2018-08-05T08:54:30.05Z</time>
      </trkpt>
      <trkpt lat="42.54201" lon="2.46289">
        <ele>1869.9</ele>
        <time>2018-08-05T08:54:34.05Z</time>
      </trkpt>
      <trkpt lat="42.54197" lon="2.46275">
        <ele>1867.2</ele>
        <time>2018-08-05T08:54:38.05Z</time>
      </trkpt>
      <trkpt lat="42.54195" lon="2.46261">
        <ele>1863.8</ele>
        <time>2018-08-05T08:54:42.05Z</time>
      </trkpt>
      <trkpt lat="42.54207" lon="2.46262">
        <ele>1859.2</ele>
        <time>2018-08-05T08:54:53.05Z</time>
      </trkpt>
      <trkpt lat="42.54215" lon="2.4627">
        <ele>1858.4</ele>
        <time>2018-08-05T08:54:57.05Z</time>
      </trkpt>
      <trkpt lat="42.54223" lon="2.46278">
        <ele>1857.6</ele>
        <time>2018-08-05T08:55:00.05Z</time>
      </trkpt>
      <trkpt lat="42.54232" lon="2.46287">
        <ele>1856.8</ele>
        <time>2018-08-05T08:55:04.05Z</time>
      </trkpt>
      <trkpt lat="42.54241" lon="2.46293">
        <ele>1855</ele>
        <time>2018-08-05T08:55:08.05Z</time>
      </trkpt>
      <trkpt lat="42.54253" lon="2.463">
        <ele>1852.6</ele>
        <time>2018-08-05T08:55:13.05Z</time>
      </trkpt>
      <trkpt lat="42.54262" lon="2.46306">
        <ele>1851.4</ele>
        <time>2018-08-05T08:55:17.05Z</time>
      </trkpt>
      <trkpt lat="42.54273" lon="2.46315">
        <ele>1850.3</ele>
        <time>2018-08-05T08:55:21.05Z</time>
      </trkpt>
      <trkpt lat="42.54283" lon="2.46326">
        <ele>1850</ele>
        <time>2018-08-05T08:55:25.05Z</time>
      </trkpt>
      <trkpt lat="42.54292" lon="2.46335">
        <ele>1849.1</ele>
        <time>2018-08-05T08:55:29.05Z</time>
      </trkpt>
      <trkpt lat="42.54299" lon="2.46349">
        <ele>1848.4</ele>
        <time>2018-08-05T08:55:33.05Z</time>
      </trkpt>
      <trkpt lat="42.54305" lon="2.46362">
        <ele>1847.8</ele>
        <time>2018-08-05T08:55:36.05Z</time>
      </trkpt>
      <trkpt lat="42.54312" lon="2.46373">
        <ele>1846.5</ele>
        <time>2018-08-05T08:55:40.05Z</time>
      </trkpt>
      <trkpt lat="42.54315" lon="2.4636">
        <ele>1843.8</ele>
        <time>2018-08-05T08:55:48.05Z</time>
      </trkpt>
      <trkpt lat="42.54315" lon="2.46344">
        <ele>1841.9</ele>
        <time>2018-08-05T08:55:53.05Z</time>
      </trkpt>
      <trkpt lat="42.54317" lon="2.46328">
        <ele>1838.5</ele>
        <time>2018-08-05T08:55:57.05Z</time>
      </trkpt>
      <trkpt lat="42.54317" lon="2.46315">
        <ele>1835</ele>
        <time>2018-08-05T08:56:01.05Z</time>
      </trkpt>
      <trkpt lat="42.5431" lon="2.46302">
        <ele>1834</ele>
        <time>2018-08-05T08:56:06.05Z</time>
      </trkpt>
      <trkpt lat="42.54306" lon="2.46289">
        <ele>1831.8</ele>
        <time>2018-08-05T08:56:10.05Z</time>
      </trkpt>
      <trkpt lat="42.54305" lon="2.46273">
        <ele>1827.8</ele>
        <time>2018-08-05T08:56:15.05Z</time>
      </trkpt>
      <trkpt lat="42.54317" lon="2.46274">
        <ele>1824.2</ele>
        <time>2018-08-05T08:56:20.05Z</time>
      </trkpt>
      <trkpt lat="42.54329" lon="2.46272">
        <ele>1819.9</ele>
        <time>2018-08-05T08:56:25.05Z</time>
      </trkpt>
      <trkpt lat="42.54337" lon="2.46282">
        <ele>1819.8</ele>
        <time>2018-08-05T08:56:28.05Z</time>
      </trkpt>
      <trkpt lat="42.54336" lon="2.46266">
        <ele>1816.2</ele>
        <time>2018-08-05T08:56:38.05Z</time>
      </trkpt>
      <trkpt lat="42.5434" lon="2.46253">
        <ele>1811.8</ele>
        <time>2018-08-05T08:56:43.05Z</time>
      </trkpt>
      <trkpt lat="42.54349" lon="2.46261">
        <ele>1810.9</ele>
        <time>2018-08-05T08:56:47.05Z</time>
      </trkpt>
      <trkpt lat="42.5436" lon="2.46267">
        <ele>1808.6</ele>
        <time>2018-08-05T08:56:51.05Z</time>
      </trkpt>
      <trkpt lat="42.54367" lon="2.46278">
        <ele>1808.3</ele>
        <time>2018-08-05T08:56:54.05Z</time>
      </trkpt>
      <trkpt lat="42.54372" lon="2.46293">
        <ele>1809.1</ele>
        <time>2018-08-05T08:56:59.05Z</time>
      </trkpt>
      <trkpt lat="42.54377" lon="2.46308">
        <ele>1809.6</ele>
        <time>2018-08-05T08:57:03.05Z</time>
      </trkpt>
      <trkpt lat="42.54379" lon="2.46322">
        <ele>1810.9</ele>
        <time>2018-08-05T08:57:06.05Z</time>
      </trkpt>
      <trkpt lat="42.54386" lon="2.46334">
        <ele>1809.4</ele>
        <time>2018-08-05T08:57:10.05Z</time>
      </trkpt>
      <trkpt lat="42.54391" lon="2.46347">
        <ele>1809.1</ele>
        <time>2018-08-05T08:57:14.05Z</time>
      </trkpt>
      <trkpt lat="42.54398" lon="2.46358">
        <ele>1807.5</ele>
        <time>2018-08-05T08:57:18.05Z</time>
      </trkpt>
      <trkpt lat="42.54407" lon="2.4637">
        <ele>1805.4</ele>
        <time>2018-08-05T08:57:22.05Z</time>
      </trkpt>
      <trkpt lat="42.54414" lon="2.46382">
        <ele>1804.3</ele>
        <time>2018-08-05T08:57:27.05Z</time>
      </trkpt>
      <trkpt lat="42.5442" lon="2.46392">
        <ele>1804.1</ele>
        <time>2018-08-05T08:57:31.05Z</time>
      </trkpt>
      <trkpt lat="42.54417" lon="2.46378">
        <ele>1802.4</ele>
        <time>2018-08-05T08:57:39.05Z</time>
      </trkpt>
      <trkpt lat="42.54415" lon="2.46364">
        <ele>1800.9</ele>
        <time>2018-08-05T08:57:43.05Z</time>
      </trkpt>
      <trkpt lat="42.54414" lon="2.4635">
        <ele>1799</ele>
        <time>2018-08-05T08:57:46.05Z</time>
      </trkpt>
      <trkpt lat="42.54416" lon="2.46332">
        <ele>1795.2</ele>
        <time>2018-08-05T08:57:52.05Z</time>
      </trkpt>
      <trkpt lat="42.54415" lon="2.46315">
        <ele>1794.4</ele>
        <time>2018-08-05T08:57:58.05Z</time>
      </trkpt>
      <trkpt lat="42.54415" lon="2.46299">
        <ele>1793.2</ele>
        <time>2018-08-05T08:58:02.05Z</time>
      </trkpt>
      <trkpt lat="42.54421" lon="2.46284">
        <ele>1789.8</ele>
        <time>2018-08-05T08:58:06.05Z</time>
      </trkpt>
      <trkpt lat="42.54425" lon="2.46272">
        <ele>1787.3</ele>
        <time>2018-08-05T08:58:10.05Z</time>
      </trkpt>
      <trkpt lat="42.54429" lon="2.46257">
        <ele>1784.4</ele>
        <time>2018-08-05T08:58:15.05Z</time>
      </trkpt>
      <trkpt lat="42.54436" lon="2.46247">
        <ele>1780.2</ele>
        <time>2018-08-05T08:58:19.05Z</time>
      </trkpt>
      <trkpt lat="42.54442" lon="2.46231">
        <ele>1774.1</ele>
        <time>2018-08-05T08:58:23.05Z</time>
      </trkpt>
      <trkpt lat="42.54449" lon="2.46216">
        <ele>1768.2</ele>
        <time>2018-08-05T08:58:27.05Z</time>
      </trkpt>
      <trkpt lat="42.54446" lon="2.46202">
        <ele>1766.2</ele>
        <time>2018-08-05T08:58:33.05Z</time>
      </trkpt>
      <trkpt lat="42.54438" lon="2.46193">
        <ele>1766.9</ele>
        <time>2018-08-05T08:58:37.05Z</time>
      </trkpt>
      <trkpt lat="42.54429" lon="2.46184">
        <ele>1767.7</ele>
        <time>2018-08-05T08:58:41.05Z</time>
      </trkpt>
      <trkpt lat="42.5442" lon="2.46176">
        <ele>1768.5</ele>
        <time>2018-08-05T08:58:45.05Z</time>
      </trkpt>
      <trkpt lat="42.54406" lon="2.46172">
        <ele>1770.4</ele>
        <time>2018-08-05T08:58:50.05Z</time>
      </trkpt>
      <trkpt lat="42.54395" lon="2.46169">
        <ele>1771.6</ele>
        <time>2018-08-05T08:58:55.05Z</time>
      </trkpt>
      <trkpt lat="42.54384" lon="2.46167">
        <ele>1773</ele>
        <time>2018-08-05T08:58:59.05Z</time>
      </trkpt>
      <trkpt lat="42.54375" lon="2.46162">
        <ele>1773.7</ele>
        <time>2018-08-05T08:59:02.05Z</time>
      </trkpt>
      <trkpt lat="42.54365" lon="2.46159">
        <ele>1775.1</ele>
        <time>2018-08-05T08:59:05.05Z</time>
      </trkpt>
      <trkpt lat="42.54354" lon="2.46156">
        <ele>1776.7</ele>
        <time>2018-08-05T08:59:10.05Z</time>
      </trkpt>
      <trkpt lat="42.54344" lon="2.46145">
        <ele>1777.2</ele>
        <time>2018-08-05T08:59:15.05Z</time>
      </trkpt>
      <trkpt lat="42.54337" lon="2.46134">
        <ele>1777.3</ele>
        <time>2018-08-05T08:59:19.05Z</time>
      </trkpt>
      <trkpt lat="42.54337" lon="2.46118">
        <ele>1775.3</ele>
        <time>2018-08-05T08:59:22.05Z</time>
      </trkpt>
      <trkpt lat="42.54347" lon="2.4612">
        <ele>1773.1</ele>
        <time>2018-08-05T08:59:26.05Z</time>
      </trkpt>
      <trkpt lat="42.54357" lon="2.46124">
        <ele>1771.3</ele>
        <time>2018-08-05T08:59:32.05Z</time>
      </trkpt>
      <trkpt lat="42.54368" lon="2.46127">
        <ele>1769.2</ele>
        <time>2018-08-05T08:59:37.05Z</time>
      </trkpt>
      <trkpt lat="42.54379" lon="2.46127">
        <ele>1766.7</ele>
        <time>2018-08-05T08:59:42.05Z</time>
      </trkpt>
      <trkpt lat="42.5439" lon="2.46124">
        <ele>1763.5</ele>
        <time>2018-08-05T08:59:47.05Z</time>
      </trkpt>
      <trkpt lat="42.54401" lon="2.46117">
        <ele>1759.5</ele>
        <time>2018-08-05T08:59:52.05Z</time>
      </trkpt>
      <trkpt lat="42.54408" lon="2.46108">
        <ele>1755.8</ele>
        <time>2018-08-05T08:59:56.05Z</time>
      </trkpt>
      <trkpt lat="42.54422" lon="2.46107">
        <ele>1751.9</ele>
        <time>2018-08-05T09:00:00.05Z</time>
      </trkpt>
      <trkpt lat="42.54431" lon="2.4611">
        <ele>1750</ele>
        <time>2018-08-05T09:00:03.05Z</time>
      </trkpt>
      <trkpt lat="42.54437" lon="2.46112">
        <ele>1748.7</ele>
        <time>2018-08-05T09:00:05.05Z</time>
      </trkpt>
      <trkpt lat="42.54444" lon="2.46115">
        <ele>1747.3</ele>
        <time>2018-08-05T09:00:08.05Z</time>
      </trkpt>
      <trkpt lat="42.54451" lon="2.46121">
        <ele>1746.7</ele>
        <time>2018-08-05T09:00:11.05Z</time>
      </trkpt>
      <trkpt lat="42.54457" lon="2.46125">
        <ele>1745.9</ele>
        <time>2018-08-05T09:00:14.05Z</time>
      </trkpt>
      <trkpt lat="42.54463" lon="2.4613">
        <ele>1745.3</ele>
        <time>2018-08-05T09:00:16.05Z</time>
      </trkpt>
      <trkpt lat="42.5447" lon="2.46133">
        <ele>1744</ele>
        <time>2018-08-05T09:00:18.05Z</time>
      </trkpt>
      <trkpt lat="42.54477" lon="2.46133">
        <ele>1741.9</ele>
        <time>2018-08-05T09:00:21.05Z</time>
      </trkpt>
      <trkpt lat="42.54487" lon="2.46135">
        <ele>1739.5</ele>
        <time>2018-08-05T09:00:26.05Z</time>
      </trkpt>
      <trkpt lat="42.54493" lon="2.46138">
        <ele>1738.5</ele>
        <time>2018-08-05T09:00:28.05Z</time>
      </trkpt>
      <trkpt lat="42.54486" lon="2.46126">
        <ele>1737.8</ele>
        <time>2018-08-05T09:00:39.05Z</time>
      </trkpt>
      <trkpt lat="42.54478" lon="2.46118">
        <ele>1738.2</ele>
        <time>2018-08-05T09:00:43.05Z</time>
      </trkpt>
      <trkpt lat="42.54471" lon="2.46108">
        <ele>1738</ele>
        <time>2018-08-05T09:00:47.05Z</time>
      </trkpt>
      <trkpt lat="42.54482" lon="2.46104">
        <ele>1733.9</ele>
        <time>2018-08-05T09:00:54.05Z</time>
      </trkpt>
      <trkpt lat="42.54488" lon="2.46101">
        <ele>1731.5</ele>
        <time>2018-08-05T09:00:57.05Z</time>
      </trkpt>
      <trkpt lat="42.54494" lon="2.46104">
        <ele>1730.4</ele>
        <time>2018-08-05T09:01:00.05Z</time>
      </trkpt>
      <trkpt lat="42.54501" lon="2.46102">
        <ele>1727.8</ele>
        <time>2018-08-05T09:01:03.05Z</time>
      </trkpt>
      <trkpt lat="42.54507" lon="2.46103">
        <ele>1725.5</ele>
        <time>2018-08-05T09:01:05.05Z</time>
      </trkpt>
      <trkpt lat="42.54514" lon="2.46108">
        <ele>1723.6</ele>
        <time>2018-08-05T09:01:08.05Z</time>
      </trkpt>
      <trkpt lat="42.54521" lon="2.4611">
        <ele>1721</ele>
        <time>2018-08-05T09:01:11.05Z</time>
      </trkpt>
      <trkpt lat="42.54528" lon="2.46108">
        <ele>1717.5</ele>
        <time>2018-08-05T09:01:14.05Z</time>
      </trkpt>
      <trkpt lat="42.54533" lon="2.4611">
        <ele>1715.7</ele>
        <time>2018-08-05T09:01:16.05Z</time>
      </trkpt>
      <trkpt lat="42.54539" lon="2.46113">
        <ele>1713.7</ele>
        <time>2018-08-05T09:01:19.05Z</time>
      </trkpt>
      <trkpt lat="42.54545" lon="2.46112">
        <ele>1710.9</ele>
        <time>2018-08-05T09:01:22.05Z</time>
      </trkpt>
      <trkpt lat="42.54553" lon="2.46111">
        <ele>1707.2</ele>
        <time>2018-08-05T09:01:25.05Z</time>
      </trkpt>
      <trkpt lat="42.54561" lon="2.46116">
        <ele>1704.4</ele>
        <time>2018-08-05T09:01:28.05Z</time>
      </trkpt>
      <trkpt lat="42.54571" lon="2.46121">
        <ele>1700.6</ele>
        <time>2018-08-05T09:01:31.05Z</time>
      </trkpt>
      <trkpt lat="42.54578" lon="2.46127">
        <ele>1698.2</ele>
        <time>2018-08-05T09:01:34.05Z</time>
      </trkpt>
      <trkpt lat="42.54583" lon="2.46134">
        <ele>1696.6</ele>
        <time>2018-08-05T09:01:36.05Z</time>
      </trkpt>
      <trkpt lat="42.54588" lon="2.4614">
        <ele>1695.2</ele>
        <time>2018-08-05T09:01:38.05Z</time>
      </trkpt>
      <trkpt lat="42.54594" lon="2.46147">
        <ele>1693.5</ele>
        <time>2018-08-05T09:01:41.05Z</time>
      </trkpt>
      <trkpt lat="42.54603" lon="2.4616">
        <ele>1690.9</ele>
        <time>2018-08-05T09:01:45.05Z</time>
      </trkpt>
      <trkpt lat="42.54606" lon="2.46176">
        <ele>1693.5</ele>
        <time>2018-08-05T09:01:49.05Z</time>
      </trkpt>
      <trkpt lat="42.54616" lon="2.46171">
        <ele>1687.5</ele>
        <time>2018-08-05T09:02:01.05Z</time>
      </trkpt>
      <trkpt lat="42.54626" lon="2.46173">
        <ele>1684.1</ele>
        <time>2018-08-05T09:02:06.05Z</time>
      </trkpt>
      <trkpt lat="42.54638" lon="2.46177">
        <ele>1680.7</ele>
        <time>2018-08-05T09:02:11.05Z</time>
      </trkpt>
      <trkpt lat="42.54648" lon="2.46184">
        <ele>1679.7</ele>
        <time>2018-08-05T09:02:16.05Z</time>
      </trkpt>
      <trkpt lat="42.54659" lon="2.4618">
        <ele>1673.5</ele>
        <time>2018-08-05T09:02:23.05Z</time>
      </trkpt>
      <trkpt lat="42.5466" lon="2.46164">
        <ele>1666.8</ele>
        <time>2018-08-05T09:02:36.05Z</time>
      </trkpt>
      <trkpt lat="42.54657" lon="2.4615">
        <ele>1667.8</ele>
        <time>2018-08-05T09:02:41.05Z</time>
      </trkpt>
      <trkpt lat="42.54649" lon="2.4614">
        <ele>1670.8</ele>
        <time>2018-08-05T09:02:45.05Z</time>
      </trkpt>
      <trkpt lat="42.54645" lon="2.46128">
        <ele>1671.9</ele>
        <time>2018-08-05T09:02:50.05Z</time>
      </trkpt>
      <trkpt lat="42.54638" lon="2.46116">
        <ele>1674.1</ele>
        <time>2018-08-05T09:02:59.05Z</time>
      </trkpt>
      <trkpt lat="42.54635" lon="2.46105">
        <ele>1674.7</ele>
        <time>2018-08-05T09:03:05.05Z</time>
      </trkpt>
      <trkpt lat="42.54645" lon="2.461">
        <ele>1670.9</ele>
        <time>2018-08-05T09:03:26.05Z</time>
      </trkpt>
      <trkpt lat="42.54657" lon="2.461">
        <ele>1666.6</ele>
        <time>2018-08-05T09:03:32.05Z</time>
      </trkpt>
      <trkpt lat="42.54667" lon="2.46095">
        <ele>1663.1</ele>
        <time>2018-08-05T09:03:36.05Z</time>
      </trkpt>
      <trkpt lat="42.54678" lon="2.46087">
        <ele>1659.7</ele>
        <time>2018-08-05T09:03:40.05Z</time>
      </trkpt>
      <trkpt lat="42.54687" lon="2.46081">
        <ele>1657.4</ele>
        <time>2018-08-05T09:03:43.05Z</time>
      </trkpt>
      <trkpt lat="42.54697" lon="2.46073">
        <ele>1656.8</ele>
        <time>2018-08-05T09:03:47.05Z</time>
      </trkpt>
      <trkpt lat="42.54705" lon="2.46065">
        <ele>1656.6</ele>
        <time>2018-08-05T09:03:51.05Z</time>
      </trkpt>
      <trkpt lat="42.54714" lon="2.46056">
        <ele>1656.3</ele>
        <time>2018-08-05T09:03:55.05Z</time>
      </trkpt>
      <trkpt lat="42.54725" lon="2.46053">
        <ele>1653.3</ele>
        <time>2018-08-05T09:03:59.05Z</time>
      </trkpt>
      <trkpt lat="42.54736" lon="2.46051">
        <ele>1650</ele>
        <time>2018-08-05T09:04:03.05Z</time>
      </trkpt>
      <trkpt lat="42.54746" lon="2.46049">
        <ele>1647.1</ele>
        <time>2018-08-05T09:04:07.05Z</time>
      </trkpt>
      <trkpt lat="42.54758" lon="2.46048">
        <ele>1643</ele>
        <time>2018-08-05T09:04:11.05Z</time>
      </trkpt>
      <trkpt lat="42.5477" lon="2.46048">
        <ele>1638.6</ele>
        <time>2018-08-05T09:04:15.05Z</time>
      </trkpt>
      <trkpt lat="42.5478" lon="2.46049">
        <ele>1634.8</ele>
        <time>2018-08-05T09:04:19.05Z</time>
      </trkpt>
      <trkpt lat="42.54789" lon="2.46056">
        <ele>1629.9</ele>
        <time>2018-08-05T09:04:22.05Z</time>
      </trkpt>
      <trkpt lat="42.54798" lon="2.46063">
        <ele>1625</ele>
        <time>2018-08-05T09:04:27.05Z</time>
      </trkpt>
      <trkpt lat="42.54809" lon="2.46062">
        <ele>1621.3</ele>
        <time>2018-08-05T09:04:31.05Z</time>
      </trkpt>
      <trkpt lat="42.54819" lon="2.46054">
        <ele>1619.5</ele>
        <time>2018-08-05T09:04:35.05Z</time>
      </trkpt>
      <trkpt lat="42.54829" lon="2.46045">
        <ele>1617.9</ele>
        <time>2018-08-05T09:04:40.05Z</time>
      </trkpt>
      <trkpt lat="42.54837" lon="2.46038">
        <ele>1616.5</ele>
        <time>2018-08-05T09:04:44.05Z</time>
      </trkpt>
      <trkpt lat="42.54846" lon="2.46027">
        <ele>1615</ele>
        <time>2018-08-05T09:04:49.05Z</time>
      </trkpt>
      <trkpt lat="42.54858" lon="2.4602">
        <ele>1610.7</ele>
        <time>2018-08-05T09:04:54.05Z</time>
      </trkpt>
      <trkpt lat="42.54868" lon="2.46011">
        <ele>1606.3</ele>
        <time>2018-08-05T09:04:57.05Z</time>
      </trkpt>
      <trkpt lat="42.54874" lon="2.46">
        <ele>1603.1</ele>
        <time>2018-08-05T09:05:01.05Z</time>
      </trkpt>
      <trkpt lat="42.5488" lon="2.45985">
        <ele>1602.4</ele>
        <time>2018-08-05T09:05:05.05Z</time>
      </trkpt>
      <trkpt lat="42.54884" lon="2.4597">
        <ele>1602.7</ele>
        <time>2018-08-05T09:05:09.05Z</time>
      </trkpt>
      <trkpt lat="42.54887" lon="2.45955">
        <ele>1603.7</ele>
        <time>2018-08-05T09:05:13.05Z</time>
      </trkpt>
      <trkpt lat="42.54887" lon="2.45939">
        <ele>1606.5</ele>
        <time>2018-08-05T09:05:18.05Z</time>
      </trkpt>
      <trkpt lat="42.5489" lon="2.45922">
        <ele>1607.7</ele>
        <time>2018-08-05T09:05:22.05Z</time>
      </trkpt>
      <trkpt lat="42.54894" lon="2.45908">
        <ele>1606.7</ele>
        <time>2018-08-05T09:05:25.05Z</time>
      </trkpt>
      <trkpt lat="42.54895" lon="2.45893">
        <ele>1606.9</ele>
        <time>2018-08-05T09:05:29.05Z</time>
      </trkpt>
      <trkpt lat="42.54896" lon="2.45879">
        <ele>1607.1</ele>
        <time>2018-08-05T09:05:32.05Z</time>
      </trkpt>
      <trkpt lat="42.54897" lon="2.45866">
        <ele>1607.3</ele>
        <time>2018-08-05T09:05:36.05Z</time>
      </trkpt>
      <trkpt lat="42.54895" lon="2.45847">
        <ele>1609.2</ele>
        <time>2018-08-05T09:05:40.05Z</time>
      </trkpt>
      <trkpt lat="42.54895" lon="2.45833">
        <ele>1609.9</ele>
        <time>2018-08-05T09:05:43.05Z</time>
      </trkpt>
      <trkpt lat="42.54898" lon="2.45819">
        <ele>1609.3</ele>
        <time>2018-08-05T09:05:47.05Z</time>
      </trkpt>
      <trkpt lat="42.54901" lon="2.45805">
        <ele>1608.8</ele>
        <time>2018-08-05T09:05:50.05Z</time>
      </trkpt>
      <trkpt lat="42.54909" lon="2.45796">
        <ele>1605.9</ele>
        <time>2018-08-05T09:05:54.05Z</time>
      </trkpt>
      <trkpt lat="42.54918" lon="2.45787">
        <ele>1602.7</ele>
        <time>2018-08-05T09:05:58.05Z</time>
      </trkpt>
      <trkpt lat="42.54924" lon="2.45775">
        <ele>1600.9</ele>
        <time>2018-08-05T09:06:01.05Z</time>
      </trkpt>
      <trkpt lat="42.54932" lon="2.45763">
        <ele>1598.7</ele>
        <time>2018-08-05T09:06:06.05Z</time>
      </trkpt>
      <trkpt lat="42.5494" lon="2.45752">
        <ele>1596.9</ele>
        <time>2018-08-05T09:06:10.05Z</time>
      </trkpt>
      <trkpt lat="42.54947" lon="2.45739">
        <ele>1595.3</ele>
        <time>2018-08-05T09:06:14.05Z</time>
      </trkpt>
      <trkpt lat="42.54956" lon="2.45727">
        <ele>1592.7</ele>
        <time>2018-08-05T09:06:18.05Z</time>
      </trkpt>
      <trkpt lat="42.54967" lon="2.45718">
        <ele>1589</ele>
        <time>2018-08-05T09:06:22.05Z</time>
      </trkpt>
      <trkpt lat="42.54976" lon="2.45711">
        <ele>1585.9</ele>
        <time>2018-08-05T09:06:26.05Z</time>
      </trkpt>
      <trkpt lat="42.54981" lon="2.45698">
        <ele>1584.2</ele>
        <time>2018-08-05T09:06:36.05Z</time>
      </trkpt>
      <trkpt lat="42.54984" lon="2.45684">
        <ele>1583.3</ele>
        <time>2018-08-05T09:06:41.05Z</time>
      </trkpt>
      <trkpt lat="42.54982" lon="2.45669">
        <ele>1584.3</ele>
        <time>2018-08-05T09:06:46.05Z</time>
      </trkpt>
      <trkpt lat="42.54979" lon="2.45655">
        <ele>1583.4</ele>
        <time>2018-08-05T09:06:50.05Z</time>
      </trkpt>
      <trkpt lat="42.54979" lon="2.45641">
        <ele>1580.7</ele>
        <time>2018-08-05T09:06:53.05Z</time>
      </trkpt>
      <trkpt lat="42.54975" lon="2.45628">
        <ele>1580.1</ele>
        <time>2018-08-05T09:06:57.05Z</time>
      </trkpt>
      <trkpt lat="42.54968" lon="2.45618">
        <ele>1581.6</ele>
        <time>2018-08-05T09:07:00.05Z</time>
      </trkpt>
      <trkpt lat="42.54959" lon="2.45608">
        <ele>1584.2</ele>
        <time>2018-08-05T09:07:04.05Z</time>
      </trkpt>
      <trkpt lat="42.5495" lon="2.45599">
        <ele>1587.2</ele>
        <time>2018-08-05T09:07:08.05Z</time>
      </trkpt>
      <trkpt lat="42.54942" lon="2.45586">
        <ele>1589.3</ele>
        <time>2018-08-05T09:07:13.05Z</time>
      </trkpt>
      <trkpt lat="42.54936" lon="2.45575">
        <ele>1590.4</ele>
        <time>2018-08-05T09:07:16.05Z</time>
      </trkpt>
      <trkpt lat="42.54933" lon="2.45561">
        <ele>1589.3</ele>
        <time>2018-08-05T09:07:19.05Z</time>
      </trkpt>
      <trkpt lat="42.5493" lon="2.45546">
        <ele>1588</ele>
        <time>2018-08-05T09:07:23.05Z</time>
      </trkpt>
      <trkpt lat="42.54924" lon="2.45534">
        <ele>1589.1</ele>
        <time>2018-08-05T09:07:26.05Z</time>
      </trkpt>
      <trkpt lat="42.54916" lon="2.45524">
        <ele>1591.7</ele>
        <time>2018-08-05T09:07:30.05Z</time>
      </trkpt>
      <trkpt lat="42.5491" lon="2.45514">
        <ele>1593</ele>
        <time>2018-08-05T09:07:34.05Z</time>
      </trkpt>
      <trkpt lat="42.54903" lon="2.45501">
        <ele>1594.5</ele>
        <time>2018-08-05T09:07:38.05Z</time>
      </trkpt>
      <trkpt lat="42.54897" lon="2.45491">
        <ele>1598.4</ele>
        <time>2018-08-05T09:07:42.05Z</time>
      </trkpt>
      <trkpt lat="42.54891" lon="2.45484">
        <ele>1602.3</ele>
        <time>2018-08-05T09:07:45.05Z</time>
      </trkpt>
      <trkpt lat="42.54891" lon="2.45471">
        <ele>1603.4</ele>
        <time>2018-08-05T09:07:49.05Z</time>
      </trkpt>
      <trkpt lat="42.54897" lon="2.45462">
        <ele>1600.9</ele>
        <time>2018-08-05T09:07:52.05Z</time>
      </trkpt>
      <trkpt lat="42.54903" lon="2.45454">
        <ele>1598.3</ele>
        <time>2018-08-05T09:07:55.05Z</time>
      </trkpt>
      <trkpt lat="42.54913" lon="2.45448">
        <ele>1593.4</ele>
        <time>2018-08-05T09:07:59.05Z</time>
      </trkpt>
      <trkpt lat="42.54923" lon="2.45441">
        <ele>1588.8</ele>
        <time>2018-08-05T09:08:03.05Z</time>
      </trkpt>
      <trkpt lat="42.54933" lon="2.45433">
        <ele>1584.6</ele>
        <time>2018-08-05T09:08:07.05Z</time>
      </trkpt>
      <trkpt lat="42.54943" lon="2.45423">
        <ele>1580.9</ele>
        <time>2018-08-05T09:08:11.05Z</time>
      </trkpt>
      <trkpt lat="42.54942" lon="2.45409">
        <ele>1584.8</ele>
        <time>2018-08-05T09:08:16.05Z</time>
      </trkpt>
      <trkpt lat="42.54941" lon="2.45394">
        <ele>1590.3</ele>
        <time>2018-08-05T09:08:20.05Z</time>
      </trkpt>
      <trkpt lat="42.54949" lon="2.45385">
        <ele>1590</ele>
        <time>2018-08-05T09:08:23.05Z</time>
      </trkpt>
      <trkpt lat="42.54959" lon="2.45377">
        <ele>1588.7</ele>
        <time>2018-08-05T09:08:27.05Z</time>
      </trkpt>
      <trkpt lat="42.54969" lon="2.4537">
        <ele>1587.4</ele>
        <time>2018-08-05T09:08:31.05Z</time>
      </trkpt>
      <trkpt lat="42.54978" lon="2.45365">
        <ele>1585.8</ele>
        <time>2018-08-05T09:08:35.05Z</time>
      </trkpt>
      <trkpt lat="42.54988" lon="2.45363">
        <ele>1582.8</ele>
        <time>2018-08-05T09:08:38.05Z</time>
      </trkpt>
      <trkpt lat="42.55" lon="2.4536">
        <ele>1579.5</ele>
        <time>2018-08-05T09:08:42.05Z</time>
      </trkpt>
      <trkpt lat="42.5501" lon="2.45357">
        <ele>1576.2</ele>
        <time>2018-08-05T09:08:45.05Z</time>
      </trkpt>
      <trkpt lat="42.55022" lon="2.45357">
        <ele>1570.6</ele>
        <time>2018-08-05T09:08:49.05Z</time>
      </trkpt>
      <trkpt lat="42.55034" lon="2.45355">
        <ele>1565.9</ele>
        <time>2018-08-05T09:08:52.05Z</time>
      </trkpt>
      <trkpt lat="42.55044" lon="2.4535">
        <ele>1563.4</ele>
        <time>2018-08-05T09:08:55.05Z</time>
      </trkpt>
      <trkpt lat="42.55052" lon="2.45341">
        <ele>1563.5</ele>
        <time>2018-08-05T09:08:58.05Z</time>
      </trkpt>
      <trkpt lat="42.55059" lon="2.4533">
        <ele>1564.4</ele>
        <time>2018-08-05T09:09:02.05Z</time>
      </trkpt>
      <trkpt lat="42.55067" lon="2.4532">
        <ele>1563.3</ele>
        <time>2018-08-05T09:09:06.05Z</time>
      </trkpt>
      <trkpt lat="42.55075" lon="2.4531">
        <ele>1562.1</ele>
        <time>2018-08-05T09:09:10.05Z</time>
      </trkpt>
      <trkpt lat="42.55083" lon="2.45301">
        <ele>1560.3</ele>
        <time>2018-08-05T09:09:14.05Z</time>
      </trkpt>
      <trkpt lat="42.55095" lon="2.45294">
        <ele>1553</ele>
        <time>2018-08-05T09:09:18.05Z</time>
      </trkpt>
      <trkpt lat="42.55105" lon="2.45285">
        <ele>1547.8</ele>
        <time>2018-08-05T09:09:21.05Z</time>
      </trkpt>
      <trkpt lat="42.55107" lon="2.45269">
        <ele>1550.6</ele>
        <time>2018-08-05T09:09:25.05Z</time>
      </trkpt>
      <trkpt lat="42.55109" lon="2.45252">
        <ele>1553.7</ele>
        <time>2018-08-05T09:09:29.05Z</time>
      </trkpt>
      <trkpt lat="42.5511" lon="2.45238">
        <ele>1557.6</ele>
        <time>2018-08-05T09:09:32.05Z</time>
      </trkpt>
      <trkpt lat="42.55111" lon="2.45219">
        <ele>1563.4</ele>
        <time>2018-08-05T09:09:36.05Z</time>
      </trkpt>
      <trkpt lat="42.55111" lon="2.45204">
        <ele>1568.6</ele>
        <time>2018-08-05T09:09:39.05Z</time>
      </trkpt>
      <trkpt lat="42.55113" lon="2.45189">
        <ele>1572.4</ele>
        <time>2018-08-05T09:09:42.05Z</time>
      </trkpt>
      <trkpt lat="42.55122" lon="2.45182">
        <ele>1568.9</ele>
        <time>2018-08-05T09:09:45.05Z</time>
      </trkpt>
      <trkpt lat="42.55132" lon="2.45178">
        <ele>1563.9</ele>
        <time>2018-08-05T09:09:48.05Z</time>
      </trkpt>
      <trkpt lat="42.55141" lon="2.45173">
        <ele>1559.9</ele>
        <time>2018-08-05T09:09:51.05Z</time>
      </trkpt>
      <trkpt lat="42.55151" lon="2.45164">
        <ele>1557.4</ele>
        <time>2018-08-05T09:09:55.05Z</time>
      </trkpt>
      <trkpt lat="42.55162" lon="2.4516">
        <ele>1552.7</ele>
        <time>2018-08-05T09:09:59.05Z</time>
      </trkpt>
      <trkpt lat="42.55172" lon="2.45151">
        <ele>1553.4</ele>
        <time>2018-08-05T09:10:03.05Z</time>
      </trkpt>
      <trkpt lat="42.55179" lon="2.4514">
        <ele>1557.6</ele>
        <time>2018-08-05T09:10:06.05Z</time>
      </trkpt>
      <trkpt lat="42.55188" lon="2.45132">
        <ele>1559.4</ele>
        <time>2018-08-05T09:10:10.05Z</time>
      </trkpt>
      <trkpt lat="42.55197" lon="2.45121">
        <ele>1563</ele>
        <time>2018-08-05T09:10:14.05Z</time>
      </trkpt>
      <trkpt lat="42.55209" lon="2.45123">
        <ele>1558.2</ele>
        <time>2018-08-05T09:10:20.05Z</time>
      </trkpt>
      <trkpt lat="42.55218" lon="2.45133">
        <ele>1549.6</ele>
        <time>2018-08-05T09:10:24.05Z</time>
      </trkpt>
      <trkpt lat="42.55226" lon="2.45145">
        <ele>1540.2</ele>
        <time>2018-08-05T09:10:28.05Z</time>
      </trkpt>
      <trkpt lat="42.55234" lon="2.45154">
        <ele>1532.4</ele>
        <time>2018-08-05T09:10:32.05Z</time>
      </trkpt>
      <trkpt lat="42.55243" lon="2.45165">
        <ele>1523.2</ele>
        <time>2018-08-05T09:10:36.05Z</time>
      </trkpt>
      <trkpt lat="42.55252" lon="2.45175">
        <ele>1515.1</ele>
        <time>2018-08-05T09:10:40.05Z</time>
      </trkpt>
      <trkpt lat="42.55262" lon="2.4517">
        <ele>1514.4</ele>
        <time>2018-08-05T09:10:44.05Z</time>
      </trkpt>
      <trkpt lat="42.55263" lon="2.45154">
        <ele>1523.2</ele>
        <time>2018-08-05T09:10:48.05Z</time>
      </trkpt>
      <trkpt lat="42.55264" lon="2.45137">
        <ele>1532.8</ele>
        <time>2018-08-05T09:10:52.05Z</time>
      </trkpt>
      <trkpt lat="42.55266" lon="2.45122">
        <ele>1540.9</ele>
        <time>2018-08-05T09:10:56.05Z</time>
      </trkpt>
      <trkpt lat="42.55274" lon="2.45111">
        <ele>1544.6</ele>
        <time>2018-08-05T09:11:00.05Z</time>
      </trkpt>
      <trkpt lat="42.55283" lon="2.45114">
        <ele>1539.8</ele>
        <time>2018-08-05T09:11:05.05Z</time>
      </trkpt>
      <trkpt lat="42.55294" lon="2.45119">
        <ele>1533.2</ele>
        <time>2018-08-05T09:11:09.05Z</time>
      </trkpt>
      <trkpt lat="42.55302" lon="2.45115">
        <ele>1532.8</ele>
        <time>2018-08-05T09:11:12.05Z</time>
      </trkpt>
      <trkpt lat="42.55312" lon="2.45109">
        <ele>1532.8</ele>
        <time>2018-08-05T09:11:16.05Z</time>
      </trkpt>
      <trkpt lat="42.55322" lon="2.45105">
        <ele>1531.7</ele>
        <time>2018-08-05T09:11:20.05Z</time>
      </trkpt>
      <trkpt lat="42.55332" lon="2.45106">
        <ele>1527.7</ele>
        <time>2018-08-05T09:11:23.05Z</time>
      </trkpt>
      <trkpt lat="42.55343" lon="2.45111">
        <ele>1518.2</ele>
        <time>2018-08-05T09:11:28.05Z</time>
      </trkpt>
      <trkpt lat="42.55354" lon="2.45111">
        <ele>1511.1</ele>
        <time>2018-08-05T09:11:33.05Z</time>
      </trkpt>
      <trkpt lat="42.5536" lon="2.45097">
        <ele>1514.3</ele>
        <time>2018-08-05T09:11:35.05Z</time>
      </trkpt>
      <trkpt lat="42.55365" lon="2.45083">
        <ele>1517.7</ele>
        <time>2018-08-05T09:11:38.05Z</time>
      </trkpt>
      <trkpt lat="42.55372" lon="2.4507">
        <ele>1517.1</ele>
        <time>2018-08-05T09:11:42.05Z</time>
      </trkpt>
      <trkpt lat="42.55378" lon="2.45057">
        <ele>1516.6</ele>
        <time>2018-08-05T09:11:46.05Z</time>
      </trkpt>
      <trkpt lat="42.55385" lon="2.45046">
        <ele>1514.1</ele>
        <time>2018-08-05T09:11:50.05Z</time>
      </trkpt>
      <trkpt lat="42.55391" lon="2.45036">
        <ele>1511.7</ele>
        <time>2018-08-05T09:11:54.05Z</time>
      </trkpt>
      <trkpt lat="42.55395" lon="2.45021">
        <ele>1511.9</ele>
        <time>2018-08-05T09:11:58.05Z</time>
      </trkpt>
      <trkpt lat="42.5539" lon="2.45006">
        <ele>1520.6</ele>
        <time>2018-08-05T09:12:02.05Z</time>
      </trkpt>
      <trkpt lat="42.55386" lon="2.44994">
        <ele>1526.5</ele>
        <time>2018-08-05T09:12:05.05Z</time>
      </trkpt>
      <trkpt lat="42.55388" lon="2.44979">
        <ele>1524.8</ele>
        <time>2018-08-05T09:12:09.05Z</time>
      </trkpt>
      <trkpt lat="42.55391" lon="2.44965">
        <ele>1522.1</ele>
        <time>2018-08-05T09:12:13.05Z</time>
      </trkpt>
      <trkpt lat="42.5539" lon="2.44949">
        <ele>1523.6</ele>
        <time>2018-08-05T09:12:17.05Z</time>
      </trkpt>
      <trkpt lat="42.55392" lon="2.44933">
        <ele>1522</ele>
        <time>2018-08-05T09:12:21.05Z</time>
      </trkpt>
      <trkpt lat="42.55394" lon="2.44918">
        <ele>1520.4</ele>
        <time>2018-08-05T09:12:25.05Z</time>
      </trkpt>
      <trkpt lat="42.55394" lon="2.44904">
        <ele>1521.5</ele>
        <time>2018-08-05T09:12:29.05Z</time>
      </trkpt>
      <trkpt lat="42.55395" lon="2.4489">
        <ele>1521.7</ele>
        <time>2018-08-05T09:12:33.05Z</time>
      </trkpt>
      <trkpt lat="42.55402" lon="2.44879">
        <ele>1515.7</ele>
        <time>2018-08-05T09:12:36.05Z</time>
      </trkpt>
      <trkpt lat="42.5541" lon="2.44868">
        <ele>1508.9</ele>
        <time>2018-08-05T09:12:39.05Z</time>
      </trkpt>
      <trkpt lat="42.55416" lon="2.44854">
        <ele>1504.4</ele>
        <time>2018-08-05T09:12:43.05Z</time>
      </trkpt>
      <trkpt lat="42.55418" lon="2.44839">
        <ele>1504.1</ele>
        <time>2018-08-05T09:12:47.05Z</time>
      </trkpt>
      <trkpt lat="42.55418" lon="2.44822">
        <ele>1505.4</ele>
        <time>2018-08-05T09:12:51.05Z</time>
      </trkpt>
      <trkpt lat="42.55416" lon="2.44807">
        <ele>1508.2</ele>
        <time>2018-08-05T09:12:55.05Z</time>
      </trkpt>
      <trkpt lat="42.55413" lon="2.44793">
        <ele>1512.1</ele>
        <time>2018-08-05T09:12:59.05Z</time>
      </trkpt>
      <trkpt lat="42.55415" lon="2.44782">
        <ele>1510.8</ele>
        <time>2018-08-05T09:13:02.05Z</time>
      </trkpt>
      <trkpt lat="42.55418" lon="2.44769">
        <ele>1508.5</ele>
        <time>2018-08-05T09:13:06.05Z</time>
      </trkpt>
      <trkpt lat="42.55424" lon="2.44754">
        <ele>1503.2</ele>
        <time>2018-08-05T09:13:10.05Z</time>
      </trkpt>
      <trkpt lat="42.5543" lon="2.4474">
        <ele>1497.7</ele>
        <time>2018-08-05T09:13:14.05Z</time>
      </trkpt>
      <trkpt lat="42.55431" lon="2.44724">
        <ele>1497.5</ele>
        <time>2018-08-05T09:13:19.05Z</time>
      </trkpt>
      <trkpt lat="42.55428" lon="2.44707">
        <ele>1501.3</ele>
        <time>2018-08-05T09:13:23.05Z</time>
      </trkpt>
      <trkpt lat="42.5543" lon="2.4469">
        <ele>1500.2</ele>
        <time>2018-08-05T09:13:27.05Z</time>
      </trkpt>
      <trkpt lat="42.55428" lon="2.44676">
        <ele>1502.8</ele>
        <time>2018-08-05T09:13:31.05Z</time>
      </trkpt>
      <trkpt lat="42.55422" lon="2.44663">
        <ele>1508.7</ele>
        <time>2018-08-05T09:13:35.05Z</time>
      </trkpt>
      <trkpt lat="42.55418" lon="2.44649">
        <ele>1511.3</ele>
        <time>2018-08-05T09:13:39.05Z</time>
      </trkpt>
      <trkpt lat="42.55419" lon="2.44632">
        <ele>1508.9</ele>
        <time>2018-08-05T09:13:43.05Z</time>
      </trkpt>
      <trkpt lat="42.55423" lon="2.44618">
        <ele>1504.1</ele>
        <time>2018-08-05T09:13:47.05Z</time>
      </trkpt>
      <trkpt lat="42.55426" lon="2.446">
        <ele>1500</ele>
        <time>2018-08-05T09:13:51.05Z</time>
      </trkpt>
      <trkpt lat="42.55424" lon="2.44586">
        <ele>1500.7</ele>
        <time>2018-08-05T09:13:55.05Z</time>
      </trkpt>
      <trkpt lat="42.55419" lon="2.44574">
        <ele>1504.5</ele>
        <time>2018-08-05T09:13:59.05Z</time>
      </trkpt>
      <trkpt lat="42.55417" lon="2.4456">
        <ele>1505.6</ele>
        <time>2018-08-05T09:14:03.05Z</time>
      </trkpt>
      <trkpt lat="42.5542" lon="2.44545">
        <ele>1502.2</ele>
        <time>2018-08-05T09:14:07.05Z</time>
      </trkpt>
      <trkpt lat="42.55422" lon="2.4453">
        <ele>1499.7</ele>
        <time>2018-08-05T09:14:10.05Z</time>
      </trkpt>
      <trkpt lat="42.55425" lon="2.44514">
        <ele>1496.4</ele>
        <time>2018-08-05T09:14:14.05Z</time>
      </trkpt>
      <trkpt lat="42.55421" lon="2.44498">
        <ele>1499.1</ele>
        <time>2018-08-05T09:14:18.05Z</time>
      </trkpt>
      <trkpt lat="42.55415" lon="2.44485">
        <ele>1503.9</ele>
        <time>2018-08-05T09:14:23.05Z</time>
      </trkpt>
      <trkpt lat="42.55416" lon="2.4447">
        <ele>1502.2</ele>
        <time>2018-08-05T09:14:28.05Z</time>
      </trkpt>
      <trkpt lat="42.55421" lon="2.44453">
        <ele>1497</ele>
        <time>2018-08-05T09:14:32.05Z</time>
      </trkpt>
      <trkpt lat="42.55427" lon="2.44437">
        <ele>1491.1</ele>
        <time>2018-08-05T09:14:36.05Z</time>
      </trkpt>
      <trkpt lat="42.55432" lon="2.44421">
        <ele>1486.1</ele>
        <time>2018-08-05T09:14:40.05Z</time>
      </trkpt>
      <trkpt lat="42.55438" lon="2.44407">
        <ele>1481.1</ele>
        <time>2018-08-05T09:14:44.05Z</time>
      </trkpt>
      <trkpt lat="42.55446" lon="2.44397">
        <ele>1474.7</ele>
        <time>2018-08-05T09:14:48.05Z</time>
      </trkpt>
      <trkpt lat="42.55443" lon="2.44384">
        <ele>1477.6</ele>
        <time>2018-08-05T09:14:52.05Z</time>
      </trkpt>
      <trkpt lat="42.55437" lon="2.4437">
        <ele>1482.9</ele>
        <time>2018-08-05T09:14:56.05Z</time>
      </trkpt>
      <trkpt lat="42.55433" lon="2.44357">
        <ele>1486.5</ele>
        <time>2018-08-05T09:15:00.05Z</time>
      </trkpt>
      <trkpt lat="42.55431" lon="2.4434">
        <ele>1488.5</ele>
        <time>2018-08-05T09:15:05.05Z</time>
      </trkpt>
      <trkpt lat="42.55435" lon="2.44325">
        <ele>1485.5</ele>
        <time>2018-08-05T09:15:09.05Z</time>
      </trkpt>
      <trkpt lat="42.55442" lon="2.44312">
        <ele>1480</ele>
        <time>2018-08-05T09:15:13.05Z</time>
      </trkpt>
      <trkpt lat="42.55444" lon="2.44295">
        <ele>1478.5</ele>
        <time>2018-08-05T09:15:18.05Z</time>
      </trkpt>
      <trkpt lat="42.55449" lon="2.44279">
        <ele>1474.8</ele>
        <time>2018-08-05T09:15:22.05Z</time>
      </trkpt>
      <trkpt lat="42.55454" lon="2.44266">
        <ele>1471.1</ele>
        <time>2018-08-05T09:15:25.05Z</time>
      </trkpt>
      <trkpt lat="42.55461" lon="2.44253">
        <ele>1466</ele>
        <time>2018-08-05T09:15:29.05Z</time>
      </trkpt>
      <trkpt lat="42.55471" lon="2.44245">
        <ele>1458.9</ele>
        <time>2018-08-05T09:15:33.05Z</time>
      </trkpt>
      <trkpt lat="42.55482" lon="2.44236">
        <ele>1452.2</ele>
        <time>2018-08-05T09:15:37.05Z</time>
      </trkpt>
      <trkpt lat="42.55489" lon="2.44226">
        <ele>1449.2</ele>
        <time>2018-08-05T09:15:41.05Z</time>
      </trkpt>
      <trkpt lat="42.55494" lon="2.44212">
        <ele>1448.8</ele>
        <time>2018-08-05T09:15:45.05Z</time>
      </trkpt>
      <trkpt lat="42.55501" lon="2.44203">
        <ele>1446.9</ele>
        <time>2018-08-05T09:15:48.05Z</time>
      </trkpt>
      <trkpt lat="42.55509" lon="2.44191">
        <ele>1443.4</ele>
        <time>2018-08-05T09:15:53.05Z</time>
      </trkpt>
      <trkpt lat="42.55516" lon="2.44179">
        <ele>1440.9</ele>
        <time>2018-08-05T09:15:57.05Z</time>
      </trkpt>
      <trkpt lat="42.55524" lon="2.44169">
        <ele>1437.3</ele>
        <time>2018-08-05T09:16:01.05Z</time>
      </trkpt>
      <trkpt lat="42.55534" lon="2.4416">
        <ele>1431.1</ele>
        <time>2018-08-05T09:16:06.05Z</time>
      </trkpt>
      <trkpt lat="42.55544" lon="2.44156">
        <ele>1424.3</ele>
        <time>2018-08-05T09:16:10.05Z</time>
      </trkpt>
      <trkpt lat="42.55551" lon="2.44144">
        <ele>1421</ele>
        <time>2018-08-05T09:16:14.05Z</time>
      </trkpt>
      <trkpt lat="42.55551" lon="2.44129">
        <ele>1423.4</ele>
        <time>2018-08-05T09:16:18.05Z</time>
      </trkpt>
      <trkpt lat="42.5555" lon="2.44112">
        <ele>1426.7</ele>
        <time>2018-08-05T09:16:22.05Z</time>
      </trkpt>
      <trkpt lat="42.55553" lon="2.44097">
        <ele>1427.3</ele>
        <time>2018-08-05T09:16:26.05Z</time>
      </trkpt>
      <trkpt lat="42.55558" lon="2.44084">
        <ele>1426.5</ele>
        <time>2018-08-05T09:16:29.05Z</time>
      </trkpt>
      <trkpt lat="42.55563" lon="2.44072">
        <ele>1422.6</ele>
        <time>2018-08-05T09:16:33.05Z</time>
      </trkpt>
      <trkpt lat="42.55573" lon="2.44066">
        <ele>1417.3</ele>
        <time>2018-08-05T09:16:37.05Z</time>
      </trkpt>
      <trkpt lat="42.55581" lon="2.44056">
        <ele>1413.6</ele>
        <time>2018-08-05T09:16:41.05Z</time>
      </trkpt>
      <trkpt lat="42.55583" lon="2.44043">
        <ele>1413.1</ele>
        <time>2018-08-05T09:16:45.05Z</time>
      </trkpt>
      <trkpt lat="42.55581" lon="2.44029">
        <ele>1413.9</ele>
        <time>2018-08-05T09:16:49.05Z</time>
      </trkpt>
      <trkpt lat="42.55587" lon="2.44022">
        <ele>1411.6</ele>
        <time>2018-08-05T09:17:00.05Z</time>
      </trkpt>
      <trkpt lat="42.55593" lon="2.44017">
        <ele>1408.7</ele>
        <time>2018-08-05T09:17:09.05Z</time>
      </trkpt>
      <trkpt lat="42.556" lon="2.44019">
        <ele>1405.1</ele>
        <time>2018-08-05T09:17:19.05Z</time>
      </trkpt>
      <trkpt lat="42.55607" lon="2.44015">
        <ele>1401.6</ele>
        <time>2018-08-05T09:17:33.05Z</time>
      </trkpt>
      <trkpt lat="42.55613" lon="2.44008">
        <ele>1398.8</ele>
        <time>2018-08-05T09:17:43.05Z</time>
      </trkpt>
      <trkpt lat="42.55622" lon="2.44008">
        <ele>1394.2</ele>
        <time>2018-08-05T09:17:53.05Z</time>
      </trkpt>
      <trkpt lat="42.55626" lon="2.44002">
        <ele>1392.4</ele>
        <time>2018-08-05T09:18:01.05Z</time>
      </trkpt>
      <trkpt lat="42.55629" lon="2.43995">
        <ele>1390.1</ele>
        <time>2018-08-05T09:18:09.05Z</time>
      </trkpt>
      <trkpt lat="42.5563" lon="2.43984">
        <ele>1387.8</ele>
        <time>2018-08-05T09:18:16.05Z</time>
      </trkpt>
      <trkpt lat="42.55632" lon="2.43972">
        <ele>1384.9</ele>
        <time>2018-08-05T09:18:22.05Z</time>
      </trkpt>
      <trkpt lat="42.5564" lon="2.43963">
        <ele>1379.9</ele>
        <time>2018-08-05T09:18:32.05Z</time>
      </trkpt>
      <trkpt lat="42.55647" lon="2.43953">
        <ele>1375.4</ele>
        <time>2018-08-05T09:18:44.05Z</time>
      </trkpt>
      <trkpt lat="42.55651" lon="2.4394">
        <ele>1371.9</ele>
        <time>2018-08-05T09:18:53.05Z</time>
      </trkpt>
      <trkpt lat="42.55658" lon="2.43928">
        <ele>1367.6</ele>
        <time>2018-08-05T09:18:59.05Z</time>
      </trkpt>
      <trkpt lat="42.55663" lon="2.43916">
        <ele>1364.3</ele>
        <time>2018-08-05T09:19:09.05Z</time>
      </trkpt>
      <trkpt lat="42.5567" lon="2.43906">
        <ele>1360.9</ele>
        <time>2018-08-05T09:19:18.05Z</time>
      </trkpt>
      <trkpt lat="42.55677" lon="2.43895">
        <ele>1357.2</ele>
        <time>2018-08-05T09:19:25.05Z</time>
      </trkpt>
      <trkpt lat="42.55683" lon="2.43884">
        <ele>1354.1</ele>
        <time>2018-08-05T09:19:33.05Z</time>
      </trkpt>
      <trkpt lat="42.55689" lon="2.43874">
        <ele>1351.2</ele>
        <time>2018-08-05T09:19:39.05Z</time>
      </trkpt>
      <trkpt lat="42.55699" lon="2.43864">
        <ele>1346.6</ele>
        <time>2018-08-05T09:19:45.05Z</time>
      </trkpt>
      <trkpt lat="42.55704" lon="2.43853">
        <ele>1344.5</ele>
        <time>2018-08-05T09:19:50.05Z</time>
      </trkpt>
      <trkpt lat="42.55711" lon="2.43845">
        <ele>1341.7</ele>
        <time>2018-08-05T09:19:55.05Z</time>
      </trkpt>
      <trkpt lat="42.55721" lon="2.43835">
        <ele>1337.8</ele>
        <time>2018-08-05T09:20:00.05Z</time>
      </trkpt>
      <trkpt lat="42.55727" lon="2.43826">
        <ele>1335.6</ele>
        <time>2018-08-05T09:20:03.05Z</time>
      </trkpt>
      <trkpt lat="42.55733" lon="2.43814">
        <ele>1333.6</ele>
        <time>2018-08-05T09:20:08.05Z</time>
      </trkpt>
      <trkpt lat="42.55742" lon="2.43807">
        <ele>1330.5</ele>
        <time>2018-08-05T09:20:15.05Z</time>
      </trkpt>
      <trkpt lat="42.55751" lon="2.43798">
        <ele>1327.6</ele>
        <time>2018-08-05T09:20:24.05Z</time>
      </trkpt>
      <trkpt lat="42.55761" lon="2.43791">
        <ele>1322.6</ele>
        <time>2018-08-05T09:20:31.05Z</time>
      </trkpt>
      <trkpt lat="42.55769" lon="2.43782">
        <ele>1319.1</ele>
        <time>2018-08-05T09:20:37.05Z</time>
      </trkpt>
      <trkpt lat="42.55777" lon="2.43773">
        <ele>1315.8</ele>
        <time>2018-08-05T09:20:45.05Z</time>
      </trkpt>
      <trkpt lat="42.55787" lon="2.43771">
        <ele>1310.9</ele>
        <time>2018-08-05T09:20:53.05Z</time>
      </trkpt>
      <trkpt lat="42.55797" lon="2.43764">
        <ele>1306.7</ele>
        <time>2018-08-05T09:21:00.05Z</time>
      </trkpt>
      <trkpt lat="42.55805" lon="2.43754">
        <ele>1304</ele>
        <time>2018-08-05T09:21:04.05Z</time>
      </trkpt>
      <trkpt lat="42.55812" lon="2.43743">
        <ele>1300.4</ele>
        <time>2018-08-05T09:21:08.05Z</time>
      </trkpt>
      <trkpt lat="42.55814" lon="2.43732">
        <ele>1298.2</ele>
        <time>2018-08-05T09:21:11.05Z</time>
      </trkpt>
      <trkpt lat="42.55817" lon="2.43726">
        <ele>1296.1</ele>
        <time>2018-08-05T09:21:16.05Z</time>
      </trkpt>
      <trkpt lat="42.55819" lon="2.43713">
        <ele>1293.7</ele>
        <time>2018-08-05T09:21:22.05Z</time>
      </trkpt>
      <trkpt lat="42.55817" lon="2.43704">
        <ele>1293.7</ele>
        <time>2018-08-05T09:21:26.05Z</time>
      </trkpt>
      <trkpt lat="42.55818" lon="2.43695">
        <ele>1292.2</ele>
        <time>2018-08-05T09:21:30.05Z</time>
      </trkpt>
      <trkpt lat="42.55816" lon="2.43684">
        <ele>1291.9</ele>
        <time>2018-08-05T09:21:35.05Z</time>
      </trkpt>
      <trkpt lat="42.55812" lon="2.43671">
        <ele>1292.2</ele>
        <time>2018-08-05T09:21:41.05Z</time>
      </trkpt>
      <trkpt lat="42.55808" lon="2.4366">
        <ele>1291.6</ele>
        <time>2018-08-05T09:21:45.05Z</time>
      </trkpt>
      <trkpt lat="42.55812" lon="2.4365">
        <ele>1286.8</ele>
        <time>2018-08-05T09:21:55.05Z</time>
      </trkpt>
      <trkpt lat="42.5581" lon="2.4364">
        <ele>1284.7</ele>
        <time>2018-08-05T09:21:59.05Z</time>
      </trkpt>
      <trkpt lat="42.55807" lon="2.43629">
        <ele>1282.9</ele>
        <time>2018-08-05T09:22:05.05Z</time>
      </trkpt>
      <trkpt lat="42.55806" lon="2.43617">
        <ele>1279.8</ele>
        <time>2018-08-05T09:22:10.05Z</time>
      </trkpt>
      <trkpt lat="42.55806" lon="2.43601">
        <ele>1275</ele>
        <time>2018-08-05T09:22:16.05Z</time>
      </trkpt>
      <trkpt lat="42.55804" lon="2.43585">
        <ele>1271.2</ele>
        <time>2018-08-05T09:22:21.05Z</time>
      </trkpt>
      <trkpt lat="42.558" lon="2.43575">
        <ele>1270.1</ele>
        <time>2018-08-05T09:22:25.05Z</time>
      </trkpt>
      <trkpt lat="42.55802" lon="2.4356">
        <ele>1264.7</ele>
        <time>2018-08-05T09:22:32.05Z</time>
      </trkpt>
      <trkpt lat="42.55804" lon="2.43548">
        <ele>1260.4</ele>
        <time>2018-08-05T09:22:41.05Z</time>
      </trkpt>
      <trkpt lat="42.55801" lon="2.43535">
        <ele>1257.6</ele>
        <time>2018-08-05T09:22:45.05Z</time>
      </trkpt>
      <trkpt lat="42.55798" lon="2.43523">
        <ele>1255</ele>
        <time>2018-08-05T09:22:48.05Z</time>
      </trkpt>
      <trkpt lat="42.55795" lon="2.43511">
        <ele>1252.1</ele>
        <time>2018-08-05T09:22:51.05Z</time>
      </trkpt>
      <trkpt lat="42.55794" lon="2.43499">
        <ele>1248.7</ele>
        <time>2018-08-05T09:22:54.05Z</time>
      </trkpt>
      <trkpt lat="42.55793" lon="2.4349">
        <ele>1246.6</ele>
        <time>2018-08-05T09:22:57.05Z</time>
      </trkpt>
      <trkpt lat="42.55789" lon="2.4348">
        <ele>1244.9</ele>
        <time>2018-08-05T09:23:00.05Z</time>
      </trkpt>
      <trkpt lat="42.55794" lon="2.43467">
        <ele>1240.6</ele>
        <time>2018-08-05T09:23:04.05Z</time>
      </trkpt>
      <trkpt lat="42.55799" lon="2.43459">
        <ele>1238</ele>
        <time>2018-08-05T09:23:10.05Z</time>
      </trkpt>
      <trkpt lat="42.55805" lon="2.43452">
        <ele>1235.7</ele>
        <time>2018-08-05T09:23:14.05Z</time>
      </trkpt>
      <trkpt lat="42.55803" lon="2.43443">
        <ele>1233.9</ele>
        <time>2018-08-05T09:23:19.05Z</time>
      </trkpt>
      <trkpt lat="42.55809" lon="2.43437">
        <ele>1232.2</ele>
        <time>2018-08-05T09:23:25.05Z</time>
      </trkpt>
      <trkpt lat="42.55809" lon="2.43424">
        <ele>1229.5</ele>
        <time>2018-08-05T09:23:31.05Z</time>
      </trkpt>
      <trkpt lat="42.55809" lon="2.4341">
        <ele>1226.8</ele>
        <time>2018-08-05T09:23:36.05Z</time>
      </trkpt>
      <trkpt lat="42.55816" lon="2.43398">
        <ele>1224.9</ele>
        <time>2018-08-05T09:23:41.05Z</time>
      </trkpt>
      <trkpt lat="42.55822" lon="2.43396">
        <ele>1224.9</ele>
        <time>2018-08-05T09:23:48.05Z</time>
      </trkpt>
      <trkpt lat="42.55825" lon="2.4339">
        <ele>1224.2</ele>
        <time>2018-08-05T09:23:53.05Z</time>
      </trkpt>
      <trkpt lat="42.55824" lon="2.43381">
        <ele>1222.9</ele>
        <time>2018-08-05T09:23:56.05Z</time>
      </trkpt>
      <trkpt lat="42.55823" lon="2.43371">
        <ele>1221.3</ele>
        <time>2018-08-05T09:24:00.05Z</time>
      </trkpt>
      <trkpt lat="42.55821" lon="2.43359">
        <ele>1219.2</ele>
        <time>2018-08-05T09:24:05.05Z</time>
      </trkpt>
      <trkpt lat="42.55819" lon="2.43349">
        <ele>1217.4</ele>
        <time>2018-08-05T09:24:09.05Z</time>
      </trkpt>
      <trkpt lat="42.55829" lon="2.43353">
        <ele>1219.6</ele>
        <time>2018-08-05T09:24:16.05Z</time>
      </trkpt>
      <trkpt lat="42.55838" lon="2.43348">
        <ele>1217.9</ele>
        <time>2018-08-05T09:24:27.05Z</time>
      </trkpt>
      <trkpt lat="42.55843" lon="2.43337">
        <ele>1214.7</ele>
        <time>2018-08-05T09:24:34.05Z</time>
      </trkpt>
      <trkpt lat="42.55849" lon="2.43326">
        <ele>1211</ele>
        <time>2018-08-05T09:24:40.05Z</time>
      </trkpt>
      <trkpt lat="42.5585" lon="2.43313">
        <ele>1208.9</ele>
        <time>2018-08-05T09:24:45.05Z</time>
      </trkpt>
      <trkpt lat="42.55856" lon="2.43301">
        <ele>1205.2</ele>
        <time>2018-08-05T09:24:51.05Z</time>
      </trkpt>
      <trkpt lat="42.55859" lon="2.43289">
        <ele>1202.7</ele>
        <time>2018-08-05T09:24:57.05Z</time>
      </trkpt>
      <trkpt lat="42.55861" lon="2.43274">
        <ele>1200.2</ele>
        <time>2018-08-05T09:25:03.05Z</time>
      </trkpt>
      <trkpt lat="42.55865" lon="2.43264">
        <ele>1197.9</ele>
        <time>2018-08-05T09:25:09.05Z</time>
      </trkpt>
      <trkpt lat="42.55871" lon="2.43254">
        <ele>1195</ele>
        <time>2018-08-05T09:25:16.05Z</time>
      </trkpt>
      <trkpt lat="42.55875" lon="2.43241">
        <ele>1192</ele>
        <time>2018-08-05T09:25:22.05Z</time>
      </trkpt>
      <trkpt lat="42.55879" lon="2.43231">
        <ele>1189.4</ele>
        <time>2018-08-05T09:25:26.05Z</time>
      </trkpt>
      <trkpt lat="42.55882" lon="2.43218">
        <ele>1186.8</ele>
        <time>2018-08-05T09:25:32.05Z</time>
      </trkpt>
      <trkpt lat="42.55885" lon="2.43205">
        <ele>1184.3</ele>
        <time>2018-08-05T09:25:37.05Z</time>
      </trkpt>
      <trkpt lat="42.55891" lon="2.43191">
        <ele>1181.6</ele>
        <time>2018-08-05T09:25:43.05Z</time>
      </trkpt>
      <trkpt lat="42.55895" lon="2.43179">
        <ele>1179.7</ele>
        <time>2018-08-05T09:25:48.05Z</time>
      </trkpt>
      <trkpt lat="42.55902" lon="2.43168">
        <ele>1178</ele>
        <time>2018-08-05T09:25:54.05Z</time>
      </trkpt>
      <trkpt lat="42.55909" lon="2.43159">
        <ele>1175.7</ele>
        <time>2018-08-05T09:26:00.05Z</time>
      </trkpt>
      <trkpt lat="42.55918" lon="2.43151">
        <ele>1173.2</ele>
        <time>2018-08-05T09:26:06.05Z</time>
      </trkpt>
      <trkpt lat="42.55925" lon="2.43139">
        <ele>1168.4</ele>
        <time>2018-08-05T09:26:12.05Z</time>
      </trkpt>
      <trkpt lat="42.55931" lon="2.4313">
        <ele>1164.7</ele>
        <time>2018-08-05T09:26:16.05Z</time>
      </trkpt>
      <trkpt lat="42.55938" lon="2.43119">
        <ele>1160.7</ele>
        <time>2018-08-05T09:26:22.05Z</time>
      </trkpt>
      <trkpt lat="42.55945" lon="2.4311">
        <ele>1157.2</ele>
        <time>2018-08-05T09:26:27.05Z</time>
      </trkpt>
      <trkpt lat="42.55953" lon="2.431">
        <ele>1153.6</ele>
        <time>2018-08-05T09:26:33.05Z</time>
      </trkpt>
      <trkpt lat="42.55957" lon="2.43087">
        <ele>1150.8</ele>
        <time>2018-08-05T09:26:40.05Z</time>
      </trkpt>
      <trkpt lat="42.55964" lon="2.43078">
        <ele>1147.3</ele>
        <time>2018-08-05T09:26:45.05Z</time>
      </trkpt>
      <trkpt lat="42.55968" lon="2.43069">
        <ele>1144.1</ele>
        <time>2018-08-05T09:26:49.05Z</time>
      </trkpt>
      <trkpt lat="42.55971" lon="2.43057">
        <ele>1140.4</ele>
        <time>2018-08-05T09:26:53.05Z</time>
      </trkpt>
      <trkpt lat="42.55977" lon="2.43045">
        <ele>1136.6</ele>
        <time>2018-08-05T09:26:59.05Z</time>
      </trkpt>
      <trkpt lat="42.55981" lon="2.43031">
        <ele>1132.8</ele>
        <time>2018-08-05T09:27:04.05Z</time>
      </trkpt>
      <trkpt lat="42.55987" lon="2.43022">
        <ele>1130.2</ele>
        <time>2018-08-05T09:27:08.05Z</time>
      </trkpt>
      <trkpt lat="42.55989" lon="2.43006">
        <ele>1126.6</ele>
        <time>2018-08-05T09:27:13.05Z</time>
      </trkpt>
      <trkpt lat="42.55991" lon="2.42993">
        <ele>1122.8</ele>
        <time>2018-08-05T09:27:16.05Z</time>
      </trkpt>
      <trkpt lat="42.55999" lon="2.43">
        <ele>1125</ele>
        <time>2018-08-05T09:27:22.05Z</time>
      </trkpt>
      <trkpt lat="42.5601" lon="2.43004">
        <ele>1122.4</ele>
        <time>2018-08-05T09:27:29.05Z</time>
      </trkpt>
      <trkpt lat="42.56018" lon="2.43014">
        <ele>1121.7</ele>
        <time>2018-08-05T09:27:34.05Z</time>
      </trkpt>
      <trkpt lat="42.56026" lon="2.43025">
        <ele>1121.2</ele>
        <time>2018-08-05T09:27:40.05Z</time>
      </trkpt>
      <trkpt lat="42.56035" lon="2.4303">
        <ele>1119.2</ele>
        <time>2018-08-05T09:27:49.05Z</time>
      </trkpt>
      <trkpt lat="42.56041" lon="2.43021">
        <ele>1115.4</ele>
        <time>2018-08-05T09:27:55.05Z</time>
      </trkpt>
      <trkpt lat="42.5604" lon="2.43008">
        <ele>1113.1</ele>
        <time>2018-08-05T09:28:00.05Z</time>
      </trkpt>
      <trkpt lat="42.56039" lon="2.42995">
        <ele>1110.3</ele>
        <time>2018-08-05T09:28:04.05Z</time>
      </trkpt>
      <trkpt lat="42.56039" lon="2.42982">
        <ele>1106</ele>
        <time>2018-08-05T09:28:07.05Z</time>
      </trkpt>
      <trkpt lat="42.56036" lon="2.42971">
        <ele>1103.4</ele>
        <time>2018-08-05T09:28:10.05Z</time>
      </trkpt>
      <trkpt lat="42.56032" lon="2.42957">
        <ele>1100.1</ele>
        <time>2018-08-05T09:28:14.05Z</time>
      </trkpt>
      <trkpt lat="42.5603" lon="2.42945">
        <ele>1096.7</ele>
        <time>2018-08-05T09:28:17.05Z</time>
      </trkpt>
      <trkpt lat="42.56028" lon="2.42933">
        <ele>1093.4</ele>
        <time>2018-08-05T09:28:20.05Z</time>
      </trkpt>
      <trkpt lat="42.56022" lon="2.42924">
        <ele>1092.1</ele>
        <time>2018-08-05T09:28:23.05Z</time>
      </trkpt>
      <trkpt lat="42.56016" lon="2.42919">
        <ele>1092.2</ele>
        <time>2018-08-05T09:28:26.05Z</time>
      </trkpt>
      <trkpt lat="42.56006" lon="2.42913">
        <ele>1093</ele>
        <time>2018-08-05T09:28:30.05Z</time>
      </trkpt>
      <trkpt lat="42.55996" lon="2.42907">
        <ele>1092.7</ele>
        <time>2018-08-05T09:28:34.05Z</time>
      </trkpt>
      <trkpt lat="42.55986" lon="2.429">
        <ele>1090.4</ele>
        <time>2018-08-05T09:28:38.05Z</time>
      </trkpt>
      <trkpt lat="42.55978" lon="2.42895">
        <ele>1088.8</ele>
        <time>2018-08-05T09:28:41.05Z</time>
      </trkpt>
      <trkpt lat="42.55969" lon="2.4289">
        <ele>1087.3</ele>
        <time>2018-08-05T09:28:44.05Z</time>
      </trkpt>
      <trkpt lat="42.55959" lon="2.42883">
        <ele>1085.3</ele>
        <time>2018-08-05T09:28:48.05Z</time>
      </trkpt>
      <trkpt lat="42.55947" lon="2.42876">
        <ele>1083.4</ele>
        <time>2018-08-05T09:28:52.05Z</time>
      </trkpt>
      <trkpt lat="42.55936" lon="2.42871">
        <ele>1082.2</ele>
        <time>2018-08-05T09:28:56.05Z</time>
      </trkpt>
      <trkpt lat="42.55925" lon="2.42868">
        <ele>1081.7</ele>
        <time>2018-08-05T09:29:00.05Z</time>
      </trkpt>
      <trkpt lat="42.55917" lon="2.42877">
        <ele>1084.6</ele>
        <time>2018-08-05T09:29:04.05Z</time>
      </trkpt>
      <trkpt lat="42.55909" lon="2.42889">
        <ele>1084.8</ele>
        <time>2018-08-05T09:29:08.05Z</time>
      </trkpt>
      <trkpt lat="42.55902" lon="2.42901">
        <ele>1085.3</ele>
        <time>2018-08-05T09:29:12.05Z</time>
      </trkpt>
      <trkpt lat="42.55894" lon="2.42914">
        <ele>1085.9</ele>
        <time>2018-08-05T09:29:16.05Z</time>
      </trkpt>
      <trkpt lat="42.55886" lon="2.42924">
        <ele>1086.5</ele>
        <time>2018-08-05T09:29:20.05Z</time>
      </trkpt>
      <trkpt lat="42.55876" lon="2.42933">
        <ele>1086.4</ele>
        <time>2018-08-05T09:29:24.05Z</time>
      </trkpt>
      <trkpt lat="42.55866" lon="2.42939">
        <ele>1085.3</ele>
        <time>2018-08-05T09:29:28.05Z</time>
      </trkpt>
      <trkpt lat="42.55855" lon="2.42945">
        <ele>1083.9</ele>
        <time>2018-08-05T09:29:32.05Z</time>
      </trkpt>
      <trkpt lat="42.55844" lon="2.42951">
        <ele>1082.7</ele>
        <time>2018-08-05T09:29:36.05Z</time>
      </trkpt>
      <trkpt lat="42.55835" lon="2.42955">
        <ele>1081.4</ele>
        <time>2018-08-05T09:29:39.05Z</time>
      </trkpt>
      <trkpt lat="42.55822" lon="2.42956">
        <ele>1079.3</ele>
        <time>2018-08-05T09:29:43.05Z</time>
      </trkpt>
      <trkpt lat="42.5581" lon="2.42953">
        <ele>1075.7</ele>
        <time>2018-08-05T09:29:47.05Z</time>
      </trkpt>
      <trkpt lat="42.558" lon="2.42953">
        <ele>1073.9</ele>
        <time>2018-08-05T09:29:51.05Z</time>
      </trkpt>
      <trkpt lat="42.55789" lon="2.4295">
        <ele>1070.6</ele>
        <time>2018-08-05T09:29:55.05Z</time>
      </trkpt>
      <trkpt lat="42.55777" lon="2.42952">
        <ele>1069.4</ele>
        <time>2018-08-05T09:29:59.05Z</time>
      </trkpt>
      <trkpt lat="42.55766" lon="2.42952">
        <ele>1067.4</ele>
        <time>2018-08-05T09:30:03.05Z</time>
      </trkpt>
      <trkpt lat="42.55754" lon="2.42955">
        <ele>1066.4</ele>
        <time>2018-08-05T09:30:07.05Z</time>
      </trkpt>
      <trkpt lat="42.55742" lon="2.42959">
        <ele>1067.3</ele>
        <time>2018-08-05T09:30:11.05Z</time>
      </trkpt>
      <trkpt lat="42.55731" lon="2.42965">
        <ele>1069.5</ele>
        <time>2018-08-05T09:30:15.05Z</time>
      </trkpt>
      <trkpt lat="42.55721" lon="2.42973">
        <ele>1072.4</ele>
        <time>2018-08-05T09:30:19.05Z</time>
      </trkpt>
      <trkpt lat="42.5571" lon="2.42979">
        <ele>1074.3</ele>
        <time>2018-08-05T09:30:24.05Z</time>
      </trkpt>
      <trkpt lat="42.55704" lon="2.42971">
        <ele>1071.6</ele>
        <time>2018-08-05T09:30:46.05Z</time>
      </trkpt>
      <trkpt lat="42.55693" lon="2.42967">
        <ele>1070.2</ele>
        <time>2018-08-05T09:31:08.05Z</time>
      </trkpt>
      <trkpt lat="42.55685" lon="2.42959">
        <ele>1067.6</ele>
        <time>2018-08-05T09:31:14.05Z</time>
      </trkpt>
      <trkpt lat="42.55677" lon="2.42947">
        <ele>1063.9</ele>
        <time>2018-08-05T09:31:20.05Z</time>
      </trkpt>
      <trkpt lat="42.55672" lon="2.42935">
        <ele>1060.3</ele>
        <time>2018-08-05T09:31:26.05Z</time>
      </trkpt>
      <trkpt lat="42.55668" lon="2.4292">
        <ele>1055.9</ele>
        <time>2018-08-05T09:31:31.05Z</time>
      </trkpt>
      <trkpt lat="42.55666" lon="2.42905">
        <ele>1051.4</ele>
        <time>2018-08-05T09:31:36.05Z</time>
      </trkpt>
      <trkpt lat="42.55666" lon="2.42891">
        <ele>1047.1</ele>
        <time>2018-08-05T09:31:42.05Z</time>
      </trkpt>
      <trkpt lat="42.55658" lon="2.42881">
        <ele>1045.3</ele>
        <time>2018-08-05T09:31:50.05Z</time>
      </trkpt>
      <trkpt lat="42.55656" lon="2.42867">
        <ele>1041.9</ele>
        <time>2018-08-05T09:31:59.05Z</time>
      </trkpt>
      <trkpt lat="42.55647" lon="2.42858">
        <ele>1041.9</ele>
        <time>2018-08-05T09:32:12.05Z</time>
      </trkpt>
      <trkpt lat="42.55638" lon="2.42862">
        <ele>1045.1</ele>
        <time>2018-08-05T09:32:20.05Z</time>
      </trkpt>
      <trkpt lat="42.55635" lon="2.42849">
        <ele>1043.5</ele>
        <time>2018-08-05T09:32:27.05Z</time>
      </trkpt>
      <trkpt lat="42.55631" lon="2.42835">
        <ele>1042.5</ele>
        <time>2018-08-05T09:32:33.05Z</time>
      </trkpt>
      <trkpt lat="42.55627" lon="2.42823">
        <ele>1045.4</ele>
        <time>2018-08-05T09:32:42.05Z</time>
      </trkpt>
      <trkpt lat="42.55635" lon="2.42813">
        <ele>1043.7</ele>
        <time>2018-08-05T09:32:49.05Z</time>
      </trkpt>
      <trkpt lat="42.55645" lon="2.42806">
        <ele>1040.4</ele>
        <time>2018-08-05T09:32:56.05Z</time>
      </trkpt>
      <trkpt lat="42.55652" lon="2.42796">
        <ele>1038.4</ele>
        <time>2018-08-05T09:33:03.05Z</time>
      </trkpt>
      <trkpt lat="42.55663" lon="2.42795">
        <ele>1033.4</ele>
        <time>2018-08-05T09:33:10.05Z</time>
      </trkpt>
      <trkpt lat="42.55673" lon="2.42794">
        <ele>1030.3</ele>
        <time>2018-08-05T09:33:17.05Z</time>
      </trkpt>
      <trkpt lat="42.55681" lon="2.42803">
        <ele>1028</ele>
        <time>2018-08-05T09:33:23.05Z</time>
      </trkpt>
      <trkpt lat="42.55691" lon="2.4281">
        <ele>1025.6</ele>
        <time>2018-08-05T09:33:30.05Z</time>
      </trkpt>
      <trkpt lat="42.55698" lon="2.4282">
        <ele>1024</ele>
        <time>2018-08-05T09:33:39.05Z</time>
      </trkpt>
      <trkpt lat="42.55704" lon="2.42808">
        <ele>1022.9</ele>
        <time>2018-08-05T09:34:01.05Z</time>
      </trkpt>
      <trkpt lat="42.55711" lon="2.42798">
        <ele>1021.4</ele>
        <time>2018-08-05T09:34:31.05Z</time>
      </trkpt>
      <trkpt lat="42.5572" lon="2.42792">
        <ele>1019.2</ele>
        <time>2018-08-05T09:35:01.05Z</time>
      </trkpt>
      <trkpt lat="42.55726" lon="2.42782">
        <ele>1017.5</ele>
        <time>2018-08-05T09:35:09.05Z</time>
      </trkpt>
      <trkpt lat="42.55728" lon="2.42765">
        <ele>1016.4</ele>
        <time>2018-08-05T09:35:15.05Z</time>
      </trkpt>
      <trkpt lat="42.55737" lon="2.42755">
        <ele>1013.3</ele>
        <time>2018-08-05T09:35:19.05Z</time>
      </trkpt>
      <trkpt lat="42.55746" lon="2.42744">
        <ele>1010.5</ele>
        <time>2018-08-05T09:35:24.05Z</time>
      </trkpt>
      <trkpt lat="42.55755" lon="2.42734">
        <ele>1009</ele>
        <time>2018-08-05T09:35:29.05Z</time>
      </trkpt>
      <trkpt lat="42.55758" lon="2.42718">
        <ele>1008.9</ele>
        <time>2018-08-05T09:35:35.05Z</time>
      </trkpt>
      <trkpt lat="42.55761" lon="2.42705">
        <ele>1008.5</ele>
        <time>2018-08-05T09:35:39.05Z</time>
      </trkpt>
      <trkpt lat="42.55761" lon="2.42689">
        <ele>1008.6</ele>
        <time>2018-08-05T09:35:43.05Z</time>
      </trkpt>
      <trkpt lat="42.55762" lon="2.42675">
        <ele>1008.4</ele>
        <time>2018-08-05T09:35:46.05Z</time>
      </trkpt>
      <trkpt lat="42.55763" lon="2.42659">
        <ele>1007.2</ele>
        <time>2018-08-05T09:35:50.05Z</time>
      </trkpt>
      <trkpt lat="42.55755" lon="2.42648">
        <ele>1008.4</ele>
        <time>2018-08-05T09:35:55.05Z</time>
      </trkpt>
      <trkpt lat="42.55744" lon="2.4264">
        <ele>1011.1</ele>
        <time>2018-08-05T09:36:02.05Z</time>
      </trkpt>
      <trkpt lat="42.55738" lon="2.42629">
        <ele>1012.1</ele>
        <time>2018-08-05T09:36:05.05Z</time>
      </trkpt>
      <trkpt lat="42.55732" lon="2.42612">
        <ele>1012.8</ele>
        <time>2018-08-05T09:36:09.05Z</time>
      </trkpt>
      <trkpt lat="42.55734" lon="2.42598">
        <ele>1010.8</ele>
        <time>2018-08-05T09:36:12.05Z</time>
      </trkpt>
      <trkpt lat="42.55738" lon="2.42584">
        <ele>1008</ele>
        <time>2018-08-05T09:36:18.05Z</time>
      </trkpt>
      <trkpt lat="42.55737" lon="2.42569">
        <ele>1008.7</ele>
        <time>2018-08-05T09:36:24.05Z</time>
      </trkpt>
      <trkpt lat="42.55739" lon="2.42556">
        <ele>1008.3</ele>
        <time>2018-08-05T09:36:29.05Z</time>
      </trkpt>
      <trkpt lat="42.55742" lon="2.42542">
        <ele>1007.6</ele>
        <time>2018-08-05T09:36:33.05Z</time>
      </trkpt>
      <trkpt lat="42.55746" lon="2.42528">
        <ele>1006.5</ele>
        <time>2018-08-05T09:36:37.05Z</time>
      </trkpt>
      <trkpt lat="42.5575" lon="2.42515">
        <ele>1005.5</ele>
        <time>2018-08-05T09:36:43.05Z</time>
      </trkpt>
      <trkpt lat="42.55752" lon="2.42501">
        <ele>1005</ele>
        <time>2018-08-05T09:36:50.05Z</time>
      </trkpt>
      <trkpt lat="42.55755" lon="2.42488">
        <ele>1003.2</ele>
        <time>2018-08-05T09:36:55.05Z</time>
      </trkpt>
      <trkpt lat="42.55758" lon="2.42474">
        <ele>1001.5</ele>
        <time>2018-08-05T09:36:59.05Z</time>
      </trkpt>
      <trkpt lat="42.55764" lon="2.4246">
        <ele>998.4</ele>
        <time>2018-08-05T09:37:04.05Z</time>
      </trkpt>
      <trkpt lat="42.55768" lon="2.42447">
        <ele>996.3</ele>
        <time>2018-08-05T09:37:08.05Z</time>
      </trkpt>
      <trkpt lat="42.55771" lon="2.42432">
        <ele>994.8</ele>
        <time>2018-08-05T09:37:12.05Z</time>
      </trkpt>
      <trkpt lat="42.5577" lon="2.42419">
        <ele>995.1</ele>
        <time>2018-08-05T09:37:16.05Z</time>
      </trkpt>
      <trkpt lat="42.55768" lon="2.42406">
        <ele>994.3</ele>
        <time>2018-08-05T09:37:20.05Z</time>
      </trkpt>
      <trkpt lat="42.55766" lon="2.42391">
        <ele>992.8</ele>
        <time>2018-08-05T09:37:24.05Z</time>
      </trkpt>
      <trkpt lat="42.55763" lon="2.42374">
        <ele>991.4</ele>
        <time>2018-08-05T09:37:29.05Z</time>
      </trkpt>
      <trkpt lat="42.55761" lon="2.4236">
        <ele>990</ele>
        <time>2018-08-05T09:37:32.05Z</time>
      </trkpt>
      <trkpt lat="42.55761" lon="2.42347">
        <ele>987.9</ele>
        <time>2018-08-05T09:37:37.05Z</time>
      </trkpt>
      <trkpt lat="42.55768" lon="2.42339">
        <ele>983.8</ele>
        <time>2018-08-05T09:37:41.05Z</time>
      </trkpt>
      <trkpt lat="42.55776" lon="2.42329">
        <ele>979.2</ele>
        <time>2018-08-05T09:37:46.05Z</time>
      </trkpt>
      <trkpt lat="42.55768" lon="2.42321">
        <ele>981.5</ele>
        <time>2018-08-05T09:37:55.05Z</time>
      </trkpt>
      <trkpt lat="42.55756" lon="2.42319">
        <ele>986</ele>
        <time>2018-08-05T09:37:59.05Z</time>
      </trkpt>
      <trkpt lat="42.55747" lon="2.42316">
        <ele>988.9</ele>
        <time>2018-08-05T09:38:02.05Z</time>
      </trkpt>
      <trkpt lat="42.55737" lon="2.42307">
        <ele>991.2</ele>
        <time>2018-08-05T09:38:07.05Z</time>
      </trkpt>
      <trkpt lat="42.5573" lon="2.423">
        <ele>992.7</ele>
        <time>2018-08-05T09:38:10.05Z</time>
      </trkpt>
      <trkpt lat="42.55725" lon="2.42288">
        <ele>993</ele>
        <time>2018-08-05T09:38:16.05Z</time>
      </trkpt>
      <trkpt lat="42.55727" lon="2.42273">
        <ele>990.6</ele>
        <time>2018-08-05T09:38:20.05Z</time>
      </trkpt>
      <trkpt lat="42.55731" lon="2.4226">
        <ele>987.8</ele>
        <time>2018-08-05T09:38:24.05Z</time>
      </trkpt>
      <trkpt lat="42.55734" lon="2.42247">
        <ele>984.9</ele>
        <time>2018-08-05T09:38:28.05Z</time>
      </trkpt>
      <trkpt lat="42.55735" lon="2.42232">
        <ele>981.4</ele>
        <time>2018-08-05T09:38:32.05Z</time>
      </trkpt>
      <trkpt lat="42.55733" lon="2.42219">
        <ele>979.1</ele>
        <time>2018-08-05T09:38:35.05Z</time>
      </trkpt>
      <trkpt lat="42.5573" lon="2.42205">
        <ele>976.8</ele>
        <time>2018-08-05T09:38:38.05Z</time>
      </trkpt>
      <trkpt lat="42.55727" lon="2.42192">
        <ele>974.5</ele>
        <time>2018-08-05T09:38:42.05Z</time>
      </trkpt>
      <trkpt lat="42.55724" lon="2.4218">
        <ele>972.3</ele>
        <time>2018-08-05T09:38:45.05Z</time>
      </trkpt>
      <trkpt lat="42.55719" lon="2.42172">
        <ele>971.2</ele>
        <time>2018-08-05T09:38:48.05Z</time>
      </trkpt>
      <trkpt lat="42.55711" lon="2.42166">
        <ele>970.9</ele>
        <time>2018-08-05T09:38:51.05Z</time>
      </trkpt>
      <trkpt lat="42.55703" lon="2.4216">
        <ele>970.5</ele>
        <time>2018-08-05T09:38:55.05Z</time>
      </trkpt>
      <trkpt lat="42.55693" lon="2.42156">
        <ele>970.8</ele>
        <time>2018-08-05T09:38:59.05Z</time>
      </trkpt>
      <trkpt lat="42.55682" lon="2.4215">
        <ele>970.7</ele>
        <time>2018-08-05T09:39:03.05Z</time>
      </trkpt>
      <trkpt lat="42.55675" lon="2.42142">
        <ele>969.2</ele>
        <time>2018-08-05T09:39:07.05Z</time>
      </trkpt>
      <trkpt lat="42.55666" lon="2.4213">
        <ele>966.9</ele>
        <time>2018-08-05T09:39:11.05Z</time>
      </trkpt>
      <trkpt lat="42.55656" lon="2.4212">
        <ele>968.7</ele>
        <time>2018-08-05T09:39:15.05Z</time>
      </trkpt>
      <trkpt lat="42.55646" lon="2.42109">
        <ele>970.4</ele>
        <time>2018-08-05T09:39:19.05Z</time>
      </trkpt>
      <trkpt lat="42.55637" lon="2.42104">
        <ele>973.5</ele>
        <time>2018-08-05T09:39:23.05Z</time>
      </trkpt>
      <trkpt lat="42.55641" lon="2.4209">
        <ele>967.5</ele>
        <time>2018-08-05T09:39:34.05Z</time>
      </trkpt>
      <trkpt lat="42.5564" lon="2.42074">
        <ele>964.6</ele>
        <time>2018-08-05T09:39:40.05Z</time>
      </trkpt>
      <trkpt lat="42.55639" lon="2.42057">
        <ele>962.3</ele>
        <time>2018-08-05T09:39:46.05Z</time>
      </trkpt>
      <trkpt lat="42.55637" lon="2.42042">
        <ele>960.8</ele>
        <time>2018-08-05T09:39:50.05Z</time>
      </trkpt>
      <trkpt lat="42.55629" lon="2.42033">
        <ele>962.8</ele>
        <time>2018-08-05T09:39:55.05Z</time>
      </trkpt>
      <trkpt lat="42.55623" lon="2.42022">
        <ele>963.5</ele>
        <time>2018-08-05T09:39:59.05Z</time>
      </trkpt>
      <trkpt lat="42.55622" lon="2.42005">
        <ele>960.6</ele>
        <time>2018-08-05T09:40:03.05Z</time>
      </trkpt>
      <trkpt lat="42.55624" lon="2.41991">
        <ele>956.9</ele>
        <time>2018-08-05T09:40:07.05Z</time>
      </trkpt>
      <trkpt lat="42.55625" lon="2.41974">
        <ele>952.9</ele>
        <time>2018-08-05T09:40:11.05Z</time>
      </trkpt>
      <trkpt lat="42.55625" lon="2.41958">
        <ele>949.4</ele>
        <time>2018-08-05T09:40:14.05Z</time>
      </trkpt>
      <trkpt lat="42.55625" lon="2.41942">
        <ele>946</ele>
        <time>2018-08-05T09:40:18.05Z</time>
      </trkpt>
      <trkpt lat="42.55623" lon="2.41931">
        <ele>944.1</ele>
        <time>2018-08-05T09:40:22.05Z</time>
      </trkpt>
      <trkpt lat="42.5562" lon="2.41919">
        <ele>942.2</ele>
        <time>2018-08-05T09:40:26.05Z</time>
      </trkpt>
      <trkpt lat="42.55616" lon="2.41908">
        <ele>940</ele>
        <time>2018-08-05T09:40:31.05Z</time>
      </trkpt>
      <trkpt lat="42.55608" lon="2.419">
        <ele>939.4</ele>
        <time>2018-08-05T09:40:35.05Z</time>
      </trkpt>
      <trkpt lat="42.556" lon="2.41891">
        <ele>938.5</ele>
        <time>2018-08-05T09:40:39.05Z</time>
      </trkpt>
      <trkpt lat="42.55589" lon="2.41886">
        <ele>939.5</ele>
        <time>2018-08-05T09:40:43.05Z</time>
      </trkpt>
      <trkpt lat="42.55581" lon="2.41876">
        <ele>938.6</ele>
        <time>2018-08-05T09:40:47.05Z</time>
      </trkpt>
      <trkpt lat="42.55571" lon="2.41876">
        <ele>942</ele>
        <time>2018-08-05T09:40:53.05Z</time>
      </trkpt>
      <trkpt lat="42.55562" lon="2.41867">
        <ele>942.2</ele>
        <time>2018-08-05T09:40:57.05Z</time>
      </trkpt>
      <trkpt lat="42.5556" lon="2.41852">
        <ele>938.1</ele>
        <time>2018-08-05T09:41:01.05Z</time>
      </trkpt>
      <trkpt lat="42.55558" lon="2.41837">
        <ele>934.1</ele>
        <time>2018-08-05T09:41:05.05Z</time>
      </trkpt>
      <trkpt lat="42.55558" lon="2.41823">
        <ele>930.1</ele>
        <time>2018-08-05T09:41:09.05Z</time>
      </trkpt>
      <trkpt lat="42.55556" lon="2.41807">
        <ele>926.3</ele>
        <time>2018-08-05T09:41:16.05Z</time>
      </trkpt>
      <trkpt lat="42.55555" lon="2.41792">
        <ele>922.4</ele>
        <time>2018-08-05T09:41:20.05Z</time>
      </trkpt>
      <trkpt lat="42.55549" lon="2.41779">
        <ele>920.4</ele>
        <time>2018-08-05T09:41:25.05Z</time>
      </trkpt>
      <trkpt lat="42.55548" lon="2.41763">
        <ele>916.2</ele>
        <time>2018-08-05T09:41:29.05Z</time>
      </trkpt>
      <trkpt lat="42.55545" lon="2.41749">
        <ele>913</ele>
        <time>2018-08-05T09:41:33.05Z</time>
      </trkpt>
      <trkpt lat="42.55541" lon="2.41736">
        <ele>911.3</ele>
        <time>2018-08-05T09:41:40.05Z</time>
      </trkpt>
      <trkpt lat="42.55536" lon="2.41723">
        <ele>910</ele>
        <time>2018-08-05T09:41:44.05Z</time>
      </trkpt>
      <trkpt lat="42.5553" lon="2.41712">
        <ele>909.6</ele>
        <time>2018-08-05T09:41:48.05Z</time>
      </trkpt>
      <trkpt lat="42.55524" lon="2.41698">
        <ele>908.7</ele>
        <time>2018-08-05T09:41:52.05Z</time>
      </trkpt>
      <trkpt lat="42.55514" lon="2.4169">
        <ele>910.3</ele>
        <time>2018-08-05T09:41:57.05Z</time>
      </trkpt>
      <trkpt lat="42.55513" lon="2.41675">
        <ele>908.1</ele>
        <time>2018-08-05T09:42:03.05Z</time>
      </trkpt>
      <trkpt lat="42.55514" lon="2.41661">
        <ele>905.7</ele>
        <time>2018-08-05T09:42:09.05Z</time>
      </trkpt>
      <trkpt lat="42.55514" lon="2.41648">
        <ele>904.3</ele>
        <time>2018-08-05T09:42:14.05Z</time>
      </trkpt>
      <trkpt lat="42.55518" lon="2.41637">
        <ele>901.7</ele>
        <time>2018-08-05T09:42:17.05Z</time>
      </trkpt>
      <trkpt lat="42.55518" lon="2.41623">
        <ele>900.2</ele>
        <time>2018-08-05T09:42:22.05Z</time>
      </trkpt>
      <trkpt lat="42.5551" lon="2.41613">
        <ele>901.8</ele>
        <time>2018-08-05T09:42:27.05Z</time>
      </trkpt>
      <trkpt lat="42.55502" lon="2.41604">
        <ele>903.6</ele>
        <time>2018-08-05T09:42:33.05Z</time>
      </trkpt>
      <trkpt lat="42.55494" lon="2.41594">
        <ele>904.9</ele>
        <time>2018-08-05T09:42:39.05Z</time>
      </trkpt>
      <trkpt lat="42.55487" lon="2.4159">
        <ele>906.4</ele>
        <time>2018-08-05T09:42:44.05Z</time>
      </trkpt>
      <trkpt lat="42.55478" lon="2.41585">
        <ele>908.3</ele>
        <time>2018-08-05T09:42:49.05Z</time>
      </trkpt>
      <trkpt lat="42.5547" lon="2.41577">
        <ele>909.1</ele>
        <time>2018-08-05T09:42:56.05Z</time>
      </trkpt>
      <trkpt lat="42.55463" lon="2.41572">
        <ele>910.1</ele>
        <time>2018-08-05T09:43:01.05Z</time>
      </trkpt>
      <trkpt lat="42.55455" lon="2.41565">
        <ele>911</ele>
        <time>2018-08-05T09:43:06.05Z</time>
      </trkpt>
      <trkpt lat="42.5545" lon="2.41557">
        <ele>911</ele>
        <time>2018-08-05T09:43:09.05Z</time>
      </trkpt>
      <trkpt lat="42.55444" lon="2.41553">
        <ele>912</ele>
        <time>2018-08-05T09:43:12.05Z</time>
      </trkpt>
      <trkpt lat="42.55437" lon="2.41551">
        <ele>913.7</ele>
        <time>2018-08-05T09:43:16.05Z</time>
      </trkpt>
      <trkpt lat="42.55428" lon="2.41545">
        <ele>915.2</ele>
        <time>2018-08-05T09:43:23.05Z</time>
      </trkpt>
      <trkpt lat="42.55421" lon="2.41533">
        <ele>915.3</ele>
        <time>2018-08-05T09:43:29.05Z</time>
      </trkpt>
      <trkpt lat="42.55419" lon="2.4152">
        <ele>913.7</ele>
        <time>2018-08-05T09:43:35.05Z</time>
      </trkpt>
      <trkpt lat="42.55414" lon="2.41505">
        <ele>913.2</ele>
        <time>2018-08-05T09:43:42.05Z</time>
      </trkpt>
      <trkpt lat="42.55409" lon="2.41493">
        <ele>913.9</ele>
        <time>2018-08-05T09:43:48.05Z</time>
      </trkpt>
      <trkpt lat="42.55404" lon="2.41479">
        <ele>914.4</ele>
        <time>2018-08-05T09:43:54.05Z</time>
      </trkpt>
      <trkpt lat="42.55399" lon="2.41466">
        <ele>915</ele>
        <time>2018-08-05T09:43:59.05Z</time>
      </trkpt>
      <trkpt lat="42.55395" lon="2.41451">
        <ele>914.7</ele>
        <time>2018-08-05T09:44:04.05Z</time>
      </trkpt>
      <trkpt lat="42.55391" lon="2.41437">
        <ele>914.5</ele>
        <time>2018-08-05T09:44:09.05Z</time>
      </trkpt>
      <trkpt lat="42.55384" lon="2.41427">
        <ele>916.3</ele>
        <time>2018-08-05T09:44:13.05Z</time>
      </trkpt>
      <trkpt lat="42.5538" lon="2.41414">
        <ele>916.2</ele>
        <time>2018-08-05T09:44:18.05Z</time>
      </trkpt>
      <trkpt lat="42.55377" lon="2.414">
        <ele>915.6</ele>
        <time>2018-08-05T09:44:22.05Z</time>
      </trkpt>
      <trkpt lat="42.55374" lon="2.41385">
        <ele>914.7</ele>
        <time>2018-08-05T09:44:26.05Z</time>
      </trkpt>
      <trkpt lat="42.55371" lon="2.41371">
        <ele>913.9</ele>
        <time>2018-08-05T09:44:30.05Z</time>
      </trkpt>
      <trkpt lat="42.55369" lon="2.41357">
        <ele>912.7</ele>
        <time>2018-08-05T09:44:33.05Z</time>
      </trkpt>
      <trkpt lat="42.55366" lon="2.41341">
        <ele>911.5</ele>
        <time>2018-08-05T09:44:37.05Z</time>
      </trkpt>
      <trkpt lat="42.55365" lon="2.41327">
        <ele>910</ele>
        <time>2018-08-05T09:44:41.05Z</time>
      </trkpt>
      <trkpt lat="42.55363" lon="2.41311">
        <ele>909</ele>
        <time>2018-08-05T09:44:45.05Z</time>
      </trkpt>
      <trkpt lat="42.55359" lon="2.41298">
        <ele>908.7</ele>
        <time>2018-08-05T09:44:49.05Z</time>
      </trkpt>
      <trkpt lat="42.55354" lon="2.41285">
        <ele>908.2</ele>
        <time>2018-08-05T09:44:54.05Z</time>
      </trkpt>
      <trkpt lat="42.55351" lon="2.41272">
        <ele>906.8</ele>
        <time>2018-08-05T09:44:58.05Z</time>
      </trkpt>
      <trkpt lat="42.55353" lon="2.41258">
        <ele>904.3</ele>
        <time>2018-08-05T09:45:01.05Z</time>
      </trkpt>
      <trkpt lat="42.55358" lon="2.41243">
        <ele>902.4</ele>
        <time>2018-08-05T09:45:04.05Z</time>
      </trkpt>
      <trkpt lat="42.5536" lon="2.41233">
        <ele>902</ele>
        <time>2018-08-05T09:45:07.05Z</time>
      </trkpt>
      <trkpt lat="42.5535" lon="2.41228">
        <ele>902.1</ele>
        <time>2018-08-05T09:45:12.05Z</time>
      </trkpt>
      <trkpt lat="42.5534" lon="2.41228">
        <ele>902.4</ele>
        <time>2018-08-05T09:45:15.05Z</time>
      </trkpt>
      <trkpt lat="42.55333" lon="2.41217">
        <ele>901.5</ele>
        <time>2018-08-05T09:45:19.05Z</time>
      </trkpt>
      <trkpt lat="42.55331" lon="2.41204">
        <ele>900.3</ele>
        <time>2018-08-05T09:45:22.05Z</time>
      </trkpt>
      <trkpt lat="42.55329" lon="2.4119">
        <ele>898.8</ele>
        <time>2018-08-05T09:45:25.05Z</time>
      </trkpt>
      <trkpt lat="42.55326" lon="2.41176">
        <ele>897.1</ele>
        <time>2018-08-05T09:45:29.05Z</time>
      </trkpt>
      <trkpt lat="42.55324" lon="2.4116">
        <ele>895.5</ele>
        <time>2018-08-05T09:45:33.05Z</time>
      </trkpt>
      <trkpt lat="42.55323" lon="2.41145">
        <ele>894.5</ele>
        <time>2018-08-05T09:45:37.05Z</time>
      </trkpt>
      <trkpt lat="42.55319" lon="2.4113">
        <ele>893.1</ele>
        <time>2018-08-05T09:45:43.05Z</time>
      </trkpt>
      <trkpt lat="42.55312" lon="2.4112">
        <ele>891.3</ele>
        <time>2018-08-05T09:45:49.05Z</time>
      </trkpt>
      <trkpt lat="42.55305" lon="2.41108">
        <ele>889</ele>
        <time>2018-08-05T09:45:55.05Z</time>
      </trkpt>
      <trkpt lat="42.55297" lon="2.41097">
        <ele>886.1</ele>
        <time>2018-08-05T09:46:01.05Z</time>
      </trkpt>
      <trkpt lat="42.55292" lon="2.41084">
        <ele>883.2</ele>
        <time>2018-08-05T09:46:06.05Z</time>
      </trkpt>
      <trkpt lat="42.55283" lon="2.41076">
        <ele>880.4</ele>
        <time>2018-08-05T09:46:10.05Z</time>
      </trkpt>
      <trkpt lat="42.55276" lon="2.41066">
        <ele>877.9</ele>
        <time>2018-08-05T09:46:14.05Z</time>
      </trkpt>
      <trkpt lat="42.5527" lon="2.41051">
        <ele>874.8</ele>
        <time>2018-08-05T09:46:19.05Z</time>
      </trkpt>
      <trkpt lat="42.55265" lon="2.41037">
        <ele>871.9</ele>
        <time>2018-08-05T09:46:24.05Z</time>
      </trkpt>
      <trkpt lat="42.55258" lon="2.41024">
        <ele>868</ele>
        <time>2018-08-05T09:46:29.05Z</time>
      </trkpt>
      <trkpt lat="42.55249" lon="2.41016">
        <ele>864</ele>
        <time>2018-08-05T09:46:33.05Z</time>
      </trkpt>
      <trkpt lat="42.55238" lon="2.41011">
        <ele>862.1</ele>
        <time>2018-08-05T09:46:38.05Z</time>
      </trkpt>
      <trkpt lat="42.55228" lon="2.41004">
        <ele>859.8</ele>
        <time>2018-08-05T09:46:42.05Z</time>
      </trkpt>
      <trkpt lat="42.55224" lon="2.4099">
        <ele>858</ele>
        <time>2018-08-05T09:46:46.05Z</time>
      </trkpt>
      <trkpt lat="42.55217" lon="2.40976">
        <ele>856</ele>
        <time>2018-08-05T09:46:51.05Z</time>
      </trkpt>
      <trkpt lat="42.55211" lon="2.40962">
        <ele>853.9</ele>
        <time>2018-08-05T09:46:57.05Z</time>
      </trkpt>
      <trkpt lat="42.55206" lon="2.40948">
        <ele>851.6</ele>
        <time>2018-08-05T09:47:01.05Z</time>
      </trkpt>
      <trkpt lat="42.55197" lon="2.40936">
        <ele>848.2</ele>
        <time>2018-08-05T09:47:06.05Z</time>
      </trkpt>
      <trkpt lat="42.55197" lon="2.40921">
        <ele>846.6</ele>
        <time>2018-08-05T09:47:09.05Z</time>
      </trkpt>
      <trkpt lat="42.55198" lon="2.40906">
        <ele>845.2</ele>
        <time>2018-08-05T09:47:12.05Z</time>
      </trkpt>
      <trkpt lat="42.55198" lon="2.40891">
        <ele>843.6</ele>
        <time>2018-08-05T09:47:15.05Z</time>
      </trkpt>
      <trkpt lat="42.55199" lon="2.40877">
        <ele>842.3</ele>
        <time>2018-08-05T09:47:19.05Z</time>
      </trkpt>
      <trkpt lat="42.55197" lon="2.40863">
        <ele>840.1</ele>
        <time>2018-08-05T09:47:23.05Z</time>
      </trkpt>
      <trkpt lat="42.55193" lon="2.40846">
        <ele>837</ele>
        <time>2018-08-05T09:47:28.05Z</time>
      </trkpt>
      <trkpt lat="42.55187" lon="2.40836">
        <ele>833.9</ele>
        <time>2018-08-05T09:47:32.05Z</time>
      </trkpt>
      <trkpt lat="42.55179" lon="2.40828">
        <ele>830.9</ele>
        <time>2018-08-05T09:47:37.05Z</time>
      </trkpt>
      <trkpt lat="42.55173" lon="2.40814">
        <ele>828.6</ele>
        <time>2018-08-05T09:47:41.05Z</time>
      </trkpt>
      <trkpt lat="42.55172" lon="2.40799">
        <ele>827.9</ele>
        <time>2018-08-05T09:47:44.05Z</time>
      </trkpt>
      <trkpt lat="42.55171" lon="2.40783">
        <ele>827.2</ele>
        <time>2018-08-05T09:47:48.05Z</time>
      </trkpt>
      <trkpt lat="42.55169" lon="2.40769">
        <ele>826.2</ele>
        <time>2018-08-05T09:47:52.05Z</time>
      </trkpt>
      <trkpt lat="42.55161" lon="2.4076">
        <ele>825.2</ele>
        <time>2018-08-05T09:47:56.05Z</time>
      </trkpt>
      <trkpt lat="42.5515" lon="2.40757">
        <ele>825</ele>
        <time>2018-08-05T09:48:01.05Z</time>
      </trkpt>
      <trkpt lat="42.55144" lon="2.40742">
        <ele>824.8</ele>
        <time>2018-08-05T09:48:06.05Z</time>
      </trkpt>
      <trkpt lat="42.5514" lon="2.40728">
        <ele>824.6</ele>
        <time>2018-08-05T09:48:10.05Z</time>
      </trkpt>
      <trkpt lat="42.55141" lon="2.4071">
        <ele>824.7</ele>
        <time>2018-08-05T09:48:13.05Z</time>
      </trkpt>
      <trkpt lat="42.55139" lon="2.40695">
        <ele>824.5</ele>
        <time>2018-08-05T09:48:16.05Z</time>
      </trkpt>
      <trkpt lat="42.5513" lon="2.4069">
        <ele>823.3</ele>
        <time>2018-08-05T09:48:21.05Z</time>
      </trkpt>
      <trkpt lat="42.55124" lon="2.40676">
        <ele>822.1</ele>
        <time>2018-08-05T09:48:31.05Z</time>
      </trkpt>
      <trkpt lat="42.55123" lon="2.40663">
        <ele>821.3</ele>
        <time>2018-08-05T09:48:35.05Z</time>
      </trkpt>
      <trkpt lat="42.55118" lon="2.40648">
        <ele>819.1</ele>
        <time>2018-08-05T09:48:40.05Z</time>
      </trkpt>
      <trkpt lat="42.55112" lon="2.40637">
        <ele>817</ele>
        <time>2018-08-05T09:48:44.05Z</time>
      </trkpt>
      <trkpt lat="42.55103" lon="2.40626">
        <ele>814.1</ele>
        <time>2018-08-05T09:48:48.05Z</time>
      </trkpt>
      <trkpt lat="42.55096" lon="2.40616">
        <ele>811.6</ele>
        <time>2018-08-05T09:48:52.05Z</time>
      </trkpt>
      <trkpt lat="42.5509" lon="2.40604">
        <ele>809</ele>
        <time>2018-08-05T09:48:56.05Z</time>
      </trkpt>
      <trkpt lat="42.5508" lon="2.40593">
        <ele>806.2</ele>
        <time>2018-08-05T09:49:00.05Z</time>
      </trkpt>
      <trkpt lat="42.5507" lon="2.40585">
        <ele>805.2</ele>
        <time>2018-08-05T09:49:04.05Z</time>
      </trkpt>
      <trkpt lat="42.55062" lon="2.40577">
        <ele>804.2</ele>
        <time>2018-08-05T09:49:08.05Z</time>
      </trkpt>
      <trkpt lat="42.55052" lon="2.40569">
        <ele>803.4</ele>
        <time>2018-08-05T09:49:12.05Z</time>
      </trkpt>
      <trkpt lat="42.55041" lon="2.40561">
        <ele>802.6</ele>
        <time>2018-08-05T09:49:16.05Z</time>
      </trkpt>
      <trkpt lat="42.55031" lon="2.40557">
        <ele>802.3</ele>
        <time>2018-08-05T09:49:20.05Z</time>
      </trkpt>
      <trkpt lat="42.55019" lon="2.40553">
        <ele>802.1</ele>
        <time>2018-08-05T09:49:24.05Z</time>
      </trkpt>
      <trkpt lat="42.55008" lon="2.40545">
        <ele>801.6</ele>
        <time>2018-08-05T09:49:28.05Z</time>
      </trkpt>
      <trkpt lat="42.54999" lon="2.40538">
        <ele>801.3</ele>
        <time>2018-08-05T09:49:32.05Z</time>
      </trkpt>
      <trkpt lat="42.54989" lon="2.40533">
        <ele>802.4</ele>
        <time>2018-08-05T09:49:36.05Z</time>
      </trkpt>
      <trkpt lat="42.54977" lon="2.40538">
        <ele>804.5</ele>
        <time>2018-08-05T09:49:42.05Z</time>
      </trkpt>
      <trkpt lat="42.54966" lon="2.40533">
        <ele>805.8</ele>
        <time>2018-08-05T09:49:47.05Z</time>
      </trkpt>
      <trkpt lat="42.54964" lon="2.40519">
        <ele>805.4</ele>
        <time>2018-08-05T09:49:53.05Z</time>
      </trkpt>
      <trkpt lat="42.54961" lon="2.40506">
        <ele>805.3</ele>
        <time>2018-08-05T09:50:00.05Z</time>
      </trkpt>
      <trkpt lat="42.54952" lon="2.40496">
        <ele>806.7</ele>
        <time>2018-08-05T09:50:05.05Z</time>
      </trkpt>
      <trkpt lat="42.5495" lon="2.40481">
        <ele>807.3</ele>
        <time>2018-08-05T09:50:10.05Z</time>
      </trkpt>
      <trkpt lat="42.54952" lon="2.40467">
        <ele>807</ele>
        <time>2018-08-05T09:50:16.05Z</time>
      </trkpt>
      <trkpt lat="42.54952" lon="2.40453">
        <ele>807.1</ele>
        <time>2018-08-05T09:50:23.05Z</time>
      </trkpt>
      <trkpt lat="42.54953" lon="2.40439">
        <ele>806.9</ele>
        <time>2018-08-05T09:50:28.05Z</time>
      </trkpt>
      <trkpt lat="42.54954" lon="2.40423">
        <ele>806.6</ele>
        <time>2018-08-05T09:50:32.05Z</time>
      </trkpt>
      <trkpt lat="42.54959" lon="2.40407">
        <ele>804.2</ele>
        <time>2018-08-05T09:50:36.05Z</time>
      </trkpt>
      <trkpt lat="42.54965" lon="2.40392">
        <ele>801</ele>
        <time>2018-08-05T09:50:40.05Z</time>
      </trkpt>
      <trkpt lat="42.54973" lon="2.40384">
        <ele>797.5</ele>
        <time>2018-08-05T09:50:43.05Z</time>
      </trkpt>
      <trkpt lat="42.54981" lon="2.40375">
        <ele>794.1</ele>
        <time>2018-08-05T09:50:46.05Z</time>
      </trkpt>
      <trkpt lat="42.54992" lon="2.40363">
        <ele>789.4</ele>
        <time>2018-08-05T09:50:50.05Z</time>
      </trkpt>
      <trkpt lat="42.54999" lon="2.4035">
        <ele>786.2</ele>
        <time>2018-08-05T09:50:54.05Z</time>
      </trkpt>
      <trkpt lat="42.55006" lon="2.4034">
        <ele>784.4</ele>
        <time>2018-08-05T09:50:58.05Z</time>
      </trkpt>
      <trkpt lat="42.55015" lon="2.40329">
        <ele>782.2</ele>
        <time>2018-08-05T09:51:03.05Z</time>
      </trkpt>
      <trkpt lat="42.55027" lon="2.40321">
        <ele>779.6</ele>
        <time>2018-08-05T09:51:07.05Z</time>
      </trkpt>
      <trkpt lat="42.55034" lon="2.40312">
        <ele>777.5</ele>
        <time>2018-08-05T09:51:10.05Z</time>
      </trkpt>
      <trkpt lat="42.5504" lon="2.40296">
        <ele>775</ele>
        <time>2018-08-05T09:51:14.05Z</time>
      </trkpt>
      <trkpt lat="42.5504" lon="2.4028">
        <ele>773.3</ele>
        <time>2018-08-05T09:51:17.05Z</time>
      </trkpt>
      <trkpt lat="42.55044" lon="2.40264">
        <ele>771</ele>
        <time>2018-08-05T09:51:21.05Z</time>
      </trkpt>
      <trkpt lat="42.5505" lon="2.40249">
        <ele>768.5</ele>
        <time>2018-08-05T09:51:25.05Z</time>
      </trkpt>
      <trkpt lat="42.5505" lon="2.40231">
        <ele>766.6</ele>
        <time>2018-08-05T09:51:29.05Z</time>
      </trkpt>
      <trkpt lat="42.55051" lon="2.40214">
        <ele>764.6</ele>
        <time>2018-08-05T09:51:33.05Z</time>
      </trkpt>
      <trkpt lat="42.5505" lon="2.40199">
        <ele>763.2</ele>
        <time>2018-08-05T09:51:37.05Z</time>
      </trkpt>
      <trkpt lat="42.55047" lon="2.40182">
        <ele>762</ele>
        <time>2018-08-05T09:51:41.05Z</time>
      </trkpt>
      <trkpt lat="42.55044" lon="2.40167">
        <ele>761.1</ele>
        <time>2018-08-05T09:51:45.05Z</time>
      </trkpt>
      <trkpt lat="42.55037" lon="2.40152">
        <ele>761.2</ele>
        <time>2018-08-05T09:51:50.05Z</time>
      </trkpt>
      <trkpt lat="42.55028" lon="2.40141">
        <ele>762.2</ele>
        <time>2018-08-05T09:51:54.05Z</time>
      </trkpt>
      <trkpt lat="42.55025" lon="2.40127">
        <ele>761.8</ele>
        <time>2018-08-05T09:51:57.05Z</time>
      </trkpt>
      <trkpt lat="42.5503" lon="2.40112">
        <ele>759.4</ele>
        <time>2018-08-05T09:52:00.05Z</time>
      </trkpt>
      <trkpt lat="42.55037" lon="2.40101">
        <ele>756.8</ele>
        <time>2018-08-05T09:52:03.05Z</time>
      </trkpt>
      <trkpt lat="42.55046" lon="2.40088">
        <ele>753.3</ele>
        <time>2018-08-05T09:52:07.05Z</time>
      </trkpt>
      <trkpt lat="42.55051" lon="2.40073">
        <ele>750.3</ele>
        <time>2018-08-05T09:52:11.05Z</time>
      </trkpt>
      <trkpt lat="42.5505" lon="2.40058">
        <ele>748.9</ele>
        <time>2018-08-05T09:52:15.05Z</time>
      </trkpt>
      <trkpt lat="42.5505" lon="2.40044">
        <ele>747.3</ele>
        <time>2018-08-05T09:52:19.05Z</time>
      </trkpt>
      <trkpt lat="42.5505" lon="2.40031">
        <ele>745.8</ele>
        <time>2018-08-05T09:52:22.05Z</time>
      </trkpt>
      <trkpt lat="42.5505" lon="2.40014">
        <ele>743.8</ele>
        <time>2018-08-05T09:52:26.05Z</time>
      </trkpt>
      <trkpt lat="42.55051" lon="2.4">
        <ele>741.9</ele>
        <time>2018-08-05T09:52:29.05Z</time>
      </trkpt>
      <trkpt lat="42.55052" lon="2.39984">
        <ele>739.9</ele>
        <time>2018-08-05T09:52:33.05Z</time>
      </trkpt>
      <trkpt lat="42.55053" lon="2.39968">
        <ele>737.9</ele>
        <time>2018-08-05T09:52:37.05Z</time>
      </trkpt>
      <trkpt lat="42.55055" lon="2.39954">
        <ele>736</ele>
        <time>2018-08-05T09:52:40.05Z</time>
      </trkpt>
      <trkpt lat="42.55057" lon="2.39938">
        <ele>734</ele>
        <time>2018-08-05T09:52:44.05Z</time>
      </trkpt>
      <trkpt lat="42.55057" lon="2.39924">
        <ele>732.5</ele>
        <time>2018-08-05T09:52:48.05Z</time>
      </trkpt>
      <trkpt lat="42.55057" lon="2.39909">
        <ele>731.1</ele>
        <time>2018-08-05T09:52:52.05Z</time>
      </trkpt>
      <trkpt lat="42.55058" lon="2.39892">
        <ele>729.4</ele>
        <time>2018-08-05T09:52:56.05Z</time>
      </trkpt>
      <trkpt lat="42.55057" lon="2.39876">
        <ele>728</ele>
        <time>2018-08-05T09:53:00.05Z</time>
      </trkpt>
      <trkpt lat="42.55057" lon="2.39862">
        <ele>726.6</ele>
        <time>2018-08-05T09:53:03.05Z</time>
      </trkpt>
      <trkpt lat="42.55057" lon="2.39847">
        <ele>725.2</ele>
        <time>2018-08-05T09:53:06.05Z</time>
      </trkpt>
      <trkpt lat="42.55056" lon="2.39833">
        <ele>724</ele>
        <time>2018-08-05T09:53:09.05Z</time>
      </trkpt>
      <trkpt lat="42.55053" lon="2.39817">
        <ele>722.9</ele>
        <time>2018-08-05T09:53:13.05Z</time>
      </trkpt>
      <trkpt lat="42.55052" lon="2.39803">
        <ele>721.9</ele>
        <time>2018-08-05T09:53:16.05Z</time>
      </trkpt>
      <trkpt lat="42.55051" lon="2.39787">
        <ele>720.7</ele>
        <time>2018-08-05T09:53:20.05Z</time>
      </trkpt>
      <trkpt lat="42.55052" lon="2.39769">
        <ele>719.3</ele>
        <time>2018-08-05T09:53:24.05Z</time>
      </trkpt>
      <trkpt lat="42.55054" lon="2.39753">
        <ele>718</ele>
        <time>2018-08-05T09:53:28.05Z</time>
      </trkpt>
      <trkpt lat="42.55055" lon="2.39736">
        <ele>716.4</ele>
        <time>2018-08-05T09:53:32.05Z</time>
      </trkpt>
      <trkpt lat="42.55057" lon="2.39722">
        <ele>714.9</ele>
        <time>2018-08-05T09:53:35.05Z</time>
      </trkpt>
      <trkpt lat="42.5506" lon="2.39707">
        <ele>713.2</ele>
        <time>2018-08-05T09:53:39.05Z</time>
      </trkpt>
      <trkpt lat="42.55061" lon="2.39692">
        <ele>711.6</ele>
        <time>2018-08-05T09:53:43.05Z</time>
      </trkpt>
      <trkpt lat="42.55063" lon="2.39675">
        <ele>709.8</ele>
        <time>2018-08-05T09:53:47.05Z</time>
      </trkpt>
      <trkpt lat="42.55064" lon="2.39657">
        <ele>708.4</ele>
        <time>2018-08-05T09:53:51.05Z</time>
      </trkpt>
      <trkpt lat="42.55067" lon="2.39642">
        <ele>707.5</ele>
        <time>2018-08-05T09:53:55.05Z</time>
      </trkpt>
      <trkpt lat="42.55073" lon="2.39629">
        <ele>706.5</ele>
        <time>2018-08-05T09:53:59.05Z</time>
      </trkpt>
      <trkpt lat="42.55081" lon="2.3962">
        <ele>705.5</ele>
        <time>2018-08-05T09:54:03.05Z</time>
      </trkpt>
      <trkpt lat="42.55088" lon="2.39607">
        <ele>704.7</ele>
        <time>2018-08-05T09:54:08.05Z</time>
      </trkpt>
      <trkpt lat="42.5509" lon="2.39592">
        <ele>704</ele>
        <time>2018-08-05T09:54:12.05Z</time>
      </trkpt>
      <trkpt lat="42.55094" lon="2.3958">
        <ele>703.3</ele>
        <time>2018-08-05T09:54:15.05Z</time>
      </trkpt>
      <trkpt lat="42.55098" lon="2.39566">
        <ele>702.4</ele>
        <time>2018-08-05T09:54:18.05Z</time>
      </trkpt>
      <trkpt lat="42.551" lon="2.39552">
        <ele>701.5</ele>
        <time>2018-08-05T09:54:21.05Z</time>
      </trkpt>
      <trkpt lat="42.55095" lon="2.3954">
        <ele>701.2</ele>
        <time>2018-08-05T09:54:25.05Z</time>
      </trkpt>
      <trkpt lat="42.55089" lon="2.39526">
        <ele>700.9</ele>
        <time>2018-08-05T09:54:29.05Z</time>
      </trkpt>
      <trkpt lat="42.55085" lon="2.39511">
        <ele>700.4</ele>
        <time>2018-08-05T09:54:33.05Z</time>
      </trkpt>
      <trkpt lat="42.55081" lon="2.39496">
        <ele>699.8</ele>
        <time>2018-08-05T09:54:37.05Z</time>
      </trkpt>
      <trkpt lat="42.5508" lon="2.39483">
        <ele>698.9</ele>
        <time>2018-08-05T09:54:40.05Z</time>
      </trkpt>
      <trkpt lat="42.55079" lon="2.39467">
        <ele>697.8</ele>
        <time>2018-08-05T09:54:44.05Z</time>
      </trkpt>
      <trkpt lat="42.55079" lon="2.39451">
        <ele>696.7</ele>
        <time>2018-08-05T09:54:49.05Z</time>
      </trkpt>
      <trkpt lat="42.55072" lon="2.39438">
        <ele>696.1</ele>
        <time>2018-08-05T09:54:53.05Z</time>
      </trkpt>
      <trkpt lat="42.55062" lon="2.39433">
        <ele>696.3</ele>
        <time>2018-08-05T09:54:56.05Z</time>
      </trkpt>
      <trkpt lat="42.55052" lon="2.3943">
        <ele>696.7</ele>
        <time>2018-08-05T09:55:00.05Z</time>
      </trkpt>
      <trkpt lat="42.55049" lon="2.39416">
        <ele>696</ele>
        <time>2018-08-05T09:55:05.05Z</time>
      </trkpt>
      <trkpt lat="42.55053" lon="2.39403">
        <ele>695.1</ele>
        <time>2018-08-05T09:55:08.05Z</time>
      </trkpt>
      <trkpt lat="42.55062" lon="2.39396">
        <ele>694.1</ele>
        <time>2018-08-05T09:55:12.05Z</time>
      </trkpt>
      <trkpt lat="42.55071" lon="2.39388">
        <ele>692.9</ele>
        <time>2018-08-05T09:55:16.05Z</time>
      </trkpt>
      <trkpt lat="42.55079" lon="2.39379">
        <ele>691.7</ele>
        <time>2018-08-05T09:55:20.05Z</time>
      </trkpt>
      <trkpt lat="42.55088" lon="2.39369">
        <ele>690.2</ele>
        <time>2018-08-05T09:55:24.05Z</time>
      </trkpt>
      <trkpt lat="42.55088" lon="2.39356">
        <ele>689.2</ele>
        <time>2018-08-05T09:55:30.05Z</time>
      </trkpt>
      <trkpt lat="42.55081" lon="2.39346">
        <ele>689.2</ele>
        <time>2018-08-05T09:55:34.05Z</time>
      </trkpt>
      <trkpt lat="42.55074" lon="2.39336">
        <ele>689.3</ele>
        <time>2018-08-05T09:55:38.05Z</time>
      </trkpt>
      <trkpt lat="42.55066" lon="2.39326">
        <ele>689.7</ele>
        <time>2018-08-05T09:55:42.05Z</time>
      </trkpt>
      <trkpt lat="42.5506" lon="2.39315">
        <ele>689.9</ele>
        <time>2018-08-05T09:55:46.05Z</time>
      </trkpt>
      <trkpt lat="42.55057" lon="2.39299">
        <ele>689.4</ele>
        <time>2018-08-05T09:55:51.05Z</time>
      </trkpt>
      <trkpt lat="42.55056" lon="2.39284">
        <ele>688.7</ele>
        <time>2018-08-05T09:55:57.05Z</time>
      </trkpt>
      <trkpt lat="42.55054" lon="2.39271">
        <ele>688.3</ele>
        <time>2018-08-05T09:56:03.05Z</time>
      </trkpt>
      <trkpt lat="42.5505" lon="2.39257">
        <ele>688</ele>
        <time>2018-08-05T09:56:10.05Z</time>
      </trkpt>
      <trkpt lat="42.55042" lon="2.39249">
        <ele>688.4</ele>
        <time>2018-08-05T09:56:16.05Z</time>
      </trkpt>
      <trkpt lat="42.55036" lon="2.39237">
        <ele>688.5</ele>
        <time>2018-08-05T09:56:24.05Z</time>
      </trkpt>
      <trkpt lat="42.55027" lon="2.39227">
        <ele>689</ele>
        <time>2018-08-05T09:56:29.05Z</time>
      </trkpt>
      <trkpt lat="42.55018" lon="2.39216">
        <ele>689.3</ele>
        <time>2018-08-05T09:56:34.05Z</time>
      </trkpt>
      <trkpt lat="42.55008" lon="2.39206">
        <ele>689.6</ele>
        <time>2018-08-05T09:56:39.05Z</time>
      </trkpt>
      <trkpt lat="42.54998" lon="2.39201">
        <ele>690.2</ele>
        <time>2018-08-05T09:56:44.05Z</time>
      </trkpt>
      <trkpt lat="42.54986" lon="2.39196">
        <ele>690.8</ele>
        <time>2018-08-05T09:56:49.05Z</time>
      </trkpt>
      <trkpt lat="42.54977" lon="2.39189">
        <ele>691.2</ele>
        <time>2018-08-05T09:56:53.05Z</time>
      </trkpt>
      <trkpt lat="42.54969" lon="2.3918">
        <ele>691.5</ele>
        <time>2018-08-05T09:56:58.05Z</time>
      </trkpt>
      <trkpt lat="42.54962" lon="2.39175">
        <ele>691.9</ele>
        <time>2018-08-05T09:57:03.05Z</time>
      </trkpt>
      <trkpt lat="42.54955" lon="2.39164">
        <ele>692.2</ele>
        <time>2018-08-05T09:57:12.05Z</time>
      </trkpt>
      <trkpt lat="42.54949" lon="2.39152">
        <ele>692</ele>
        <time>2018-08-05T09:57:19.05Z</time>
      </trkpt>
      <trkpt lat="42.54941" lon="2.39141">
        <ele>692.1</ele>
        <time>2018-08-05T09:57:26.05Z</time>
      </trkpt>
      <trkpt lat="42.54935" lon="2.3913">
        <ele>692</ele>
        <time>2018-08-05T09:57:33.05Z</time>
      </trkpt>
      <trkpt lat="42.54928" lon="2.39117">
        <ele>691.9</ele>
        <time>2018-08-05T09:57:39.05Z</time>
      </trkpt>
      <trkpt lat="42.54922" lon="2.39105">
        <ele>691.8</ele>
        <time>2018-08-05T09:57:43.05Z</time>
      </trkpt>
      <trkpt lat="42.5492" lon="2.39089">
        <ele>691</ele>
        <time>2018-08-05T09:57:47.05Z</time>
      </trkpt>
      <trkpt lat="42.54918" lon="2.39074">
        <ele>690.5</ele>
        <time>2018-08-05T09:57:51.05Z</time>
      </trkpt>
      <trkpt lat="42.54914" lon="2.39058">
        <ele>689.9</ele>
        <time>2018-08-05T09:57:55.05Z</time>
      </trkpt>
      <trkpt lat="42.54905" lon="2.39051">
        <ele>688.8</ele>
        <time>2018-08-05T09:57:59.05Z</time>
      </trkpt>
      <trkpt lat="42.54893" lon="2.3905">
        <ele>687.6</ele>
        <time>2018-08-05T09:58:03.05Z</time>
      </trkpt>
      <trkpt lat="42.54883" lon="2.39051">
        <ele>686.8</ele>
        <time>2018-08-05T09:58:07.05Z</time>
      </trkpt>
      <trkpt lat="42.54872" lon="2.39055">
        <ele>686</ele>
        <time>2018-08-05T09:58:11.05Z</time>
      </trkpt>
      <trkpt lat="42.54862" lon="2.39058">
        <ele>685.4</ele>
        <time>2018-08-05T09:58:15.05Z</time>
      </trkpt>
      <trkpt lat="42.54853" lon="2.39064">
        <ele>685</ele>
        <time>2018-08-05T09:58:18.05Z</time>
      </trkpt>
      <trkpt lat="42.54842" lon="2.39069">
        <ele>684.5</ele>
        <time>2018-08-05T09:58:22.05Z</time>
      </trkpt>
      <trkpt lat="42.54831" lon="2.39074">
        <ele>683.9</ele>
        <time>2018-08-05T09:58:26.05Z</time>
      </trkpt>
      <trkpt lat="42.5482" lon="2.3908">
        <ele>683.1</ele>
        <time>2018-08-05T09:58:30.05Z</time>
      </trkpt>
      <trkpt lat="42.5481" lon="2.39087">
        <ele>682.9</ele>
        <time>2018-08-05T09:58:34.05Z</time>
      </trkpt>
      <trkpt lat="42.54799" lon="2.39092">
        <ele>682.6</ele>
        <time>2018-08-05T09:58:38.05Z</time>
      </trkpt>
      <trkpt lat="42.5479" lon="2.39099">
        <ele>682.9</ele>
        <time>2018-08-05T09:58:41.05Z</time>
      </trkpt>
      <trkpt lat="42.54781" lon="2.39104">
        <ele>682.9</ele>
        <time>2018-08-05T09:58:44.05Z</time>
      </trkpt>
      <trkpt lat="42.54768" lon="2.39107">
        <ele>682.1</ele>
        <time>2018-08-05T09:58:48.05Z</time>
      </trkpt>
      <trkpt lat="42.54755" lon="2.39107">
        <ele>680.7</ele>
        <time>2018-08-05T09:58:52.05Z</time>
      </trkpt>
      <trkpt lat="42.54743" lon="2.39108">
        <ele>680</ele>
        <time>2018-08-05T09:58:55.05Z</time>
      </trkpt>
      <trkpt lat="42.54732" lon="2.3911">
        <ele>680</ele>
        <time>2018-08-05T09:58:58.05Z</time>
      </trkpt>
      <trkpt lat="42.54721" lon="2.39111">
        <ele>679.7</ele>
        <time>2018-08-05T09:59:01.05Z</time>
      </trkpt>
      <trkpt lat="42.54711" lon="2.39108">
        <ele>678.6</ele>
        <time>2018-08-05T09:59:04.05Z</time>
      </trkpt>
      <trkpt lat="42.54699" lon="2.39108">
        <ele>678.1</ele>
        <time>2018-08-05T09:59:07.05Z</time>
      </trkpt>
      <trkpt lat="42.54689" lon="2.39109">
        <ele>677.9</ele>
        <time>2018-08-05T09:59:10.05Z</time>
      </trkpt>
      <trkpt lat="42.54679" lon="2.3911">
        <ele>677.7</ele>
        <time>2018-08-05T09:59:13.05Z</time>
      </trkpt>
      <trkpt lat="42.54668" lon="2.39104">
        <ele>676</ele>
        <time>2018-08-05T09:59:17.05Z</time>
      </trkpt>
      <trkpt lat="42.54656" lon="2.391">
        <ele>675.2</ele>
        <time>2018-08-05T09:59:20.05Z</time>
      </trkpt>
      <trkpt lat="42.54644" lon="2.39093">
        <ele>673.6</ele>
        <time>2018-08-05T09:59:23.05Z</time>
      </trkpt>
      <trkpt lat="42.54636" lon="2.39084">
        <ele>671.4</ele>
        <time>2018-08-05T09:59:26.05Z</time>
      </trkpt>
      <trkpt lat="42.54637" lon="2.39064">
        <ele>669.5</ele>
        <time>2018-08-05T09:59:30.05Z</time>
      </trkpt>
      <trkpt lat="42.54644" lon="2.39047">
        <ele>668.2</ele>
        <time>2018-08-05T09:59:33.05Z</time>
      </trkpt>
      <trkpt lat="42.54651" lon="2.39035">
        <ele>667.3</ele>
        <time>2018-08-05T09:59:36.05Z</time>
      </trkpt>
      <trkpt lat="42.54661" lon="2.39026">
        <ele>667</ele>
        <time>2018-08-05T09:59:39.05Z</time>
      </trkpt>
      <trkpt lat="42.5467" lon="2.39016">
        <ele>666.4</ele>
        <time>2018-08-05T09:59:42.05Z</time>
      </trkpt>
      <trkpt lat="42.54678" lon="2.39006">
        <ele>665.8</ele>
        <time>2018-08-05T09:59:45.05Z</time>
      </trkpt>
      <trkpt lat="42.54677" lon="2.38991">
        <ele>664.2</ele>
        <time>2018-08-05T09:59:50.05Z</time>
      </trkpt>
      <trkpt lat="42.54686" lon="2.38981">
        <ele>663.4</ele>
        <time>2018-08-05T09:59:54.05Z</time>
      </trkpt>
      <trkpt lat="42.54695" lon="2.38975">
        <ele>663.2</ele>
        <time>2018-08-05T09:59:58.05Z</time>
      </trkpt>
      <trkpt lat="42.54708" lon="2.38968">
        <ele>663.1</ele>
        <time>2018-08-05T10:00:02.05Z</time>
      </trkpt>
      <trkpt lat="42.54721" lon="2.38962">
        <ele>663.2</ele>
        <time>2018-08-05T10:00:06.05Z</time>
      </trkpt>
      <trkpt lat="42.54733" lon="2.38954">
        <ele>663.3</ele>
        <time>2018-08-05T10:00:09.05Z</time>
      </trkpt>
      <trkpt lat="42.54743" lon="2.38941">
        <ele>663</ele>
        <time>2018-08-05T10:00:12.05Z</time>
      </trkpt>
    </trkseg>
  </trk>
</gpx>